<?xml version="1.0" encoding="UTF-8" standalone="no" ?>
<gpx xmlns="http://www.topografix.com/GPX/1/1" xmlns:xsi="http://www.w3.org/2001/XMLSchema-instance" xsi:schemaLocation="http://www.topografix.com/GPX/1/1 http://www.topografix.com/GPX/1/1/gpx.xsd" version="1.1" creator="VisuGPX - https://www.visugpx.com">
  <metadata>
    <name>P1J1 Aubisque</name>
    <desc><![CDATA[WE S3C Dans les Pyrenées. Jour 1 : Aubisque
#Route
#S3C
#Pyrenees]]></desc>
  </metadata>
  <trk>
    <name><![CDATA[P1_J1_Aubisque]]></name>
    <trkseg>
      <trkpt lat="42.9725" lon="-0.19505">
        <ele>866</ele>
        <time>2018-06-24T05:50:39Z</time>
      </trkpt>
      <trkpt lat="42.97276" lon="-0.19456">
        <ele>869</ele>
        <time>2018-06-24T05:54:39Z</time>
      </trkpt>
      <trkpt lat="42.97287" lon="-0.19431">
        <ele>869</ele>
        <time>2018-06-24T05:55:39Z</time>
      </trkpt>
      <trkpt lat="42.97308" lon="-0.19349">
        <ele>871</ele>
        <time>2018-06-24T06:00:39Z</time>
      </trkpt>
      <trkpt lat="42.97337" lon="-0.1929">
        <ele>872</ele>
        <time>2018-06-24T06:08:39Z</time>
      </trkpt>
      <trkpt lat="42.97397" lon="-0.19216">
        <ele>869</ele>
        <time>2018-06-24T06:13:39Z</time>
      </trkpt>
      <trkpt lat="42.97404" lon="-0.19203">
        <ele>868</ele>
        <time>2018-06-24T06:15:39Z</time>
      </trkpt>
      <trkpt lat="42.97447" lon="-0.19105">
        <ele>866</ele>
        <time>2018-06-24T06:16:39Z</time>
      </trkpt>
      <trkpt lat="42.97451" lon="-0.19092">
        <ele>866</ele>
        <time>2018-06-24T06:17:39Z</time>
      </trkpt>
      <trkpt lat="42.9746" lon="-0.19036">
        <ele>863</ele>
        <time>2018-06-24T06:22:39Z</time>
      </trkpt>
      <trkpt lat="42.97469" lon="-0.18993">
        <ele>860</ele>
        <time>2018-06-24T06:24:39Z</time>
      </trkpt>
      <trkpt lat="42.97472" lon="-0.18981">
        <ele>860</ele>
        <time>2018-06-24T06:25:39Z</time>
      </trkpt>
      <trkpt lat="42.97481" lon="-0.18918">
        <ele>856</ele>
        <time>2018-06-24T06:30:39Z</time>
      </trkpt>
      <trkpt lat="42.97456" lon="-0.18809">
        <ele>853</ele>
        <time>2018-06-24T06:35:39Z</time>
      </trkpt>
      <trkpt lat="42.97454" lon="-0.18803">
        <ele>853</ele>
        <time>2018-06-24T06:36:39Z</time>
      </trkpt>
      <trkpt lat="42.9748" lon="-0.1872">
        <ele>850</ele>
        <time>2018-06-24T06:49:39Z</time>
      </trkpt>
      <trkpt lat="42.97497" lon="-0.1866">
        <ele>850</ele>
        <time>2018-06-24T06:56:39Z</time>
      </trkpt>
      <trkpt lat="42.97559" lon="-0.18533">
        <ele>846</ele>
        <time>2018-06-24T07:06:39Z</time>
      </trkpt>
      <trkpt lat="42.97594" lon="-0.18429">
        <ele>845</ele>
        <time>2018-06-24T07:13:39Z</time>
      </trkpt>
      <trkpt lat="42.97657" lon="-0.18237">
        <ele>843</ele>
        <time>2018-06-24T07:24:39Z</time>
      </trkpt>
      <trkpt lat="42.97692" lon="-0.18162">
        <ele>842</ele>
        <time>2018-06-24T07:25:39Z</time>
      </trkpt>
      <trkpt lat="42.97698" lon="-0.18147">
        <ele>842</ele>
        <time>2018-06-24T07:26:39Z</time>
      </trkpt>
      <trkpt lat="42.97747" lon="-0.1803">
        <ele>841</ele>
        <time>2018-06-24T07:33:39Z</time>
      </trkpt>
      <trkpt lat="42.97756" lon="-0.17945">
        <ele>838</ele>
        <time>2018-06-24T07:36:39Z</time>
      </trkpt>
      <trkpt lat="42.97758" lon="-0.17933">
        <ele>838</ele>
        <time>2018-06-24T07:37:39Z</time>
      </trkpt>
      <trkpt lat="42.97789" lon="-0.17771">
        <ele>838</ele>
        <time>2018-06-24T07:43:39Z</time>
      </trkpt>
      <trkpt lat="42.97803" lon="-0.17704">
        <ele>837</ele>
        <time>2018-06-24T07:49:39Z</time>
      </trkpt>
      <trkpt lat="42.97822" lon="-0.17559">
        <ele>832</ele>
        <time>2018-06-24T07:56:39Z</time>
      </trkpt>
      <trkpt lat="42.97822" lon="-0.17399">
        <ele>832</ele>
        <time>2018-06-24T08:01:39Z</time>
      </trkpt>
      <trkpt lat="42.97824" lon="-0.17275">
        <ele>833</ele>
        <time>2018-06-24T08:06:39Z</time>
      </trkpt>
      <trkpt lat="42.97854" lon="-0.17178">
        <ele>830</ele>
        <time>2018-06-24T08:12:39Z</time>
      </trkpt>
      <trkpt lat="42.97877" lon="-0.1713">
        <ele>834</ele>
        <time>2018-06-24T08:14:39Z</time>
      </trkpt>
      <trkpt lat="42.9789" lon="-0.17104">
        <ele>837</ele>
        <time>2018-06-24T08:15:39Z</time>
      </trkpt>
      <trkpt lat="42.97906" lon="-0.16996">
        <ele>840</ele>
        <time>2018-06-24T08:24:39Z</time>
      </trkpt>
      <trkpt lat="42.97946" lon="-0.16907">
        <ele>844</ele>
        <time>2018-06-24T08:32:39Z</time>
      </trkpt>
      <trkpt lat="42.97973" lon="-0.16814">
        <ele>842</ele>
        <time>2018-06-24T08:36:39Z</time>
      </trkpt>
      <trkpt lat="42.97979" lon="-0.16716">
        <ele>839</ele>
        <time>2018-06-24T08:43:39Z</time>
      </trkpt>
      <trkpt lat="42.97976" lon="-0.16676">
        <ele>839</ele>
        <time>2018-06-24T08:44:39Z</time>
      </trkpt>
      <trkpt lat="42.97968" lon="-0.16557">
        <ele>834</ele>
        <time>2018-06-24T08:49:39Z</time>
      </trkpt>
      <trkpt lat="42.97967" lon="-0.16501">
        <ele>829</ele>
        <time>2018-06-24T08:53:39Z</time>
      </trkpt>
      <trkpt lat="42.97976" lon="-0.164">
        <ele>825</ele>
        <time>2018-06-24T08:54:39Z</time>
      </trkpt>
      <trkpt lat="42.97977" lon="-0.1639">
        <ele>825</ele>
        <time>2018-06-24T08:55:39Z</time>
      </trkpt>
      <trkpt lat="42.9796" lon="-0.16261">
        <ele>822</ele>
        <time>2018-06-24T09:00:39Z</time>
      </trkpt>
      <trkpt lat="42.97958" lon="-0.16232">
        <ele>821</ele>
        <time>2018-06-24T09:02:39Z</time>
      </trkpt>
      <trkpt lat="42.97962" lon="-0.16167">
        <ele>818</ele>
        <time>2018-06-24T09:04:39Z</time>
      </trkpt>
      <trkpt lat="42.97969" lon="-0.16063">
        <ele>814</ele>
        <time>2018-06-24T09:05:39Z</time>
      </trkpt>
      <trkpt lat="42.9797" lon="-0.16058">
        <ele>814</ele>
        <time>2018-06-24T09:06:39Z</time>
      </trkpt>
      <trkpt lat="42.97975" lon="-0.15987">
        <ele>810</ele>
        <time>2018-06-24T09:07:39Z</time>
      </trkpt>
      <trkpt lat="42.9798" lon="-0.15954">
        <ele>808</ele>
        <time>2018-06-24T09:09:39Z</time>
      </trkpt>
      <trkpt lat="42.97993" lon="-0.15902">
        <ele>805</ele>
        <time>2018-06-24T09:11:39Z</time>
      </trkpt>
      <trkpt lat="42.98005" lon="-0.15853">
        <ele>802</ele>
        <time>2018-06-24T09:13:39Z</time>
      </trkpt>
      <trkpt lat="42.98015" lon="-0.15801">
        <ele>797</ele>
        <time>2018-06-24T09:14:39Z</time>
      </trkpt>
      <trkpt lat="42.98021" lon="-0.1577">
        <ele>794</ele>
        <time>2018-06-24T09:15:39Z</time>
      </trkpt>
      <trkpt lat="42.98049" lon="-0.15644">
        <ele>786</ele>
        <time>2018-06-24T09:16:39Z</time>
      </trkpt>
      <trkpt lat="42.98051" lon="-0.15633">
        <ele>786</ele>
        <time>2018-06-24T09:17:39Z</time>
      </trkpt>
      <trkpt lat="42.98081" lon="-0.15493">
        <ele>782</ele>
        <time>2018-06-24T09:18:39Z</time>
      </trkpt>
      <trkpt lat="42.9809" lon="-0.15457">
        <ele>779</ele>
        <time>2018-06-24T09:19:39Z</time>
      </trkpt>
      <trkpt lat="42.98139" lon="-0.15356">
        <ele>776</ele>
        <time>2018-06-24T09:23:39Z</time>
      </trkpt>
      <trkpt lat="42.98236" lon="-0.15178">
        <ele>771</ele>
        <time>2018-06-24T09:28:39Z</time>
      </trkpt>
      <trkpt lat="42.98276" lon="-0.15027">
        <ele>764</ele>
        <time>2018-06-24T09:31:39Z</time>
      </trkpt>
      <trkpt lat="42.98294" lon="-0.14959">
        <ele>762</ele>
        <time>2018-06-24T09:33:39Z</time>
      </trkpt>
      <trkpt lat="42.98335" lon="-0.14859">
        <ele>763</ele>
        <time>2018-06-24T09:36:39Z</time>
      </trkpt>
      <trkpt lat="42.98359" lon="-0.14709">
        <ele>760</ele>
        <time>2018-06-24T09:40:39Z</time>
      </trkpt>
      <trkpt lat="42.9837" lon="-0.1462">
        <ele>759</ele>
        <time>2018-06-24T09:44:39Z</time>
      </trkpt>
      <trkpt lat="42.98384" lon="-0.14587">
        <ele>762</ele>
        <time>2018-06-24T09:46:39Z</time>
      </trkpt>
      <trkpt lat="42.98438" lon="-0.14506">
        <ele>765</ele>
        <time>2018-06-24T09:48:39Z</time>
      </trkpt>
      <trkpt lat="42.98461" lon="-0.14472">
        <ele>762</ele>
        <time>2018-06-24T09:50:39Z</time>
      </trkpt>
      <trkpt lat="42.98472" lon="-0.14475">
        <ele>764</ele>
        <time>2018-06-24T09:53:39Z</time>
      </trkpt>
      <trkpt lat="42.98529" lon="-0.14475">
        <ele>772</ele>
        <time>2018-06-24T09:54:39Z</time>
      </trkpt>
      <trkpt lat="42.98538" lon="-0.14474">
        <ele>774</ele>
        <time>2018-06-24T09:55:39Z</time>
      </trkpt>
      <trkpt lat="42.98547" lon="-0.1447">
        <ele>774</ele>
        <time>2018-06-24T09:56:39Z</time>
      </trkpt>
      <trkpt lat="42.98588" lon="-0.14447">
        <ele>777</ele>
        <time>2018-06-24T09:58:39Z</time>
      </trkpt>
      <trkpt lat="42.98614" lon="-0.14439">
        <ele>781</ele>
        <time>2018-06-24T09:59:39Z</time>
      </trkpt>
      <trkpt lat="42.9864" lon="-0.14432">
        <ele>784</ele>
        <time>2018-06-24T10:00:39Z</time>
      </trkpt>
      <trkpt lat="42.9866" lon="-0.14417">
        <ele>786</ele>
        <time>2018-06-24T10:03:39Z</time>
      </trkpt>
      <trkpt lat="42.98674" lon="-0.14333">
        <ele>786</ele>
        <time>2018-06-24T10:10:39Z</time>
      </trkpt>
      <trkpt lat="42.98725" lon="-0.14307">
        <ele>789</ele>
        <time>2018-06-24T10:18:39Z</time>
      </trkpt>
      <trkpt lat="42.98786" lon="-0.14222">
        <ele>792</ele>
        <time>2018-06-24T10:26:39Z</time>
      </trkpt>
      <trkpt lat="42.98821" lon="-0.14186">
        <ele>794</ele>
        <time>2018-06-24T10:32:39Z</time>
      </trkpt>
      <trkpt lat="42.98834" lon="-0.1423">
        <ele>798</ele>
        <time>2018-06-24T10:41:39Z</time>
      </trkpt>
      <trkpt lat="42.9883" lon="-0.14278">
        <ele>801</ele>
        <time>2018-06-24T10:42:39Z</time>
      </trkpt>
      <trkpt lat="42.98826" lon="-0.14316">
        <ele>804</ele>
        <time>2018-06-24T10:43:39Z</time>
      </trkpt>
      <trkpt lat="42.98826" lon="-0.1432">
        <ele>804</ele>
        <time>2018-06-24T10:44:39Z</time>
      </trkpt>
      <trkpt lat="42.98875" lon="-0.14289">
        <ele>808</ele>
        <time>2018-06-24T10:55:39Z</time>
      </trkpt>
      <trkpt lat="42.989" lon="-0.14248">
        <ele>810</ele>
        <time>2018-06-24T11:01:39Z</time>
      </trkpt>
      <trkpt lat="42.98942" lon="-0.14255">
        <ele>817</ele>
        <time>2018-06-24T11:03:39Z</time>
      </trkpt>
      <trkpt lat="42.98984" lon="-0.1425">
        <ele>822</ele>
        <time>2018-06-24T11:09:39Z</time>
      </trkpt>
      <trkpt lat="42.98987" lon="-0.14248">
        <ele>822</ele>
        <time>2018-06-24T11:10:39Z</time>
      </trkpt>
      <trkpt lat="42.99045" lon="-0.14172">
        <ele>826</ele>
        <time>2018-06-24T11:18:39Z</time>
      </trkpt>
      <trkpt lat="42.99051" lon="-0.14166">
        <ele>826</ele>
        <time>2018-06-24T11:19:39Z</time>
      </trkpt>
      <trkpt lat="42.99122" lon="-0.1408">
        <ele>827</ele>
        <time>2018-06-24T11:23:39Z</time>
      </trkpt>
      <trkpt lat="42.99145" lon="-0.14078">
        <ele>830</ele>
        <time>2018-06-24T11:25:39Z</time>
      </trkpt>
      <trkpt lat="42.99182" lon="-0.14073">
        <ele>833</ele>
        <time>2018-06-24T11:27:39Z</time>
      </trkpt>
      <trkpt lat="42.99219" lon="-0.14059">
        <ele>836</ele>
        <time>2018-06-24T11:29:39Z</time>
      </trkpt>
      <trkpt lat="42.99264" lon="-0.14037">
        <ele>839</ele>
        <time>2018-06-24T11:31:39Z</time>
      </trkpt>
      <trkpt lat="42.99285" lon="-0.14023">
        <ele>842</ele>
        <time>2018-06-24T11:33:39Z</time>
      </trkpt>
      <trkpt lat="42.99289" lon="-0.1402">
        <ele>842</ele>
        <time>2018-06-24T11:34:39Z</time>
      </trkpt>
      <trkpt lat="42.9933" lon="-0.13976">
        <ele>845</ele>
        <time>2018-06-24T11:39:39Z</time>
      </trkpt>
      <trkpt lat="42.99342" lon="-0.13968">
        <ele>849</ele>
        <time>2018-06-24T11:41:39Z</time>
      </trkpt>
      <trkpt lat="42.9936" lon="-0.13957">
        <ele>857</ele>
        <time>2018-06-24T11:42:39Z</time>
      </trkpt>
      <trkpt lat="42.99373" lon="-0.13905">
        <ele>856</ele>
        <time>2018-06-24T11:49:39Z</time>
      </trkpt>
      <trkpt lat="42.99397" lon="-0.13836">
        <ele>861</ele>
        <time>2018-06-24T11:52:39Z</time>
      </trkpt>
      <trkpt lat="42.99414" lon="-0.13826">
        <ele>866</ele>
        <time>2018-06-24T11:54:39Z</time>
      </trkpt>
      <trkpt lat="42.99422" lon="-0.13819">
        <ele>869</ele>
        <time>2018-06-24T11:55:39Z</time>
      </trkpt>
      <trkpt lat="42.99417" lon="-0.13768">
        <ele>869</ele>
        <time>2018-06-24T12:03:39Z</time>
      </trkpt>
      <trkpt lat="42.99412" lon="-0.13662">
        <ele>869</ele>
        <time>2018-06-24T12:07:39Z</time>
      </trkpt>
      <trkpt lat="42.99427" lon="-0.1359">
        <ele>874</ele>
        <time>2018-06-24T12:10:39Z</time>
      </trkpt>
      <trkpt lat="42.99458" lon="-0.13548">
        <ele>880</ele>
        <time>2018-06-24T12:13:39Z</time>
      </trkpt>
      <trkpt lat="42.9947" lon="-0.13542">
        <ele>883</ele>
        <time>2018-06-24T12:15:39Z</time>
      </trkpt>
      <trkpt lat="42.99481" lon="-0.13532">
        <ele>886</ele>
        <time>2018-06-24T12:17:39Z</time>
      </trkpt>
      <trkpt lat="42.99539" lon="-0.13445">
        <ele>891</ele>
        <time>2018-06-24T12:20:39Z</time>
      </trkpt>
      <trkpt lat="42.99544" lon="-0.13435">
        <ele>891</ele>
        <time>2018-06-24T12:21:39Z</time>
      </trkpt>
      <trkpt lat="42.99553" lon="-0.13398">
        <ele>885</ele>
        <time>2018-06-24T12:24:39Z</time>
      </trkpt>
      <trkpt lat="42.99566" lon="-0.13366">
        <ele>882</ele>
        <time>2018-06-24T12:29:39Z</time>
      </trkpt>
      <trkpt lat="42.99579" lon="-0.13361">
        <ele>887</ele>
        <time>2018-06-24T12:31:39Z</time>
      </trkpt>
      <trkpt lat="42.99599" lon="-0.13367">
        <ele>893</ele>
        <time>2018-06-24T12:33:39Z</time>
      </trkpt>
      <trkpt lat="42.99646" lon="-0.13379">
        <ele>905</ele>
        <time>2018-06-24T12:34:39Z</time>
      </trkpt>
      <trkpt lat="42.99713" lon="-0.1339">
        <ele>914</ele>
        <time>2018-06-24T12:35:39Z</time>
      </trkpt>
      <trkpt lat="42.99716" lon="-0.13391">
        <ele>914</ele>
        <time>2018-06-24T12:36:39Z</time>
      </trkpt>
      <trkpt lat="42.99766" lon="-0.13396">
        <ele>918</ele>
        <time>2018-06-24T12:38:39Z</time>
      </trkpt>
      <trkpt lat="42.99825" lon="-0.13389">
        <ele>923</ele>
        <time>2018-06-24T12:39:39Z</time>
      </trkpt>
      <trkpt lat="42.99831" lon="-0.13388">
        <ele>924</ele>
        <time>2018-06-24T12:40:39Z</time>
      </trkpt>
      <trkpt lat="42.99868" lon="-0.13357">
        <ele>928</ele>
        <time>2018-06-24T12:45:39Z</time>
      </trkpt>
      <trkpt lat="42.99903" lon="-0.13325">
        <ele>933</ele>
        <time>2018-06-24T12:46:39Z</time>
      </trkpt>
      <trkpt lat="42.99915" lon="-0.13314">
        <ele>934</ele>
        <time>2018-06-24T12:48:39Z</time>
      </trkpt>
      <trkpt lat="42.99971" lon="-0.13271">
        <ele>935</ele>
        <time>2018-06-24T12:56:39Z</time>
      </trkpt>
      <trkpt lat="42.99976" lon="-0.13254">
        <ele>932</ele>
        <time>2018-06-24T12:58:39Z</time>
      </trkpt>
      <trkpt lat="43.00021" lon="-0.13224">
        <ele>932</ele>
        <time>2018-06-24T13:06:39Z</time>
      </trkpt>
      <trkpt lat="43.00079" lon="-0.13227">
        <ele>935</ele>
        <time>2018-06-24T13:13:39Z</time>
      </trkpt>
      <trkpt lat="43.00155" lon="-0.13224">
        <ele>938</ele>
        <time>2018-06-24T13:21:39Z</time>
      </trkpt>
      <trkpt lat="43.0025" lon="-0.13218">
        <ele>943</ele>
        <time>2018-06-24T13:27:39Z</time>
      </trkpt>
      <trkpt lat="43.0026" lon="-0.13217">
        <ele>943</ele>
        <time>2018-06-24T13:28:39Z</time>
      </trkpt>
      <trkpt lat="43.00275" lon="-0.13267">
        <ele>946</ele>
        <time>2018-06-24T13:36:39Z</time>
      </trkpt>
      <trkpt lat="43.00298" lon="-0.13316">
        <ele>946</ele>
        <time>2018-06-24T13:41:39Z</time>
      </trkpt>
      <trkpt lat="43.00376" lon="-0.13426">
        <ele>946</ele>
        <time>2018-06-24T13:53:39Z</time>
      </trkpt>
      <trkpt lat="43.00405" lon="-0.13437">
        <ele>949</ele>
        <time>2018-06-24T13:57:39Z</time>
      </trkpt>
      <trkpt lat="43.00452" lon="-0.13442">
        <ele>952</ele>
        <time>2018-06-24T14:04:39Z</time>
      </trkpt>
      <trkpt lat="43.00481" lon="-0.13452">
        <ele>955</ele>
        <time>2018-06-24T14:07:39Z</time>
      </trkpt>
      <trkpt lat="43.00496" lon="-0.13461">
        <ele>958</ele>
        <time>2018-06-24T14:09:39Z</time>
      </trkpt>
      <trkpt lat="43.00598" lon="-0.13584">
        <ele>961</ele>
        <time>2018-06-24T14:19:39Z</time>
      </trkpt>
      <trkpt lat="43.00604" lon="-0.13593">
        <ele>964</ele>
        <time>2018-06-24T14:20:39Z</time>
      </trkpt>
      <trkpt lat="43.00637" lon="-0.13624">
        <ele>969</ele>
        <time>2018-06-24T14:22:39Z</time>
      </trkpt>
      <trkpt lat="43.00664" lon="-0.13638">
        <ele>968</ele>
        <time>2018-06-24T14:23:39Z</time>
      </trkpt>
      <trkpt lat="43.00715" lon="-0.13661">
        <ele>965</ele>
        <time>2018-06-24T14:25:39Z</time>
      </trkpt>
      <trkpt lat="43.00753" lon="-0.1369">
        <ele>967</ele>
        <time>2018-06-24T14:27:39Z</time>
      </trkpt>
      <trkpt lat="43.00771" lon="-0.13709">
        <ele>972</ele>
        <time>2018-06-24T14:28:39Z</time>
      </trkpt>
      <trkpt lat="43.00814" lon="-0.13718">
        <ele>970</ele>
        <time>2018-06-24T14:32:39Z</time>
      </trkpt>
      <trkpt lat="43.00835" lon="-0.13709">
        <ele>965</ele>
        <time>2018-06-24T14:33:39Z</time>
      </trkpt>
      <trkpt lat="43.00839" lon="-0.13709">
        <ele>965</ele>
        <time>2018-06-24T14:34:39Z</time>
      </trkpt>
      <trkpt lat="43.00873" lon="-0.13725">
        <ele>962</ele>
        <time>2018-06-24T14:37:39Z</time>
      </trkpt>
      <trkpt lat="43.0088" lon="-0.13733">
        <ele>962</ele>
        <time>2018-06-24T14:38:39Z</time>
      </trkpt>
      <trkpt lat="43.00875" lon="-0.13767">
        <ele>969</ele>
        <time>2018-06-24T14:41:39Z</time>
      </trkpt>
      <trkpt lat="43.00875" lon="-0.13781">
        <ele>972</ele>
        <time>2018-06-24T14:42:39Z</time>
      </trkpt>
      <trkpt lat="43.00882" lon="-0.13802">
        <ele>975</ele>
        <time>2018-06-24T14:44:39Z</time>
      </trkpt>
      <trkpt lat="43.00889" lon="-0.13809">
        <ele>975</ele>
        <time>2018-06-24T14:45:39Z</time>
      </trkpt>
      <trkpt lat="43.00953" lon="-0.13876">
        <ele>980</ele>
        <time>2018-06-24T14:50:39Z</time>
      </trkpt>
      <trkpt lat="43.01052" lon="-0.13947">
        <ele>983</ele>
        <time>2018-06-24T14:54:39Z</time>
      </trkpt>
      <trkpt lat="43.01087" lon="-0.13961">
        <ele>979</ele>
        <time>2018-06-24T14:56:39Z</time>
      </trkpt>
      <trkpt lat="43.01132" lon="-0.13991">
        <ele>974</ele>
        <time>2018-06-24T14:58:39Z</time>
      </trkpt>
      <trkpt lat="43.01166" lon="-0.14018">
        <ele>970</ele>
        <time>2018-06-24T15:00:39Z</time>
      </trkpt>
      <trkpt lat="43.01199" lon="-0.14062">
        <ele>967</ele>
        <time>2018-06-24T15:02:39Z</time>
      </trkpt>
      <trkpt lat="43.0123" lon="-0.14102">
        <ele>963</ele>
        <time>2018-06-24T15:04:39Z</time>
      </trkpt>
      <trkpt lat="43.01245" lon="-0.14128">
        <ele>960</ele>
        <time>2018-06-24T15:06:39Z</time>
      </trkpt>
      <trkpt lat="43.01245" lon="-0.14161">
        <ele>963</ele>
        <time>2018-06-24T15:08:39Z</time>
      </trkpt>
      <trkpt lat="43.01226" lon="-0.14231">
        <ele>972</ele>
        <time>2018-06-24T15:10:39Z</time>
      </trkpt>
      <trkpt lat="43.01235" lon="-0.14349">
        <ele>970</ele>
        <time>2018-06-24T15:14:39Z</time>
      </trkpt>
      <trkpt lat="43.01214" lon="-0.14481">
        <ele>972</ele>
        <time>2018-06-24T15:18:39Z</time>
      </trkpt>
      <trkpt lat="43.01204" lon="-0.14531">
        <ele>972</ele>
        <time>2018-06-24T15:19:39Z</time>
      </trkpt>
      <trkpt lat="43.01183" lon="-0.14594">
        <ele>975</ele>
        <time>2018-06-24T15:20:39Z</time>
      </trkpt>
      <trkpt lat="43.01178" lon="-0.14616">
        <ele>975</ele>
        <time>2018-06-24T15:21:39Z</time>
      </trkpt>
      <trkpt lat="43.01165" lon="-0.14767">
        <ele>976</ele>
        <time>2018-06-24T15:24:39Z</time>
      </trkpt>
      <trkpt lat="43.01102" lon="-0.15005">
        <ele>976</ele>
        <time>2018-06-24T15:29:39Z</time>
      </trkpt>
      <trkpt lat="43.01087" lon="-0.15052">
        <ele>972</ele>
        <time>2018-06-24T15:30:39Z</time>
      </trkpt>
      <trkpt lat="43.01024" lon="-0.15191">
        <ele>973</ele>
        <time>2018-06-24T15:34:39Z</time>
      </trkpt>
      <trkpt lat="43.00989" lon="-0.15365">
        <ele>975</ele>
        <time>2018-06-24T15:41:39Z</time>
      </trkpt>
      <trkpt lat="43.00988" lon="-0.15463">
        <ele>979</ele>
        <time>2018-06-24T15:42:39Z</time>
      </trkpt>
      <trkpt lat="43.00989" lon="-0.15496">
        <ele>981</ele>
        <time>2018-06-24T15:43:39Z</time>
      </trkpt>
      <trkpt lat="43.00995" lon="-0.15575">
        <ele>985</ele>
        <time>2018-06-24T15:44:39Z</time>
      </trkpt>
      <trkpt lat="43.01003" lon="-0.15661">
        <ele>989</ele>
        <time>2018-06-24T15:46:39Z</time>
      </trkpt>
      <trkpt lat="43.01005" lon="-0.15686">
        <ele>989</ele>
        <time>2018-06-24T15:47:39Z</time>
      </trkpt>
      <trkpt lat="43.01026" lon="-0.15881">
        <ele>987</ele>
        <time>2018-06-24T15:53:39Z</time>
      </trkpt>
      <trkpt lat="43.01046" lon="-0.16021">
        <ele>983</ele>
        <time>2018-06-24T16:00:39Z</time>
      </trkpt>
      <trkpt lat="43.0107" lon="-0.1605">
        <ele>980</ele>
        <time>2018-06-24T16:01:39Z</time>
      </trkpt>
      <trkpt lat="43.01121" lon="-0.16091">
        <ele>974</ele>
        <time>2018-06-24T16:05:39Z</time>
      </trkpt>
      <trkpt lat="43.01145" lon="-0.16132">
        <ele>971</ele>
        <time>2018-06-24T16:12:39Z</time>
      </trkpt>
      <trkpt lat="43.01094" lon="-0.1613">
        <ele>975</ele>
        <time>2018-06-24T16:22:39Z</time>
      </trkpt>
      <trkpt lat="43.0104" lon="-0.16185">
        <ele>980</ele>
        <time>2018-06-24T16:28:39Z</time>
      </trkpt>
      <trkpt lat="43.01015" lon="-0.16214">
        <ele>984</ele>
        <time>2018-06-24T16:30:39Z</time>
      </trkpt>
      <trkpt lat="43.00988" lon="-0.16356">
        <ele>986</ele>
        <time>2018-06-24T16:38:39Z</time>
      </trkpt>
      <trkpt lat="43.0098" lon="-0.16567">
        <ele>983</ele>
        <time>2018-06-24T16:43:39Z</time>
      </trkpt>
      <trkpt lat="43.00979" lon="-0.16591">
        <ele>983</ele>
        <time>2018-06-24T16:44:39Z</time>
      </trkpt>
      <trkpt lat="43.01005" lon="-0.16754">
        <ele>982</ele>
        <time>2018-06-24T16:51:39Z</time>
      </trkpt>
      <trkpt lat="43.01042" lon="-0.17007">
        <ele>982</ele>
        <time>2018-06-24T17:01:39Z</time>
      </trkpt>
      <trkpt lat="43.01058" lon="-0.17132">
        <ele>984</ele>
        <time>2018-06-24T17:05:39Z</time>
      </trkpt>
      <trkpt lat="43.01083" lon="-0.17363">
        <ele>983</ele>
        <time>2018-06-24T17:12:39Z</time>
      </trkpt>
      <trkpt lat="43.01086" lon="-0.17526">
        <ele>987</ele>
        <time>2018-06-24T17:15:39Z</time>
      </trkpt>
      <trkpt lat="43.01089" lon="-0.17621">
        <ele>990</ele>
        <time>2018-06-24T17:16:39Z</time>
      </trkpt>
      <trkpt lat="43.01088" lon="-0.17706">
        <ele>993</ele>
        <time>2018-06-24T17:18:39Z</time>
      </trkpt>
      <trkpt lat="43.01069" lon="-0.17963">
        <ele>992</ele>
        <time>2018-06-24T17:25:39Z</time>
      </trkpt>
      <trkpt lat="43.01067" lon="-0.18047">
        <ele>991</ele>
        <time>2018-06-24T17:32:39Z</time>
      </trkpt>
      <trkpt lat="43.01062" lon="-0.1811">
        <ele>995</ele>
        <time>2018-06-24T17:39:39Z</time>
      </trkpt>
      <trkpt lat="43.01061" lon="-0.18113">
        <ele>995</ele>
        <time>2018-06-24T17:40:39Z</time>
      </trkpt>
      <trkpt lat="43.01044" lon="-0.18199">
        <ele>1004</ele>
        <time>2018-06-24T17:41:39Z</time>
      </trkpt>
      <trkpt lat="43.01038" lon="-0.18229">
        <ele>1007</ele>
        <time>2018-06-24T17:42:39Z</time>
      </trkpt>
      <trkpt lat="43.0103" lon="-0.18257">
        <ele>1010</ele>
        <time>2018-06-24T17:43:39Z</time>
      </trkpt>
      <trkpt lat="43.01016" lon="-0.18293">
        <ele>1013</ele>
        <time>2018-06-24T17:44:39Z</time>
      </trkpt>
      <trkpt lat="43.00994" lon="-0.18344">
        <ele>1016</ele>
        <time>2018-06-24T17:46:39Z</time>
      </trkpt>
      <trkpt lat="43.00984" lon="-0.18379">
        <ele>1020</ele>
        <time>2018-06-24T17:47:39Z</time>
      </trkpt>
      <trkpt lat="43.00975" lon="-0.18405">
        <ele>1023</ele>
        <time>2018-06-24T17:48:39Z</time>
      </trkpt>
      <trkpt lat="43.00963" lon="-0.18437">
        <ele>1026</ele>
        <time>2018-06-24T17:49:39Z</time>
      </trkpt>
      <trkpt lat="43.00943" lon="-0.18477">
        <ele>1029</ele>
        <time>2018-06-24T17:51:39Z</time>
      </trkpt>
      <trkpt lat="43.00915" lon="-0.18517">
        <ele>1033</ele>
        <time>2018-06-24T17:54:39Z</time>
      </trkpt>
      <trkpt lat="43.00903" lon="-0.18533">
        <ele>1036</ele>
        <time>2018-06-24T17:55:39Z</time>
      </trkpt>
      <trkpt lat="43.00877" lon="-0.18563">
        <ele>1040</ele>
        <time>2018-06-24T17:57:39Z</time>
      </trkpt>
      <trkpt lat="43.00845" lon="-0.186">
        <ele>1043</ele>
        <time>2018-06-24T17:59:39Z</time>
      </trkpt>
      <trkpt lat="43.00804" lon="-0.18664">
        <ele>1045</ele>
        <time>2018-06-24T18:04:39Z</time>
      </trkpt>
      <trkpt lat="43.00793" lon="-0.18696">
        <ele>1048</ele>
        <time>2018-06-24T18:07:39Z</time>
      </trkpt>
      <trkpt lat="43.00781" lon="-0.18814">
        <ele>1054</ele>
        <time>2018-06-24T18:14:39Z</time>
      </trkpt>
      <trkpt lat="43.00775" lon="-0.1884">
        <ele>1057</ele>
        <time>2018-06-24T18:15:39Z</time>
      </trkpt>
      <trkpt lat="43.00767" lon="-0.18863">
        <ele>1060</ele>
        <time>2018-06-24T18:16:39Z</time>
      </trkpt>
      <trkpt lat="43.0075" lon="-0.18909">
        <ele>1066</ele>
        <time>2018-06-24T18:17:39Z</time>
      </trkpt>
      <trkpt lat="43.00736" lon="-0.18942">
        <ele>1071</ele>
        <time>2018-06-24T18:18:39Z</time>
      </trkpt>
      <trkpt lat="43.0071" lon="-0.19037">
        <ele>1078</ele>
        <time>2018-06-24T18:21:39Z</time>
      </trkpt>
      <trkpt lat="43.00708" lon="-0.1905">
        <ele>1078</ele>
        <time>2018-06-24T18:22:39Z</time>
      </trkpt>
      <trkpt lat="43.00713" lon="-0.19098">
        <ele>1075</ele>
        <time>2018-06-24T18:25:39Z</time>
      </trkpt>
      <trkpt lat="43.00717" lon="-0.19206">
        <ele>1078</ele>
        <time>2018-06-24T18:30:39Z</time>
      </trkpt>
      <trkpt lat="43.00715" lon="-0.19227">
        <ele>1081</ele>
        <time>2018-06-24T18:31:39Z</time>
      </trkpt>
      <trkpt lat="43.00724" lon="-0.19294">
        <ele>1079</ele>
        <time>2018-06-24T18:35:39Z</time>
      </trkpt>
      <trkpt lat="43.00719" lon="-0.19409">
        <ele>1076</ele>
        <time>2018-06-24T18:40:39Z</time>
      </trkpt>
      <trkpt lat="43.00712" lon="-0.19447">
        <ele>1073</ele>
        <time>2018-06-24T18:42:39Z</time>
      </trkpt>
      <trkpt lat="43.00677" lon="-0.19517">
        <ele>1073</ele>
        <time>2018-06-24T18:46:39Z</time>
      </trkpt>
      <trkpt lat="43.00561" lon="-0.19634">
        <ele>1077</ele>
        <time>2018-06-24T18:56:39Z</time>
      </trkpt>
      <trkpt lat="43.00516" lon="-0.19657">
        <ele>1074</ele>
        <time>2018-06-24T18:58:39Z</time>
      </trkpt>
      <trkpt lat="43.00438" lon="-0.19678">
        <ele>1082</ele>
        <time>2018-06-24T19:00:39Z</time>
      </trkpt>
      <trkpt lat="43.00393" lon="-0.19692">
        <ele>1086</ele>
        <time>2018-06-24T19:01:39Z</time>
      </trkpt>
      <trkpt lat="43.00373" lon="-0.197">
        <ele>1087</ele>
        <time>2018-06-24T19:03:39Z</time>
      </trkpt>
      <trkpt lat="43.00368" lon="-0.19726">
        <ele>1089</ele>
        <time>2018-06-24T19:08:39Z</time>
      </trkpt>
      <trkpt lat="43.00406" lon="-0.19752">
        <ele>1089</ele>
        <time>2018-06-24T19:12:39Z</time>
      </trkpt>
      <trkpt lat="43.00431" lon="-0.19761">
        <ele>1092</ele>
        <time>2018-06-24T19:13:39Z</time>
      </trkpt>
      <trkpt lat="43.00487" lon="-0.19785">
        <ele>1095</ele>
        <time>2018-06-24T19:14:39Z</time>
      </trkpt>
      <trkpt lat="43.00523" lon="-0.19802">
        <ele>1094</ele>
        <time>2018-06-24T19:16:39Z</time>
      </trkpt>
      <trkpt lat="43.00555" lon="-0.19814">
        <ele>1089</ele>
        <time>2018-06-24T19:19:39Z</time>
      </trkpt>
      <trkpt lat="43.00584" lon="-0.19865">
        <ele>1091</ele>
        <time>2018-06-24T19:26:39Z</time>
      </trkpt>
      <trkpt lat="43.00588" lon="-0.1991">
        <ele>1098</ele>
        <time>2018-06-24T19:28:39Z</time>
      </trkpt>
      <trkpt lat="43.00587" lon="-0.19955">
        <ele>1101</ele>
        <time>2018-06-24T19:30:39Z</time>
      </trkpt>
      <trkpt lat="43.00583" lon="-0.19995">
        <ele>1105</ele>
        <time>2018-06-24T19:31:39Z</time>
      </trkpt>
      <trkpt lat="43.00578" lon="-0.20029">
        <ele>1110</ele>
        <time>2018-06-24T19:32:39Z</time>
      </trkpt>
      <trkpt lat="43.00582" lon="-0.2011">
        <ele>1111</ele>
        <time>2018-06-24T19:36:39Z</time>
      </trkpt>
      <trkpt lat="43.00564" lon="-0.20213">
        <ele>1117</ele>
        <time>2018-06-24T19:42:39Z</time>
      </trkpt>
      <trkpt lat="43.00551" lon="-0.20232">
        <ele>1120</ele>
        <time>2018-06-24T19:43:39Z</time>
      </trkpt>
      <trkpt lat="43.00539" lon="-0.20243">
        <ele>1123</ele>
        <time>2018-06-24T19:44:39Z</time>
      </trkpt>
      <trkpt lat="43.0053" lon="-0.20248">
        <ele>1126</ele>
        <time>2018-06-24T19:45:39Z</time>
      </trkpt>
      <trkpt lat="43.00511" lon="-0.20251">
        <ele>1132</ele>
        <time>2018-06-24T19:47:39Z</time>
      </trkpt>
      <trkpt lat="43.00499" lon="-0.20255">
        <ele>1136</ele>
        <time>2018-06-24T19:49:39Z</time>
      </trkpt>
      <trkpt lat="43.00501" lon="-0.20279">
        <ele>1136</ele>
        <time>2018-06-24T19:53:39Z</time>
      </trkpt>
      <trkpt lat="43.00516" lon="-0.203">
        <ele>1131</ele>
        <time>2018-06-24T19:55:39Z</time>
      </trkpt>
      <trkpt lat="43.00511" lon="-0.2035">
        <ele>1133</ele>
        <time>2018-06-24T19:59:39Z</time>
      </trkpt>
      <trkpt lat="43.005" lon="-0.20378">
        <ele>1138</ele>
        <time>2018-06-24T20:01:39Z</time>
      </trkpt>
      <trkpt lat="43.00452" lon="-0.20476">
        <ele>1144</ele>
        <time>2018-06-24T20:07:39Z</time>
      </trkpt>
      <trkpt lat="43.00429" lon="-0.2049">
        <ele>1149</ele>
        <time>2018-06-24T20:08:39Z</time>
      </trkpt>
      <trkpt lat="43.00397" lon="-0.20512">
        <ele>1159</ele>
        <time>2018-06-24T20:09:39Z</time>
      </trkpt>
      <trkpt lat="43.00389" lon="-0.20525">
        <ele>1163</ele>
        <time>2018-06-24T20:11:39Z</time>
      </trkpt>
      <trkpt lat="43.00404" lon="-0.20585">
        <ele>1161</ele>
        <time>2018-06-24T20:16:39Z</time>
      </trkpt>
      <trkpt lat="43.00401" lon="-0.20633">
        <ele>1164</ele>
        <time>2018-06-24T20:17:39Z</time>
      </trkpt>
      <trkpt lat="43.00393" lon="-0.20697">
        <ele>1170</ele>
        <time>2018-06-24T20:18:39Z</time>
      </trkpt>
      <trkpt lat="43.00382" lon="-0.20748">
        <ele>1175</ele>
        <time>2018-06-24T20:19:39Z</time>
      </trkpt>
      <trkpt lat="43.00369" lon="-0.20787">
        <ele>1181</ele>
        <time>2018-06-24T20:20:39Z</time>
      </trkpt>
      <trkpt lat="43.00354" lon="-0.20816">
        <ele>1189</ele>
        <time>2018-06-24T20:21:39Z</time>
      </trkpt>
      <trkpt lat="43.00341" lon="-0.20838">
        <ele>1196</ele>
        <time>2018-06-24T20:22:39Z</time>
      </trkpt>
      <trkpt lat="43.00348" lon="-0.20876">
        <ele>1192</ele>
        <time>2018-06-24T20:26:39Z</time>
      </trkpt>
      <trkpt lat="43.00361" lon="-0.2089">
        <ele>1184</ele>
        <time>2018-06-24T20:27:39Z</time>
      </trkpt>
      <trkpt lat="43.00366" lon="-0.20908">
        <ele>1181</ele>
        <time>2018-06-24T20:29:39Z</time>
      </trkpt>
      <trkpt lat="43.00355" lon="-0.2096">
        <ele>1182</ele>
        <time>2018-06-24T20:32:39Z</time>
      </trkpt>
      <trkpt lat="43.00315" lon="-0.21032">
        <ele>1193</ele>
        <time>2018-06-24T20:33:39Z</time>
      </trkpt>
      <trkpt lat="43.00304" lon="-0.21054">
        <ele>1194</ele>
        <time>2018-06-24T20:34:39Z</time>
      </trkpt>
      <trkpt lat="43.00277" lon="-0.21144">
        <ele>1189</ele>
        <time>2018-06-24T20:36:39Z</time>
      </trkpt>
      <trkpt lat="43.00247" lon="-0.2122">
        <ele>1186</ele>
        <time>2018-06-24T20:38:39Z</time>
      </trkpt>
      <trkpt lat="43.00232" lon="-0.21235">
        <ele>1187</ele>
        <time>2018-06-24T20:40:39Z</time>
      </trkpt>
      <trkpt lat="43.00205" lon="-0.21259">
        <ele>1190</ele>
        <time>2018-06-24T20:43:39Z</time>
      </trkpt>
      <trkpt lat="43.00176" lon="-0.21271">
        <ele>1195</ele>
        <time>2018-06-24T20:44:39Z</time>
      </trkpt>
      <trkpt lat="43.0017" lon="-0.21274">
        <ele>1195</ele>
        <time>2018-06-24T20:45:39Z</time>
      </trkpt>
      <trkpt lat="43.00168" lon="-0.21314">
        <ele>1190</ele>
        <time>2018-06-24T20:50:39Z</time>
      </trkpt>
      <trkpt lat="43.0017" lon="-0.2144">
        <ele>1196</ele>
        <time>2018-06-24T20:58:39Z</time>
      </trkpt>
      <trkpt lat="43.00176" lon="-0.21449">
        <ele>1199</ele>
        <time>2018-06-24T21:00:39Z</time>
      </trkpt>
      <trkpt lat="43.00191" lon="-0.21453">
        <ele>1203</ele>
        <time>2018-06-24T21:02:39Z</time>
      </trkpt>
      <trkpt lat="43.00216" lon="-0.21423">
        <ele>1201</ele>
        <time>2018-06-24T21:06:39Z</time>
      </trkpt>
      <trkpt lat="43.00284" lon="-0.21379">
        <ele>1205</ele>
        <time>2018-06-24T21:14:39Z</time>
      </trkpt>
      <trkpt lat="43.00296" lon="-0.21368">
        <ele>1205</ele>
        <time>2018-06-24T21:15:39Z</time>
      </trkpt>
      <trkpt lat="43.00325" lon="-0.21358">
        <ele>1209</ele>
        <time>2018-06-24T21:17:39Z</time>
      </trkpt>
      <trkpt lat="43.00351" lon="-0.21351">
        <ele>1214</ele>
        <time>2018-06-24T21:19:39Z</time>
      </trkpt>
      <trkpt lat="43.00412" lon="-0.21294">
        <ele>1213</ele>
        <time>2018-06-24T21:24:39Z</time>
      </trkpt>
      <trkpt lat="43.00427" lon="-0.21286">
        <ele>1216</ele>
        <time>2018-06-24T21:25:39Z</time>
      </trkpt>
      <trkpt lat="43.00444" lon="-0.21275">
        <ele>1219</ele>
        <time>2018-06-24T21:26:39Z</time>
      </trkpt>
      <trkpt lat="43.00489" lon="-0.21232">
        <ele>1223</ele>
        <time>2018-06-24T21:29:39Z</time>
      </trkpt>
      <trkpt lat="43.00513" lon="-0.21214">
        <ele>1229</ele>
        <time>2018-06-24T21:31:39Z</time>
      </trkpt>
      <trkpt lat="43.00529" lon="-0.21205">
        <ele>1234</ele>
        <time>2018-06-24T21:32:39Z</time>
      </trkpt>
      <trkpt lat="43.00552" lon="-0.21187">
        <ele>1239</ele>
        <time>2018-06-24T21:34:39Z</time>
      </trkpt>
      <trkpt lat="43.00612" lon="-0.21125">
        <ele>1244</ele>
        <time>2018-06-24T21:40:39Z</time>
      </trkpt>
      <trkpt lat="43.00626" lon="-0.21115">
        <ele>1247</ele>
        <time>2018-06-24T21:42:39Z</time>
      </trkpt>
      <trkpt lat="43.00687" lon="-0.21062">
        <ele>1252</ele>
        <time>2018-06-24T21:48:39Z</time>
      </trkpt>
      <trkpt lat="43.00698" lon="-0.21059">
        <ele>1256</ele>
        <time>2018-06-24T21:49:39Z</time>
      </trkpt>
      <trkpt lat="43.00709" lon="-0.21057">
        <ele>1259</ele>
        <time>2018-06-24T21:50:39Z</time>
      </trkpt>
      <trkpt lat="43.00749" lon="-0.21002">
        <ele>1252</ele>
        <time>2018-06-24T21:56:39Z</time>
      </trkpt>
      <trkpt lat="43.00783" lon="-0.20993">
        <ele>1255</ele>
        <time>2018-06-24T22:01:39Z</time>
      </trkpt>
      <trkpt lat="43.00794" lon="-0.21">
        <ele>1259</ele>
        <time>2018-06-24T22:02:39Z</time>
      </trkpt>
      <trkpt lat="43.00803" lon="-0.21004">
        <ele>1262</ele>
        <time>2018-06-24T22:03:39Z</time>
      </trkpt>
      <trkpt lat="43.00816" lon="-0.21007">
        <ele>1265</ele>
        <time>2018-06-24T22:04:39Z</time>
      </trkpt>
      <trkpt lat="43.00854" lon="-0.21022">
        <ele>1265</ele>
        <time>2018-06-24T22:09:39Z</time>
      </trkpt>
      <trkpt lat="43.00861" lon="-0.21046">
        <ele>1268</ele>
        <time>2018-06-24T22:11:39Z</time>
      </trkpt>
      <trkpt lat="43.00868" lon="-0.21087">
        <ele>1272</ele>
        <time>2018-06-24T22:13:39Z</time>
      </trkpt>
      <trkpt lat="43.00871" lon="-0.2112">
        <ele>1277</ele>
        <time>2018-06-24T22:14:39Z</time>
      </trkpt>
      <trkpt lat="43.00873" lon="-0.21158">
        <ele>1283</ele>
        <time>2018-06-24T22:15:39Z</time>
      </trkpt>
      <trkpt lat="43.00877" lon="-0.21185">
        <ele>1287</ele>
        <time>2018-06-24T22:16:39Z</time>
      </trkpt>
      <trkpt lat="43.00895" lon="-0.2124">
        <ele>1291</ele>
        <time>2018-06-24T22:18:39Z</time>
      </trkpt>
      <trkpt lat="43.00902" lon="-0.21273">
        <ele>1294</ele>
        <time>2018-06-24T22:20:39Z</time>
      </trkpt>
      <trkpt lat="43.00903" lon="-0.21337">
        <ele>1305</ele>
        <time>2018-06-24T22:21:39Z</time>
      </trkpt>
      <trkpt lat="43.00904" lon="-0.21364">
        <ele>1310</ele>
        <time>2018-06-24T22:22:39Z</time>
      </trkpt>
      <trkpt lat="43.00915" lon="-0.2141">
        <ele>1313</ele>
        <time>2018-06-24T22:24:39Z</time>
      </trkpt>
      <trkpt lat="43.00925" lon="-0.21463">
        <ele>1321</ele>
        <time>2018-06-24T22:26:39Z</time>
      </trkpt>
      <trkpt lat="43.0095" lon="-0.21478">
        <ele>1319</ele>
        <time>2018-06-24T22:30:39Z</time>
      </trkpt>
      <trkpt lat="43.00963" lon="-0.21479">
        <ele>1316</ele>
        <time>2018-06-24T22:32:39Z</time>
      </trkpt>
      <trkpt lat="43.00969" lon="-0.21484">
        <ele>1316</ele>
        <time>2018-06-24T22:33:39Z</time>
      </trkpt>
      <trkpt lat="43.00982" lon="-0.2151">
        <ele>1320</ele>
        <time>2018-06-24T22:35:39Z</time>
      </trkpt>
      <trkpt lat="43.01021" lon="-0.21557">
        <ele>1325</ele>
        <time>2018-06-24T22:38:39Z</time>
      </trkpt>
      <trkpt lat="43.0104" lon="-0.21584">
        <ele>1328</ele>
        <time>2018-06-24T22:40:39Z</time>
      </trkpt>
      <trkpt lat="43.01061" lon="-0.21608">
        <ele>1331</ele>
        <time>2018-06-24T22:41:39Z</time>
      </trkpt>
      <trkpt lat="43.01065" lon="-0.21611">
        <ele>1331</ele>
        <time>2018-06-24T22:42:39Z</time>
      </trkpt>
      <trkpt lat="43.01084" lon="-0.21632">
        <ele>1334</ele>
        <time>2018-06-24T22:44:39Z</time>
      </trkpt>
      <trkpt lat="43.01121" lon="-0.21632">
        <ele>1339</ele>
        <time>2018-06-24T22:46:39Z</time>
      </trkpt>
      <trkpt lat="43.01173" lon="-0.21619">
        <ele>1343</ele>
        <time>2018-06-24T22:50:39Z</time>
      </trkpt>
      <trkpt lat="43.01172" lon="-0.21636">
        <ele>1347</ele>
        <time>2018-06-24T22:52:39Z</time>
      </trkpt>
      <trkpt lat="43.01135" lon="-0.21672">
        <ele>1351</ele>
        <time>2018-06-24T22:57:39Z</time>
      </trkpt>
      <trkpt lat="43.01095" lon="-0.2173">
        <ele>1358</ele>
        <time>2018-06-24T22:59:39Z</time>
      </trkpt>
      <trkpt lat="43.01087" lon="-0.21734">
        <ele>1357</ele>
        <time>2018-06-24T23:00:39Z</time>
      </trkpt>
      <trkpt lat="43.01053" lon="-0.21727">
        <ele>1360</ele>
        <time>2018-06-24T23:03:39Z</time>
      </trkpt>
      <trkpt lat="43.01043" lon="-0.21723">
        <ele>1360</ele>
        <time>2018-06-24T23:04:39Z</time>
      </trkpt>
      <trkpt lat="43.00977" lon="-0.21687">
        <ele>1362</ele>
        <time>2018-06-24T23:10:39Z</time>
      </trkpt>
      <trkpt lat="43.00955" lon="-0.21689">
        <ele>1365</ele>
        <time>2018-06-24T23:13:39Z</time>
      </trkpt>
      <trkpt lat="43.00952" lon="-0.21698">
        <ele>1368</ele>
        <time>2018-06-24T23:14:39Z</time>
      </trkpt>
      <trkpt lat="43.00952" lon="-0.2171">
        <ele>1371</ele>
        <time>2018-06-24T23:16:39Z</time>
      </trkpt>
      <trkpt lat="43.01005" lon="-0.2177">
        <ele>1375</ele>
        <time>2018-06-24T23:20:39Z</time>
      </trkpt>
      <trkpt lat="43.01073" lon="-0.21826">
        <ele>1376</ele>
        <time>2018-06-24T23:24:39Z</time>
      </trkpt>
      <trkpt lat="43.01145" lon="-0.21877">
        <ele>1375</ele>
        <time>2018-06-24T23:29:39Z</time>
      </trkpt>
      <trkpt lat="43.01189" lon="-0.21915">
        <ele>1380</ele>
        <time>2018-06-24T23:32:39Z</time>
      </trkpt>
      <trkpt lat="43.01238" lon="-0.21953">
        <ele>1380</ele>
        <time>2018-06-24T23:33:39Z</time>
      </trkpt>
      <trkpt lat="43.01252" lon="-0.21968">
        <ele>1377</ele>
        <time>2018-06-24T23:34:39Z</time>
      </trkpt>
      <trkpt lat="43.01284" lon="-0.22006">
        <ele>1372</ele>
        <time>2018-06-24T23:35:39Z</time>
      </trkpt>
      <trkpt lat="43.01329" lon="-0.22063">
        <ele>1365</ele>
        <time>2018-06-24T23:36:39Z</time>
      </trkpt>
      <trkpt lat="43.01354" lon="-0.22092">
        <ele>1353</ele>
        <time>2018-06-24T23:37:39Z</time>
      </trkpt>
      <trkpt lat="43.01366" lon="-0.22097">
        <ele>1350</ele>
        <time>2018-06-24T23:39:39Z</time>
      </trkpt>
      <trkpt lat="43.01377" lon="-0.22095">
        <ele>1350</ele>
        <time>2018-06-24T23:40:39Z</time>
      </trkpt>
      <trkpt lat="43.01394" lon="-0.22078">
        <ele>1354</ele>
        <time>2018-06-24T23:42:39Z</time>
      </trkpt>
      <trkpt lat="43.0142" lon="-0.22056">
        <ele>1360</ele>
        <time>2018-06-24T23:43:39Z</time>
      </trkpt>
      <trkpt lat="43.0145" lon="-0.22031">
        <ele>1354</ele>
        <time>2018-06-24T23:44:39Z</time>
      </trkpt>
      <trkpt lat="43.01471" lon="-0.22015">
        <ele>1350</ele>
        <time>2018-06-24T23:45:39Z</time>
      </trkpt>
      <trkpt lat="43.01476" lon="-0.22011">
        <ele>1350</ele>
        <time>2018-06-24T23:46:39Z</time>
      </trkpt>
      <trkpt lat="43.01496" lon="-0.21997">
        <ele>1345</ele>
        <time>2018-06-24T23:47:39Z</time>
      </trkpt>
      <trkpt lat="43.01542" lon="-0.21969">
        <ele>1339</ele>
        <time>2018-06-24T23:49:39Z</time>
      </trkpt>
      <trkpt lat="43.0162" lon="-0.21871">
        <ele>1340</ele>
        <time>2018-06-24T23:54:39Z</time>
      </trkpt>
      <trkpt lat="43.01658" lon="-0.21824">
        <ele>1334</ele>
        <time>2018-06-24T23:58:39Z</time>
      </trkpt>
      <trkpt lat="43.01662" lon="-0.21827">
        <ele>1331</ele>
        <time>2018-06-24T23:59:39Z</time>
      </trkpt>
      <trkpt lat="43.01662" lon="-0.21827">
        <ele>1331</ele>
        <time>2018-06-25T00:00:39Z</time>
      </trkpt>
      <trkpt lat="43.01665" lon="-0.21832">
        <ele>1328</ele>
        <time>2018-06-25T00:01:39Z</time>
      </trkpt>
      <trkpt lat="43.01666" lon="-0.21841">
        <ele>1325</ele>
        <time>2018-06-25T00:02:39Z</time>
      </trkpt>
      <trkpt lat="43.01664" lon="-0.21848">
        <ele>1325</ele>
        <time>2018-06-25T00:03:39Z</time>
      </trkpt>
      <trkpt lat="43.01604" lon="-0.21951">
        <ele>1321</ele>
        <time>2018-06-25T00:07:39Z</time>
      </trkpt>
      <trkpt lat="43.01588" lon="-0.21974">
        <ele>1318</ele>
        <time>2018-06-25T00:08:39Z</time>
      </trkpt>
      <trkpt lat="43.01581" lon="-0.21982">
        <ele>1318</ele>
        <time>2018-06-25T00:09:39Z</time>
      </trkpt>
      <trkpt lat="43.01503" lon="-0.22056">
        <ele>1316</ele>
        <time>2018-06-25T00:11:39Z</time>
      </trkpt>
      <trkpt lat="43.01474" lon="-0.22096">
        <ele>1314</ele>
        <time>2018-06-25T00:13:39Z</time>
      </trkpt>
      <trkpt lat="43.01428" lon="-0.22179">
        <ele>1310</ele>
        <time>2018-06-25T00:16:39Z</time>
      </trkpt>
      <trkpt lat="43.0141" lon="-0.22221">
        <ele>1299</ele>
        <time>2018-06-25T00:17:39Z</time>
      </trkpt>
      <trkpt lat="43.01405" lon="-0.22233">
        <ele>1294</ele>
        <time>2018-06-25T00:18:39Z</time>
      </trkpt>
      <trkpt lat="43.014" lon="-0.22242">
        <ele>1290</ele>
        <time>2018-06-25T00:19:39Z</time>
      </trkpt>
      <trkpt lat="43.01391" lon="-0.22251">
        <ele>1286</ele>
        <time>2018-06-25T00:20:39Z</time>
      </trkpt>
      <trkpt lat="43.01373" lon="-0.22257">
        <ele>1283</ele>
        <time>2018-06-25T00:22:39Z</time>
      </trkpt>
      <trkpt lat="43.01342" lon="-0.22249">
        <ele>1287</ele>
        <time>2018-06-25T00:24:39Z</time>
      </trkpt>
      <trkpt lat="43.01263" lon="-0.22182">
        <ele>1292</ele>
        <time>2018-06-25T00:29:39Z</time>
      </trkpt>
      <trkpt lat="43.01235" lon="-0.22148">
        <ele>1298</ele>
        <time>2018-06-25T00:31:39Z</time>
      </trkpt>
      <trkpt lat="43.01227" lon="-0.22144">
        <ele>1298</ele>
        <time>2018-06-25T00:32:39Z</time>
      </trkpt>
      <trkpt lat="43.01206" lon="-0.22146">
        <ele>1293</ele>
        <time>2018-06-25T00:35:39Z</time>
      </trkpt>
      <trkpt lat="43.01193" lon="-0.22157">
        <ele>1286</ele>
        <time>2018-06-25T00:36:39Z</time>
      </trkpt>
      <trkpt lat="43.01182" lon="-0.22174">
        <ele>1279</ele>
        <time>2018-06-25T00:37:39Z</time>
      </trkpt>
      <trkpt lat="43.01172" lon="-0.22188">
        <ele>1273</ele>
        <time>2018-06-25T00:38:39Z</time>
      </trkpt>
      <trkpt lat="43.01157" lon="-0.22204">
        <ele>1270</ele>
        <time>2018-06-25T00:39:39Z</time>
      </trkpt>
      <trkpt lat="43.0115" lon="-0.22206">
        <ele>1272</ele>
        <time>2018-06-25T00:40:39Z</time>
      </trkpt>
      <trkpt lat="43.0111" lon="-0.22272">
        <ele>1265</ele>
        <time>2018-06-25T00:46:39Z</time>
      </trkpt>
      <trkpt lat="43.01095" lon="-0.22307">
        <ele>1261</ele>
        <time>2018-06-25T00:47:39Z</time>
      </trkpt>
      <trkpt lat="43.01083" lon="-0.22336">
        <ele>1258</ele>
        <time>2018-06-25T00:49:39Z</time>
      </trkpt>
      <trkpt lat="43.01069" lon="-0.22375">
        <ele>1253</ele>
        <time>2018-06-25T00:50:39Z</time>
      </trkpt>
      <trkpt lat="43.01066" lon="-0.22397">
        <ele>1248</ele>
        <time>2018-06-25T00:51:39Z</time>
      </trkpt>
      <trkpt lat="43.01062" lon="-0.22442">
        <ele>1238</ele>
        <time>2018-06-25T00:52:39Z</time>
      </trkpt>
      <trkpt lat="43.01033" lon="-0.22484">
        <ele>1240</ele>
        <time>2018-06-25T00:56:39Z</time>
      </trkpt>
      <trkpt lat="43.0101" lon="-0.22537">
        <ele>1237</ele>
        <time>2018-06-25T01:01:39Z</time>
      </trkpt>
      <trkpt lat="43.00982" lon="-0.22579">
        <ele>1246</ele>
        <time>2018-06-25T01:04:39Z</time>
      </trkpt>
      <trkpt lat="43.0096" lon="-0.22708">
        <ele>1244</ele>
        <time>2018-06-25T01:10:39Z</time>
      </trkpt>
      <trkpt lat="43.00964" lon="-0.22724">
        <ele>1240</ele>
        <time>2018-06-25T01:11:39Z</time>
      </trkpt>
      <trkpt lat="43.00968" lon="-0.22737">
        <ele>1235</ele>
        <time>2018-06-25T01:12:39Z</time>
      </trkpt>
      <trkpt lat="43.00973" lon="-0.22802">
        <ele>1230</ele>
        <time>2018-06-25T01:18:39Z</time>
      </trkpt>
      <trkpt lat="43.00978" lon="-0.22818">
        <ele>1225</ele>
        <time>2018-06-25T01:19:39Z</time>
      </trkpt>
      <trkpt lat="43.00995" lon="-0.22928">
        <ele>1216</ele>
        <time>2018-06-25T01:26:39Z</time>
      </trkpt>
      <trkpt lat="43.01001" lon="-0.22939">
        <ele>1212</ele>
        <time>2018-06-25T01:27:39Z</time>
      </trkpt>
      <trkpt lat="43.01007" lon="-0.22962">
        <ele>1209</ele>
        <time>2018-06-25T01:29:39Z</time>
      </trkpt>
      <trkpt lat="43.01014" lon="-0.23003">
        <ele>1205</ele>
        <time>2018-06-25T01:30:39Z</time>
      </trkpt>
      <trkpt lat="43.01025" lon="-0.23053">
        <ele>1197</ele>
        <time>2018-06-25T01:31:39Z</time>
      </trkpt>
      <trkpt lat="43.01025" lon="-0.23081">
        <ele>1197</ele>
        <time>2018-06-25T01:33:39Z</time>
      </trkpt>
      <trkpt lat="43.01013" lon="-0.23115">
        <ele>1194</ele>
        <time>2018-06-25T01:35:39Z</time>
      </trkpt>
      <trkpt lat="43.00966" lon="-0.23163">
        <ele>1192</ele>
        <time>2018-06-25T01:42:39Z</time>
      </trkpt>
      <trkpt lat="43.00974" lon="-0.2317">
        <ele>1188</ele>
        <time>2018-06-25T01:44:39Z</time>
      </trkpt>
      <trkpt lat="43.00982" lon="-0.23167">
        <ele>1188</ele>
        <time>2018-06-25T01:45:39Z</time>
      </trkpt>
      <trkpt lat="43.01005" lon="-0.23156">
        <ele>1185</ele>
        <time>2018-06-25T01:47:39Z</time>
      </trkpt>
      <trkpt lat="43.01028" lon="-0.23137">
        <ele>1181</ele>
        <time>2018-06-25T01:49:39Z</time>
      </trkpt>
      <trkpt lat="43.01058" lon="-0.23046">
        <ele>1177</ele>
        <time>2018-06-25T01:57:39Z</time>
      </trkpt>
      <trkpt lat="43.01056" lon="-0.22921">
        <ele>1171</ele>
        <time>2018-06-25T02:01:39Z</time>
      </trkpt>
      <trkpt lat="43.01058" lon="-0.22899">
        <ele>1171</ele>
        <time>2018-06-25T02:02:39Z</time>
      </trkpt>
      <trkpt lat="43.01068" lon="-0.22866">
        <ele>1168</ele>
        <time>2018-06-25T02:04:39Z</time>
      </trkpt>
      <trkpt lat="43.01082" lon="-0.22851">
        <ele>1162</ele>
        <time>2018-06-25T02:07:39Z</time>
      </trkpt>
      <trkpt lat="43.01103" lon="-0.22832">
        <ele>1158</ele>
        <time>2018-06-25T02:09:39Z</time>
      </trkpt>
      <trkpt lat="43.01122" lon="-0.22812">
        <ele>1155</ele>
        <time>2018-06-25T02:11:39Z</time>
      </trkpt>
      <trkpt lat="43.01144" lon="-0.22789">
        <ele>1152</ele>
        <time>2018-06-25T02:12:39Z</time>
      </trkpt>
      <trkpt lat="43.01198" lon="-0.22758">
        <ele>1146</ele>
        <time>2018-06-25T02:18:39Z</time>
      </trkpt>
      <trkpt lat="43.01217" lon="-0.22762">
        <ele>1141</ele>
        <time>2018-06-25T02:20:39Z</time>
      </trkpt>
      <trkpt lat="43.01234" lon="-0.22767">
        <ele>1137</ele>
        <time>2018-06-25T02:22:39Z</time>
      </trkpt>
      <trkpt lat="43.01241" lon="-0.22775">
        <ele>1134</ele>
        <time>2018-06-25T02:24:39Z</time>
      </trkpt>
      <trkpt lat="43.01245" lon="-0.22798">
        <ele>1130</ele>
        <time>2018-06-25T02:30:39Z</time>
      </trkpt>
      <trkpt lat="43.01232" lon="-0.22817">
        <ele>1130</ele>
        <time>2018-06-25T02:35:39Z</time>
      </trkpt>
      <trkpt lat="43.01192" lon="-0.22819">
        <ele>1136</ele>
        <time>2018-06-25T02:39:39Z</time>
      </trkpt>
      <trkpt lat="43.01164" lon="-0.22851">
        <ele>1134</ele>
        <time>2018-06-25T02:46:39Z</time>
      </trkpt>
      <trkpt lat="43.01161" lon="-0.22856">
        <ele>1134</ele>
        <time>2018-06-25T02:47:39Z</time>
      </trkpt>
      <trkpt lat="43.01141" lon="-0.22875">
        <ele>1137</ele>
        <time>2018-06-25T02:50:39Z</time>
      </trkpt>
      <trkpt lat="43.01119" lon="-0.22918">
        <ele>1136</ele>
        <time>2018-06-25T02:55:39Z</time>
      </trkpt>
      <trkpt lat="43.01125" lon="-0.22945">
        <ele>1134</ele>
        <time>2018-06-25T03:03:39Z</time>
      </trkpt>
      <trkpt lat="43.01131" lon="-0.22947">
        <ele>1131</ele>
        <time>2018-06-25T03:05:39Z</time>
      </trkpt>
      <trkpt lat="43.01136" lon="-0.22947">
        <ele>1128</ele>
        <time>2018-06-25T03:07:39Z</time>
      </trkpt>
      <trkpt lat="43.01157" lon="-0.22936">
        <ele>1119</ele>
        <time>2018-06-25T03:10:39Z</time>
      </trkpt>
      <trkpt lat="43.01179" lon="-0.22922">
        <ele>1113</ele>
        <time>2018-06-25T03:11:39Z</time>
      </trkpt>
      <trkpt lat="43.01205" lon="-0.22892">
        <ele>1114</ele>
        <time>2018-06-25T03:18:39Z</time>
      </trkpt>
      <trkpt lat="43.0123" lon="-0.22885">
        <ele>1111</ele>
        <time>2018-06-25T03:25:39Z</time>
      </trkpt>
      <trkpt lat="43.01252" lon="-0.22884">
        <ele>1106</ele>
        <time>2018-06-25T03:26:39Z</time>
      </trkpt>
      <trkpt lat="43.0126" lon="-0.22883">
        <ele>1103</ele>
        <time>2018-06-25T03:28:39Z</time>
      </trkpt>
      <trkpt lat="43.01263" lon="-0.22882">
        <ele>1103</ele>
        <time>2018-06-25T03:29:39Z</time>
      </trkpt>
      <trkpt lat="43.01278" lon="-0.22875">
        <ele>1100</ele>
        <time>2018-06-25T03:32:39Z</time>
      </trkpt>
      <trkpt lat="43.01309" lon="-0.22856">
        <ele>1096</ele>
        <time>2018-06-25T03:34:39Z</time>
      </trkpt>
      <trkpt lat="43.01314" lon="-0.22852">
        <ele>1096</ele>
        <time>2018-06-25T03:35:39Z</time>
      </trkpt>
      <trkpt lat="43.01341" lon="-0.22794">
        <ele>1093</ele>
        <time>2018-06-25T03:50:39Z</time>
      </trkpt>
      <trkpt lat="43.01333" lon="-0.22773">
        <ele>1096</ele>
        <time>2018-06-25T03:51:39Z</time>
      </trkpt>
      <trkpt lat="43.01319" lon="-0.2273">
        <ele>1104</ele>
        <time>2018-06-25T03:52:39Z</time>
      </trkpt>
      <trkpt lat="43.01309" lon="-0.22702">
        <ele>1109</ele>
        <time>2018-06-25T03:53:39Z</time>
      </trkpt>
      <trkpt lat="43.01315" lon="-0.2267">
        <ele>1107</ele>
        <time>2018-06-25T04:01:39Z</time>
      </trkpt>
      <trkpt lat="43.01341" lon="-0.22674">
        <ele>1099</ele>
        <time>2018-06-25T04:04:39Z</time>
      </trkpt>
      <trkpt lat="43.01371" lon="-0.22677">
        <ele>1096</ele>
        <time>2018-06-25T04:05:39Z</time>
      </trkpt>
      <trkpt lat="43.01414" lon="-0.22682">
        <ele>1090</ele>
        <time>2018-06-25T04:07:39Z</time>
      </trkpt>
      <trkpt lat="43.01447" lon="-0.22693">
        <ele>1083</ele>
        <time>2018-06-25T04:08:39Z</time>
      </trkpt>
      <trkpt lat="43.01479" lon="-0.22686">
        <ele>1082</ele>
        <time>2018-06-25T04:11:39Z</time>
      </trkpt>
      <trkpt lat="43.01537" lon="-0.22644">
        <ele>1092</ele>
        <time>2018-06-25T04:12:39Z</time>
      </trkpt>
      <trkpt lat="43.0154" lon="-0.22643">
        <ele>1092</ele>
        <time>2018-06-25T04:13:39Z</time>
      </trkpt>
      <trkpt lat="43.01552" lon="-0.22652">
        <ele>1089</ele>
        <time>2018-06-25T04:16:39Z</time>
      </trkpt>
      <trkpt lat="43.01559" lon="-0.22672">
        <ele>1084</ele>
        <time>2018-06-25T04:17:39Z</time>
      </trkpt>
      <trkpt lat="43.01566" lon="-0.22692">
        <ele>1079</ele>
        <time>2018-06-25T04:18:39Z</time>
      </trkpt>
      <trkpt lat="43.01571" lon="-0.22709">
        <ele>1076</ele>
        <time>2018-06-25T04:21:39Z</time>
      </trkpt>
      <trkpt lat="43.01575" lon="-0.2273">
        <ele>1072</ele>
        <time>2018-06-25T04:23:39Z</time>
      </trkpt>
      <trkpt lat="43.01581" lon="-0.22772">
        <ele>1066</ele>
        <time>2018-06-25T04:24:39Z</time>
      </trkpt>
      <trkpt lat="43.01586" lon="-0.22819">
        <ele>1063</ele>
        <time>2018-06-25T04:25:39Z</time>
      </trkpt>
      <trkpt lat="43.01591" lon="-0.22853">
        <ele>1060</ele>
        <time>2018-06-25T04:26:39Z</time>
      </trkpt>
      <trkpt lat="43.01612" lon="-0.2289">
        <ele>1058</ele>
        <time>2018-06-25T04:29:39Z</time>
      </trkpt>
      <trkpt lat="43.01687" lon="-0.22998">
        <ele>1056</ele>
        <time>2018-06-25T04:35:39Z</time>
      </trkpt>
      <trkpt lat="43.01682" lon="-0.23014">
        <ele>1052</ele>
        <time>2018-06-25T04:37:39Z</time>
      </trkpt>
      <trkpt lat="43.01676" lon="-0.23019">
        <ele>1049</ele>
        <time>2018-06-25T04:38:39Z</time>
      </trkpt>
      <trkpt lat="43.01654" lon="-0.23016">
        <ele>1045</ele>
        <time>2018-06-25T04:40:39Z</time>
      </trkpt>
      <trkpt lat="43.01592" lon="-0.2294">
        <ele>1046</ele>
        <time>2018-06-25T04:48:39Z</time>
      </trkpt>
      <trkpt lat="43.01559" lon="-0.22914">
        <ele>1044</ele>
        <time>2018-06-25T04:55:39Z</time>
      </trkpt>
      <trkpt lat="43.01551" lon="-0.22926">
        <ele>1039</ele>
        <time>2018-06-25T05:01:39Z</time>
      </trkpt>
      <trkpt lat="43.01554" lon="-0.22937">
        <ele>1036</ele>
        <time>2018-06-25T05:04:39Z</time>
      </trkpt>
      <trkpt lat="43.01558" lon="-0.22943">
        <ele>1036</ele>
        <time>2018-06-25T05:05:39Z</time>
      </trkpt>
      <trkpt lat="43.01597" lon="-0.23001">
        <ele>1033</ele>
        <time>2018-06-25T05:10:39Z</time>
      </trkpt>
      <trkpt lat="43.0161" lon="-0.23027">
        <ele>1030</ele>
        <time>2018-06-25T05:11:39Z</time>
      </trkpt>
      <trkpt lat="43.01632" lon="-0.23068">
        <ele>1027</ele>
        <time>2018-06-25T05:13:39Z</time>
      </trkpt>
      <trkpt lat="43.01652" lon="-0.23107">
        <ele>1024</ele>
        <time>2018-06-25T05:14:39Z</time>
      </trkpt>
      <trkpt lat="43.01658" lon="-0.23114">
        <ele>1024</ele>
        <time>2018-06-25T05:15:39Z</time>
      </trkpt>
      <trkpt lat="43.01697" lon="-0.23152">
        <ele>1025</ele>
        <time>2018-06-25T05:25:39Z</time>
      </trkpt>
      <trkpt lat="43.01703" lon="-0.23174">
        <ele>1021</ele>
        <time>2018-06-25T05:28:39Z</time>
      </trkpt>
      <trkpt lat="43.01705" lon="-0.23192">
        <ele>1018</ele>
        <time>2018-06-25T05:30:39Z</time>
      </trkpt>
      <trkpt lat="43.01703" lon="-0.2322">
        <ele>1013</ele>
        <time>2018-06-25T05:32:39Z</time>
      </trkpt>
      <trkpt lat="43.01701" lon="-0.23234">
        <ele>1009</ele>
        <time>2018-06-25T05:33:39Z</time>
      </trkpt>
      <trkpt lat="43.01702" lon="-0.23253">
        <ele>1006</ele>
        <time>2018-06-25T05:36:39Z</time>
      </trkpt>
      <trkpt lat="43.01745" lon="-0.23276">
        <ele>1010</ele>
        <time>2018-06-25T05:43:39Z</time>
      </trkpt>
      <trkpt lat="43.01768" lon="-0.23307">
        <ele>1009</ele>
        <time>2018-06-25T05:49:39Z</time>
      </trkpt>
      <trkpt lat="43.01768" lon="-0.23322">
        <ele>1006</ele>
        <time>2018-06-25T05:52:39Z</time>
      </trkpt>
      <trkpt lat="43.01764" lon="-0.23328">
        <ele>1003</ele>
        <time>2018-06-25T05:53:39Z</time>
      </trkpt>
      <trkpt lat="43.01755" lon="-0.2333">
        <ele>999</ele>
        <time>2018-06-25T05:55:39Z</time>
      </trkpt>
      <trkpt lat="43.01741" lon="-0.23327">
        <ele>996</ele>
        <time>2018-06-25T05:57:39Z</time>
      </trkpt>
      <trkpt lat="43.017" lon="-0.23296">
        <ele>993</ele>
        <time>2018-06-25T06:00:39Z</time>
      </trkpt>
      <trkpt lat="43.01678" lon="-0.23275">
        <ele>993</ele>
        <time>2018-06-25T06:01:39Z</time>
      </trkpt>
      <trkpt lat="43.01639" lon="-0.23243">
        <ele>991</ele>
        <time>2018-06-25T06:06:39Z</time>
      </trkpt>
      <trkpt lat="43.01623" lon="-0.23235">
        <ele>988</ele>
        <time>2018-06-25T06:07:39Z</time>
      </trkpt>
      <trkpt lat="43.01609" lon="-0.23227">
        <ele>985</ele>
        <time>2018-06-25T06:08:39Z</time>
      </trkpt>
      <trkpt lat="43.01587" lon="-0.23211">
        <ele>982</ele>
        <time>2018-06-25T06:09:39Z</time>
      </trkpt>
      <trkpt lat="43.01583" lon="-0.23208">
        <ele>982</ele>
        <time>2018-06-25T06:10:39Z</time>
      </trkpt>
      <trkpt lat="43.01568" lon="-0.23177">
        <ele>985</ele>
        <time>2018-06-25T06:14:39Z</time>
      </trkpt>
      <trkpt lat="43.01564" lon="-0.23169">
        <ele>985</ele>
        <time>2018-06-25T06:15:39Z</time>
      </trkpt>
      <trkpt lat="43.01533" lon="-0.23143">
        <ele>981</ele>
        <time>2018-06-25T06:21:39Z</time>
      </trkpt>
      <trkpt lat="43.01524" lon="-0.23151">
        <ele>976</ele>
        <time>2018-06-25T06:23:39Z</time>
      </trkpt>
      <trkpt lat="43.01525" lon="-0.2317">
        <ele>973</ele>
        <time>2018-06-25T06:26:39Z</time>
      </trkpt>
      <trkpt lat="43.01547" lon="-0.23217">
        <ele>968</ele>
        <time>2018-06-25T06:28:39Z</time>
      </trkpt>
      <trkpt lat="43.01585" lon="-0.2328">
        <ele>964</ele>
        <time>2018-06-25T06:31:39Z</time>
      </trkpt>
      <trkpt lat="43.01643" lon="-0.23352">
        <ele>960</ele>
        <time>2018-06-25T06:36:39Z</time>
      </trkpt>
      <trkpt lat="43.01655" lon="-0.23372">
        <ele>957</ele>
        <time>2018-06-25T06:38:39Z</time>
      </trkpt>
      <trkpt lat="43.01663" lon="-0.23395">
        <ele>953</ele>
        <time>2018-06-25T06:40:39Z</time>
      </trkpt>
      <trkpt lat="43.01666" lon="-0.23409">
        <ele>950</ele>
        <time>2018-06-25T06:41:39Z</time>
      </trkpt>
      <trkpt lat="43.01672" lon="-0.23431">
        <ele>946</ele>
        <time>2018-06-25T06:43:39Z</time>
      </trkpt>
      <trkpt lat="43.01676" lon="-0.23438">
        <ele>946</ele>
        <time>2018-06-25T06:44:39Z</time>
      </trkpt>
      <trkpt lat="43.01716" lon="-0.23507">
        <ele>942</ele>
        <time>2018-06-25T06:53:39Z</time>
      </trkpt>
      <trkpt lat="43.0173" lon="-0.23537">
        <ele>939</ele>
        <time>2018-06-25T06:56:39Z</time>
      </trkpt>
      <trkpt lat="43.01753" lon="-0.23588">
        <ele>935</ele>
        <time>2018-06-25T06:57:39Z</time>
      </trkpt>
      <trkpt lat="43.01755" lon="-0.23593">
        <ele>935</ele>
        <time>2018-06-25T06:58:39Z</time>
      </trkpt>
      <trkpt lat="43.01756" lon="-0.23611">
        <ele>932</ele>
        <time>2018-06-25T07:01:39Z</time>
      </trkpt>
      <trkpt lat="43.01755" lon="-0.23624">
        <ele>929</ele>
        <time>2018-06-25T07:02:39Z</time>
      </trkpt>
      <trkpt lat="43.01756" lon="-0.23628">
        <ele>929</ele>
        <time>2018-06-25T07:03:39Z</time>
      </trkpt>
      <trkpt lat="43.01758" lon="-0.23648">
        <ele>926</ele>
        <time>2018-06-25T07:05:39Z</time>
      </trkpt>
      <trkpt lat="43.01797" lon="-0.23732">
        <ele>925</ele>
        <time>2018-06-25T07:11:39Z</time>
      </trkpt>
      <trkpt lat="43.018" lon="-0.23757">
        <ele>922</ele>
        <time>2018-06-25T07:15:39Z</time>
      </trkpt>
      <trkpt lat="43.01799" lon="-0.23776">
        <ele>919</ele>
        <time>2018-06-25T07:17:39Z</time>
      </trkpt>
      <trkpt lat="43.01811" lon="-0.23805">
        <ele>921</ele>
        <time>2018-06-25T07:20:39Z</time>
      </trkpt>
      <trkpt lat="43.01811" lon="-0.23863">
        <ele>918</ele>
        <time>2018-06-25T07:25:39Z</time>
      </trkpt>
      <trkpt lat="43.01804" lon="-0.239">
        <ele>913</ele>
        <time>2018-06-25T07:27:39Z</time>
      </trkpt>
      <trkpt lat="43.018" lon="-0.23928">
        <ele>909</ele>
        <time>2018-06-25T07:29:39Z</time>
      </trkpt>
      <trkpt lat="43.018" lon="-0.2394">
        <ele>906</ele>
        <time>2018-06-25T07:30:39Z</time>
      </trkpt>
      <trkpt lat="43.0183" lon="-0.23994">
        <ele>909</ele>
        <time>2018-06-25T07:34:39Z</time>
      </trkpt>
      <trkpt lat="43.01849" lon="-0.24016">
        <ele>908</ele>
        <time>2018-06-25T07:35:39Z</time>
      </trkpt>
      <trkpt lat="43.01894" lon="-0.24077">
        <ele>904</ele>
        <time>2018-06-25T07:38:39Z</time>
      </trkpt>
      <trkpt lat="43.01907" lon="-0.24108">
        <ele>901</ele>
        <time>2018-06-25T07:39:39Z</time>
      </trkpt>
      <trkpt lat="43.01923" lon="-0.24165">
        <ele>896</ele>
        <time>2018-06-25T07:41:39Z</time>
      </trkpt>
      <trkpt lat="43.01924" lon="-0.24192">
        <ele>893</ele>
        <time>2018-06-25T07:42:39Z</time>
      </trkpt>
      <trkpt lat="43.01933" lon="-0.24303">
        <ele>886</ele>
        <time>2018-06-25T07:48:39Z</time>
      </trkpt>
      <trkpt lat="43.01925" lon="-0.24311">
        <ele>881</ele>
        <time>2018-06-25T07:49:39Z</time>
      </trkpt>
      <trkpt lat="43.01916" lon="-0.2432">
        <ele>876</ele>
        <time>2018-06-25T07:50:39Z</time>
      </trkpt>
      <trkpt lat="43.01907" lon="-0.24328">
        <ele>873</ele>
        <time>2018-06-25T07:51:39Z</time>
      </trkpt>
      <trkpt lat="43.01897" lon="-0.24335">
        <ele>870</ele>
        <time>2018-06-25T07:52:39Z</time>
      </trkpt>
      <trkpt lat="43.0188" lon="-0.24352">
        <ele>865</ele>
        <time>2018-06-25T07:53:39Z</time>
      </trkpt>
      <trkpt lat="43.01865" lon="-0.24379">
        <ele>862</ele>
        <time>2018-06-25T07:55:39Z</time>
      </trkpt>
      <trkpt lat="43.01862" lon="-0.24386">
        <ele>862</ele>
        <time>2018-06-25T07:56:39Z</time>
      </trkpt>
      <trkpt lat="43.01864" lon="-0.24458">
        <ele>866</ele>
        <time>2018-06-25T08:07:39Z</time>
      </trkpt>
      <trkpt lat="43.01864" lon="-0.24485">
        <ele>867</ele>
        <time>2018-06-25T08:16:39Z</time>
      </trkpt>
      <trkpt lat="43.01853" lon="-0.24486">
        <ele>862</ele>
        <time>2018-06-25T08:22:39Z</time>
      </trkpt>
      <trkpt lat="43.01837" lon="-0.24458">
        <ele>855</ele>
        <time>2018-06-25T08:26:39Z</time>
      </trkpt>
      <trkpt lat="43.01835" lon="-0.24452">
        <ele>855</ele>
        <time>2018-06-25T08:27:39Z</time>
      </trkpt>
      <trkpt lat="43.01832" lon="-0.24404">
        <ele>853</ele>
        <time>2018-06-25T08:35:39Z</time>
      </trkpt>
      <trkpt lat="43.01827" lon="-0.24373">
        <ele>848</ele>
        <time>2018-06-25T08:39:39Z</time>
      </trkpt>
      <trkpt lat="43.01822" lon="-0.24353">
        <ele>845</ele>
        <time>2018-06-25T08:41:39Z</time>
      </trkpt>
      <trkpt lat="43.01829" lon="-0.24319">
        <ele>845</ele>
        <time>2018-06-25T08:46:39Z</time>
      </trkpt>
      <trkpt lat="43.01842" lon="-0.24303">
        <ele>848</ele>
        <time>2018-06-25T08:48:39Z</time>
      </trkpt>
      <trkpt lat="43.01842" lon="-0.24302">
        <ele>848</ele>
        <time>2018-06-25T08:49:39Z</time>
      </trkpt>
      <trkpt lat="43.01848" lon="-0.24236">
        <ele>847</ele>
        <time>2018-06-25T09:01:39Z</time>
      </trkpt>
      <trkpt lat="43.01838" lon="-0.24216">
        <ele>844</ele>
        <time>2018-06-25T09:04:39Z</time>
      </trkpt>
      <trkpt lat="43.01827" lon="-0.24201">
        <ele>841</ele>
        <time>2018-06-25T09:06:39Z</time>
      </trkpt>
      <trkpt lat="43.01814" lon="-0.24194">
        <ele>837</ele>
        <time>2018-06-25T09:08:39Z</time>
      </trkpt>
      <trkpt lat="43.01808" lon="-0.24196">
        <ele>834</ele>
        <time>2018-06-25T09:09:39Z</time>
      </trkpt>
      <trkpt lat="43.01802" lon="-0.2421">
        <ele>830</ele>
        <time>2018-06-25T09:11:39Z</time>
      </trkpt>
      <trkpt lat="43.01813" lon="-0.2427">
        <ele>832</ele>
        <time>2018-06-25T09:19:39Z</time>
      </trkpt>
      <trkpt lat="43.01801" lon="-0.24279">
        <ele>828</ele>
        <time>2018-06-25T09:21:39Z</time>
      </trkpt>
      <trkpt lat="43.01789" lon="-0.24297">
        <ele>825</ele>
        <time>2018-06-25T09:23:39Z</time>
      </trkpt>
      <trkpt lat="43.01787" lon="-0.24307">
        <ele>825</ele>
        <time>2018-06-25T09:24:39Z</time>
      </trkpt>
      <trkpt lat="43.01769" lon="-0.24337">
        <ele>819</ele>
        <time>2018-06-25T09:29:39Z</time>
      </trkpt>
      <trkpt lat="43.01764" lon="-0.24317">
        <ele>816</ele>
        <time>2018-06-25T09:31:39Z</time>
      </trkpt>
      <trkpt lat="43.01762" lon="-0.24293">
        <ele>813</ele>
        <time>2018-06-25T09:33:39Z</time>
      </trkpt>
      <trkpt lat="43.01729" lon="-0.24166">
        <ele>810</ele>
        <time>2018-06-25T09:43:39Z</time>
      </trkpt>
      <trkpt lat="43.01679" lon="-0.24139">
        <ele>806</ele>
        <time>2018-06-25T09:49:39Z</time>
      </trkpt>
      <trkpt lat="43.01667" lon="-0.24137">
        <ele>803</ele>
        <time>2018-06-25T09:55:39Z</time>
      </trkpt>
      <trkpt lat="43.01661" lon="-0.24152">
        <ele>798</ele>
        <time>2018-06-25T09:59:39Z</time>
      </trkpt>
      <trkpt lat="43.01691" lon="-0.24181">
        <ele>798</ele>
        <time>2018-06-25T10:05:39Z</time>
      </trkpt>
      <trkpt lat="43.01715" lon="-0.2421">
        <ele>800</ele>
        <time>2018-06-25T10:16:39Z</time>
      </trkpt>
      <trkpt lat="43.0172" lon="-0.24245">
        <ele>797</ele>
        <time>2018-06-25T10:18:39Z</time>
      </trkpt>
      <trkpt lat="43.01709" lon="-0.24287">
        <ele>793</ele>
        <time>2018-06-25T10:23:39Z</time>
      </trkpt>
      <trkpt lat="43.01699" lon="-0.24319">
        <ele>789</ele>
        <time>2018-06-25T10:25:39Z</time>
      </trkpt>
      <trkpt lat="43.01698" lon="-0.24331">
        <ele>789</ele>
        <time>2018-06-25T10:26:39Z</time>
      </trkpt>
      <trkpt lat="43.01694" lon="-0.24407">
        <ele>783</ele>
        <time>2018-06-25T10:33:39Z</time>
      </trkpt>
      <trkpt lat="43.01689" lon="-0.24417">
        <ele>780</ele>
        <time>2018-06-25T10:35:39Z</time>
      </trkpt>
      <trkpt lat="43.01684" lon="-0.24418">
        <ele>777</ele>
        <time>2018-06-25T10:37:39Z</time>
      </trkpt>
      <trkpt lat="43.01677" lon="-0.24366">
        <ele>778</ele>
        <time>2018-06-25T10:47:39Z</time>
      </trkpt>
      <trkpt lat="43.0168" lon="-0.24336">
        <ele>781</ele>
        <time>2018-06-25T10:49:39Z</time>
      </trkpt>
      <trkpt lat="43.01685" lon="-0.24311">
        <ele>784</ele>
        <time>2018-06-25T10:52:39Z</time>
      </trkpt>
      <trkpt lat="43.01671" lon="-0.24256">
        <ele>780</ele>
        <time>2018-06-25T11:03:39Z</time>
      </trkpt>
      <trkpt lat="43.01641" lon="-0.24271">
        <ele>778</ele>
        <time>2018-06-25T11:12:39Z</time>
      </trkpt>
      <trkpt lat="43.01631" lon="-0.24306">
        <ele>775</ele>
        <time>2018-06-25T11:15:39Z</time>
      </trkpt>
      <trkpt lat="43.01613" lon="-0.24338">
        <ele>770</ele>
        <time>2018-06-25T11:17:39Z</time>
      </trkpt>
      <trkpt lat="43.01603" lon="-0.24355">
        <ele>767</ele>
        <time>2018-06-25T11:19:39Z</time>
      </trkpt>
      <trkpt lat="43.01599" lon="-0.24373">
        <ele>764</ele>
        <time>2018-06-25T11:22:39Z</time>
      </trkpt>
      <trkpt lat="43.01597" lon="-0.24398">
        <ele>761</ele>
        <time>2018-06-25T11:23:39Z</time>
      </trkpt>
      <trkpt lat="43.01595" lon="-0.24417">
        <ele>758</ele>
        <time>2018-06-25T11:24:39Z</time>
      </trkpt>
      <trkpt lat="43.01594" lon="-0.24435">
        <ele>754</ele>
        <time>2018-06-25T11:25:39Z</time>
      </trkpt>
      <trkpt lat="43.01592" lon="-0.24454">
        <ele>750</ele>
        <time>2018-06-25T11:28:39Z</time>
      </trkpt>
      <trkpt lat="43.01626" lon="-0.24506">
        <ele>749</ele>
        <time>2018-06-25T11:36:39Z</time>
      </trkpt>
      <trkpt lat="43.01642" lon="-0.24552">
        <ele>749</ele>
        <time>2018-06-25T11:45:39Z</time>
      </trkpt>
      <trkpt lat="43.01639" lon="-0.24574">
        <ele>746</ele>
        <time>2018-06-25T11:47:39Z</time>
      </trkpt>
      <trkpt lat="43.01631" lon="-0.24639">
        <ele>743</ele>
        <time>2018-06-25T11:50:39Z</time>
      </trkpt>
      <trkpt lat="43.0163" lon="-0.24646">
        <ele>743</ele>
        <time>2018-06-25T11:51:39Z</time>
      </trkpt>
      <trkpt lat="43.01623" lon="-0.24673">
        <ele>740</ele>
        <time>2018-06-25T11:55:39Z</time>
      </trkpt>
      <trkpt lat="43.01619" lon="-0.24698">
        <ele>737</ele>
        <time>2018-06-25T11:58:39Z</time>
      </trkpt>
      <trkpt lat="43.01616" lon="-0.24714">
        <ele>734</ele>
        <time>2018-06-25T12:00:39Z</time>
      </trkpt>
      <trkpt lat="43.01612" lon="-0.24727">
        <ele>731</ele>
        <time>2018-06-25T12:01:39Z</time>
      </trkpt>
      <trkpt lat="43.01607" lon="-0.24739">
        <ele>728</ele>
        <time>2018-06-25T12:02:39Z</time>
      </trkpt>
      <trkpt lat="43.01603" lon="-0.24752">
        <ele>725</ele>
        <time>2018-06-25T12:03:39Z</time>
      </trkpt>
      <trkpt lat="43.01595" lon="-0.24779">
        <ele>719</ele>
        <time>2018-06-25T12:05:39Z</time>
      </trkpt>
      <trkpt lat="43.01594" lon="-0.24802">
        <ele>716</ele>
        <time>2018-06-25T12:07:39Z</time>
      </trkpt>
      <trkpt lat="43.01613" lon="-0.24849">
        <ele>715</ele>
        <time>2018-06-25T12:12:39Z</time>
      </trkpt>
      <trkpt lat="43.01668" lon="-0.24903">
        <ele>714</ele>
        <time>2018-06-25T12:18:39Z</time>
      </trkpt>
      <trkpt lat="43.01674" lon="-0.24915">
        <ele>711</ele>
        <time>2018-06-25T12:20:39Z</time>
      </trkpt>
      <trkpt lat="43.01678" lon="-0.24926">
        <ele>706</ele>
        <time>2018-06-25T12:21:39Z</time>
      </trkpt>
      <trkpt lat="43.01681" lon="-0.24932">
        <ele>703</ele>
        <time>2018-06-25T12:22:39Z</time>
      </trkpt>
      <trkpt lat="43.0169" lon="-0.24942">
        <ele>700</ele>
        <time>2018-06-25T12:24:39Z</time>
      </trkpt>
      <trkpt lat="43.01694" lon="-0.24944">
        <ele>700</ele>
        <time>2018-06-25T12:25:39Z</time>
      </trkpt>
      <trkpt lat="43.01719" lon="-0.24949">
        <ele>703</ele>
        <time>2018-06-25T12:28:39Z</time>
      </trkpt>
      <trkpt lat="43.01783" lon="-0.24971">
        <ele>704</ele>
        <time>2018-06-25T12:34:39Z</time>
      </trkpt>
      <trkpt lat="43.01824" lon="-0.24998">
        <ele>700</ele>
        <time>2018-06-25T12:38:39Z</time>
      </trkpt>
      <trkpt lat="43.01836" lon="-0.25013">
        <ele>697</ele>
        <time>2018-06-25T12:39:39Z</time>
      </trkpt>
      <trkpt lat="43.0185" lon="-0.25029">
        <ele>697</ele>
        <time>2018-06-25T12:40:39Z</time>
      </trkpt>
      <trkpt lat="43.0188" lon="-0.25085">
        <ele>689</ele>
        <time>2018-06-25T12:42:39Z</time>
      </trkpt>
      <trkpt lat="43.01899" lon="-0.25129">
        <ele>679</ele>
        <time>2018-06-25T12:43:39Z</time>
      </trkpt>
      <trkpt lat="43.01918" lon="-0.2517">
        <ele>670</ele>
        <time>2018-06-25T12:44:39Z</time>
      </trkpt>
      <trkpt lat="43.0193" lon="-0.25206">
        <ele>661</ele>
        <time>2018-06-25T12:45:39Z</time>
      </trkpt>
      <trkpt lat="43.01942" lon="-0.25235">
        <ele>654</ele>
        <time>2018-06-25T12:46:39Z</time>
      </trkpt>
      <trkpt lat="43.01948" lon="-0.25246">
        <ele>651</ele>
        <time>2018-06-25T12:47:39Z</time>
      </trkpt>
      <trkpt lat="43.01975" lon="-0.25261">
        <ele>653</ele>
        <time>2018-06-25T12:52:39Z</time>
      </trkpt>
      <trkpt lat="43.0198" lon="-0.25255">
        <ele>656</ele>
        <time>2018-06-25T12:53:39Z</time>
      </trkpt>
      <trkpt lat="43.0199" lon="-0.25244">
        <ele>662</ele>
        <time>2018-06-25T12:54:39Z</time>
      </trkpt>
      <trkpt lat="43.02" lon="-0.25232">
        <ele>668</ele>
        <time>2018-06-25T12:55:39Z</time>
      </trkpt>
      <trkpt lat="43.02007" lon="-0.25224">
        <ele>672</ele>
        <time>2018-06-25T12:56:39Z</time>
      </trkpt>
      <trkpt lat="43.0202" lon="-0.25211">
        <ele>678</ele>
        <time>2018-06-25T12:57:39Z</time>
      </trkpt>
      <trkpt lat="43.0203" lon="-0.25207">
        <ele>681</ele>
        <time>2018-06-25T13:00:39Z</time>
      </trkpt>
      <trkpt lat="43.02036" lon="-0.25222">
        <ele>677</ele>
        <time>2018-06-25T13:03:39Z</time>
      </trkpt>
      <trkpt lat="43.02031" lon="-0.2523">
        <ele>673</ele>
        <time>2018-06-25T13:05:39Z</time>
      </trkpt>
      <trkpt lat="43.02013" lon="-0.25241">
        <ele>667</ele>
        <time>2018-06-25T13:07:39Z</time>
      </trkpt>
      <trkpt lat="43.02006" lon="-0.25252">
        <ele>662</ele>
        <time>2018-06-25T13:08:39Z</time>
      </trkpt>
      <trkpt lat="43.02001" lon="-0.25265">
        <ele>657</ele>
        <time>2018-06-25T13:09:39Z</time>
      </trkpt>
      <trkpt lat="43.01992" lon="-0.25296">
        <ele>644</ele>
        <time>2018-06-25T13:11:39Z</time>
      </trkpt>
      <trkpt lat="43.01986" lon="-0.25315">
        <ele>636</ele>
        <time>2018-06-25T13:12:39Z</time>
      </trkpt>
      <trkpt lat="43.01981" lon="-0.25326">
        <ele>631</ele>
        <time>2018-06-25T13:13:39Z</time>
      </trkpt>
      <trkpt lat="43.01969" lon="-0.25329">
        <ele>628</ele>
        <time>2018-06-25T13:15:39Z</time>
      </trkpt>
      <trkpt lat="43.01962" lon="-0.25325">
        <ele>628</ele>
        <time>2018-06-25T13:16:39Z</time>
      </trkpt>
      <trkpt lat="43.01929" lon="-0.25294">
        <ele>631</ele>
        <time>2018-06-25T13:18:39Z</time>
      </trkpt>
      <trkpt lat="43.01909" lon="-0.25259">
        <ele>636</ele>
        <time>2018-06-25T13:22:39Z</time>
      </trkpt>
      <trkpt lat="43.01894" lon="-0.25237">
        <ele>637</ele>
        <time>2018-06-25T13:24:39Z</time>
      </trkpt>
      <trkpt lat="43.01837" lon="-0.25162">
        <ele>636</ele>
        <time>2018-06-25T13:25:39Z</time>
      </trkpt>
      <trkpt lat="43.01833" lon="-0.25158">
        <ele>635</ele>
        <time>2018-06-25T13:26:39Z</time>
      </trkpt>
      <trkpt lat="43.01801" lon="-0.25119">
        <ele>641</ele>
        <time>2018-06-25T13:27:39Z</time>
      </trkpt>
      <trkpt lat="43.01796" lon="-0.25115">
        <ele>641</ele>
        <time>2018-06-25T13:28:39Z</time>
      </trkpt>
      <trkpt lat="43.01773" lon="-0.25102">
        <ele>638</ele>
        <time>2018-06-25T13:33:39Z</time>
      </trkpt>
      <trkpt lat="43.01757" lon="-0.25098">
        <ele>635</ele>
        <time>2018-06-25T13:35:39Z</time>
      </trkpt>
      <trkpt lat="43.01734" lon="-0.25095">
        <ele>632</ele>
        <time>2018-06-25T13:37:39Z</time>
      </trkpt>
      <trkpt lat="43.01704" lon="-0.25096">
        <ele>629</ele>
        <time>2018-06-25T13:40:39Z</time>
      </trkpt>
      <trkpt lat="43.01675" lon="-0.25093">
        <ele>626</ele>
        <time>2018-06-25T13:43:39Z</time>
      </trkpt>
      <trkpt lat="43.01671" lon="-0.25092">
        <ele>626</ele>
        <time>2018-06-25T13:44:39Z</time>
      </trkpt>
      <trkpt lat="43.01643" lon="-0.25079">
        <ele>629</ele>
        <time>2018-06-25T13:47:39Z</time>
      </trkpt>
      <trkpt lat="43.01632" lon="-0.25074">
        <ele>632</ele>
        <time>2018-06-25T13:48:39Z</time>
      </trkpt>
      <trkpt lat="43.01615" lon="-0.25079">
        <ele>631</ele>
        <time>2018-06-25T13:55:39Z</time>
      </trkpt>
      <trkpt lat="43.01651" lon="-0.25119">
        <ele>627</ele>
        <time>2018-06-25T14:05:39Z</time>
      </trkpt>
      <trkpt lat="43.0167" lon="-0.25127">
        <ele>623</ele>
        <time>2018-06-25T14:06:39Z</time>
      </trkpt>
      <trkpt lat="43.01673" lon="-0.25128">
        <ele>623</ele>
        <time>2018-06-25T14:07:39Z</time>
      </trkpt>
      <trkpt lat="43.01713" lon="-0.25139">
        <ele>619</ele>
        <time>2018-06-25T14:10:39Z</time>
      </trkpt>
      <trkpt lat="43.0172" lon="-0.2514">
        <ele>619</ele>
        <time>2018-06-25T14:11:39Z</time>
      </trkpt>
      <trkpt lat="43.01734" lon="-0.25143">
        <ele>616</ele>
        <time>2018-06-25T14:13:39Z</time>
      </trkpt>
      <trkpt lat="43.01745" lon="-0.25151">
        <ele>613</ele>
        <time>2018-06-25T14:15:39Z</time>
      </trkpt>
      <trkpt lat="43.01749" lon="-0.25156">
        <ele>610</ele>
        <time>2018-06-25T14:16:39Z</time>
      </trkpt>
      <trkpt lat="43.01773" lon="-0.25194">
        <ele>609</ele>
        <time>2018-06-25T14:22:39Z</time>
      </trkpt>
      <trkpt lat="43.01783" lon="-0.25223">
        <ele>606</ele>
        <time>2018-06-25T14:24:39Z</time>
      </trkpt>
      <trkpt lat="43.01795" lon="-0.25263">
        <ele>601</ele>
        <time>2018-06-25T14:25:39Z</time>
      </trkpt>
      <trkpt lat="43.01809" lon="-0.25297">
        <ele>597</ele>
        <time>2018-06-25T14:27:39Z</time>
      </trkpt>
      <trkpt lat="43.01814" lon="-0.25308">
        <ele>594</ele>
        <time>2018-06-25T14:28:39Z</time>
      </trkpt>
      <trkpt lat="43.01827" lon="-0.25342">
        <ele>584</ele>
        <time>2018-06-25T14:29:39Z</time>
      </trkpt>
      <trkpt lat="43.01832" lon="-0.25357">
        <ele>580</ele>
        <time>2018-06-25T14:31:39Z</time>
      </trkpt>
      <trkpt lat="43.01836" lon="-0.25389">
        <ele>576</ele>
        <time>2018-06-25T14:35:39Z</time>
      </trkpt>
      <trkpt lat="43.01838" lon="-0.25416">
        <ele>573</ele>
        <time>2018-06-25T14:37:39Z</time>
      </trkpt>
      <trkpt lat="43.01838" lon="-0.25431">
        <ele>573</ele>
        <time>2018-06-25T14:38:39Z</time>
      </trkpt>
      <trkpt lat="43.01863" lon="-0.25537">
        <ele>572</ele>
        <time>2018-06-25T14:46:39Z</time>
      </trkpt>
      <trkpt lat="43.01877" lon="-0.25574">
        <ele>567</ele>
        <time>2018-06-25T14:47:39Z</time>
      </trkpt>
      <trkpt lat="43.01884" lon="-0.25585">
        <ele>564</ele>
        <time>2018-06-25T14:49:39Z</time>
      </trkpt>
      <trkpt lat="43.01892" lon="-0.25592">
        <ele>561</ele>
        <time>2018-06-25T14:51:39Z</time>
      </trkpt>
      <trkpt lat="43.019" lon="-0.25594">
        <ele>558</ele>
        <time>2018-06-25T14:53:39Z</time>
      </trkpt>
      <trkpt lat="43.01907" lon="-0.25596">
        <ele>555</ele>
        <time>2018-06-25T14:54:39Z</time>
      </trkpt>
      <trkpt lat="43.01915" lon="-0.25599">
        <ele>552</ele>
        <time>2018-06-25T14:56:39Z</time>
      </trkpt>
      <trkpt lat="43.01919" lon="-0.25602">
        <ele>552</ele>
        <time>2018-06-25T14:57:39Z</time>
      </trkpt>
      <trkpt lat="43.01931" lon="-0.25643">
        <ele>548</ele>
        <time>2018-06-25T15:01:39Z</time>
      </trkpt>
      <trkpt lat="43.01937" lon="-0.25665">
        <ele>545</ele>
        <time>2018-06-25T15:03:39Z</time>
      </trkpt>
      <trkpt lat="43.01958" lon="-0.25706">
        <ele>541</ele>
        <time>2018-06-25T15:05:39Z</time>
      </trkpt>
      <trkpt lat="43.01985" lon="-0.25704">
        <ele>539</ele>
        <time>2018-06-25T15:12:39Z</time>
      </trkpt>
      <trkpt lat="43.02046" lon="-0.25668">
        <ele>535</ele>
        <time>2018-06-25T15:18:39Z</time>
      </trkpt>
      <trkpt lat="43.02067" lon="-0.25664">
        <ele>532</ele>
        <time>2018-06-25T15:19:39Z</time>
      </trkpt>
      <trkpt lat="43.02081" lon="-0.25664">
        <ele>529</ele>
        <time>2018-06-25T15:20:39Z</time>
      </trkpt>
      <trkpt lat="43.02083" lon="-0.25665">
        <ele>529</ele>
        <time>2018-06-25T15:21:39Z</time>
      </trkpt>
      <trkpt lat="43.02091" lon="-0.25673">
        <ele>526</ele>
        <time>2018-06-25T15:23:39Z</time>
      </trkpt>
      <trkpt lat="43.0207" lon="-0.25711">
        <ele>526</ele>
        <time>2018-06-25T15:30:39Z</time>
      </trkpt>
      <trkpt lat="43.02033" lon="-0.25728">
        <ele>529</ele>
        <time>2018-06-25T15:32:39Z</time>
      </trkpt>
      <trkpt lat="43.02023" lon="-0.25745">
        <ele>528</ele>
        <time>2018-06-25T15:35:39Z</time>
      </trkpt>
      <trkpt lat="43.02078" lon="-0.25724">
        <ele>523</ele>
        <time>2018-06-25T15:41:39Z</time>
      </trkpt>
      <trkpt lat="43.02097" lon="-0.25708">
        <ele>523</ele>
        <time>2018-06-25T15:42:39Z</time>
      </trkpt>
      <trkpt lat="43.02133" lon="-0.25673">
        <ele>519</ele>
        <time>2018-06-25T15:43:39Z</time>
      </trkpt>
      <trkpt lat="43.02144" lon="-0.25663">
        <ele>517</ele>
        <time>2018-06-25T15:45:39Z</time>
      </trkpt>
      <trkpt lat="43.02169" lon="-0.25652">
        <ele>517</ele>
        <time>2018-06-25T15:46:39Z</time>
      </trkpt>
      <trkpt lat="43.02218" lon="-0.2563">
        <ele>520</ele>
        <time>2018-06-25T15:48:39Z</time>
      </trkpt>
      <trkpt lat="43.0222" lon="-0.25628">
        <ele>520</ele>
        <time>2018-06-25T15:49:39Z</time>
      </trkpt>
      <trkpt lat="43.02278" lon="-0.25578">
        <ele>522</ele>
        <time>2018-06-25T15:55:39Z</time>
      </trkpt>
      <trkpt lat="43.023" lon="-0.25573">
        <ele>525</ele>
        <time>2018-06-25T15:57:39Z</time>
      </trkpt>
      <trkpt lat="43.02309" lon="-0.25574">
        <ele>525</ele>
        <time>2018-06-25T15:58:39Z</time>
      </trkpt>
      <trkpt lat="43.02334" lon="-0.25579">
        <ele>522</ele>
        <time>2018-06-25T16:00:39Z</time>
      </trkpt>
      <trkpt lat="43.02356" lon="-0.25586">
        <ele>522</ele>
        <time>2018-06-25T16:01:39Z</time>
      </trkpt>
      <trkpt lat="43.02395" lon="-0.256">
        <ele>526</ele>
        <time>2018-06-25T16:03:39Z</time>
      </trkpt>
      <trkpt lat="43.02436" lon="-0.25621">
        <ele>526</ele>
        <time>2018-06-25T16:04:39Z</time>
      </trkpt>
      <trkpt lat="43.02443" lon="-0.25624">
        <ele>525</ele>
        <time>2018-06-25T16:06:39Z</time>
      </trkpt>
      <trkpt lat="43.02472" lon="-0.25612">
        <ele>528</ele>
        <time>2018-06-25T16:09:39Z</time>
      </trkpt>
      <trkpt lat="43.02486" lon="-0.25609">
        <ele>528</ele>
        <time>2018-06-25T16:10:39Z</time>
      </trkpt>
      <trkpt lat="43.02527" lon="-0.2561">
        <ele>524</ele>
        <time>2018-06-25T16:12:39Z</time>
      </trkpt>
      <trkpt lat="43.02554" lon="-0.25604">
        <ele>519</ele>
        <time>2018-06-25T16:15:39Z</time>
      </trkpt>
      <trkpt lat="43.02569" lon="-0.25602">
        <ele>516</ele>
        <time>2018-06-25T16:17:39Z</time>
      </trkpt>
      <trkpt lat="43.02588" lon="-0.25595">
        <ele>512</ele>
        <time>2018-06-25T16:20:39Z</time>
      </trkpt>
      <trkpt lat="43.02615" lon="-0.25548">
        <ele>521</ele>
        <time>2018-06-25T16:22:39Z</time>
      </trkpt>
      <trkpt lat="43.02622" lon="-0.25538">
        <ele>524</ele>
        <time>2018-06-25T16:23:39Z</time>
      </trkpt>
      <trkpt lat="43.02638" lon="-0.2552">
        <ele>527</ele>
        <time>2018-06-25T16:25:39Z</time>
      </trkpt>
      <trkpt lat="43.02645" lon="-0.25517">
        <ele>527</ele>
        <time>2018-06-25T16:26:39Z</time>
      </trkpt>
      <trkpt lat="43.02665" lon="-0.25521">
        <ele>522</ele>
        <time>2018-06-25T16:29:39Z</time>
      </trkpt>
      <trkpt lat="43.02692" lon="-0.25545">
        <ele>518</ele>
        <time>2018-06-25T16:31:39Z</time>
      </trkpt>
      <trkpt lat="43.02705" lon="-0.2556">
        <ele>513</ele>
        <time>2018-06-25T16:33:39Z</time>
      </trkpt>
      <trkpt lat="43.02723" lon="-0.25587">
        <ele>506</ele>
        <time>2018-06-25T16:34:39Z</time>
      </trkpt>
      <trkpt lat="43.02727" lon="-0.25592">
        <ele>507</ele>
        <time>2018-06-25T16:35:39Z</time>
      </trkpt>
      <trkpt lat="43.02796" lon="-0.25634">
        <ele>506</ele>
        <time>2018-06-25T16:41:39Z</time>
      </trkpt>
      <trkpt lat="43.02828" lon="-0.25626">
        <ele>502</ele>
        <time>2018-06-25T16:43:39Z</time>
      </trkpt>
      <trkpt lat="43.02907" lon="-0.25598">
        <ele>491</ele>
        <time>2018-06-25T16:44:39Z</time>
      </trkpt>
      <trkpt lat="43.02941" lon="-0.25585">
        <ele>490</ele>
        <time>2018-06-25T16:45:39Z</time>
      </trkpt>
      <trkpt lat="43.02961" lon="-0.25584">
        <ele>491</ele>
        <time>2018-06-25T16:47:39Z</time>
      </trkpt>
      <trkpt lat="43.03017" lon="-0.25658">
        <ele>493</ele>
        <time>2018-06-25T16:53:39Z</time>
      </trkpt>
      <trkpt lat="43.03025" lon="-0.25694">
        <ele>496</ele>
        <time>2018-06-25T16:55:39Z</time>
      </trkpt>
      <trkpt lat="43.03044" lon="-0.25723">
        <ele>499</ele>
        <time>2018-06-25T16:57:39Z</time>
      </trkpt>
      <trkpt lat="43.03081" lon="-0.2575">
        <ele>494</ele>
        <time>2018-06-25T16:58:39Z</time>
      </trkpt>
      <trkpt lat="43.03102" lon="-0.25784">
        <ele>499</ele>
        <time>2018-06-25T16:59:39Z</time>
      </trkpt>
      <trkpt lat="43.03116" lon="-0.25801">
        <ele>498</ele>
        <time>2018-06-25T17:01:39Z</time>
      </trkpt>
      <trkpt lat="43.03133" lon="-0.25813">
        <ele>495</ele>
        <time>2018-06-25T17:04:39Z</time>
      </trkpt>
      <trkpt lat="43.03178" lon="-0.25819">
        <ele>492</ele>
        <time>2018-06-25T17:07:39Z</time>
      </trkpt>
      <trkpt lat="43.03185" lon="-0.2582">
        <ele>493</ele>
        <time>2018-06-25T17:09:39Z</time>
      </trkpt>
      <trkpt lat="43.03254" lon="-0.25886">
        <ele>487</ele>
        <time>2018-06-25T17:14:39Z</time>
      </trkpt>
      <trkpt lat="43.03274" lon="-0.25913">
        <ele>484</ele>
        <time>2018-06-25T17:15:39Z</time>
      </trkpt>
      <trkpt lat="43.0329" lon="-0.2593">
        <ele>485</ele>
        <time>2018-06-25T17:16:39Z</time>
      </trkpt>
      <trkpt lat="43.03351" lon="-0.25978">
        <ele>482</ele>
        <time>2018-06-25T17:23:39Z</time>
      </trkpt>
      <trkpt lat="43.03419" lon="-0.25979">
        <ele>484</ele>
        <time>2018-06-25T17:28:39Z</time>
      </trkpt>
      <trkpt lat="43.03461" lon="-0.25963">
        <ele>490</ele>
        <time>2018-06-25T17:30:39Z</time>
      </trkpt>
      <trkpt lat="43.03531" lon="-0.2597">
        <ele>487</ele>
        <time>2018-06-25T17:33:39Z</time>
      </trkpt>
      <trkpt lat="43.03559" lon="-0.25984">
        <ele>480</ele>
        <time>2018-06-25T17:34:39Z</time>
      </trkpt>
      <trkpt lat="43.03575" lon="-0.2599">
        <ele>477</ele>
        <time>2018-06-25T17:35:39Z</time>
      </trkpt>
      <trkpt lat="43.0359" lon="-0.25996">
        <ele>474</ele>
        <time>2018-06-25T17:37:39Z</time>
      </trkpt>
      <trkpt lat="43.03634" lon="-0.2595">
        <ele>481</ele>
        <time>2018-06-25T17:44:39Z</time>
      </trkpt>
      <trkpt lat="43.03634" lon="-0.2594">
        <ele>484</ele>
        <time>2018-06-25T17:45:39Z</time>
      </trkpt>
      <trkpt lat="43.03647" lon="-0.25908">
        <ele>490</ele>
        <time>2018-06-25T17:47:39Z</time>
      </trkpt>
      <trkpt lat="43.03684" lon="-0.259">
        <ele>488</ele>
        <time>2018-06-25T17:51:39Z</time>
      </trkpt>
      <trkpt lat="43.0372" lon="-0.25915">
        <ele>479</ele>
        <time>2018-06-25T17:52:39Z</time>
      </trkpt>
      <trkpt lat="43.03746" lon="-0.25932">
        <ele>474</ele>
        <time>2018-06-25T17:54:39Z</time>
      </trkpt>
      <trkpt lat="43.0378" lon="-0.25971">
        <ele>465</ele>
        <time>2018-06-25T17:55:39Z</time>
      </trkpt>
      <trkpt lat="43.03794" lon="-0.25981">
        <ele>461</ele>
        <time>2018-06-25T17:56:39Z</time>
      </trkpt>
      <trkpt lat="43.03807" lon="-0.2599">
        <ele>458</ele>
        <time>2018-06-25T17:58:39Z</time>
      </trkpt>
      <trkpt lat="43.03828" lon="-0.25996">
        <ele>455</ele>
        <time>2018-06-25T18:00:39Z</time>
      </trkpt>
      <trkpt lat="43.03916" lon="-0.26023">
        <ele>457</ele>
        <time>2018-06-25T18:04:39Z</time>
      </trkpt>
      <trkpt lat="43.03953" lon="-0.26034">
        <ele>460</ele>
        <time>2018-06-25T18:06:39Z</time>
      </trkpt>
      <trkpt lat="43.04018" lon="-0.26048">
        <ele>466</ele>
        <time>2018-06-25T18:09:39Z</time>
      </trkpt>
      <trkpt lat="43.04023" lon="-0.26052">
        <ele>466</ele>
        <time>2018-06-25T18:10:39Z</time>
      </trkpt>
      <trkpt lat="43.04077" lon="-0.26139">
        <ele>458</ele>
        <time>2018-06-25T18:15:39Z</time>
      </trkpt>
      <trkpt lat="43.04095" lon="-0.26171">
        <ele>452</ele>
        <time>2018-06-25T18:16:39Z</time>
      </trkpt>
      <trkpt lat="43.04099" lon="-0.26176">
        <ele>453</ele>
        <time>2018-06-25T18:17:39Z</time>
      </trkpt>
      <trkpt lat="43.04118" lon="-0.26186">
        <ele>457</ele>
        <time>2018-06-25T18:18:39Z</time>
      </trkpt>
      <trkpt lat="43.04149" lon="-0.26187">
        <ele>460</ele>
        <time>2018-06-25T18:20:39Z</time>
      </trkpt>
      <trkpt lat="43.04218" lon="-0.26169">
        <ele>462</ele>
        <time>2018-06-25T18:25:39Z</time>
      </trkpt>
      <trkpt lat="43.04237" lon="-0.26187">
        <ele>460</ele>
        <time>2018-06-25T18:29:39Z</time>
      </trkpt>
      <trkpt lat="43.04246" lon="-0.26205">
        <ele>456</ele>
        <time>2018-06-25T18:30:39Z</time>
      </trkpt>
      <trkpt lat="43.0431" lon="-0.26267">
        <ele>458</ele>
        <time>2018-06-25T18:35:39Z</time>
      </trkpt>
      <trkpt lat="43.04324" lon="-0.26279">
        <ele>458</ele>
        <time>2018-06-25T18:36:39Z</time>
      </trkpt>
      <trkpt lat="43.0435" lon="-0.26351">
        <ele>459</ele>
        <time>2018-06-25T18:42:39Z</time>
      </trkpt>
      <trkpt lat="43.04362" lon="-0.26444">
        <ele>463</ele>
        <time>2018-06-25T18:47:39Z</time>
      </trkpt>
      <trkpt lat="43.04367" lon="-0.26461">
        <ele>463</ele>
        <time>2018-06-25T18:48:39Z</time>
      </trkpt>
      <trkpt lat="43.04383" lon="-0.26504">
        <ele>460</ele>
        <time>2018-06-25T18:49:39Z</time>
      </trkpt>
      <trkpt lat="43.04416" lon="-0.26595">
        <ele>444</ele>
        <time>2018-06-25T18:50:39Z</time>
      </trkpt>
      <trkpt lat="43.0442" lon="-0.26608">
        <ele>446</ele>
        <time>2018-06-25T18:51:39Z</time>
      </trkpt>
      <trkpt lat="43.04432" lon="-0.26638">
        <ele>450</ele>
        <time>2018-06-25T18:52:39Z</time>
      </trkpt>
      <trkpt lat="43.04512" lon="-0.26718">
        <ele>443</ele>
        <time>2018-06-25T18:56:39Z</time>
      </trkpt>
      <trkpt lat="43.04585" lon="-0.26773">
        <ele>437</ele>
        <time>2018-06-25T18:58:39Z</time>
      </trkpt>
      <trkpt lat="43.04601" lon="-0.26778">
        <ele>438</ele>
        <time>2018-06-25T18:59:39Z</time>
      </trkpt>
      <trkpt lat="43.0463" lon="-0.26778">
        <ele>439</ele>
        <time>2018-06-25T19:01:39Z</time>
      </trkpt>
      <trkpt lat="43.04694" lon="-0.26767">
        <ele>437</ele>
        <time>2018-06-25T19:02:39Z</time>
      </trkpt>
      <trkpt lat="43.0473" lon="-0.26748">
        <ele>434</ele>
        <time>2018-06-25T19:04:39Z</time>
      </trkpt>
      <trkpt lat="43.0477" lon="-0.26716">
        <ele>434</ele>
        <time>2018-06-25T19:05:39Z</time>
      </trkpt>
      <trkpt lat="43.04793" lon="-0.26694">
        <ele>433</ele>
        <time>2018-06-25T19:07:39Z</time>
      </trkpt>
      <trkpt lat="43.04822" lon="-0.26662">
        <ele>429</ele>
        <time>2018-06-25T19:08:39Z</time>
      </trkpt>
      <trkpt lat="43.0483" lon="-0.26647">
        <ele>429</ele>
        <time>2018-06-25T19:09:39Z</time>
      </trkpt>
      <trkpt lat="43.04874" lon="-0.26559">
        <ele>435</ele>
        <time>2018-06-25T19:11:39Z</time>
      </trkpt>
      <trkpt lat="43.04896" lon="-0.26534">
        <ele>437</ele>
        <time>2018-06-25T19:13:39Z</time>
      </trkpt>
      <trkpt lat="43.04901" lon="-0.2653">
        <ele>437</ele>
        <time>2018-06-25T19:14:39Z</time>
      </trkpt>
      <trkpt lat="43.04988" lon="-0.265">
        <ele>433</ele>
        <time>2018-06-25T19:19:39Z</time>
      </trkpt>
      <trkpt lat="43.04999" lon="-0.26499">
        <ele>433</ele>
        <time>2018-06-25T19:20:39Z</time>
      </trkpt>
      <trkpt lat="43.05079" lon="-0.26517">
        <ele>430</ele>
        <time>2018-06-25T19:23:39Z</time>
      </trkpt>
      <trkpt lat="43.05162" lon="-0.26517">
        <ele>426</ele>
        <time>2018-06-25T19:27:39Z</time>
      </trkpt>
      <trkpt lat="43.05179" lon="-0.26505">
        <ele>427</ele>
        <time>2018-06-25T19:28:39Z</time>
      </trkpt>
      <trkpt lat="43.05217" lon="-0.2645">
        <ele>433</ele>
        <time>2018-06-25T19:30:39Z</time>
      </trkpt>
      <trkpt lat="43.05266" lon="-0.26345">
        <ele>428</ele>
        <time>2018-06-25T19:31:39Z</time>
      </trkpt>
      <trkpt lat="43.0528" lon="-0.26311">
        <ele>429</ele>
        <time>2018-06-25T19:32:39Z</time>
      </trkpt>
      <trkpt lat="43.05381" lon="-0.26249">
        <ele>428</ele>
        <time>2018-06-25T19:39:39Z</time>
      </trkpt>
      <trkpt lat="43.05457" lon="-0.26306">
        <ele>425</ele>
        <time>2018-06-25T19:42:39Z</time>
      </trkpt>
      <trkpt lat="43.05496" lon="-0.26339">
        <ele>419</ele>
        <time>2018-06-25T19:43:39Z</time>
      </trkpt>
      <trkpt lat="43.0553" lon="-0.26354">
        <ele>418</ele>
        <time>2018-06-25T19:45:39Z</time>
      </trkpt>
      <trkpt lat="43.05579" lon="-0.2634">
        <ele>418</ele>
        <time>2018-06-25T19:48:39Z</time>
      </trkpt>
      <trkpt lat="43.05629" lon="-0.26293">
        <ele>423</ele>
        <time>2018-06-25T19:49:39Z</time>
      </trkpt>
      <trkpt lat="43.05636" lon="-0.26285">
        <ele>423</ele>
        <time>2018-06-25T19:50:39Z</time>
      </trkpt>
      <trkpt lat="43.05718" lon="-0.26251">
        <ele>424</ele>
        <time>2018-06-25T19:55:39Z</time>
      </trkpt>
      <trkpt lat="43.05783" lon="-0.26251">
        <ele>421</ele>
        <time>2018-06-25T19:58:39Z</time>
      </trkpt>
      <trkpt lat="43.05857" lon="-0.26238">
        <ele>418</ele>
        <time>2018-06-25T20:00:39Z</time>
      </trkpt>
      <trkpt lat="43.05899" lon="-0.26237">
        <ele>413</ele>
        <time>2018-06-25T20:02:39Z</time>
      </trkpt>
      <trkpt lat="43.05944" lon="-0.26238">
        <ele>410</ele>
        <time>2018-06-25T20:03:39Z</time>
      </trkpt>
      <trkpt lat="43.05972" lon="-0.26239">
        <ele>409</ele>
        <time>2018-06-25T20:05:39Z</time>
      </trkpt>
      <trkpt lat="43.06" lon="-0.26254">
        <ele>408</ele>
        <time>2018-06-25T20:12:39Z</time>
      </trkpt>
      <trkpt lat="43.06024" lon="-0.26255">
        <ele>408</ele>
        <time>2018-06-25T20:16:39Z</time>
      </trkpt>
      <trkpt lat="43.0609" lon="-0.2623">
        <ele>410</ele>
        <time>2018-06-25T20:21:39Z</time>
      </trkpt>
      <trkpt lat="43.06093" lon="-0.26228">
        <ele>410</ele>
        <time>2018-06-25T20:22:39Z</time>
      </trkpt>
      <trkpt lat="43.06139" lon="-0.26165">
        <ele>412</ele>
        <time>2018-06-25T20:25:39Z</time>
      </trkpt>
      <trkpt lat="43.0615" lon="-0.26151">
        <ele>415</ele>
        <time>2018-06-25T20:26:39Z</time>
      </trkpt>
      <trkpt lat="43.06166" lon="-0.26137">
        <ele>418</ele>
        <time>2018-06-25T20:27:39Z</time>
      </trkpt>
      <trkpt lat="43.06181" lon="-0.26125">
        <ele>421</ele>
        <time>2018-06-25T20:28:39Z</time>
      </trkpt>
      <trkpt lat="43.0627" lon="-0.26109">
        <ele>422</ele>
        <time>2018-06-25T20:35:39Z</time>
      </trkpt>
      <trkpt lat="43.06314" lon="-0.26127">
        <ele>419</ele>
        <time>2018-06-25T20:38:39Z</time>
      </trkpt>
      <trkpt lat="43.06372" lon="-0.26172">
        <ele>406</ele>
        <time>2018-06-25T20:39:39Z</time>
      </trkpt>
      <trkpt lat="43.06387" lon="-0.26184">
        <ele>406</ele>
        <time>2018-06-25T20:40:39Z</time>
      </trkpt>
      <trkpt lat="43.06433" lon="-0.26208">
        <ele>403</ele>
        <time>2018-06-25T20:43:39Z</time>
      </trkpt>
      <trkpt lat="43.06438" lon="-0.26209">
        <ele>403</ele>
        <time>2018-06-25T20:44:39Z</time>
      </trkpt>
      <trkpt lat="43.06524" lon="-0.26209">
        <ele>408</ele>
        <time>2018-06-25T20:53:39Z</time>
      </trkpt>
      <trkpt lat="43.06577" lon="-0.26202">
        <ele>415</ele>
        <time>2018-06-25T20:54:39Z</time>
      </trkpt>
      <trkpt lat="43.06609" lon="-0.26186">
        <ele>418</ele>
        <time>2018-06-25T20:56:39Z</time>
      </trkpt>
      <trkpt lat="43.06609" lon="-0.26186">
        <ele>418</ele>
        <time>2018-06-25T20:57:39Z</time>
      </trkpt>
      <trkpt lat="43.06649" lon="-0.26138">
        <ele>419</ele>
        <time>2018-06-25T20:59:39Z</time>
      </trkpt>
      <trkpt lat="43.06665" lon="-0.26106">
        <ele>413</ele>
        <time>2018-06-25T21:00:39Z</time>
      </trkpt>
      <trkpt lat="43.06678" lon="-0.26087">
        <ele>409</ele>
        <time>2018-06-25T21:01:39Z</time>
      </trkpt>
      <trkpt lat="43.06699" lon="-0.26064">
        <ele>406</ele>
        <time>2018-06-25T21:02:39Z</time>
      </trkpt>
      <trkpt lat="43.06729" lon="-0.26047">
        <ele>403</ele>
        <time>2018-06-25T21:04:39Z</time>
      </trkpt>
      <trkpt lat="43.06848" lon="-0.26064">
        <ele>404</ele>
        <time>2018-06-25T21:09:39Z</time>
      </trkpt>
      <trkpt lat="43.06898" lon="-0.26104">
        <ele>411</ele>
        <time>2018-06-25T21:12:39Z</time>
      </trkpt>
      <trkpt lat="43.0695" lon="-0.26173">
        <ele>420</ele>
        <time>2018-06-25T21:14:39Z</time>
      </trkpt>
      <trkpt lat="43.06962" lon="-0.26187">
        <ele>420</ele>
        <time>2018-06-25T21:15:39Z</time>
      </trkpt>
      <trkpt lat="43.07053" lon="-0.26242">
        <ele>419</ele>
        <time>2018-06-25T21:20:39Z</time>
      </trkpt>
      <trkpt lat="43.0718" lon="-0.2629">
        <ele>417</ele>
        <time>2018-06-25T21:26:39Z</time>
      </trkpt>
      <trkpt lat="43.07194" lon="-0.26293">
        <ele>417</ele>
        <time>2018-06-25T21:27:39Z</time>
      </trkpt>
      <trkpt lat="43.07249" lon="-0.26312">
        <ele>420</ele>
        <time>2018-06-25T21:29:39Z</time>
      </trkpt>
      <trkpt lat="43.07292" lon="-0.26309">
        <ele>420</ele>
        <time>2018-06-25T21:31:39Z</time>
      </trkpt>
      <trkpt lat="43.07366" lon="-0.26251">
        <ele>415</ele>
        <time>2018-06-25T21:36:39Z</time>
      </trkpt>
      <trkpt lat="43.07422" lon="-0.26186">
        <ele>411</ele>
        <time>2018-06-25T21:38:39Z</time>
      </trkpt>
      <trkpt lat="43.07464" lon="-0.26145">
        <ele>409</ele>
        <time>2018-06-25T21:41:39Z</time>
      </trkpt>
      <trkpt lat="43.07493" lon="-0.26122">
        <ele>408</ele>
        <time>2018-06-25T21:42:39Z</time>
      </trkpt>
      <trkpt lat="43.07565" lon="-0.26066">
        <ele>411</ele>
        <time>2018-06-25T21:43:39Z</time>
      </trkpt>
      <trkpt lat="43.07566" lon="-0.26066">
        <ele>411</ele>
        <time>2018-06-25T21:44:39Z</time>
      </trkpt>
      <trkpt lat="43.07608" lon="-0.26027">
        <ele>412</ele>
        <time>2018-06-25T21:47:39Z</time>
      </trkpt>
      <trkpt lat="43.07696" lon="-0.26005">
        <ele>409</ele>
        <time>2018-06-25T21:52:39Z</time>
      </trkpt>
      <trkpt lat="43.07763" lon="-0.25996">
        <ele>406</ele>
        <time>2018-06-25T21:56:39Z</time>
      </trkpt>
      <trkpt lat="43.07765" lon="-0.25996">
        <ele>406</ele>
        <time>2018-06-25T21:57:39Z</time>
      </trkpt>
      <trkpt lat="43.07816" lon="-0.25954">
        <ele>399</ele>
        <time>2018-06-25T21:59:39Z</time>
      </trkpt>
      <trkpt lat="43.07818" lon="-0.25952">
        <ele>399</ele>
        <time>2018-06-25T22:00:39Z</time>
      </trkpt>
      <trkpt lat="43.07853" lon="-0.25926">
        <ele>396</ele>
        <time>2018-06-25T22:02:39Z</time>
      </trkpt>
      <trkpt lat="43.08011" lon="-0.25841">
        <ele>397</ele>
        <time>2018-06-25T22:06:39Z</time>
      </trkpt>
      <trkpt lat="43.08074" lon="-0.25769">
        <ele>401</ele>
        <time>2018-06-25T22:09:39Z</time>
      </trkpt>
      <trkpt lat="43.08154" lon="-0.25742">
        <ele>404</ele>
        <time>2018-06-25T22:14:39Z</time>
      </trkpt>
      <trkpt lat="43.08219" lon="-0.2574">
        <ele>400</ele>
        <time>2018-06-25T22:18:39Z</time>
      </trkpt>
      <trkpt lat="43.08325" lon="-0.25716">
        <ele>398</ele>
        <time>2018-06-25T22:19:39Z</time>
      </trkpt>
      <trkpt lat="43.08455" lon="-0.2571">
        <ele>406</ele>
        <time>2018-06-25T22:20:39Z</time>
      </trkpt>
      <trkpt lat="43.08478" lon="-0.25707">
        <ele>409</ele>
        <time>2018-06-25T22:21:39Z</time>
      </trkpt>
      <trkpt lat="43.08518" lon="-0.25676">
        <ele>405</ele>
        <time>2018-06-25T22:24:39Z</time>
      </trkpt>
      <trkpt lat="43.08538" lon="-0.25647">
        <ele>399</ele>
        <time>2018-06-25T22:26:39Z</time>
      </trkpt>
      <trkpt lat="43.08546" lon="-0.25622">
        <ele>396</ele>
        <time>2018-06-25T22:27:39Z</time>
      </trkpt>
      <trkpt lat="43.08548" lon="-0.25535">
        <ele>390</ele>
        <time>2018-06-25T22:29:39Z</time>
      </trkpt>
      <trkpt lat="43.08546" lon="-0.25478">
        <ele>387</ele>
        <time>2018-06-25T22:30:39Z</time>
      </trkpt>
      <trkpt lat="43.08544" lon="-0.25391">
        <ele>382</ele>
        <time>2018-06-25T22:31:39Z</time>
      </trkpt>
      <trkpt lat="43.08541" lon="-0.25353">
        <ele>380</ele>
        <time>2018-06-25T22:33:39Z</time>
      </trkpt>
      <trkpt lat="43.08564" lon="-0.25302">
        <ele>378</ele>
        <time>2018-06-25T22:41:39Z</time>
      </trkpt>
      <trkpt lat="43.08667" lon="-0.25264">
        <ele>377</ele>
        <time>2018-06-25T22:46:39Z</time>
      </trkpt>
      <trkpt lat="43.08734" lon="-0.25221">
        <ele>377</ele>
        <time>2018-06-25T22:50:39Z</time>
      </trkpt>
      <trkpt lat="43.08737" lon="-0.25214">
        <ele>377</ele>
        <time>2018-06-25T23:00:39Z</time>
      </trkpt>
      <trkpt lat="43.08802" lon="-0.25191">
        <ele>380</ele>
        <time>2018-06-25T23:11:39Z</time>
      </trkpt>
      <trkpt lat="43.08903" lon="-0.25189">
        <ele>388</ele>
        <time>2018-06-25T23:14:39Z</time>
      </trkpt>
      <trkpt lat="43.08906" lon="-0.25189">
        <ele>388</ele>
        <time>2018-06-25T23:15:39Z</time>
      </trkpt>
      <trkpt lat="43.08992" lon="-0.25194">
        <ele>385</ele>
        <time>2018-06-25T23:18:39Z</time>
      </trkpt>
      <trkpt lat="43.09039" lon="-0.25236">
        <ele>387</ele>
        <time>2018-06-25T23:22:39Z</time>
      </trkpt>
      <trkpt lat="43.09059" lon="-0.25281">
        <ele>391</ele>
        <time>2018-06-25T23:23:39Z</time>
      </trkpt>
      <trkpt lat="43.09072" lon="-0.25296">
        <ele>392</ele>
        <time>2018-06-25T23:25:39Z</time>
      </trkpt>
      <trkpt lat="43.09147" lon="-0.25263">
        <ele>397</ele>
        <time>2018-06-25T23:30:39Z</time>
      </trkpt>
      <trkpt lat="43.09162" lon="-0.25251">
        <ele>397</ele>
        <time>2018-06-25T23:31:39Z</time>
      </trkpt>
      <trkpt lat="43.09192" lon="-0.252">
        <ele>390</ele>
        <time>2018-06-25T23:33:39Z</time>
      </trkpt>
      <trkpt lat="43.09203" lon="-0.25186">
        <ele>390</ele>
        <time>2018-06-25T23:34:39Z</time>
      </trkpt>
      <trkpt lat="43.0928" lon="-0.25101">
        <ele>386</ele>
        <time>2018-06-25T23:38:39Z</time>
      </trkpt>
      <trkpt lat="43.09285" lon="-0.2509">
        <ele>383</ele>
        <time>2018-06-25T23:39:39Z</time>
      </trkpt>
      <trkpt lat="43.09289" lon="-0.25073">
        <ele>379</ele>
        <time>2018-06-25T23:40:39Z</time>
      </trkpt>
      <trkpt lat="43.09291" lon="-0.25051">
        <ele>374</ele>
        <time>2018-06-25T23:41:39Z</time>
      </trkpt>
      <trkpt lat="43.09292" lon="-0.25032">
        <ele>370</ele>
        <time>2018-06-25T23:42:39Z</time>
      </trkpt>
      <trkpt lat="43.09292" lon="-0.25007">
        <ele>364</ele>
        <time>2018-06-25T23:44:39Z</time>
      </trkpt>
      <trkpt lat="43.09294" lon="-0.24991">
        <ele>361</ele>
        <time>2018-06-25T23:46:39Z</time>
      </trkpt>
      <trkpt lat="43.09296" lon="-0.24987">
        <ele>361</ele>
        <time>2018-06-25T23:47:39Z</time>
      </trkpt>
      <trkpt lat="43.09337" lon="-0.24984">
        <ele>364</ele>
        <time>2018-06-25T23:53:39Z</time>
      </trkpt>
      <trkpt lat="43.09394" lon="-0.24974">
        <ele>367</ele>
        <time>2018-06-25T23:56:39Z</time>
      </trkpt>
      <trkpt lat="43.09455" lon="-0.24954">
        <ele>363</ele>
        <time>2018-06-25T23:58:39Z</time>
      </trkpt>
      <trkpt lat="43.09479" lon="-0.24941">
        <ele>359</ele>
        <time>2018-06-25T23:59:39Z</time>
      </trkpt>
      <trkpt lat="43.09497" lon="-0.24929">
        <ele>355</ele>
        <time>2018-06-26T00:00:39Z</time>
      </trkpt>
      <trkpt lat="43.09512" lon="-0.24913">
        <ele>352</ele>
        <time>2018-06-26T00:02:39Z</time>
      </trkpt>
      <trkpt lat="43.0953" lon="-0.24894">
        <ele>353</ele>
        <time>2018-06-26T00:03:39Z</time>
      </trkpt>
      <trkpt lat="43.09561" lon="-0.24849">
        <ele>350</ele>
        <time>2018-06-26T00:05:39Z</time>
      </trkpt>
      <trkpt lat="43.09576" lon="-0.24826">
        <ele>347</ele>
        <time>2018-06-26T00:06:39Z</time>
      </trkpt>
      <trkpt lat="43.09608" lon="-0.24781">
        <ele>344</ele>
        <time>2018-06-26T00:08:39Z</time>
      </trkpt>
      <trkpt lat="43.09644" lon="-0.24741">
        <ele>341</ele>
        <time>2018-06-26T00:09:39Z</time>
      </trkpt>
      <trkpt lat="43.0965" lon="-0.24734">
        <ele>341</ele>
        <time>2018-06-26T00:10:39Z</time>
      </trkpt>
      <trkpt lat="43.09687" lon="-0.2467">
        <ele>339</ele>
        <time>2018-06-26T00:13:39Z</time>
      </trkpt>
      <trkpt lat="43.09725" lon="-0.2458">
        <ele>340</ele>
        <time>2018-06-26T00:14:39Z</time>
      </trkpt>
      <trkpt lat="43.09735" lon="-0.24565">
        <ele>340</ele>
        <time>2018-06-26T00:15:39Z</time>
      </trkpt>
      <trkpt lat="43.09796" lon="-0.24521">
        <ele>339</ele>
        <time>2018-06-26T00:21:39Z</time>
      </trkpt>
      <trkpt lat="43.09859" lon="-0.24544">
        <ele>338</ele>
        <time>2018-06-26T00:29:39Z</time>
      </trkpt>
      <trkpt lat="43.09936" lon="-0.24555">
        <ele>337</ele>
        <time>2018-06-26T00:31:39Z</time>
      </trkpt>
      <trkpt lat="43.09965" lon="-0.24553">
        <ele>336</ele>
        <time>2018-06-26T00:33:39Z</time>
      </trkpt>
      <trkpt lat="43.10041" lon="-0.24541">
        <ele>335</ele>
        <time>2018-06-26T00:37:39Z</time>
      </trkpt>
      <trkpt lat="43.10141" lon="-0.24547">
        <ele>334</ele>
        <time>2018-06-26T00:46:39Z</time>
      </trkpt>
      <trkpt lat="43.10236" lon="-0.24571">
        <ele>334</ele>
        <time>2018-06-26T00:47:39Z</time>
      </trkpt>
      <trkpt lat="43.10247" lon="-0.24575">
        <ele>334</ele>
        <time>2018-06-26T00:48:39Z</time>
      </trkpt>
      <trkpt lat="43.10307" lon="-0.24589">
        <ele>333</ele>
        <time>2018-06-26T00:49:39Z</time>
      </trkpt>
      <trkpt lat="43.10319" lon="-0.24592">
        <ele>333</ele>
        <time>2018-06-26T00:50:39Z</time>
      </trkpt>
      <trkpt lat="43.10398" lon="-0.24596">
        <ele>333</ele>
        <time>2018-06-26T00:56:39Z</time>
      </trkpt>
      <trkpt lat="43.10506" lon="-0.24595">
        <ele>333</ele>
        <time>2018-06-26T01:03:39Z</time>
      </trkpt>
      <trkpt lat="43.10575" lon="-0.24662">
        <ele>340</ele>
        <time>2018-06-26T01:11:39Z</time>
      </trkpt>
      <trkpt lat="43.10591" lon="-0.24677">
        <ele>343</ele>
        <time>2018-06-26T01:12:39Z</time>
      </trkpt>
      <trkpt lat="43.10604" lon="-0.24691">
        <ele>346</ele>
        <time>2018-06-26T01:13:39Z</time>
      </trkpt>
      <trkpt lat="43.10616" lon="-0.24701">
        <ele>349</ele>
        <time>2018-06-26T01:15:39Z</time>
      </trkpt>
      <trkpt lat="43.10672" lon="-0.24705">
        <ele>346</ele>
        <time>2018-06-26T01:21:39Z</time>
      </trkpt>
      <trkpt lat="43.10715" lon="-0.24689">
        <ele>342</ele>
        <time>2018-06-26T01:22:39Z</time>
      </trkpt>
      <trkpt lat="43.10738" lon="-0.2468">
        <ele>339</ele>
        <time>2018-06-26T01:24:39Z</time>
      </trkpt>
      <trkpt lat="43.10758" lon="-0.24666">
        <ele>336</ele>
        <time>2018-06-26T01:25:39Z</time>
      </trkpt>
      <trkpt lat="43.10801" lon="-0.2465">
        <ele>335</ele>
        <time>2018-06-26T01:30:39Z</time>
      </trkpt>
      <trkpt lat="43.10884" lon="-0.24693">
        <ele>339</ele>
        <time>2018-06-26T01:38:39Z</time>
      </trkpt>
      <trkpt lat="43.10886" lon="-0.24694">
        <ele>339</ele>
        <time>2018-06-26T01:39:39Z</time>
      </trkpt>
      <trkpt lat="43.11018" lon="-0.24711">
        <ele>341</ele>
        <time>2018-06-26T01:45:39Z</time>
      </trkpt>
      <trkpt lat="43.11138" lon="-0.2471">
        <ele>342</ele>
        <time>2018-06-26T01:47:39Z</time>
      </trkpt>
      <trkpt lat="43.11321" lon="-0.24698">
        <ele>338</ele>
        <time>2018-06-26T01:49:39Z</time>
      </trkpt>
      <trkpt lat="43.11365" lon="-0.24701">
        <ele>339</ele>
        <time>2018-06-26T01:50:39Z</time>
      </trkpt>
      <trkpt lat="43.11386" lon="-0.24698">
        <ele>339</ele>
        <time>2018-06-26T01:52:39Z</time>
      </trkpt>
      <trkpt lat="43.11432" lon="-0.2468">
        <ele>336</ele>
        <time>2018-06-26T01:56:39Z</time>
      </trkpt>
      <trkpt lat="43.11442" lon="-0.24668">
        <ele>333</ele>
        <time>2018-06-26T01:58:39Z</time>
      </trkpt>
      <trkpt lat="43.1146" lon="-0.24641">
        <ele>330</ele>
        <time>2018-06-26T01:59:39Z</time>
      </trkpt>
      <trkpt lat="43.11502" lon="-0.24624">
        <ele>328</ele>
        <time>2018-06-26T02:05:39Z</time>
      </trkpt>
      <trkpt lat="43.11582" lon="-0.24649">
        <ele>321</ele>
        <time>2018-06-26T02:12:39Z</time>
      </trkpt>
      <trkpt lat="43.11714" lon="-0.24725">
        <ele>319</ele>
        <time>2018-06-26T02:16:39Z</time>
      </trkpt>
      <trkpt lat="43.11835" lon="-0.24763">
        <ele>319</ele>
        <time>2018-06-26T02:20:39Z</time>
      </trkpt>
      <trkpt lat="43.11884" lon="-0.24788">
        <ele>320</ele>
        <time>2018-06-26T02:25:39Z</time>
      </trkpt>
      <trkpt lat="43.11912" lon="-0.24818">
        <ele>322</ele>
        <time>2018-06-26T02:29:39Z</time>
      </trkpt>
      <trkpt lat="43.11956" lon="-0.24872">
        <ele>326</ele>
        <time>2018-06-26T02:33:39Z</time>
      </trkpt>
      <trkpt lat="43.11981" lon="-0.249">
        <ele>329</ele>
        <time>2018-06-26T02:34:39Z</time>
      </trkpt>
      <trkpt lat="43.11997" lon="-0.2491">
        <ele>329</ele>
        <time>2018-06-26T02:35:39Z</time>
      </trkpt>
      <trkpt lat="43.12068" lon="-0.24915">
        <ele>327</ele>
        <time>2018-06-26T02:41:39Z</time>
      </trkpt>
      <trkpt lat="43.1214" lon="-0.24906">
        <ele>324</ele>
        <time>2018-06-26T02:43:39Z</time>
      </trkpt>
      <trkpt lat="43.12154" lon="-0.24905">
        <ele>324</ele>
        <time>2018-06-26T02:44:39Z</time>
      </trkpt>
      <trkpt lat="43.1219" lon="-0.24909">
        <ele>322</ele>
        <time>2018-06-26T02:49:39Z</time>
      </trkpt>
      <trkpt lat="43.12266" lon="-0.24954">
        <ele>317</ele>
        <time>2018-06-26T02:54:39Z</time>
      </trkpt>
      <trkpt lat="43.12364" lon="-0.25034">
        <ele>315</ele>
        <time>2018-06-26T02:56:39Z</time>
      </trkpt>
      <trkpt lat="43.12384" lon="-0.25049">
        <ele>315</ele>
        <time>2018-06-26T02:58:39Z</time>
      </trkpt>
      <trkpt lat="43.12479" lon="-0.25115">
        <ele>317</ele>
        <time>2018-06-26T03:03:39Z</time>
      </trkpt>
      <trkpt lat="43.12541" lon="-0.25175">
        <ele>317</ele>
        <time>2018-06-26T03:05:39Z</time>
      </trkpt>
      <trkpt lat="43.12639" lon="-0.25231">
        <ele>320</ele>
        <time>2018-06-26T03:11:39Z</time>
      </trkpt>
      <trkpt lat="43.12647" lon="-0.25235">
        <ele>320</ele>
        <time>2018-06-26T03:12:39Z</time>
      </trkpt>
      <trkpt lat="43.12743" lon="-0.25246">
        <ele>320</ele>
        <time>2018-06-26T03:15:39Z</time>
      </trkpt>
      <trkpt lat="43.12795" lon="-0.25259">
        <ele>319</ele>
        <time>2018-06-26T03:18:39Z</time>
      </trkpt>
      <trkpt lat="43.12873" lon="-0.25287">
        <ele>317</ele>
        <time>2018-06-26T03:19:39Z</time>
      </trkpt>
      <trkpt lat="43.12877" lon="-0.25288">
        <ele>317</ele>
        <time>2018-06-26T03:20:39Z</time>
      </trkpt>
      <trkpt lat="43.12924" lon="-0.25287">
        <ele>315</ele>
        <time>2018-06-26T03:24:39Z</time>
      </trkpt>
      <trkpt lat="43.12987" lon="-0.25305">
        <ele>314</ele>
        <time>2018-06-26T03:29:39Z</time>
      </trkpt>
      <trkpt lat="43.13063" lon="-0.25329">
        <ele>311</ele>
        <time>2018-06-26T03:31:39Z</time>
      </trkpt>
      <trkpt lat="43.13207" lon="-0.25391">
        <ele>310</ele>
        <time>2018-06-26T03:33:39Z</time>
      </trkpt>
      <trkpt lat="43.13229" lon="-0.25401">
        <ele>310</ele>
        <time>2018-06-26T03:34:39Z</time>
      </trkpt>
      <trkpt lat="43.13381" lon="-0.25476">
        <ele>309</ele>
        <time>2018-06-26T03:35:39Z</time>
      </trkpt>
      <trkpt lat="43.13403" lon="-0.25484">
        <ele>309</ele>
        <time>2018-06-26T03:36:39Z</time>
      </trkpt>
      <trkpt lat="43.13559" lon="-0.25512">
        <ele>310</ele>
        <time>2018-06-26T03:39:39Z</time>
      </trkpt>
      <trkpt lat="43.1356" lon="-0.25513">
        <ele>310</ele>
        <time>2018-06-26T03:40:39Z</time>
      </trkpt>
      <trkpt lat="43.13628" lon="-0.25525">
        <ele>312</ele>
        <time>2018-06-26T03:41:39Z</time>
      </trkpt>
      <trkpt lat="43.13641" lon="-0.25528">
        <ele>313</ele>
        <time>2018-06-26T03:42:39Z</time>
      </trkpt>
      <trkpt lat="43.13652" lon="-0.25531">
        <ele>313</ele>
        <time>2018-06-26T03:43:39Z</time>
      </trkpt>
      <trkpt lat="43.13709" lon="-0.25553">
        <ele>316</ele>
        <time>2018-06-26T03:52:39Z</time>
      </trkpt>
      <trkpt lat="43.13732" lon="-0.25545">
        <ele>316</ele>
        <time>2018-06-26T03:56:39Z</time>
      </trkpt>
      <trkpt lat="43.13846" lon="-0.25505">
        <ele>318</ele>
        <time>2018-06-26T04:03:39Z</time>
      </trkpt>
      <trkpt lat="43.13865" lon="-0.25498">
        <ele>318</ele>
        <time>2018-06-26T04:05:39Z</time>
      </trkpt>
      <trkpt lat="43.1394" lon="-0.25463">
        <ele>318</ele>
        <time>2018-06-26T04:09:39Z</time>
      </trkpt>
      <trkpt lat="43.14018" lon="-0.25476">
        <ele>320</ele>
        <time>2018-06-26T04:18:39Z</time>
      </trkpt>
      <trkpt lat="43.13999" lon="-0.25552">
        <ele>322</ele>
        <time>2018-06-26T04:27:39Z</time>
      </trkpt>
      <trkpt lat="43.13927" lon="-0.25675">
        <ele>325</ele>
        <time>2018-06-26T04:32:39Z</time>
      </trkpt>
      <trkpt lat="43.13926" lon="-0.25679">
        <ele>325</ele>
        <time>2018-06-26T04:33:39Z</time>
      </trkpt>
      <trkpt lat="43.1388" lon="-0.2576">
        <ele>329</ele>
        <time>2018-06-26T04:35:39Z</time>
      </trkpt>
      <trkpt lat="43.13874" lon="-0.25775">
        <ele>329</ele>
        <time>2018-06-26T04:36:39Z</time>
      </trkpt>
      <trkpt lat="43.13853" lon="-0.25876">
        <ele>332</ele>
        <time>2018-06-26T04:42:39Z</time>
      </trkpt>
      <trkpt lat="43.13834" lon="-0.25995">
        <ele>335</ele>
        <time>2018-06-26T04:46:39Z</time>
      </trkpt>
      <trkpt lat="43.13834" lon="-0.26004">
        <ele>335</ele>
        <time>2018-06-26T04:47:39Z</time>
      </trkpt>
      <trkpt lat="43.13868" lon="-0.26146">
        <ele>333</ele>
        <time>2018-06-26T04:55:39Z</time>
      </trkpt>
      <trkpt lat="43.13899" lon="-0.26272">
        <ele>331</ele>
        <time>2018-06-26T04:57:39Z</time>
      </trkpt>
      <trkpt lat="43.13902" lon="-0.26286">
        <ele>331</ele>
        <time>2018-06-26T04:58:39Z</time>
      </trkpt>
      <trkpt lat="43.13919" lon="-0.26399">
        <ele>333</ele>
        <time>2018-06-26T05:08:39Z</time>
      </trkpt>
      <trkpt lat="43.13879" lon="-0.26509">
        <ele>334</ele>
        <time>2018-06-26T05:15:39Z</time>
      </trkpt>
      <trkpt lat="43.13797" lon="-0.26726">
        <ele>336</ele>
        <time>2018-06-26T05:16:39Z</time>
      </trkpt>
      <trkpt lat="43.1377" lon="-0.26798">
        <ele>336</ele>
        <time>2018-06-26T05:17:39Z</time>
      </trkpt>
      <trkpt lat="43.13748" lon="-0.26854">
        <ele>336</ele>
        <time>2018-06-26T05:19:39Z</time>
      </trkpt>
      <trkpt lat="43.13707" lon="-0.26961">
        <ele>334</ele>
        <time>2018-06-26T05:20:39Z</time>
      </trkpt>
      <trkpt lat="43.1369" lon="-0.27006">
        <ele>334</ele>
        <time>2018-06-26T05:21:39Z</time>
      </trkpt>
      <trkpt lat="43.13607" lon="-0.27167">
        <ele>334</ele>
        <time>2018-06-26T05:25:39Z</time>
      </trkpt>
      <trkpt lat="43.13563" lon="-0.27241">
        <ele>335</ele>
        <time>2018-06-26T05:27:39Z</time>
      </trkpt>
      <trkpt lat="43.13479" lon="-0.27367">
        <ele>331</ele>
        <time>2018-06-26T05:31:39Z</time>
      </trkpt>
      <trkpt lat="43.13456" lon="-0.27383">
        <ele>328</ele>
        <time>2018-06-26T05:33:39Z</time>
      </trkpt>
      <trkpt lat="43.1343" lon="-0.27394">
        <ele>325</ele>
        <time>2018-06-26T05:35:39Z</time>
      </trkpt>
      <trkpt lat="43.13376" lon="-0.27399">
        <ele>321</ele>
        <time>2018-06-26T05:37:39Z</time>
      </trkpt>
      <trkpt lat="43.13327" lon="-0.27403">
        <ele>317</ele>
        <time>2018-06-26T05:39:39Z</time>
      </trkpt>
      <trkpt lat="43.13262" lon="-0.27451">
        <ele>314</ele>
        <time>2018-06-26T05:44:39Z</time>
      </trkpt>
      <trkpt lat="43.13203" lon="-0.27579">
        <ele>311</ele>
        <time>2018-06-26T05:50:39Z</time>
      </trkpt>
      <trkpt lat="43.13185" lon="-0.27629">
        <ele>308</ele>
        <time>2018-06-26T05:52:39Z</time>
      </trkpt>
      <trkpt lat="43.13181" lon="-0.27638">
        <ele>308</ele>
        <time>2018-06-26T05:53:39Z</time>
      </trkpt>
      <trkpt lat="43.13147" lon="-0.27734">
        <ele>305</ele>
        <time>2018-06-26T06:00:39Z</time>
      </trkpt>
      <trkpt lat="43.13154" lon="-0.27816">
        <ele>308</ele>
        <time>2018-06-26T06:07:39Z</time>
      </trkpt>
      <trkpt lat="43.13188" lon="-0.27912">
        <ele>308</ele>
        <time>2018-06-26T06:10:39Z</time>
      </trkpt>
      <trkpt lat="43.13206" lon="-0.28029">
        <ele>304</ele>
        <time>2018-06-26T06:18:39Z</time>
      </trkpt>
      <trkpt lat="43.13194" lon="-0.28094">
        <ele>301</ele>
        <time>2018-06-26T06:20:39Z</time>
      </trkpt>
      <trkpt lat="43.13186" lon="-0.28159">
        <ele>297</ele>
        <time>2018-06-26T06:25:39Z</time>
      </trkpt>
      <trkpt lat="43.13184" lon="-0.28171">
        <ele>297</ele>
        <time>2018-06-26T06:26:39Z</time>
      </trkpt>
      <trkpt lat="43.13175" lon="-0.28261">
        <ele>296</ele>
        <time>2018-06-26T06:31:39Z</time>
      </trkpt>
      <trkpt lat="43.13166" lon="-0.28344">
        <ele>296</ele>
        <time>2018-06-26T06:32:39Z</time>
      </trkpt>
      <trkpt lat="43.13165" lon="-0.28353">
        <ele>297</ele>
        <time>2018-06-26T06:33:39Z</time>
      </trkpt>
      <trkpt lat="43.13157" lon="-0.28424">
        <ele>300</ele>
        <time>2018-06-26T06:34:39Z</time>
      </trkpt>
      <trkpt lat="43.13154" lon="-0.28498">
        <ele>303</ele>
        <time>2018-06-26T06:36:39Z</time>
      </trkpt>
      <trkpt lat="43.13151" lon="-0.28616">
        <ele>307</ele>
        <time>2018-06-26T06:39:39Z</time>
      </trkpt>
      <trkpt lat="43.13159" lon="-0.28737">
        <ele>312</ele>
        <time>2018-06-26T06:43:39Z</time>
      </trkpt>
      <trkpt lat="43.13161" lon="-0.28804">
        <ele>318</ele>
        <time>2018-06-26T06:45:39Z</time>
      </trkpt>
      <trkpt lat="43.13159" lon="-0.28856">
        <ele>321</ele>
        <time>2018-06-26T06:47:39Z</time>
      </trkpt>
      <trkpt lat="43.13153" lon="-0.28923">
        <ele>324</ele>
        <time>2018-06-26T06:48:39Z</time>
      </trkpt>
      <trkpt lat="43.13152" lon="-0.28933">
        <ele>323</ele>
        <time>2018-06-26T06:49:39Z</time>
      </trkpt>
      <trkpt lat="43.13152" lon="-0.29044">
        <ele>323</ele>
        <time>2018-06-26T06:54:39Z</time>
      </trkpt>
      <trkpt lat="43.13123" lon="-0.29126">
        <ele>319</ele>
        <time>2018-06-26T07:00:39Z</time>
      </trkpt>
      <trkpt lat="43.13117" lon="-0.2914">
        <ele>319</ele>
        <time>2018-06-26T07:01:39Z</time>
      </trkpt>
      <trkpt lat="43.13103" lon="-0.29198">
        <ele>316</ele>
        <time>2018-06-26T07:04:39Z</time>
      </trkpt>
      <trkpt lat="43.13102" lon="-0.29207">
        <ele>316</ele>
        <time>2018-06-26T07:05:39Z</time>
      </trkpt>
      <trkpt lat="43.13111" lon="-0.29318">
        <ele>312</ele>
        <time>2018-06-26T07:09:39Z</time>
      </trkpt>
      <trkpt lat="43.13175" lon="-0.29462">
        <ele>313</ele>
        <time>2018-06-26T07:15:39Z</time>
      </trkpt>
      <trkpt lat="43.13194" lon="-0.2956">
        <ele>318</ele>
        <time>2018-06-26T07:21:39Z</time>
      </trkpt>
      <trkpt lat="43.13194" lon="-0.29591">
        <ele>318</ele>
        <time>2018-06-26T07:22:39Z</time>
      </trkpt>
      <trkpt lat="43.13179" lon="-0.29699">
        <ele>315</ele>
        <time>2018-06-26T07:25:39Z</time>
      </trkpt>
      <trkpt lat="43.13177" lon="-0.29705">
        <ele>315</ele>
        <time>2018-06-26T07:26:39Z</time>
      </trkpt>
      <trkpt lat="43.1315" lon="-0.29788">
        <ele>314</ele>
        <time>2018-06-26T07:27:39Z</time>
      </trkpt>
      <trkpt lat="43.13141" lon="-0.29812">
        <ele>314</ele>
        <time>2018-06-26T07:28:39Z</time>
      </trkpt>
      <trkpt lat="43.13098" lon="-0.29913">
        <ele>312</ele>
        <time>2018-06-26T07:30:39Z</time>
      </trkpt>
      <trkpt lat="43.13076" lon="-0.29957">
        <ele>310</ele>
        <time>2018-06-26T07:32:39Z</time>
      </trkpt>
      <trkpt lat="43.13069" lon="-0.2997">
        <ele>310</ele>
        <time>2018-06-26T07:33:39Z</time>
      </trkpt>
      <trkpt lat="43.12963" lon="-0.30116">
        <ele>310</ele>
        <time>2018-06-26T07:40:39Z</time>
      </trkpt>
      <trkpt lat="43.12872" lon="-0.30237">
        <ele>312</ele>
        <time>2018-06-26T07:44:39Z</time>
      </trkpt>
      <trkpt lat="43.12868" lon="-0.30242">
        <ele>312</ele>
        <time>2018-06-26T07:45:39Z</time>
      </trkpt>
      <trkpt lat="43.1282" lon="-0.30289">
        <ele>312</ele>
        <time>2018-06-26T07:54:39Z</time>
      </trkpt>
      <trkpt lat="43.12702" lon="-0.30334">
        <ele>312</ele>
        <time>2018-06-26T08:05:39Z</time>
      </trkpt>
      <trkpt lat="43.12698" lon="-0.30339">
        <ele>312</ele>
        <time>2018-06-26T08:07:39Z</time>
      </trkpt>
      <trkpt lat="43.12666" lon="-0.30418">
        <ele>315</ele>
        <time>2018-06-26T08:13:39Z</time>
      </trkpt>
      <trkpt lat="43.12662" lon="-0.30424">
        <ele>315</ele>
        <time>2018-06-26T08:14:39Z</time>
      </trkpt>
      <trkpt lat="43.126" lon="-0.30452">
        <ele>315</ele>
        <time>2018-06-26T08:18:39Z</time>
      </trkpt>
      <trkpt lat="43.1254" lon="-0.30499">
        <ele>313</ele>
        <time>2018-06-26T08:24:39Z</time>
      </trkpt>
      <trkpt lat="43.12438" lon="-0.30608">
        <ele>313</ele>
        <time>2018-06-26T08:30:39Z</time>
      </trkpt>
      <trkpt lat="43.12377" lon="-0.30666">
        <ele>315</ele>
        <time>2018-06-26T08:33:39Z</time>
      </trkpt>
      <trkpt lat="43.12348" lon="-0.30697">
        <ele>315</ele>
        <time>2018-06-26T08:38:39Z</time>
      </trkpt>
      <trkpt lat="43.123" lon="-0.30747">
        <ele>316</ele>
        <time>2018-06-26T08:39:39Z</time>
      </trkpt>
      <trkpt lat="43.1229" lon="-0.30757">
        <ele>317</ele>
        <time>2018-06-26T08:40:39Z</time>
      </trkpt>
      <trkpt lat="43.12275" lon="-0.30773">
        <ele>317</ele>
        <time>2018-06-26T08:41:39Z</time>
      </trkpt>
      <trkpt lat="43.12202" lon="-0.3085">
        <ele>320</ele>
        <time>2018-06-26T08:46:39Z</time>
      </trkpt>
      <trkpt lat="43.1213" lon="-0.30934">
        <ele>324</ele>
        <time>2018-06-26T08:53:39Z</time>
      </trkpt>
      <trkpt lat="43.12092" lon="-0.30985">
        <ele>327</ele>
        <time>2018-06-26T09:00:39Z</time>
      </trkpt>
      <trkpt lat="43.12065" lon="-0.3102">
        <ele>327</ele>
        <time>2018-06-26T09:03:39Z</time>
      </trkpt>
      <trkpt lat="43.12002" lon="-0.31096">
        <ele>331</ele>
        <time>2018-06-26T09:12:39Z</time>
      </trkpt>
      <trkpt lat="43.11954" lon="-0.31182">
        <ele>335</ele>
        <time>2018-06-26T09:16:39Z</time>
      </trkpt>
      <trkpt lat="43.11912" lon="-0.31221">
        <ele>339</ele>
        <time>2018-06-26T09:23:39Z</time>
      </trkpt>
      <trkpt lat="43.11876" lon="-0.31247">
        <ele>339</ele>
        <time>2018-06-26T09:26:39Z</time>
      </trkpt>
      <trkpt lat="43.11837" lon="-0.31293">
        <ele>342</ele>
        <time>2018-06-26T09:29:39Z</time>
      </trkpt>
      <trkpt lat="43.11831" lon="-0.31302">
        <ele>342</ele>
        <time>2018-06-26T09:30:39Z</time>
      </trkpt>
      <trkpt lat="43.11753" lon="-0.31421">
        <ele>337</ele>
        <time>2018-06-26T09:34:39Z</time>
      </trkpt>
      <trkpt lat="43.11748" lon="-0.3143">
        <ele>337</ele>
        <time>2018-06-26T09:35:39Z</time>
      </trkpt>
      <trkpt lat="43.11688" lon="-0.31531">
        <ele>334</ele>
        <time>2018-06-26T09:37:39Z</time>
      </trkpt>
      <trkpt lat="43.11671" lon="-0.31562">
        <ele>334</ele>
        <time>2018-06-26T09:38:39Z</time>
      </trkpt>
      <trkpt lat="43.11607" lon="-0.31675">
        <ele>336</ele>
        <time>2018-06-26T09:45:39Z</time>
      </trkpt>
      <trkpt lat="43.11596" lon="-0.31697">
        <ele>336</ele>
        <time>2018-06-26T09:49:39Z</time>
      </trkpt>
      <trkpt lat="43.11561" lon="-0.31788">
        <ele>337</ele>
        <time>2018-06-26T10:01:39Z</time>
      </trkpt>
      <trkpt lat="43.11498" lon="-0.31817">
        <ele>341</ele>
        <time>2018-06-26T10:10:39Z</time>
      </trkpt>
      <trkpt lat="43.11481" lon="-0.3182">
        <ele>341</ele>
        <time>2018-06-26T10:11:39Z</time>
      </trkpt>
      <trkpt lat="43.11439" lon="-0.31826">
        <ele>344</ele>
        <time>2018-06-26T10:14:39Z</time>
      </trkpt>
      <trkpt lat="43.11433" lon="-0.31827">
        <ele>344</ele>
        <time>2018-06-26T10:15:39Z</time>
      </trkpt>
      <trkpt lat="43.1137" lon="-0.31846">
        <ele>347</ele>
        <time>2018-06-26T10:19:39Z</time>
      </trkpt>
      <trkpt lat="43.11362" lon="-0.3185">
        <ele>347</ele>
        <time>2018-06-26T10:20:39Z</time>
      </trkpt>
      <trkpt lat="43.11237" lon="-0.31937">
        <ele>348</ele>
        <time>2018-06-26T10:28:39Z</time>
      </trkpt>
      <trkpt lat="43.1119" lon="-0.32004">
        <ele>347</ele>
        <time>2018-06-26T10:35:39Z</time>
      </trkpt>
      <trkpt lat="43.11162" lon="-0.32143">
        <ele>345</ele>
        <time>2018-06-26T10:45:39Z</time>
      </trkpt>
      <trkpt lat="43.11141" lon="-0.32223">
        <ele>343</ele>
        <time>2018-06-26T10:52:39Z</time>
      </trkpt>
      <trkpt lat="43.11142" lon="-0.32351">
        <ele>342</ele>
        <time>2018-06-26T11:04:39Z</time>
      </trkpt>
      <trkpt lat="43.11154" lon="-0.32449">
        <ele>343</ele>
        <time>2018-06-26T11:15:39Z</time>
      </trkpt>
      <trkpt lat="43.11087" lon="-0.32457">
        <ele>342</ele>
        <time>2018-06-26T11:23:39Z</time>
      </trkpt>
      <trkpt lat="43.11048" lon="-0.32438">
        <ele>339</ele>
        <time>2018-06-26T11:27:39Z</time>
      </trkpt>
      <trkpt lat="43.10981" lon="-0.32445">
        <ele>337</ele>
        <time>2018-06-26T11:35:39Z</time>
      </trkpt>
      <trkpt lat="43.10924" lon="-0.32466">
        <ele>334</ele>
        <time>2018-06-26T11:43:39Z</time>
      </trkpt>
      <trkpt lat="43.10896" lon="-0.32506">
        <ele>334</ele>
        <time>2018-06-26T11:49:39Z</time>
      </trkpt>
      <trkpt lat="43.10889" lon="-0.32602">
        <ele>334</ele>
        <time>2018-06-26T12:00:39Z</time>
      </trkpt>
      <trkpt lat="43.10908" lon="-0.32672">
        <ele>336</ele>
        <time>2018-06-26T12:11:39Z</time>
      </trkpt>
      <trkpt lat="43.10893" lon="-0.32702">
        <ele>336</ele>
        <time>2018-06-26T12:18:39Z</time>
      </trkpt>
      <trkpt lat="43.10815" lon="-0.32786">
        <ele>334</ele>
        <time>2018-06-26T12:30:39Z</time>
      </trkpt>
      <trkpt lat="43.10785" lon="-0.32846">
        <ele>333</ele>
        <time>2018-06-26T12:38:39Z</time>
      </trkpt>
      <trkpt lat="43.10781" lon="-0.32909">
        <ele>332</ele>
        <time>2018-06-26T12:47:39Z</time>
      </trkpt>
      <trkpt lat="43.10839" lon="-0.33035">
        <ele>335</ele>
        <time>2018-06-26T12:55:39Z</time>
      </trkpt>
      <trkpt lat="43.10903" lon="-0.33162">
        <ele>337</ele>
        <time>2018-06-26T12:57:39Z</time>
      </trkpt>
      <trkpt lat="43.10925" lon="-0.33215">
        <ele>337</ele>
        <time>2018-06-26T12:59:39Z</time>
      </trkpt>
      <trkpt lat="43.10944" lon="-0.33263">
        <ele>339</ele>
        <time>2018-06-26T13:03:39Z</time>
      </trkpt>
      <trkpt lat="43.11021" lon="-0.33445">
        <ele>340</ele>
        <time>2018-06-26T13:10:39Z</time>
      </trkpt>
      <trkpt lat="43.11076" lon="-0.33546">
        <ele>340</ele>
        <time>2018-06-26T13:16:39Z</time>
      </trkpt>
      <trkpt lat="43.11164" lon="-0.33635">
        <ele>341</ele>
        <time>2018-06-26T13:21:39Z</time>
      </trkpt>
      <trkpt lat="43.11236" lon="-0.33735">
        <ele>340</ele>
        <time>2018-06-26T13:28:39Z</time>
      </trkpt>
      <trkpt lat="43.11235" lon="-0.33831">
        <ele>342</ele>
        <time>2018-06-26T13:37:39Z</time>
      </trkpt>
      <trkpt lat="43.11168" lon="-0.33986">
        <ele>342</ele>
        <time>2018-06-26T13:41:39Z</time>
      </trkpt>
      <trkpt lat="43.11142" lon="-0.34078">
        <ele>342</ele>
        <time>2018-06-26T13:46:39Z</time>
      </trkpt>
      <trkpt lat="43.11134" lon="-0.3416">
        <ele>344</ele>
        <time>2018-06-26T13:48:39Z</time>
      </trkpt>
      <trkpt lat="43.11123" lon="-0.34288">
        <ele>347</ele>
        <time>2018-06-26T13:49:39Z</time>
      </trkpt>
      <trkpt lat="43.11121" lon="-0.34295">
        <ele>348</ele>
        <time>2018-06-26T13:50:39Z</time>
      </trkpt>
      <trkpt lat="43.11119" lon="-0.34303">
        <ele>348</ele>
        <time>2018-06-26T13:51:39Z</time>
      </trkpt>
      <trkpt lat="43.11046" lon="-0.34461">
        <ele>347</ele>
        <time>2018-06-26T14:06:39Z</time>
      </trkpt>
      <trkpt lat="43.10991" lon="-0.34634">
        <ele>347</ele>
        <time>2018-06-26T14:11:39Z</time>
      </trkpt>
      <trkpt lat="43.10971" lon="-0.34713">
        <ele>350</ele>
        <time>2018-06-26T14:15:39Z</time>
      </trkpt>
      <trkpt lat="43.10928" lon="-0.34799">
        <ele>351</ele>
        <time>2018-06-26T14:22:39Z</time>
      </trkpt>
      <trkpt lat="43.10875" lon="-0.349">
        <ele>353</ele>
        <time>2018-06-26T14:31:39Z</time>
      </trkpt>
      <trkpt lat="43.10826" lon="-0.35012">
        <ele>351</ele>
        <time>2018-06-26T14:42:39Z</time>
      </trkpt>
      <trkpt lat="43.10736" lon="-0.35048">
        <ele>348</ele>
        <time>2018-06-26T14:51:39Z</time>
      </trkpt>
      <trkpt lat="43.10631" lon="-0.35068">
        <ele>351</ele>
        <time>2018-06-26T14:55:39Z</time>
      </trkpt>
      <trkpt lat="43.10594" lon="-0.35073">
        <ele>351</ele>
        <time>2018-06-26T14:56:39Z</time>
      </trkpt>
      <trkpt lat="43.10545" lon="-0.35086">
        <ele>353</ele>
        <time>2018-06-26T14:59:39Z</time>
      </trkpt>
      <trkpt lat="43.10436" lon="-0.35195">
        <ele>359</ele>
        <time>2018-06-26T15:05:39Z</time>
      </trkpt>
      <trkpt lat="43.10426" lon="-0.35205">
        <ele>362</ele>
        <time>2018-06-26T15:07:39Z</time>
      </trkpt>
      <trkpt lat="43.10405" lon="-0.35217">
        <ele>365</ele>
        <time>2018-06-26T15:10:39Z</time>
      </trkpt>
      <trkpt lat="43.10399" lon="-0.35219">
        <ele>365</ele>
        <time>2018-06-26T15:11:39Z</time>
      </trkpt>
      <trkpt lat="43.10308" lon="-0.35206">
        <ele>364</ele>
        <time>2018-06-26T15:16:39Z</time>
      </trkpt>
      <trkpt lat="43.10239" lon="-0.3518">
        <ele>361</ele>
        <time>2018-06-26T15:20:39Z</time>
      </trkpt>
      <trkpt lat="43.10193" lon="-0.35188">
        <ele>365</ele>
        <time>2018-06-26T15:22:39Z</time>
      </trkpt>
      <trkpt lat="43.10184" lon="-0.35189">
        <ele>365</ele>
        <time>2018-06-26T15:23:39Z</time>
      </trkpt>
      <trkpt lat="43.10086" lon="-0.35179">
        <ele>361</ele>
        <time>2018-06-26T15:27:39Z</time>
      </trkpt>
      <trkpt lat="43.09963" lon="-0.3519">
        <ele>358</ele>
        <time>2018-06-26T15:32:39Z</time>
      </trkpt>
      <trkpt lat="43.09874" lon="-0.35207">
        <ele>356</ele>
        <time>2018-06-26T15:37:39Z</time>
      </trkpt>
      <trkpt lat="43.09843" lon="-0.35219">
        <ele>356</ele>
        <time>2018-06-26T15:39:39Z</time>
      </trkpt>
      <trkpt lat="43.0983" lon="-0.35226">
        <ele>357</ele>
        <time>2018-06-26T15:40:39Z</time>
      </trkpt>
      <trkpt lat="43.09742" lon="-0.35281">
        <ele>359</ele>
        <time>2018-06-26T15:41:39Z</time>
      </trkpt>
      <trkpt lat="43.09727" lon="-0.35291">
        <ele>360</ele>
        <time>2018-06-26T15:42:39Z</time>
      </trkpt>
      <trkpt lat="43.0969" lon="-0.35309">
        <ele>363</ele>
        <time>2018-06-26T15:43:39Z</time>
      </trkpt>
      <trkpt lat="43.09671" lon="-0.35321">
        <ele>363</ele>
        <time>2018-06-26T15:44:39Z</time>
      </trkpt>
      <trkpt lat="43.09653" lon="-0.35343">
        <ele>366</ele>
        <time>2018-06-26T15:47:39Z</time>
      </trkpt>
      <trkpt lat="43.09639" lon="-0.35373">
        <ele>369</ele>
        <time>2018-06-26T15:50:39Z</time>
      </trkpt>
      <trkpt lat="43.09613" lon="-0.35535">
        <ele>370</ele>
        <time>2018-06-26T16:02:39Z</time>
      </trkpt>
      <trkpt lat="43.09549" lon="-0.35681">
        <ele>376</ele>
        <time>2018-06-26T16:12:39Z</time>
      </trkpt>
      <trkpt lat="43.09544" lon="-0.35691">
        <ele>376</ele>
        <time>2018-06-26T16:13:39Z</time>
      </trkpt>
      <trkpt lat="43.09505" lon="-0.35878">
        <ele>375</ele>
        <time>2018-06-26T16:23:39Z</time>
      </trkpt>
      <trkpt lat="43.09501" lon="-0.35975">
        <ele>376</ele>
        <time>2018-06-26T16:28:39Z</time>
      </trkpt>
      <trkpt lat="43.09504" lon="-0.36062">
        <ele>374</ele>
        <time>2018-06-26T16:29:39Z</time>
      </trkpt>
      <trkpt lat="43.09504" lon="-0.36121">
        <ele>374</ele>
        <time>2018-06-26T16:31:39Z</time>
      </trkpt>
      <trkpt lat="43.09489" lon="-0.36292">
        <ele>376</ele>
        <time>2018-06-26T16:37:39Z</time>
      </trkpt>
      <trkpt lat="43.09468" lon="-0.36458">
        <ele>380</ele>
        <time>2018-06-26T16:42:39Z</time>
      </trkpt>
      <trkpt lat="43.09447" lon="-0.36541">
        <ele>380</ele>
        <time>2018-06-26T16:46:39Z</time>
      </trkpt>
      <trkpt lat="43.09403" lon="-0.36642">
        <ele>381</ele>
        <time>2018-06-26T16:53:39Z</time>
      </trkpt>
      <trkpt lat="43.0936" lon="-0.36763">
        <ele>385</ele>
        <time>2018-06-26T16:59:39Z</time>
      </trkpt>
      <trkpt lat="43.09329" lon="-0.36865">
        <ele>382</ele>
        <time>2018-06-26T17:02:39Z</time>
      </trkpt>
      <trkpt lat="43.09285" lon="-0.37011">
        <ele>381</ele>
        <time>2018-06-26T17:03:39Z</time>
      </trkpt>
      <trkpt lat="43.09281" lon="-0.37025">
        <ele>381</ele>
        <time>2018-06-26T17:04:39Z</time>
      </trkpt>
      <trkpt lat="43.09254" lon="-0.37212">
        <ele>383</ele>
        <time>2018-06-26T17:10:39Z</time>
      </trkpt>
      <trkpt lat="43.09225" lon="-0.37477">
        <ele>379</ele>
        <time>2018-06-26T17:12:39Z</time>
      </trkpt>
      <trkpt lat="43.09185" lon="-0.37777">
        <ele>381</ele>
        <time>2018-06-26T17:16:39Z</time>
      </trkpt>
      <trkpt lat="43.09152" lon="-0.3791">
        <ele>384</ele>
        <time>2018-06-26T17:18:39Z</time>
      </trkpt>
      <trkpt lat="43.09126" lon="-0.38006">
        <ele>388</ele>
        <time>2018-06-26T17:20:39Z</time>
      </trkpt>
      <trkpt lat="43.09115" lon="-0.38118">
        <ele>393</ele>
        <time>2018-06-26T17:25:39Z</time>
      </trkpt>
      <trkpt lat="43.09125" lon="-0.38223">
        <ele>396</ele>
        <time>2018-06-26T17:27:39Z</time>
      </trkpt>
      <trkpt lat="43.09103" lon="-0.38334">
        <ele>399</ele>
        <time>2018-06-26T17:33:39Z</time>
      </trkpt>
      <trkpt lat="43.09083" lon="-0.38363">
        <ele>402</ele>
        <time>2018-06-26T17:35:39Z</time>
      </trkpt>
      <trkpt lat="43.09075" lon="-0.38378">
        <ele>405</ele>
        <time>2018-06-26T17:36:39Z</time>
      </trkpt>
      <trkpt lat="43.09065" lon="-0.38408">
        <ele>409</ele>
        <time>2018-06-26T17:38:39Z</time>
      </trkpt>
      <trkpt lat="43.09073" lon="-0.38642">
        <ele>411</ele>
        <time>2018-06-26T17:42:39Z</time>
      </trkpt>
      <trkpt lat="43.09074" lon="-0.38653">
        <ele>411</ele>
        <time>2018-06-26T17:43:39Z</time>
      </trkpt>
      <trkpt lat="43.09056" lon="-0.38793">
        <ele>411</ele>
        <time>2018-06-26T17:53:39Z</time>
      </trkpt>
      <trkpt lat="43.09047" lon="-0.38814">
        <ele>414</ele>
        <time>2018-06-26T17:54:39Z</time>
      </trkpt>
      <trkpt lat="43.0903" lon="-0.38854">
        <ele>418</ele>
        <time>2018-06-26T17:55:39Z</time>
      </trkpt>
      <trkpt lat="43.09019" lon="-0.38884">
        <ele>421</ele>
        <time>2018-06-26T17:56:39Z</time>
      </trkpt>
      <trkpt lat="43.08991" lon="-0.39012">
        <ele>424</ele>
        <time>2018-06-26T18:00:39Z</time>
      </trkpt>
      <trkpt lat="43.08976" lon="-0.39088">
        <ele>426</ele>
        <time>2018-06-26T18:01:39Z</time>
      </trkpt>
      <trkpt lat="43.08956" lon="-0.39177">
        <ele>432</ele>
        <time>2018-06-26T18:02:39Z</time>
      </trkpt>
      <trkpt lat="43.08944" lon="-0.39238">
        <ele>436</ele>
        <time>2018-06-26T18:03:39Z</time>
      </trkpt>
      <trkpt lat="43.08932" lon="-0.39295">
        <ele>437</ele>
        <time>2018-06-26T18:05:39Z</time>
      </trkpt>
      <trkpt lat="43.08913" lon="-0.39347">
        <ele>440</ele>
        <time>2018-06-26T18:06:39Z</time>
      </trkpt>
      <trkpt lat="43.08902" lon="-0.39376">
        <ele>443</ele>
        <time>2018-06-26T18:07:39Z</time>
      </trkpt>
      <trkpt lat="43.08891" lon="-0.39516">
        <ele>448</ele>
        <time>2018-06-26T18:12:39Z</time>
      </trkpt>
      <trkpt lat="43.08888" lon="-0.39557">
        <ele>451</ele>
        <time>2018-06-26T18:14:39Z</time>
      </trkpt>
      <trkpt lat="43.08883" lon="-0.3959">
        <ele>455</ele>
        <time>2018-06-26T18:15:39Z</time>
      </trkpt>
      <trkpt lat="43.08874" lon="-0.39634">
        <ele>459</ele>
        <time>2018-06-26T18:16:39Z</time>
      </trkpt>
      <trkpt lat="43.08862" lon="-0.39696">
        <ele>464</ele>
        <time>2018-06-26T18:17:39Z</time>
      </trkpt>
      <trkpt lat="43.08852" lon="-0.3975">
        <ele>467</ele>
        <time>2018-06-26T18:18:39Z</time>
      </trkpt>
      <trkpt lat="43.08845" lon="-0.39788">
        <ele>470</ele>
        <time>2018-06-26T18:19:39Z</time>
      </trkpt>
      <trkpt lat="43.0884" lon="-0.39838">
        <ele>473</ele>
        <time>2018-06-26T18:21:39Z</time>
      </trkpt>
      <trkpt lat="43.08839" lon="-0.39886">
        <ele>476</ele>
        <time>2018-06-26T18:23:39Z</time>
      </trkpt>
      <trkpt lat="43.08843" lon="-0.39943">
        <ele>480</ele>
        <time>2018-06-26T18:25:39Z</time>
      </trkpt>
      <trkpt lat="43.08845" lon="-0.39982">
        <ele>483</ele>
        <time>2018-06-26T18:26:39Z</time>
      </trkpt>
      <trkpt lat="43.08832" lon="-0.40186">
        <ele>488</ele>
        <time>2018-06-26T18:31:39Z</time>
      </trkpt>
      <trkpt lat="43.08827" lon="-0.40229">
        <ele>491</ele>
        <time>2018-06-26T18:32:39Z</time>
      </trkpt>
      <trkpt lat="43.08823" lon="-0.40263">
        <ele>494</ele>
        <time>2018-06-26T18:33:39Z</time>
      </trkpt>
      <trkpt lat="43.08835" lon="-0.40417">
        <ele>492</ele>
        <time>2018-06-26T18:38:39Z</time>
      </trkpt>
      <trkpt lat="43.0884" lon="-0.40461">
        <ele>497</ele>
        <time>2018-06-26T18:39:39Z</time>
      </trkpt>
      <trkpt lat="43.08846" lon="-0.40511">
        <ele>503</ele>
        <time>2018-06-26T18:40:39Z</time>
      </trkpt>
      <trkpt lat="43.08855" lon="-0.4057">
        <ele>507</ele>
        <time>2018-06-26T18:42:39Z</time>
      </trkpt>
      <trkpt lat="43.0888" lon="-0.40678">
        <ele>511</ele>
        <time>2018-06-26T18:44:39Z</time>
      </trkpt>
      <trkpt lat="43.08887" lon="-0.40708">
        <ele>511</ele>
        <time>2018-06-26T18:45:39Z</time>
      </trkpt>
      <trkpt lat="43.08915" lon="-0.40862">
        <ele>504</ele>
        <time>2018-06-26T18:50:39Z</time>
      </trkpt>
      <trkpt lat="43.08918" lon="-0.40896">
        <ele>501</ele>
        <time>2018-06-26T18:51:39Z</time>
      </trkpt>
      <trkpt lat="43.08926" lon="-0.41017">
        <ele>495</ele>
        <time>2018-06-26T18:56:39Z</time>
      </trkpt>
      <trkpt lat="43.08928" lon="-0.41056">
        <ele>492</ele>
        <time>2018-06-26T18:58:39Z</time>
      </trkpt>
      <trkpt lat="43.08905" lon="-0.4117">
        <ele>491</ele>
        <time>2018-06-26T19:06:39Z</time>
      </trkpt>
      <trkpt lat="43.08876" lon="-0.41254">
        <ele>488</ele>
        <time>2018-06-26T19:10:39Z</time>
      </trkpt>
      <trkpt lat="43.08869" lon="-0.41353">
        <ele>474</ele>
        <time>2018-06-26T19:14:39Z</time>
      </trkpt>
      <trkpt lat="43.0887" lon="-0.41372">
        <ele>469</ele>
        <time>2018-06-26T19:15:39Z</time>
      </trkpt>
      <trkpt lat="43.08872" lon="-0.41386">
        <ele>466</ele>
        <time>2018-06-26T19:17:39Z</time>
      </trkpt>
      <trkpt lat="43.08876" lon="-0.41399">
        <ele>463</ele>
        <time>2018-06-26T19:19:39Z</time>
      </trkpt>
      <trkpt lat="43.08898" lon="-0.41435">
        <ele>455</ele>
        <time>2018-06-26T19:20:39Z</time>
      </trkpt>
      <trkpt lat="43.08903" lon="-0.41447">
        <ele>453</ele>
        <time>2018-06-26T19:22:39Z</time>
      </trkpt>
      <trkpt lat="43.08858" lon="-0.41431">
        <ele>455</ele>
        <time>2018-06-26T19:30:39Z</time>
      </trkpt>
      <trkpt lat="43.08799" lon="-0.41456">
        <ele>453</ele>
        <time>2018-06-26T19:36:39Z</time>
      </trkpt>
      <trkpt lat="43.08776" lon="-0.41482">
        <ele>448</ele>
        <time>2018-06-26T19:37:39Z</time>
      </trkpt>
      <trkpt lat="43.0876" lon="-0.41498">
        <ele>444</ele>
        <time>2018-06-26T19:38:39Z</time>
      </trkpt>
      <trkpt lat="43.08727" lon="-0.41524">
        <ele>441</ele>
        <time>2018-06-26T19:39:39Z</time>
      </trkpt>
      <trkpt lat="43.087" lon="-0.41546">
        <ele>438</ele>
        <time>2018-06-26T19:41:39Z</time>
      </trkpt>
      <trkpt lat="43.08699" lon="-0.41547">
        <ele>438</ele>
        <time>2018-06-26T19:42:39Z</time>
      </trkpt>
      <trkpt lat="43.08652" lon="-0.41568">
        <ele>440</ele>
        <time>2018-06-26T19:51:39Z</time>
      </trkpt>
      <trkpt lat="43.0865" lon="-0.41621">
        <ele>434</ele>
        <time>2018-06-26T19:55:39Z</time>
      </trkpt>
      <trkpt lat="43.08652" lon="-0.41659">
        <ele>430</ele>
        <time>2018-06-26T19:56:39Z</time>
      </trkpt>
      <trkpt lat="43.08654" lon="-0.4171">
        <ele>427</ele>
        <time>2018-06-26T19:57:39Z</time>
      </trkpt>
      <trkpt lat="43.08655" lon="-0.41746">
        <ele>424</ele>
        <time>2018-06-26T19:59:39Z</time>
      </trkpt>
      <trkpt lat="43.08655" lon="-0.41773">
        <ele>424</ele>
        <time>2018-06-26T20:00:39Z</time>
      </trkpt>
      <trkpt lat="43.08645" lon="-0.41885">
        <ele>421</ele>
        <time>2018-06-26T20:07:39Z</time>
      </trkpt>
      <trkpt lat="43.08625" lon="-0.41993">
        <ele>420</ele>
        <time>2018-06-26T20:12:39Z</time>
      </trkpt>
      <trkpt lat="43.08638" lon="-0.42115">
        <ele>417</ele>
        <time>2018-06-26T20:18:39Z</time>
      </trkpt>
      <trkpt lat="43.08633" lon="-0.42119">
        <ele>417</ele>
        <time>2018-06-26T20:20:39Z</time>
      </trkpt>
      <trkpt lat="43.08588" lon="-0.42205">
        <ele>418</ele>
        <time>2018-06-26T20:26:39Z</time>
      </trkpt>
      <trkpt lat="43.08577" lon="-0.42213">
        <ele>419</ele>
        <time>2018-06-26T20:29:39Z</time>
      </trkpt>
      <trkpt lat="43.08533" lon="-0.42208">
        <ele>418</ele>
        <time>2018-06-26T20:39:39Z</time>
      </trkpt>
      <trkpt lat="43.08522" lon="-0.42222">
        <ele>418</ele>
        <time>2018-06-26T21:00:39Z</time>
      </trkpt>
      <trkpt lat="43.08493" lon="-0.42268">
        <ele>419</ele>
        <time>2018-06-26T21:13:39Z</time>
      </trkpt>
      <trkpt lat="43.08488" lon="-0.42339">
        <ele>422</ele>
        <time>2018-06-26T21:15:39Z</time>
      </trkpt>
      <trkpt lat="43.08488" lon="-0.42339">
        <ele>422</ele>
        <time>2018-06-26T21:16:39Z</time>
      </trkpt>
      <trkpt lat="43.08501" lon="-0.4237">
        <ele>422</ele>
        <time>2018-06-26T21:30:39Z</time>
      </trkpt>
      <trkpt lat="43.08475" lon="-0.42397">
        <ele>422</ele>
        <time>2018-06-26T21:53:39Z</time>
      </trkpt>
      <trkpt lat="43.08431" lon="-0.42335">
        <ele>423</ele>
        <time>2018-06-26T22:09:39Z</time>
      </trkpt>
      <trkpt lat="43.0835" lon="-0.42279">
        <ele>421</ele>
        <time>2018-06-26T22:10:39Z</time>
      </trkpt>
      <trkpt lat="43.08123" lon="-0.42159">
        <ele>430</ele>
        <time>2018-06-26T22:13:39Z</time>
      </trkpt>
      <trkpt lat="43.07986" lon="-0.4213">
        <ele>435</ele>
        <time>2018-06-26T22:14:39Z</time>
      </trkpt>
      <trkpt lat="43.0787" lon="-0.42111">
        <ele>429</ele>
        <time>2018-06-26T22:15:39Z</time>
      </trkpt>
      <trkpt lat="43.07855" lon="-0.42112">
        <ele>430</ele>
        <time>2018-06-26T22:16:39Z</time>
      </trkpt>
      <trkpt lat="43.07662" lon="-0.42151">
        <ele>431</ele>
        <time>2018-06-26T22:23:39Z</time>
      </trkpt>
      <trkpt lat="43.07615" lon="-0.42153">
        <ele>434</ele>
        <time>2018-06-26T22:25:39Z</time>
      </trkpt>
      <trkpt lat="43.07593" lon="-0.42151">
        <ele>434</ele>
        <time>2018-06-26T22:26:39Z</time>
      </trkpt>
      <trkpt lat="43.0746" lon="-0.42123">
        <ele>436</ele>
        <time>2018-06-26T22:30:39Z</time>
      </trkpt>
      <trkpt lat="43.07406" lon="-0.42113">
        <ele>436</ele>
        <time>2018-06-26T22:34:39Z</time>
      </trkpt>
      <trkpt lat="43.07344" lon="-0.42115">
        <ele>434</ele>
        <time>2018-06-26T22:39:39Z</time>
      </trkpt>
      <trkpt lat="43.07241" lon="-0.42155">
        <ele>432</ele>
        <time>2018-06-26T22:47:39Z</time>
      </trkpt>
      <trkpt lat="43.07167" lon="-0.42214">
        <ele>436</ele>
        <time>2018-06-26T22:54:39Z</time>
      </trkpt>
      <trkpt lat="43.07166" lon="-0.42215">
        <ele>436</ele>
        <time>2018-06-26T22:55:39Z</time>
      </trkpt>
      <trkpt lat="43.07092" lon="-0.42245">
        <ele>435</ele>
        <time>2018-06-26T23:00:39Z</time>
      </trkpt>
      <trkpt lat="43.06967" lon="-0.42233">
        <ele>436</ele>
        <time>2018-06-26T23:06:39Z</time>
      </trkpt>
      <trkpt lat="43.06879" lon="-0.4224">
        <ele>433</ele>
        <time>2018-06-26T23:11:39Z</time>
      </trkpt>
      <trkpt lat="43.0683" lon="-0.42264">
        <ele>429</ele>
        <time>2018-06-26T23:13:39Z</time>
      </trkpt>
      <trkpt lat="43.06802" lon="-0.42284">
        <ele>430</ele>
        <time>2018-06-26T23:14:39Z</time>
      </trkpt>
      <trkpt lat="43.06722" lon="-0.42341">
        <ele>432</ele>
        <time>2018-06-26T23:15:39Z</time>
      </trkpt>
      <trkpt lat="43.06687" lon="-0.42366">
        <ele>434</ele>
        <time>2018-06-26T23:16:39Z</time>
      </trkpt>
      <trkpt lat="43.06522" lon="-0.42421">
        <ele>432</ele>
        <time>2018-06-26T23:21:39Z</time>
      </trkpt>
      <trkpt lat="43.06481" lon="-0.42431">
        <ele>432</ele>
        <time>2018-06-26T23:22:39Z</time>
      </trkpt>
      <trkpt lat="43.06365" lon="-0.42446">
        <ele>431</ele>
        <time>2018-06-26T23:28:39Z</time>
      </trkpt>
      <trkpt lat="43.06271" lon="-0.4248">
        <ele>430</ele>
        <time>2018-06-26T23:34:39Z</time>
      </trkpt>
      <trkpt lat="43.06172" lon="-0.42551">
        <ele>433</ele>
        <time>2018-06-26T23:37:39Z</time>
      </trkpt>
      <trkpt lat="43.06154" lon="-0.42567">
        <ele>433</ele>
        <time>2018-06-26T23:38:39Z</time>
      </trkpt>
      <trkpt lat="43.061" lon="-0.42636">
        <ele>435</ele>
        <time>2018-06-26T23:45:39Z</time>
      </trkpt>
      <trkpt lat="43.0603" lon="-0.42692">
        <ele>438</ele>
        <time>2018-06-26T23:48:39Z</time>
      </trkpt>
      <trkpt lat="43.06024" lon="-0.42696">
        <ele>438</ele>
        <time>2018-06-26T23:49:39Z</time>
      </trkpt>
      <trkpt lat="43.06004" lon="-0.42726">
        <ele>439</ele>
        <time>2018-06-27T00:00:39Z</time>
      </trkpt>
      <trkpt lat="43.05954" lon="-0.42805">
        <ele>443</ele>
        <time>2018-06-27T00:13:39Z</time>
      </trkpt>
      <trkpt lat="43.05882" lon="-0.42868">
        <ele>445</ele>
        <time>2018-06-27T00:16:39Z</time>
      </trkpt>
      <trkpt lat="43.05769" lon="-0.42973">
        <ele>449</ele>
        <time>2018-06-27T00:18:39Z</time>
      </trkpt>
      <trkpt lat="43.05769" lon="-0.42973">
        <ele>449</ele>
        <time>2018-06-27T00:19:39Z</time>
      </trkpt>
      <trkpt lat="43.05793" lon="-0.43033">
        <ele>451</ele>
        <time>2018-06-27T00:21:39Z</time>
      </trkpt>
      <trkpt lat="43.05798" lon="-0.43045">
        <ele>451</ele>
        <time>2018-06-27T00:22:39Z</time>
      </trkpt>
      <trkpt lat="43.05811" lon="-0.4319">
        <ele>456</ele>
        <time>2018-06-27T00:26:39Z</time>
      </trkpt>
      <trkpt lat="43.05813" lon="-0.43279">
        <ele>459</ele>
        <time>2018-06-27T00:28:39Z</time>
      </trkpt>
      <trkpt lat="43.05812" lon="-0.43305">
        <ele>459</ele>
        <time>2018-06-27T00:29:39Z</time>
      </trkpt>
      <trkpt lat="43.05811" lon="-0.43339">
        <ele>461</ele>
        <time>2018-06-27T00:30:39Z</time>
      </trkpt>
      <trkpt lat="43.058" lon="-0.43469">
        <ele>466</ele>
        <time>2018-06-27T00:31:39Z</time>
      </trkpt>
      <trkpt lat="43.05797" lon="-0.43493">
        <ele>467</ele>
        <time>2018-06-27T00:32:39Z</time>
      </trkpt>
      <trkpt lat="43.05793" lon="-0.43513">
        <ele>470</ele>
        <time>2018-06-27T00:33:39Z</time>
      </trkpt>
      <trkpt lat="43.05788" lon="-0.4353">
        <ele>473</ele>
        <time>2018-06-27T00:34:39Z</time>
      </trkpt>
      <trkpt lat="43.05779" lon="-0.43555">
        <ele>477</ele>
        <time>2018-06-27T00:35:39Z</time>
      </trkpt>
      <trkpt lat="43.05762" lon="-0.43595">
        <ele>483</ele>
        <time>2018-06-27T00:36:39Z</time>
      </trkpt>
      <trkpt lat="43.05742" lon="-0.43637">
        <ele>489</ele>
        <time>2018-06-27T00:37:39Z</time>
      </trkpt>
      <trkpt lat="43.0573" lon="-0.43673">
        <ele>492</ele>
        <time>2018-06-27T00:38:39Z</time>
      </trkpt>
      <trkpt lat="43.05725" lon="-0.43689">
        <ele>490</ele>
        <time>2018-06-27T00:39:39Z</time>
      </trkpt>
      <trkpt lat="43.0572" lon="-0.4373">
        <ele>487</ele>
        <time>2018-06-27T00:44:39Z</time>
      </trkpt>
      <trkpt lat="43.05736" lon="-0.43838">
        <ele>492</ele>
        <time>2018-06-27T00:48:39Z</time>
      </trkpt>
      <trkpt lat="43.05747" lon="-0.43893">
        <ele>496</ele>
        <time>2018-06-27T00:49:39Z</time>
      </trkpt>
      <trkpt lat="43.05751" lon="-0.43922">
        <ele>499</ele>
        <time>2018-06-27T00:51:39Z</time>
      </trkpt>
      <trkpt lat="43.05755" lon="-0.43951">
        <ele>503</ele>
        <time>2018-06-27T00:52:39Z</time>
      </trkpt>
      <trkpt lat="43.05759" lon="-0.43969">
        <ele>507</ele>
        <time>2018-06-27T00:54:39Z</time>
      </trkpt>
      <trkpt lat="43.05761" lon="-0.43973">
        <ele>507</ele>
        <time>2018-06-27T00:55:39Z</time>
      </trkpt>
      <trkpt lat="43.05767" lon="-0.43983">
        <ele>510</ele>
        <time>2018-06-27T00:58:39Z</time>
      </trkpt>
      <trkpt lat="43.05778" lon="-0.4399">
        <ele>513</ele>
        <time>2018-06-27T01:01:39Z</time>
      </trkpt>
      <trkpt lat="43.05803" lon="-0.43985">
        <ele>517</ele>
        <time>2018-06-27T01:06:39Z</time>
      </trkpt>
      <trkpt lat="43.05806" lon="-0.43983">
        <ele>517</ele>
        <time>2018-06-27T01:07:39Z</time>
      </trkpt>
      <trkpt lat="43.05852" lon="-0.43929">
        <ele>521</ele>
        <time>2018-06-27T01:09:39Z</time>
      </trkpt>
      <trkpt lat="43.05876" lon="-0.43893">
        <ele>525</ele>
        <time>2018-06-27T01:11:39Z</time>
      </trkpt>
      <trkpt lat="43.05923" lon="-0.43816">
        <ele>529</ele>
        <time>2018-06-27T01:18:39Z</time>
      </trkpt>
      <trkpt lat="43.05958" lon="-0.43807">
        <ele>535</ele>
        <time>2018-06-27T01:21:39Z</time>
      </trkpt>
      <trkpt lat="43.05989" lon="-0.43801">
        <ele>540</ele>
        <time>2018-06-27T01:22:39Z</time>
      </trkpt>
      <trkpt lat="43.0602" lon="-0.43796">
        <ele>544</ele>
        <time>2018-06-27T01:23:39Z</time>
      </trkpt>
      <trkpt lat="43.06048" lon="-0.43793">
        <ele>548</ele>
        <time>2018-06-27T01:24:39Z</time>
      </trkpt>
      <trkpt lat="43.06072" lon="-0.43793">
        <ele>552</ele>
        <time>2018-06-27T01:25:39Z</time>
      </trkpt>
      <trkpt lat="43.06102" lon="-0.43791">
        <ele>557</ele>
        <time>2018-06-27T01:26:39Z</time>
      </trkpt>
      <trkpt lat="43.06126" lon="-0.43781">
        <ele>559</ele>
        <time>2018-06-27T01:29:39Z</time>
      </trkpt>
      <trkpt lat="43.06166" lon="-0.43758">
        <ele>562</ele>
        <time>2018-06-27T01:35:39Z</time>
      </trkpt>
      <trkpt lat="43.06173" lon="-0.43767">
        <ele>565</ele>
        <time>2018-06-27T01:37:39Z</time>
      </trkpt>
      <trkpt lat="43.06174" lon="-0.43778">
        <ele>568</ele>
        <time>2018-06-27T01:39:39Z</time>
      </trkpt>
      <trkpt lat="43.06173" lon="-0.43781">
        <ele>568</ele>
        <time>2018-06-27T01:40:39Z</time>
      </trkpt>
      <trkpt lat="43.06119" lon="-0.43851">
        <ele>572</ele>
        <time>2018-06-27T01:46:39Z</time>
      </trkpt>
      <trkpt lat="43.06049" lon="-0.43932">
        <ele>575</ele>
        <time>2018-06-27T01:52:39Z</time>
      </trkpt>
      <trkpt lat="43.06044" lon="-0.44062">
        <ele>582</ele>
        <time>2018-06-27T02:00:39Z</time>
      </trkpt>
      <trkpt lat="43.06051" lon="-0.44097">
        <ele>586</ele>
        <time>2018-06-27T02:01:39Z</time>
      </trkpt>
      <trkpt lat="43.06056" lon="-0.44123">
        <ele>589</ele>
        <time>2018-06-27T02:03:39Z</time>
      </trkpt>
      <trkpt lat="43.06053" lon="-0.44164">
        <ele>592</ele>
        <time>2018-06-27T02:06:39Z</time>
      </trkpt>
      <trkpt lat="43.06053" lon="-0.44191">
        <ele>595</ele>
        <time>2018-06-27T02:08:39Z</time>
      </trkpt>
      <trkpt lat="43.06054" lon="-0.44213">
        <ele>598</ele>
        <time>2018-06-27T02:10:39Z</time>
      </trkpt>
      <trkpt lat="43.06048" lon="-0.44256">
        <ele>601</ele>
        <time>2018-06-27T02:13:39Z</time>
      </trkpt>
      <trkpt lat="43.06046" lon="-0.44267">
        <ele>601</ele>
        <time>2018-06-27T02:14:39Z</time>
      </trkpt>
      <trkpt lat="43.0605" lon="-0.44313">
        <ele>604</ele>
        <time>2018-06-27T02:19:39Z</time>
      </trkpt>
      <trkpt lat="43.06058" lon="-0.44337">
        <ele>607</ele>
        <time>2018-06-27T02:20:39Z</time>
      </trkpt>
      <trkpt lat="43.06062" lon="-0.44366">
        <ele>611</ele>
        <time>2018-06-27T02:25:39Z</time>
      </trkpt>
      <trkpt lat="43.06059" lon="-0.44404">
        <ele>614</ele>
        <time>2018-06-27T02:30:39Z</time>
      </trkpt>
      <trkpt lat="43.06063" lon="-0.44447">
        <ele>619</ele>
        <time>2018-06-27T02:33:39Z</time>
      </trkpt>
      <trkpt lat="43.0606" lon="-0.44492">
        <ele>623</ele>
        <time>2018-06-27T02:38:39Z</time>
      </trkpt>
      <trkpt lat="43.06068" lon="-0.44509">
        <ele>626</ele>
        <time>2018-06-27T02:44:39Z</time>
      </trkpt>
      <trkpt lat="43.061" lon="-0.44457">
        <ele>630</ele>
        <time>2018-06-27T02:52:39Z</time>
      </trkpt>
      <trkpt lat="43.06145" lon="-0.4439">
        <ele>635</ele>
        <time>2018-06-27T02:59:39Z</time>
      </trkpt>
      <trkpt lat="43.06174" lon="-0.4433">
        <ele>638</ele>
        <time>2018-06-27T03:03:39Z</time>
      </trkpt>
      <trkpt lat="43.06184" lon="-0.443">
        <ele>641</ele>
        <time>2018-06-27T03:05:39Z</time>
      </trkpt>
      <trkpt lat="43.06192" lon="-0.4427">
        <ele>644</ele>
        <time>2018-06-27T03:06:39Z</time>
      </trkpt>
      <trkpt lat="43.06221" lon="-0.44158">
        <ele>648</ele>
        <time>2018-06-27T03:09:39Z</time>
      </trkpt>
      <trkpt lat="43.0623" lon="-0.44132">
        <ele>651</ele>
        <time>2018-06-27T03:10:39Z</time>
      </trkpt>
      <trkpt lat="43.06233" lon="-0.44119">
        <ele>651</ele>
        <time>2018-06-27T03:11:39Z</time>
      </trkpt>
      <trkpt lat="43.06234" lon="-0.44066">
        <ele>648</ele>
        <time>2018-06-27T03:15:39Z</time>
      </trkpt>
      <trkpt lat="43.06246" lon="-0.44032">
        <ele>649</ele>
        <time>2018-06-27T03:21:39Z</time>
      </trkpt>
      <trkpt lat="43.06254" lon="-0.44032">
        <ele>652</ele>
        <time>2018-06-27T03:23:39Z</time>
      </trkpt>
      <trkpt lat="43.06259" lon="-0.44035">
        <ele>655</ele>
        <time>2018-06-27T03:24:39Z</time>
      </trkpt>
      <trkpt lat="43.06263" lon="-0.44042">
        <ele>658</ele>
        <time>2018-06-27T03:26:39Z</time>
      </trkpt>
      <trkpt lat="43.06264" lon="-0.44063">
        <ele>661</ele>
        <time>2018-06-27T03:29:39Z</time>
      </trkpt>
      <trkpt lat="43.06254" lon="-0.44103">
        <ele>659</ele>
        <time>2018-06-27T03:33:39Z</time>
      </trkpt>
      <trkpt lat="43.06256" lon="-0.44118">
        <ele>662</ele>
        <time>2018-06-27T03:34:39Z</time>
      </trkpt>
      <trkpt lat="43.0626" lon="-0.44196">
        <ele>669</ele>
        <time>2018-06-27T03:36:39Z</time>
      </trkpt>
      <trkpt lat="43.06261" lon="-0.44246">
        <ele>674</ele>
        <time>2018-06-27T03:37:39Z</time>
      </trkpt>
      <trkpt lat="43.06261" lon="-0.4436">
        <ele>679</ele>
        <time>2018-06-27T03:40:39Z</time>
      </trkpt>
      <trkpt lat="43.06263" lon="-0.44407">
        <ele>685</ele>
        <time>2018-06-27T03:42:39Z</time>
      </trkpt>
      <trkpt lat="43.06263" lon="-0.44445">
        <ele>688</ele>
        <time>2018-06-27T03:44:39Z</time>
      </trkpt>
      <trkpt lat="43.06259" lon="-0.44526">
        <ele>693</ele>
        <time>2018-06-27T03:46:39Z</time>
      </trkpt>
      <trkpt lat="43.06258" lon="-0.44588">
        <ele>697</ele>
        <time>2018-06-27T03:48:39Z</time>
      </trkpt>
      <trkpt lat="43.06258" lon="-0.44602">
        <ele>697</ele>
        <time>2018-06-27T03:49:39Z</time>
      </trkpt>
      <trkpt lat="43.06261" lon="-0.44634">
        <ele>700</ele>
        <time>2018-06-27T03:51:39Z</time>
      </trkpt>
      <trkpt lat="43.06266" lon="-0.44671">
        <ele>704</ele>
        <time>2018-06-27T03:53:39Z</time>
      </trkpt>
      <trkpt lat="43.06278" lon="-0.44732">
        <ele>707</ele>
        <time>2018-06-27T03:54:39Z</time>
      </trkpt>
      <trkpt lat="43.0629" lon="-0.4478">
        <ele>712</ele>
        <time>2018-06-27T03:55:39Z</time>
      </trkpt>
      <trkpt lat="43.06292" lon="-0.44792">
        <ele>713</ele>
        <time>2018-06-27T03:57:39Z</time>
      </trkpt>
      <trkpt lat="43.06295" lon="-0.44869">
        <ele>716</ele>
        <time>2018-06-27T04:01:39Z</time>
      </trkpt>
      <trkpt lat="43.06299" lon="-0.44914">
        <ele>719</ele>
        <time>2018-06-27T04:04:39Z</time>
      </trkpt>
      <trkpt lat="43.06292" lon="-0.45021">
        <ele>723</ele>
        <time>2018-06-27T04:09:39Z</time>
      </trkpt>
      <trkpt lat="43.06291" lon="-0.45028">
        <ele>723</ele>
        <time>2018-06-27T04:10:39Z</time>
      </trkpt>
      <trkpt lat="43.06252" lon="-0.4514">
        <ele>726</ele>
        <time>2018-06-27T04:19:39Z</time>
      </trkpt>
      <trkpt lat="43.0623" lon="-0.45188">
        <ele>731</ele>
        <time>2018-06-27T04:21:39Z</time>
      </trkpt>
      <trkpt lat="43.06215" lon="-0.45214">
        <ele>734</ele>
        <time>2018-06-27T04:23:39Z</time>
      </trkpt>
      <trkpt lat="43.06192" lon="-0.45244">
        <ele>738</ele>
        <time>2018-06-27T04:25:39Z</time>
      </trkpt>
      <trkpt lat="43.06184" lon="-0.4525">
        <ele>738</ele>
        <time>2018-06-27T04:26:39Z</time>
      </trkpt>
      <trkpt lat="43.06139" lon="-0.45281">
        <ele>741</ele>
        <time>2018-06-27T04:28:39Z</time>
      </trkpt>
      <trkpt lat="43.06105" lon="-0.45308">
        <ele>745</ele>
        <time>2018-06-27T04:29:39Z</time>
      </trkpt>
      <trkpt lat="43.06071" lon="-0.45331">
        <ele>748</ele>
        <time>2018-06-27T04:31:39Z</time>
      </trkpt>
      <trkpt lat="43.06017" lon="-0.45357">
        <ele>752</ele>
        <time>2018-06-27T04:37:39Z</time>
      </trkpt>
      <trkpt lat="43.05999" lon="-0.45386">
        <ele>757</ele>
        <time>2018-06-27T04:41:39Z</time>
      </trkpt>
      <trkpt lat="43.05989" lon="-0.45407">
        <ele>761</ele>
        <time>2018-06-27T04:43:39Z</time>
      </trkpt>
      <trkpt lat="43.05977" lon="-0.45423">
        <ele>764</ele>
        <time>2018-06-27T04:46:39Z</time>
      </trkpt>
      <trkpt lat="43.05903" lon="-0.45425">
        <ele>762</ele>
        <time>2018-06-27T04:57:39Z</time>
      </trkpt>
      <trkpt lat="43.05863" lon="-0.45434">
        <ele>761</ele>
        <time>2018-06-27T05:03:39Z</time>
      </trkpt>
      <trkpt lat="43.05857" lon="-0.45458">
        <ele>764</ele>
        <time>2018-06-27T05:08:39Z</time>
      </trkpt>
      <trkpt lat="43.05858" lon="-0.45462">
        <ele>764</ele>
        <time>2018-06-27T05:09:39Z</time>
      </trkpt>
      <trkpt lat="43.05878" lon="-0.45472">
        <ele>769</ele>
        <time>2018-06-27T05:15:39Z</time>
      </trkpt>
      <trkpt lat="43.05881" lon="-0.45472">
        <ele>769</ele>
        <time>2018-06-27T05:16:39Z</time>
      </trkpt>
      <trkpt lat="43.05896" lon="-0.45476">
        <ele>772</ele>
        <time>2018-06-27T05:19:39Z</time>
      </trkpt>
      <trkpt lat="43.05912" lon="-0.45486">
        <ele>776</ele>
        <time>2018-06-27T05:22:39Z</time>
      </trkpt>
      <trkpt lat="43.05927" lon="-0.45494">
        <ele>779</ele>
        <time>2018-06-27T05:24:39Z</time>
      </trkpt>
      <trkpt lat="43.05931" lon="-0.45495">
        <ele>779</ele>
        <time>2018-06-27T05:25:39Z</time>
      </trkpt>
      <trkpt lat="43.05976" lon="-0.45511">
        <ele>784</ele>
        <time>2018-06-27T05:28:39Z</time>
      </trkpt>
      <trkpt lat="43.06016" lon="-0.45531">
        <ele>792</ele>
        <time>2018-06-27T05:29:39Z</time>
      </trkpt>
      <trkpt lat="43.06053" lon="-0.45551">
        <ele>799</ele>
        <time>2018-06-27T05:30:39Z</time>
      </trkpt>
      <trkpt lat="43.06073" lon="-0.45561">
        <ele>803</ele>
        <time>2018-06-27T05:32:39Z</time>
      </trkpt>
      <trkpt lat="43.06133" lon="-0.45569">
        <ele>808</ele>
        <time>2018-06-27T05:36:39Z</time>
      </trkpt>
      <trkpt lat="43.06169" lon="-0.45575">
        <ele>811</ele>
        <time>2018-06-27T05:38:39Z</time>
      </trkpt>
      <trkpt lat="43.06201" lon="-0.45581">
        <ele>813</ele>
        <time>2018-06-27T05:44:39Z</time>
      </trkpt>
      <trkpt lat="43.06216" lon="-0.4563">
        <ele>818</ele>
        <time>2018-06-27T05:53:39Z</time>
      </trkpt>
      <trkpt lat="43.06202" lon="-0.45664">
        <ele>822</ele>
        <time>2018-06-27T05:59:39Z</time>
      </trkpt>
      <trkpt lat="43.06177" lon="-0.45685">
        <ele>825</ele>
        <time>2018-06-27T06:02:39Z</time>
      </trkpt>
      <trkpt lat="43.06159" lon="-0.457">
        <ele>828</ele>
        <time>2018-06-27T06:04:39Z</time>
      </trkpt>
      <trkpt lat="43.06155" lon="-0.45738">
        <ele>831</ele>
        <time>2018-06-27T06:13:39Z</time>
      </trkpt>
      <trkpt lat="43.06202" lon="-0.45768">
        <ele>834</ele>
        <time>2018-06-27T06:18:39Z</time>
      </trkpt>
      <trkpt lat="43.06238" lon="-0.45768">
        <ele>834</ele>
        <time>2018-06-27T06:24:39Z</time>
      </trkpt>
      <trkpt lat="43.06269" lon="-0.45785">
        <ele>837</ele>
        <time>2018-06-27T06:30:39Z</time>
      </trkpt>
      <trkpt lat="43.0628" lon="-0.45791">
        <ele>837</ele>
        <time>2018-06-27T06:31:39Z</time>
      </trkpt>
      <trkpt lat="43.06336" lon="-0.45779">
        <ele>837</ele>
        <time>2018-06-27T06:39:39Z</time>
      </trkpt>
      <trkpt lat="43.06386" lon="-0.45809">
        <ele>840</ele>
        <time>2018-06-27T06:48:39Z</time>
      </trkpt>
      <trkpt lat="43.06426" lon="-0.45818">
        <ele>843</ele>
        <time>2018-06-27T06:51:39Z</time>
      </trkpt>
      <trkpt lat="43.06453" lon="-0.45829">
        <ele>847</ele>
        <time>2018-06-27T06:53:39Z</time>
      </trkpt>
      <trkpt lat="43.06462" lon="-0.45834">
        <ele>847</ele>
        <time>2018-06-27T06:54:39Z</time>
      </trkpt>
      <trkpt lat="43.06512" lon="-0.45878">
        <ele>852</ele>
        <time>2018-06-27T07:00:39Z</time>
      </trkpt>
      <trkpt lat="43.06515" lon="-0.45879">
        <ele>852</ele>
        <time>2018-06-27T07:01:39Z</time>
      </trkpt>
      <trkpt lat="43.06531" lon="-0.45886">
        <ele>855</ele>
        <time>2018-06-27T07:04:39Z</time>
      </trkpt>
      <trkpt lat="43.06534" lon="-0.45888">
        <ele>855</ele>
        <time>2018-06-27T07:05:39Z</time>
      </trkpt>
      <trkpt lat="43.06596" lon="-0.45976">
        <ele>861</ele>
        <time>2018-06-27T07:21:39Z</time>
      </trkpt>
      <trkpt lat="43.06614" lon="-0.45989">
        <ele>865</ele>
        <time>2018-06-27T07:23:39Z</time>
      </trkpt>
      <trkpt lat="43.06628" lon="-0.46018">
        <ele>869</ele>
        <time>2018-06-27T07:28:39Z</time>
      </trkpt>
      <trkpt lat="43.06629" lon="-0.4603">
        <ele>869</ele>
        <time>2018-06-27T07:29:39Z</time>
      </trkpt>
      <trkpt lat="43.06632" lon="-0.46132">
        <ele>873</ele>
        <time>2018-06-27T07:35:39Z</time>
      </trkpt>
      <trkpt lat="43.06602" lon="-0.46227">
        <ele>871</ele>
        <time>2018-06-27T07:43:39Z</time>
      </trkpt>
      <trkpt lat="43.06539" lon="-0.46401">
        <ele>874</ele>
        <time>2018-06-27T07:53:39Z</time>
      </trkpt>
      <trkpt lat="43.06537" lon="-0.4643">
        <ele>877</ele>
        <time>2018-06-27T07:59:39Z</time>
      </trkpt>
      <trkpt lat="43.06536" lon="-0.46465">
        <ele>880</ele>
        <time>2018-06-27T08:02:39Z</time>
      </trkpt>
      <trkpt lat="43.06536" lon="-0.46502">
        <ele>883</ele>
        <time>2018-06-27T08:05:39Z</time>
      </trkpt>
      <trkpt lat="43.06536" lon="-0.46504">
        <ele>883</ele>
        <time>2018-06-27T08:06:39Z</time>
      </trkpt>
      <trkpt lat="43.06548" lon="-0.46597">
        <ele>885</ele>
        <time>2018-06-27T08:11:39Z</time>
      </trkpt>
      <trkpt lat="43.06539" lon="-0.46781">
        <ele>882</ele>
        <time>2018-06-27T08:12:39Z</time>
      </trkpt>
      <trkpt lat="43.06536" lon="-0.46831">
        <ele>881</ele>
        <time>2018-06-27T08:13:39Z</time>
      </trkpt>
      <trkpt lat="43.06533" lon="-0.46853">
        <ele>880</ele>
        <time>2018-06-27T08:15:39Z</time>
      </trkpt>
      <trkpt lat="43.06513" lon="-0.46936">
        <ele>877</ele>
        <time>2018-06-27T08:20:39Z</time>
      </trkpt>
      <trkpt lat="43.06509" lon="-0.47022">
        <ele>876</ele>
        <time>2018-06-27T08:27:39Z</time>
      </trkpt>
      <trkpt lat="43.06477" lon="-0.47087">
        <ele>878</ele>
        <time>2018-06-27T08:36:39Z</time>
      </trkpt>
      <trkpt lat="43.0642" lon="-0.47163">
        <ele>879</ele>
        <time>2018-06-27T08:44:39Z</time>
      </trkpt>
      <trkpt lat="43.06391" lon="-0.47271">
        <ele>877</ele>
        <time>2018-06-27T08:51:39Z</time>
      </trkpt>
      <trkpt lat="43.06347" lon="-0.47382">
        <ele>878</ele>
        <time>2018-06-27T08:58:39Z</time>
      </trkpt>
      <trkpt lat="43.06284" lon="-0.47413">
        <ele>878</ele>
        <time>2018-06-27T09:05:39Z</time>
      </trkpt>
      <trkpt lat="43.06267" lon="-0.47431">
        <ele>878</ele>
        <time>2018-06-27T09:10:39Z</time>
      </trkpt>
      <trkpt lat="43.06232" lon="-0.47533">
        <ele>879</ele>
        <time>2018-06-27T09:14:39Z</time>
      </trkpt>
      <trkpt lat="43.06186" lon="-0.47699">
        <ele>880</ele>
        <time>2018-06-27T09:18:39Z</time>
      </trkpt>
      <trkpt lat="43.06177" lon="-0.4773">
        <ele>879</ele>
        <time>2018-06-27T09:20:39Z</time>
      </trkpt>
      <trkpt lat="43.06116" lon="-0.47865">
        <ele>879</ele>
        <time>2018-06-27T09:30:39Z</time>
      </trkpt>
      <trkpt lat="43.06076" lon="-0.48035">
        <ele>883</ele>
        <time>2018-06-27T09:36:39Z</time>
      </trkpt>
      <trkpt lat="43.06062" lon="-0.48168">
        <ele>887</ele>
        <time>2018-06-27T09:39:39Z</time>
      </trkpt>
      <trkpt lat="43.06059" lon="-0.48198">
        <ele>887</ele>
        <time>2018-06-27T09:40:39Z</time>
      </trkpt>
      <trkpt lat="43.06041" lon="-0.48307">
        <ele>892</ele>
        <time>2018-06-27T09:42:39Z</time>
      </trkpt>
      <trkpt lat="43.06029" lon="-0.48385">
        <ele>897</ele>
        <time>2018-06-27T09:44:39Z</time>
      </trkpt>
      <trkpt lat="43.06017" lon="-0.48464">
        <ele>902</ele>
        <time>2018-06-27T09:46:39Z</time>
      </trkpt>
      <trkpt lat="43.06006" lon="-0.48532">
        <ele>906</ele>
        <time>2018-06-27T09:47:39Z</time>
      </trkpt>
      <trkpt lat="43.06001" lon="-0.48563">
        <ele>908</ele>
        <time>2018-06-27T09:49:39Z</time>
      </trkpt>
      <trkpt lat="43.05989" lon="-0.48601">
        <ele>912</ele>
        <time>2018-06-27T09:53:39Z</time>
      </trkpt>
      <trkpt lat="43.05981" lon="-0.48619">
        <ele>915</ele>
        <time>2018-06-27T09:54:39Z</time>
      </trkpt>
      <trkpt lat="43.05961" lon="-0.48682">
        <ele>924</ele>
        <time>2018-06-27T09:56:39Z</time>
      </trkpt>
      <trkpt lat="43.0595" lon="-0.48717">
        <ele>929</ele>
        <time>2018-06-27T09:57:39Z</time>
      </trkpt>
      <trkpt lat="43.05938" lon="-0.48762">
        <ele>934</ele>
        <time>2018-06-27T09:58:39Z</time>
      </trkpt>
      <trkpt lat="43.05919" lon="-0.48828">
        <ele>937</ele>
        <time>2018-06-27T09:59:39Z</time>
      </trkpt>
      <trkpt lat="43.0591" lon="-0.48857">
        <ele>943</ele>
        <time>2018-06-27T10:00:39Z</time>
      </trkpt>
      <trkpt lat="43.05905" lon="-0.48875">
        <ele>948</ele>
        <time>2018-06-27T10:01:39Z</time>
      </trkpt>
      <trkpt lat="43.059" lon="-0.48889">
        <ele>951</ele>
        <time>2018-06-27T10:03:39Z</time>
      </trkpt>
      <trkpt lat="43.05895" lon="-0.48899">
        <ele>954</ele>
        <time>2018-06-27T10:05:39Z</time>
      </trkpt>
      <trkpt lat="43.05892" lon="-0.48912">
        <ele>957</ele>
        <time>2018-06-27T10:07:39Z</time>
      </trkpt>
      <trkpt lat="43.05891" lon="-0.48916">
        <ele>957</ele>
        <time>2018-06-27T10:08:39Z</time>
      </trkpt>
      <trkpt lat="43.05916" lon="-0.48934">
        <ele>955</ele>
        <time>2018-06-27T10:18:39Z</time>
      </trkpt>
      <trkpt lat="43.05923" lon="-0.4893">
        <ele>955</ele>
        <time>2018-06-27T10:19:39Z</time>
      </trkpt>
      <trkpt lat="43.05997" lon="-0.48866">
        <ele>956</ele>
        <time>2018-06-27T10:35:39Z</time>
      </trkpt>
      <trkpt lat="43.06011" lon="-0.48849">
        <ele>952</ele>
        <time>2018-06-27T10:37:39Z</time>
      </trkpt>
      <trkpt lat="43.06025" lon="-0.48832">
        <ele>948</ele>
        <time>2018-06-27T10:39:39Z</time>
      </trkpt>
      <trkpt lat="43.06051" lon="-0.48828">
        <ele>948</ele>
        <time>2018-06-27T10:48:39Z</time>
      </trkpt>
      <trkpt lat="43.06044" lon="-0.48846">
        <ele>951</ele>
        <time>2018-06-27T10:53:39Z</time>
      </trkpt>
      <trkpt lat="43.06041" lon="-0.48849">
        <ele>951</ele>
        <time>2018-06-27T10:54:39Z</time>
      </trkpt>
      <trkpt lat="43.0603" lon="-0.48859">
        <ele>954</ele>
        <time>2018-06-27T10:57:39Z</time>
      </trkpt>
      <trkpt lat="43.06017" lon="-0.48878">
        <ele>958</ele>
        <time>2018-06-27T11:00:39Z</time>
      </trkpt>
      <trkpt lat="43.06013" lon="-0.4889">
        <ele>961</ele>
        <time>2018-06-27T11:01:39Z</time>
      </trkpt>
      <trkpt lat="43.0601" lon="-0.48902">
        <ele>964</ele>
        <time>2018-06-27T11:02:39Z</time>
      </trkpt>
      <trkpt lat="43.06006" lon="-0.48918">
        <ele>969</ele>
        <time>2018-06-27T11:03:39Z</time>
      </trkpt>
      <trkpt lat="43.05999" lon="-0.48938">
        <ele>974</ele>
        <time>2018-06-27T11:04:39Z</time>
      </trkpt>
      <trkpt lat="43.05983" lon="-0.4897">
        <ele>978</ele>
        <time>2018-06-27T11:05:39Z</time>
      </trkpt>
      <trkpt lat="43.05971" lon="-0.48995">
        <ele>982</ele>
        <time>2018-06-27T11:06:39Z</time>
      </trkpt>
      <trkpt lat="43.0596" lon="-0.49021">
        <ele>985</ele>
        <time>2018-06-27T11:07:39Z</time>
      </trkpt>
      <trkpt lat="43.0595" lon="-0.49048">
        <ele>989</ele>
        <time>2018-06-27T11:08:39Z</time>
      </trkpt>
      <trkpt lat="43.05944" lon="-0.49064">
        <ele>992</ele>
        <time>2018-06-27T11:09:39Z</time>
      </trkpt>
      <trkpt lat="43.05936" lon="-0.49084">
        <ele>995</ele>
        <time>2018-06-27T11:11:39Z</time>
      </trkpt>
      <trkpt lat="43.05931" lon="-0.49092">
        <ele>995</ele>
        <time>2018-06-27T11:12:39Z</time>
      </trkpt>
      <trkpt lat="43.05902" lon="-0.49141">
        <ele>999</ele>
        <time>2018-06-27T11:16:39Z</time>
      </trkpt>
      <trkpt lat="43.05892" lon="-0.49179">
        <ele>1003</ele>
        <time>2018-06-27T11:18:39Z</time>
      </trkpt>
      <trkpt lat="43.0584" lon="-0.4929">
        <ele>1008</ele>
        <time>2018-06-27T11:24:39Z</time>
      </trkpt>
      <trkpt lat="43.05834" lon="-0.49321">
        <ele>1011</ele>
        <time>2018-06-27T11:29:39Z</time>
      </trkpt>
      <trkpt lat="43.05842" lon="-0.49335">
        <ele>1014</ele>
        <time>2018-06-27T11:32:39Z</time>
      </trkpt>
      <trkpt lat="43.05852" lon="-0.49345">
        <ele>1019</ele>
        <time>2018-06-27T11:33:39Z</time>
      </trkpt>
      <trkpt lat="43.05862" lon="-0.49353">
        <ele>1023</ele>
        <time>2018-06-27T11:34:39Z</time>
      </trkpt>
      <trkpt lat="43.05876" lon="-0.49361">
        <ele>1027</ele>
        <time>2018-06-27T11:36:39Z</time>
      </trkpt>
      <trkpt lat="43.05883" lon="-0.49361">
        <ele>1027</ele>
        <time>2018-06-27T11:37:39Z</time>
      </trkpt>
      <trkpt lat="43.05907" lon="-0.49347">
        <ele>1023</ele>
        <time>2018-06-27T11:40:39Z</time>
      </trkpt>
      <trkpt lat="43.05916" lon="-0.49335">
        <ele>1020</ele>
        <time>2018-06-27T11:42:39Z</time>
      </trkpt>
      <trkpt lat="43.05919" lon="-0.49329">
        <ele>1020</ele>
        <time>2018-06-27T11:43:39Z</time>
      </trkpt>
      <trkpt lat="43.05928" lon="-0.49294">
        <ele>1017</ele>
        <time>2018-06-27T11:46:39Z</time>
      </trkpt>
      <trkpt lat="43.05934" lon="-0.49261">
        <ele>1014</ele>
        <time>2018-06-27T11:48:39Z</time>
      </trkpt>
      <trkpt lat="43.05938" lon="-0.49241">
        <ele>1014</ele>
        <time>2018-06-27T11:49:39Z</time>
      </trkpt>
      <trkpt lat="43.05946" lon="-0.4916">
        <ele>1009</ele>
        <time>2018-06-27T11:51:39Z</time>
      </trkpt>
      <trkpt lat="43.0595" lon="-0.49148">
        <ele>1008</ele>
        <time>2018-06-27T11:53:39Z</time>
      </trkpt>
      <trkpt lat="43.05992" lon="-0.49085">
        <ele>1007</ele>
        <time>2018-06-27T12:03:39Z</time>
      </trkpt>
      <trkpt lat="43.06027" lon="-0.49141">
        <ele>1007</ele>
        <time>2018-06-27T12:11:39Z</time>
      </trkpt>
      <trkpt lat="43.06062" lon="-0.49271">
        <ele>1005</ele>
        <time>2018-06-27T12:17:39Z</time>
      </trkpt>
      <trkpt lat="43.06039" lon="-0.49336">
        <ele>1009</ele>
        <time>2018-06-27T12:23:39Z</time>
      </trkpt>
      <trkpt lat="43.06022" lon="-0.49364">
        <ele>1013</ele>
        <time>2018-06-27T12:25:39Z</time>
      </trkpt>
      <trkpt lat="43.0601" lon="-0.49393">
        <ele>1016</ele>
        <time>2018-06-27T12:27:39Z</time>
      </trkpt>
      <trkpt lat="43.06003" lon="-0.49418">
        <ele>1019</ele>
        <time>2018-06-27T12:29:39Z</time>
      </trkpt>
      <trkpt lat="43.05998" lon="-0.49442">
        <ele>1023</ele>
        <time>2018-06-27T12:31:39Z</time>
      </trkpt>
      <trkpt lat="43.06022" lon="-0.49538">
        <ele>1025</ele>
        <time>2018-06-27T12:38:39Z</time>
      </trkpt>
      <trkpt lat="43.06035" lon="-0.49588">
        <ele>1028</ele>
        <time>2018-06-27T12:42:39Z</time>
      </trkpt>
      <trkpt lat="43.06042" lon="-0.49615">
        <ele>1031</ele>
        <time>2018-06-27T12:44:39Z</time>
      </trkpt>
      <trkpt lat="43.06045" lon="-0.49619">
        <ele>1031</ele>
        <time>2018-06-27T12:45:39Z</time>
      </trkpt>
      <trkpt lat="43.0606" lon="-0.49629">
        <ele>1028</ele>
        <time>2018-06-27T12:49:39Z</time>
      </trkpt>
      <trkpt lat="43.06068" lon="-0.49629">
        <ele>1025</ele>
        <time>2018-06-27T12:50:39Z</time>
      </trkpt>
      <trkpt lat="43.06077" lon="-0.4963">
        <ele>1022</ele>
        <time>2018-06-27T12:51:39Z</time>
      </trkpt>
      <trkpt lat="43.06134" lon="-0.49646">
        <ele>1019</ele>
        <time>2018-06-27T12:59:39Z</time>
      </trkpt>
      <trkpt lat="43.062" lon="-0.49671">
        <ele>1016</ele>
        <time>2018-06-27T13:08:39Z</time>
      </trkpt>
      <trkpt lat="43.06276" lon="-0.49735">
        <ele>1016</ele>
        <time>2018-06-27T13:21:39Z</time>
      </trkpt>
      <trkpt lat="43.06339" lon="-0.49815">
        <ele>1019</ele>
        <time>2018-06-27T13:29:39Z</time>
      </trkpt>
      <trkpt lat="43.06361" lon="-0.49846">
        <ele>1022</ele>
        <time>2018-06-27T13:31:39Z</time>
      </trkpt>
      <trkpt lat="43.06417" lon="-0.49875">
        <ele>1019</ele>
        <time>2018-06-27T13:39:39Z</time>
      </trkpt>
      <trkpt lat="43.06434" lon="-0.49863">
        <ele>1016</ele>
        <time>2018-06-27T13:42:39Z</time>
      </trkpt>
      <trkpt lat="43.06445" lon="-0.49852">
        <ele>1013</ele>
        <time>2018-06-27T13:44:39Z</time>
      </trkpt>
      <trkpt lat="43.06461" lon="-0.49835">
        <ele>1009</ele>
        <time>2018-06-27T13:46:39Z</time>
      </trkpt>
      <trkpt lat="43.065" lon="-0.4984">
        <ele>1008</ele>
        <time>2018-06-27T13:55:39Z</time>
      </trkpt>
      <trkpt lat="43.06518" lon="-0.49909">
        <ele>1012</ele>
        <time>2018-06-27T13:59:39Z</time>
      </trkpt>
      <trkpt lat="43.06521" lon="-0.49925">
        <ele>1012</ele>
        <time>2018-06-27T14:00:39Z</time>
      </trkpt>
      <trkpt lat="43.06516" lon="-0.50006">
        <ele>1015</ele>
        <time>2018-06-27T14:06:39Z</time>
      </trkpt>
      <trkpt lat="43.06512" lon="-0.50028">
        <ele>1015</ele>
        <time>2018-06-27T14:07:39Z</time>
      </trkpt>
      <trkpt lat="43.06495" lon="-0.50112">
        <ele>1018</ele>
        <time>2018-06-27T14:11:39Z</time>
      </trkpt>
      <trkpt lat="43.06495" lon="-0.5012">
        <ele>1018</ele>
        <time>2018-06-27T14:12:39Z</time>
      </trkpt>
      <trkpt lat="43.06495" lon="-0.50199">
        <ele>1023</ele>
        <time>2018-06-27T14:16:39Z</time>
      </trkpt>
      <trkpt lat="43.06509" lon="-0.50217">
        <ele>1027</ele>
        <time>2018-06-27T14:24:39Z</time>
      </trkpt>
      <trkpt lat="43.06513" lon="-0.50215">
        <ele>1027</ele>
        <time>2018-06-27T14:25:39Z</time>
      </trkpt>
      <trkpt lat="43.06566" lon="-0.50161">
        <ele>1025</ele>
        <time>2018-06-27T14:29:39Z</time>
      </trkpt>
      <trkpt lat="43.06604" lon="-0.50122">
        <ele>1019</ele>
        <time>2018-06-27T14:30:39Z</time>
      </trkpt>
      <trkpt lat="43.06682" lon="-0.50056">
        <ele>1007</ele>
        <time>2018-06-27T14:31:39Z</time>
      </trkpt>
      <trkpt lat="43.06693" lon="-0.50049">
        <ele>1006</ele>
        <time>2018-06-27T14:32:39Z</time>
      </trkpt>
      <trkpt lat="43.067" lon="-0.50046">
        <ele>1006</ele>
        <time>2018-06-27T14:33:39Z</time>
      </trkpt>
      <trkpt lat="43.06733" lon="-0.50051">
        <ele>1011</ele>
        <time>2018-06-27T14:39:39Z</time>
      </trkpt>
      <trkpt lat="43.06746" lon="-0.50055">
        <ele>1014</ele>
        <time>2018-06-27T14:41:39Z</time>
      </trkpt>
      <trkpt lat="43.06753" lon="-0.50055">
        <ele>1014</ele>
        <time>2018-06-27T14:42:39Z</time>
      </trkpt>
      <trkpt lat="43.06821" lon="-0.50085">
        <ele>1019</ele>
        <time>2018-06-27T14:53:39Z</time>
      </trkpt>
      <trkpt lat="43.0683" lon="-0.50089">
        <ele>1019</ele>
        <time>2018-06-27T14:54:39Z</time>
      </trkpt>
      <trkpt lat="43.06856" lon="-0.50111">
        <ele>1022</ele>
        <time>2018-06-27T14:58:39Z</time>
      </trkpt>
      <trkpt lat="43.06869" lon="-0.50133">
        <ele>1026</ele>
        <time>2018-06-27T15:01:39Z</time>
      </trkpt>
      <trkpt lat="43.0689" lon="-0.50163">
        <ele>1029</ele>
        <time>2018-06-27T15:04:39Z</time>
      </trkpt>
      <trkpt lat="43.06917" lon="-0.50191">
        <ele>1026</ele>
        <time>2018-06-27T15:07:39Z</time>
      </trkpt>
      <trkpt lat="43.06935" lon="-0.50237">
        <ele>1028</ele>
        <time>2018-06-27T15:14:39Z</time>
      </trkpt>
      <trkpt lat="43.06935" lon="-0.50383">
        <ele>1032</ele>
        <time>2018-06-27T15:20:39Z</time>
      </trkpt>
      <trkpt lat="43.06924" lon="-0.50427">
        <ele>1037</ele>
        <time>2018-06-27T15:22:39Z</time>
      </trkpt>
      <trkpt lat="43.06917" lon="-0.50449">
        <ele>1041</ele>
        <time>2018-06-27T15:23:39Z</time>
      </trkpt>
      <trkpt lat="43.06912" lon="-0.50465">
        <ele>1045</ele>
        <time>2018-06-27T15:24:39Z</time>
      </trkpt>
      <trkpt lat="43.06925" lon="-0.50531">
        <ele>1047</ele>
        <time>2018-06-27T15:30:39Z</time>
      </trkpt>
      <trkpt lat="43.06962" lon="-0.50606">
        <ele>1049</ele>
        <time>2018-06-27T15:34:39Z</time>
      </trkpt>
      <trkpt lat="43.06981" lon="-0.50623">
        <ele>1046</ele>
        <time>2018-06-27T15:37:39Z</time>
      </trkpt>
      <trkpt lat="43.06995" lon="-0.50628">
        <ele>1043</ele>
        <time>2018-06-27T15:39:39Z</time>
      </trkpt>
      <trkpt lat="43.07039" lon="-0.50714">
        <ele>1041</ele>
        <time>2018-06-27T15:45:39Z</time>
      </trkpt>
      <trkpt lat="43.07045" lon="-0.50758">
        <ele>1042</ele>
        <time>2018-06-20T21:13:39Z</time>
      </trkpt>
      <trkpt lat="43.07036" lon="-0.50703">
        <ele>1041</ele>
        <time>2018-06-20T21:18:39Z</time>
      </trkpt>
      <trkpt lat="43.06987" lon="-0.50625">
        <ele>1045</ele>
        <time>2018-06-20T21:24:39Z</time>
      </trkpt>
      <trkpt lat="43.06973" lon="-0.5062">
        <ele>1048</ele>
        <time>2018-06-20T21:26:39Z</time>
      </trkpt>
      <trkpt lat="43.06925" lon="-0.50531">
        <ele>1047</ele>
        <time>2018-06-20T21:32:39Z</time>
      </trkpt>
      <trkpt lat="43.06917" lon="-0.50449">
        <ele>1041</ele>
        <time>2018-06-20T21:39:39Z</time>
      </trkpt>
      <trkpt lat="43.06924" lon="-0.50427">
        <ele>1037</ele>
        <time>2018-06-20T21:40:39Z</time>
      </trkpt>
      <trkpt lat="43.0693" lon="-0.50402">
        <ele>1034</ele>
        <time>2018-06-20T21:41:39Z</time>
      </trkpt>
      <trkpt lat="43.06938" lon="-0.50365">
        <ele>1031</ele>
        <time>2018-06-20T21:43:39Z</time>
      </trkpt>
      <trkpt lat="43.06933" lon="-0.50226">
        <ele>1027</ele>
        <time>2018-06-20T21:49:39Z</time>
      </trkpt>
      <trkpt lat="43.06931" lon="-0.5022">
        <ele>1027</ele>
        <time>2018-06-20T21:50:39Z</time>
      </trkpt>
      <trkpt lat="43.06865" lon="-0.50126">
        <ele>1024</ele>
        <time>2018-06-20T22:02:39Z</time>
      </trkpt>
      <trkpt lat="43.06851" lon="-0.50106">
        <ele>1021</ele>
        <time>2018-06-20T22:05:39Z</time>
      </trkpt>
      <trkpt lat="43.06804" lon="-0.50076">
        <ele>1017</ele>
        <time>2018-06-20T22:11:39Z</time>
      </trkpt>
      <trkpt lat="43.06789" lon="-0.50063">
        <ele>1014</ele>
        <time>2018-06-20T22:14:39Z</time>
      </trkpt>
      <trkpt lat="43.06733" lon="-0.50051">
        <ele>1011</ele>
        <time>2018-06-20T22:23:39Z</time>
      </trkpt>
      <trkpt lat="43.06722" lon="-0.50047">
        <ele>1008</ele>
        <time>2018-06-20T22:25:39Z</time>
      </trkpt>
      <trkpt lat="43.06717" lon="-0.50046">
        <ele>1008</ele>
        <time>2018-06-20T22:26:39Z</time>
      </trkpt>
      <trkpt lat="43.06682" lon="-0.50056">
        <ele>1007</ele>
        <time>2018-06-20T22:31:39Z</time>
      </trkpt>
      <trkpt lat="43.06604" lon="-0.50122">
        <ele>1019</ele>
        <time>2018-06-20T22:32:39Z</time>
      </trkpt>
      <trkpt lat="43.06566" lon="-0.50161">
        <ele>1025</ele>
        <time>2018-06-20T22:33:39Z</time>
      </trkpt>
      <trkpt lat="43.06529" lon="-0.50202">
        <ele>1028</ele>
        <time>2018-06-20T22:35:39Z</time>
      </trkpt>
      <trkpt lat="43.0652" lon="-0.50211">
        <ele>1028</ele>
        <time>2018-06-20T22:36:39Z</time>
      </trkpt>
      <trkpt lat="43.06504" lon="-0.50217">
        <ele>1025</ele>
        <time>2018-06-20T22:40:39Z</time>
      </trkpt>
      <trkpt lat="43.06495" lon="-0.50178">
        <ele>1020</ele>
        <time>2018-06-20T22:48:39Z</time>
      </trkpt>
      <trkpt lat="43.06502" lon="-0.50076">
        <ele>1015</ele>
        <time>2018-06-20T22:53:39Z</time>
      </trkpt>
      <trkpt lat="43.06507" lon="-0.50055">
        <ele>1015</ele>
        <time>2018-06-20T22:54:39Z</time>
      </trkpt>
      <trkpt lat="43.06523" lon="-0.49939">
        <ele>1012</ele>
        <time>2018-06-20T23:00:39Z</time>
      </trkpt>
      <trkpt lat="43.06504" lon="-0.49851">
        <ele>1009</ele>
        <time>2018-06-20T23:06:39Z</time>
      </trkpt>
      <trkpt lat="43.06468" lon="-0.49829">
        <ele>1007</ele>
        <time>2018-06-20T23:15:39Z</time>
      </trkpt>
      <trkpt lat="43.0645" lon="-0.49846">
        <ele>1011</ele>
        <time>2018-06-20T23:17:39Z</time>
      </trkpt>
      <trkpt lat="43.0644" lon="-0.49857">
        <ele>1014</ele>
        <time>2018-06-20T23:19:39Z</time>
      </trkpt>
      <trkpt lat="43.0643" lon="-0.49866">
        <ele>1017</ele>
        <time>2018-06-20T23:21:39Z</time>
      </trkpt>
      <trkpt lat="43.06408" lon="-0.49878">
        <ele>1022</ele>
        <time>2018-06-20T23:24:39Z</time>
      </trkpt>
      <trkpt lat="43.06348" lon="-0.49829">
        <ele>1020</ele>
        <time>2018-06-20T23:32:39Z</time>
      </trkpt>
      <trkpt lat="43.06329" lon="-0.49798">
        <ele>1017</ele>
        <time>2018-06-20T23:34:39Z</time>
      </trkpt>
      <trkpt lat="43.06322" lon="-0.49786">
        <ele>1017</ele>
        <time>2018-06-20T23:35:39Z</time>
      </trkpt>
      <trkpt lat="43.06266" lon="-0.49722">
        <ele>1015</ele>
        <time>2018-06-20T23:43:39Z</time>
      </trkpt>
      <trkpt lat="43.06226" lon="-0.49701">
        <ele>1018</ele>
        <time>2018-06-20T23:49:39Z</time>
      </trkpt>
      <trkpt lat="43.0616" lon="-0.49648">
        <ele>1017</ele>
        <time>2018-06-21T00:00:39Z</time>
      </trkpt>
      <trkpt lat="43.06125" lon="-0.49646">
        <ele>1020</ele>
        <time>2018-06-21T00:04:39Z</time>
      </trkpt>
      <trkpt lat="43.0612" lon="-0.49647">
        <ele>1020</ele>
        <time>2018-06-21T00:05:39Z</time>
      </trkpt>
      <trkpt lat="43.06068" lon="-0.49629">
        <ele>1025</ele>
        <time>2018-06-21T00:12:39Z</time>
      </trkpt>
      <trkpt lat="43.0606" lon="-0.49629">
        <ele>1028</ele>
        <time>2018-06-21T00:13:39Z</time>
      </trkpt>
      <trkpt lat="43.06048" lon="-0.49623">
        <ele>1031</ele>
        <time>2018-06-21T00:16:39Z</time>
      </trkpt>
      <trkpt lat="43.06045" lon="-0.49619">
        <ele>1031</ele>
        <time>2018-06-21T00:17:39Z</time>
      </trkpt>
      <trkpt lat="43.06035" lon="-0.49588">
        <ele>1028</ele>
        <time>2018-06-21T00:20:39Z</time>
      </trkpt>
      <trkpt lat="43.06002" lon="-0.49477">
        <ele>1025</ele>
        <time>2018-06-21T00:28:39Z</time>
      </trkpt>
      <trkpt lat="43.06" lon="-0.49429">
        <ele>1021</ele>
        <time>2018-06-21T00:32:39Z</time>
      </trkpt>
      <trkpt lat="43.06005" lon="-0.49408">
        <ele>1018</ele>
        <time>2018-06-21T00:34:39Z</time>
      </trkpt>
      <trkpt lat="43.06015" lon="-0.49381">
        <ele>1015</ele>
        <time>2018-06-21T00:36:39Z</time>
      </trkpt>
      <trkpt lat="43.06031" lon="-0.49349">
        <ele>1011</ele>
        <time>2018-06-21T00:38:39Z</time>
      </trkpt>
      <trkpt lat="43.06044" lon="-0.49327">
        <ele>1008</ele>
        <time>2018-06-21T00:40:39Z</time>
      </trkpt>
      <trkpt lat="43.06057" lon="-0.49296">
        <ele>1005</ele>
        <time>2018-06-21T00:43:39Z</time>
      </trkpt>
      <trkpt lat="43.06059" lon="-0.49288">
        <ele>1005</ele>
        <time>2018-06-21T00:44:39Z</time>
      </trkpt>
      <trkpt lat="43.06027" lon="-0.49141">
        <ele>1007</ele>
        <time>2018-06-21T00:51:39Z</time>
      </trkpt>
      <trkpt lat="43.06004" lon="-0.49086">
        <ele>1007</ele>
        <time>2018-06-21T00:55:39Z</time>
      </trkpt>
      <trkpt lat="43.05977" lon="-0.49105">
        <ele>1007</ele>
        <time>2018-06-21T01:04:39Z</time>
      </trkpt>
      <trkpt lat="43.05939" lon="-0.49224">
        <ele>1013</ele>
        <time>2018-06-21T01:12:39Z</time>
      </trkpt>
      <trkpt lat="43.05928" lon="-0.49294">
        <ele>1017</ele>
        <time>2018-06-21T01:16:39Z</time>
      </trkpt>
      <trkpt lat="43.05919" lon="-0.49329">
        <ele>1020</ele>
        <time>2018-06-21T01:19:39Z</time>
      </trkpt>
      <trkpt lat="43.05916" lon="-0.49335">
        <ele>1020</ele>
        <time>2018-06-21T01:20:39Z</time>
      </trkpt>
      <trkpt lat="43.05907" lon="-0.49347">
        <ele>1023</ele>
        <time>2018-06-21T01:22:39Z</time>
      </trkpt>
      <trkpt lat="43.05892" lon="-0.49359">
        <ele>1027</ele>
        <time>2018-06-21T01:24:39Z</time>
      </trkpt>
      <trkpt lat="43.05883" lon="-0.49361">
        <ele>1027</ele>
        <time>2018-06-21T01:25:39Z</time>
      </trkpt>
      <trkpt lat="43.05862" lon="-0.49353">
        <ele>1023</ele>
        <time>2018-06-21T01:28:39Z</time>
      </trkpt>
      <trkpt lat="43.05852" lon="-0.49345">
        <ele>1019</ele>
        <time>2018-06-21T01:29:39Z</time>
      </trkpt>
      <trkpt lat="43.05842" lon="-0.49335">
        <ele>1014</ele>
        <time>2018-06-21T01:30:39Z</time>
      </trkpt>
      <trkpt lat="43.05834" lon="-0.49321">
        <ele>1011</ele>
        <time>2018-06-21T01:33:39Z</time>
      </trkpt>
      <trkpt lat="43.05833" lon="-0.49315">
        <ele>1011</ele>
        <time>2018-06-21T01:34:39Z</time>
      </trkpt>
      <trkpt lat="43.05871" lon="-0.49248">
        <ele>1006</ele>
        <time>2018-06-21T01:40:39Z</time>
      </trkpt>
      <trkpt lat="43.05898" lon="-0.49155">
        <ele>1001</ele>
        <time>2018-06-21T01:45:39Z</time>
      </trkpt>
      <trkpt lat="43.05909" lon="-0.49123">
        <ele>997</ele>
        <time>2018-06-21T01:47:39Z</time>
      </trkpt>
      <trkpt lat="43.05944" lon="-0.49064">
        <ele>992</ele>
        <time>2018-06-21T01:53:39Z</time>
      </trkpt>
      <trkpt lat="43.0595" lon="-0.49048">
        <ele>989</ele>
        <time>2018-06-21T01:54:39Z</time>
      </trkpt>
      <trkpt lat="43.0596" lon="-0.49021">
        <ele>985</ele>
        <time>2018-06-21T01:55:39Z</time>
      </trkpt>
      <trkpt lat="43.05971" lon="-0.48995">
        <ele>982</ele>
        <time>2018-06-21T01:56:39Z</time>
      </trkpt>
      <trkpt lat="43.05983" lon="-0.4897">
        <ele>978</ele>
        <time>2018-06-21T01:57:39Z</time>
      </trkpt>
      <trkpt lat="43.05999" lon="-0.48938">
        <ele>974</ele>
        <time>2018-06-21T01:58:39Z</time>
      </trkpt>
      <trkpt lat="43.06006" lon="-0.48918">
        <ele>969</ele>
        <time>2018-06-21T01:59:39Z</time>
      </trkpt>
      <trkpt lat="43.0601" lon="-0.48902">
        <ele>964</ele>
        <time>2018-06-21T02:00:39Z</time>
      </trkpt>
      <trkpt lat="43.06013" lon="-0.4889">
        <ele>961</ele>
        <time>2018-06-21T02:01:39Z</time>
      </trkpt>
      <trkpt lat="43.06017" lon="-0.48878">
        <ele>958</ele>
        <time>2018-06-21T02:02:39Z</time>
      </trkpt>
      <trkpt lat="43.06026" lon="-0.48863">
        <ele>955</ele>
        <time>2018-06-21T02:04:39Z</time>
      </trkpt>
      <trkpt lat="43.06038" lon="-0.48852">
        <ele>952</ele>
        <time>2018-06-21T02:07:39Z</time>
      </trkpt>
      <trkpt lat="43.0605" lon="-0.48835">
        <ele>949</ele>
        <time>2018-06-21T02:12:39Z</time>
      </trkpt>
      <trkpt lat="43.06046" lon="-0.48821">
        <ele>946</ele>
        <time>2018-06-21T02:17:39Z</time>
      </trkpt>
      <trkpt lat="43.06018" lon="-0.4884">
        <ele>950</ele>
        <time>2018-06-21T02:24:39Z</time>
      </trkpt>
      <trkpt lat="43.06005" lon="-0.48857">
        <ele>954</ele>
        <time>2018-06-21T02:26:39Z</time>
      </trkpt>
      <trkpt lat="43.05974" lon="-0.48882">
        <ele>955</ele>
        <time>2018-06-21T02:33:39Z</time>
      </trkpt>
      <trkpt lat="43.05902" lon="-0.48936">
        <ele>958</ele>
        <time>2018-06-21T02:47:39Z</time>
      </trkpt>
      <trkpt lat="43.05893" lon="-0.48906">
        <ele>956</ele>
        <time>2018-06-21T02:56:39Z</time>
      </trkpt>
      <trkpt lat="43.05898" lon="-0.48894">
        <ele>953</ele>
        <time>2018-06-21T02:58:39Z</time>
      </trkpt>
      <trkpt lat="43.05902" lon="-0.48885">
        <ele>950</ele>
        <time>2018-06-21T03:00:39Z</time>
      </trkpt>
      <trkpt lat="43.0591" lon="-0.48857">
        <ele>943</ele>
        <time>2018-06-21T03:02:39Z</time>
      </trkpt>
      <trkpt lat="43.05919" lon="-0.48828">
        <ele>937</ele>
        <time>2018-06-21T03:03:39Z</time>
      </trkpt>
      <trkpt lat="43.05938" lon="-0.48762">
        <ele>934</ele>
        <time>2018-06-21T03:04:39Z</time>
      </trkpt>
      <trkpt lat="43.0595" lon="-0.48717">
        <ele>929</ele>
        <time>2018-06-21T03:05:39Z</time>
      </trkpt>
      <trkpt lat="43.05961" lon="-0.48682">
        <ele>924</ele>
        <time>2018-06-21T03:06:39Z</time>
      </trkpt>
      <trkpt lat="43.05977" lon="-0.48632">
        <ele>917</ele>
        <time>2018-06-21T03:07:39Z</time>
      </trkpt>
      <trkpt lat="43.05989" lon="-0.48601">
        <ele>912</ele>
        <time>2018-06-21T03:09:39Z</time>
      </trkpt>
      <trkpt lat="43.05998" lon="-0.48577">
        <ele>909</ele>
        <time>2018-06-21T03:11:39Z</time>
      </trkpt>
      <trkpt lat="43.06017" lon="-0.48464">
        <ele>902</ele>
        <time>2018-06-21T03:16:39Z</time>
      </trkpt>
      <trkpt lat="43.06024" lon="-0.4842">
        <ele>899</ele>
        <time>2018-06-21T03:17:39Z</time>
      </trkpt>
      <trkpt lat="43.06034" lon="-0.48349">
        <ele>894</ele>
        <time>2018-06-21T03:19:39Z</time>
      </trkpt>
      <trkpt lat="43.06049" lon="-0.48262">
        <ele>889</ele>
        <time>2018-06-21T03:21:39Z</time>
      </trkpt>
      <trkpt lat="43.06072" lon="-0.48062">
        <ele>884</ele>
        <time>2018-06-21T03:25:39Z</time>
      </trkpt>
      <trkpt lat="43.06078" lon="-0.48022">
        <ele>883</ele>
        <time>2018-06-21T03:27:39Z</time>
      </trkpt>
      <trkpt lat="43.06111" lon="-0.47881">
        <ele>880</ele>
        <time>2018-06-21T03:31:39Z</time>
      </trkpt>
      <trkpt lat="43.06128" lon="-0.47842">
        <ele>879</ele>
        <time>2018-06-21T03:35:39Z</time>
      </trkpt>
      <trkpt lat="43.06149" lon="-0.478">
        <ele>879</ele>
        <time>2018-06-21T03:38:39Z</time>
      </trkpt>
      <trkpt lat="43.06222" lon="-0.47572">
        <ele>878</ele>
        <time>2018-06-21T03:47:39Z</time>
      </trkpt>
      <trkpt lat="43.06263" lon="-0.47439">
        <ele>879</ele>
        <time>2018-06-21T03:51:39Z</time>
      </trkpt>
      <trkpt lat="43.0628" lon="-0.47415">
        <ele>878</ele>
        <time>2018-06-21T03:56:39Z</time>
      </trkpt>
      <trkpt lat="43.06347" lon="-0.47382">
        <ele>878</ele>
        <time>2018-06-21T04:04:39Z</time>
      </trkpt>
      <trkpt lat="43.06391" lon="-0.47271">
        <ele>877</ele>
        <time>2018-06-21T04:11:39Z</time>
      </trkpt>
      <trkpt lat="43.06433" lon="-0.47133">
        <ele>878</ele>
        <time>2018-06-21T04:23:39Z</time>
      </trkpt>
      <trkpt lat="43.06502" lon="-0.47059">
        <ele>876</ele>
        <time>2018-06-21T04:29:39Z</time>
      </trkpt>
      <trkpt lat="43.0651" lon="-0.47028">
        <ele>876</ele>
        <time>2018-06-21T04:34:39Z</time>
      </trkpt>
      <trkpt lat="43.06521" lon="-0.46904">
        <ele>878</ele>
        <time>2018-06-21T04:44:39Z</time>
      </trkpt>
      <trkpt lat="43.06536" lon="-0.46831">
        <ele>881</ele>
        <time>2018-06-21T04:49:39Z</time>
      </trkpt>
      <trkpt lat="43.06539" lon="-0.46781">
        <ele>882</ele>
        <time>2018-06-21T04:50:39Z</time>
      </trkpt>
      <trkpt lat="43.06548" lon="-0.46597">
        <ele>885</ele>
        <time>2018-06-21T04:51:39Z</time>
      </trkpt>
      <trkpt lat="43.06549" lon="-0.46577">
        <ele>885</ele>
        <time>2018-06-21T04:52:39Z</time>
      </trkpt>
      <trkpt lat="43.06535" lon="-0.46489">
        <ele>882</ele>
        <time>2018-06-21T04:58:39Z</time>
      </trkpt>
      <trkpt lat="43.06537" lon="-0.46453">
        <ele>879</ele>
        <time>2018-06-21T05:01:39Z</time>
      </trkpt>
      <trkpt lat="43.06538" lon="-0.46407">
        <ele>875</ele>
        <time>2018-06-21T05:07:39Z</time>
      </trkpt>
      <trkpt lat="43.06593" lon="-0.46253">
        <ele>871</ele>
        <time>2018-06-21T05:17:39Z</time>
      </trkpt>
      <trkpt lat="43.06602" lon="-0.46227">
        <ele>871</ele>
        <time>2018-06-21T05:19:39Z</time>
      </trkpt>
      <trkpt lat="43.0663" lon="-0.46077">
        <ele>870</ele>
        <time>2018-06-21T05:31:39Z</time>
      </trkpt>
      <trkpt lat="43.0662" lon="-0.45998">
        <ele>866</ele>
        <time>2018-06-21T05:37:39Z</time>
      </trkpt>
      <trkpt lat="43.06616" lon="-0.45993">
        <ele>866</ele>
        <time>2018-06-21T05:38:39Z</time>
      </trkpt>
      <trkpt lat="43.06606" lon="-0.45983">
        <ele>863</ele>
        <time>2018-06-21T05:40:39Z</time>
      </trkpt>
      <trkpt lat="43.06586" lon="-0.45969">
        <ele>858</ele>
        <time>2018-06-21T05:42:39Z</time>
      </trkpt>
      <trkpt lat="43.06552" lon="-0.45919">
        <ele>856</ele>
        <time>2018-06-21T05:50:39Z</time>
      </trkpt>
      <trkpt lat="43.06541" lon="-0.45894">
        <ele>856</ele>
        <time>2018-06-21T05:54:39Z</time>
      </trkpt>
      <trkpt lat="43.06522" lon="-0.45882">
        <ele>853</ele>
        <time>2018-06-21T06:00:39Z</time>
      </trkpt>
      <trkpt lat="43.06489" lon="-0.45858">
        <ele>849</ele>
        <time>2018-06-21T06:05:39Z</time>
      </trkpt>
      <trkpt lat="43.06476" lon="-0.45847">
        <ele>849</ele>
        <time>2018-06-21T06:06:39Z</time>
      </trkpt>
      <trkpt lat="43.06426" lon="-0.45818">
        <ele>843</ele>
        <time>2018-06-21T06:11:39Z</time>
      </trkpt>
      <trkpt lat="43.06386" lon="-0.45809">
        <ele>840</ele>
        <time>2018-06-21T06:14:39Z</time>
      </trkpt>
      <trkpt lat="43.06381" lon="-0.45807">
        <ele>840</ele>
        <time>2018-06-21T06:15:39Z</time>
      </trkpt>
      <trkpt lat="43.06331" lon="-0.4578">
        <ele>836</ele>
        <time>2018-06-21T06:24:39Z</time>
      </trkpt>
      <trkpt lat="43.06294" lon="-0.45793">
        <ele>837</ele>
        <time>2018-06-21T06:29:39Z</time>
      </trkpt>
      <trkpt lat="43.06221" lon="-0.45768">
        <ele>834</ele>
        <time>2018-06-21T06:41:39Z</time>
      </trkpt>
      <trkpt lat="43.06155" lon="-0.45738">
        <ele>831</ele>
        <time>2018-06-21T06:49:39Z</time>
      </trkpt>
      <trkpt lat="43.06151" lon="-0.45728">
        <ele>831</ele>
        <time>2018-06-21T06:51:39Z</time>
      </trkpt>
      <trkpt lat="43.06159" lon="-0.457">
        <ele>828</ele>
        <time>2018-06-21T06:58:39Z</time>
      </trkpt>
      <trkpt lat="43.06177" lon="-0.45685">
        <ele>825</ele>
        <time>2018-06-21T07:00:39Z</time>
      </trkpt>
      <trkpt lat="43.06202" lon="-0.45664">
        <ele>822</ele>
        <time>2018-06-21T07:03:39Z</time>
      </trkpt>
      <trkpt lat="43.06205" lon="-0.4566">
        <ele>822</ele>
        <time>2018-06-21T07:04:39Z</time>
      </trkpt>
      <trkpt lat="43.06217" lon="-0.45623">
        <ele>817</ele>
        <time>2018-06-21T07:10:39Z</time>
      </trkpt>
      <trkpt lat="43.06207" lon="-0.45587">
        <ele>813</ele>
        <time>2018-06-21T07:16:39Z</time>
      </trkpt>
      <trkpt lat="43.06204" lon="-0.45584">
        <ele>813</ele>
        <time>2018-06-21T07:17:39Z</time>
      </trkpt>
      <trkpt lat="43.06133" lon="-0.45569">
        <ele>808</ele>
        <time>2018-06-21T07:26:39Z</time>
      </trkpt>
      <trkpt lat="43.06081" lon="-0.45563">
        <ele>804</ele>
        <time>2018-06-21T07:28:39Z</time>
      </trkpt>
      <trkpt lat="43.06077" lon="-0.45562">
        <ele>804</ele>
        <time>2018-06-21T07:29:39Z</time>
      </trkpt>
      <trkpt lat="43.06064" lon="-0.45556">
        <ele>801</ele>
        <time>2018-06-21T07:31:39Z</time>
      </trkpt>
      <trkpt lat="43.06016" lon="-0.45531">
        <ele>792</ele>
        <time>2018-06-21T07:33:39Z</time>
      </trkpt>
      <trkpt lat="43.05976" lon="-0.45511">
        <ele>784</ele>
        <time>2018-06-21T07:34:39Z</time>
      </trkpt>
      <trkpt lat="43.05956" lon="-0.45502">
        <ele>781</ele>
        <time>2018-06-21T07:35:39Z</time>
      </trkpt>
      <trkpt lat="43.05912" lon="-0.45486">
        <ele>776</ele>
        <time>2018-06-21T07:40:39Z</time>
      </trkpt>
      <trkpt lat="43.05899" lon="-0.45478">
        <ele>773</ele>
        <time>2018-06-21T07:42:39Z</time>
      </trkpt>
      <trkpt lat="43.0589" lon="-0.45473">
        <ele>770</ele>
        <time>2018-06-21T07:44:39Z</time>
      </trkpt>
      <trkpt lat="43.05886" lon="-0.45472">
        <ele>770</ele>
        <time>2018-06-21T07:45:39Z</time>
      </trkpt>
      <trkpt lat="43.05869" lon="-0.45472">
        <ele>767</ele>
        <time>2018-06-21T07:48:39Z</time>
      </trkpt>
      <trkpt lat="43.05866" lon="-0.45471">
        <ele>767</ele>
        <time>2018-06-21T07:49:39Z</time>
      </trkpt>
      <trkpt lat="43.05858" lon="-0.45462">
        <ele>764</ele>
        <time>2018-06-21T07:53:39Z</time>
      </trkpt>
      <trkpt lat="43.05857" lon="-0.45458">
        <ele>764</ele>
        <time>2018-06-21T07:54:39Z</time>
      </trkpt>
      <trkpt lat="43.0588" lon="-0.45426">
        <ele>760</ele>
        <time>2018-06-21T08:02:39Z</time>
      </trkpt>
      <trkpt lat="43.05918" lon="-0.45429">
        <ele>764</ele>
        <time>2018-06-21T08:06:39Z</time>
      </trkpt>
      <trkpt lat="43.05926" lon="-0.45431">
        <ele>764</ele>
        <time>2018-06-21T08:07:39Z</time>
      </trkpt>
      <trkpt lat="43.05977" lon="-0.45423">
        <ele>764</ele>
        <time>2018-06-21T08:16:39Z</time>
      </trkpt>
      <trkpt lat="43.05989" lon="-0.45407">
        <ele>761</ele>
        <time>2018-06-21T08:19:39Z</time>
      </trkpt>
      <trkpt lat="43.05997" lon="-0.45389">
        <ele>758</ele>
        <time>2018-06-21T08:20:39Z</time>
      </trkpt>
      <trkpt lat="43.06006" lon="-0.45371">
        <ele>754</ele>
        <time>2018-06-21T08:22:39Z</time>
      </trkpt>
      <trkpt lat="43.06009" lon="-0.45366">
        <ele>754</ele>
        <time>2018-06-21T08:23:39Z</time>
      </trkpt>
      <trkpt lat="43.06052" lon="-0.4534">
        <ele>750</ele>
        <time>2018-06-21T08:29:39Z</time>
      </trkpt>
      <trkpt lat="43.06083" lon="-0.45324">
        <ele>747</ele>
        <time>2018-06-21T08:32:39Z</time>
      </trkpt>
      <trkpt lat="43.06139" lon="-0.45281">
        <ele>741</ele>
        <time>2018-06-21T08:34:39Z</time>
      </trkpt>
      <trkpt lat="43.06172" lon="-0.45259">
        <ele>738</ele>
        <time>2018-06-21T08:35:39Z</time>
      </trkpt>
      <trkpt lat="43.06184" lon="-0.4525">
        <ele>738</ele>
        <time>2018-06-21T08:36:39Z</time>
      </trkpt>
      <trkpt lat="43.06215" lon="-0.45214">
        <ele>734</ele>
        <time>2018-06-21T08:39:39Z</time>
      </trkpt>
      <trkpt lat="43.0623" lon="-0.45188">
        <ele>731</ele>
        <time>2018-06-21T08:41:39Z</time>
      </trkpt>
      <trkpt lat="43.06238" lon="-0.45169">
        <ele>728</ele>
        <time>2018-06-21T08:42:39Z</time>
      </trkpt>
      <trkpt lat="43.06265" lon="-0.45113">
        <ele>725</ele>
        <time>2018-06-21T08:44:39Z</time>
      </trkpt>
      <trkpt lat="43.06268" lon="-0.45109">
        <ele>725</ele>
        <time>2018-06-21T08:45:39Z</time>
      </trkpt>
      <trkpt lat="43.06291" lon="-0.45028">
        <ele>723</ele>
        <time>2018-06-21T08:52:39Z</time>
      </trkpt>
      <trkpt lat="43.06299" lon="-0.44923">
        <ele>720</ele>
        <time>2018-06-21T08:57:39Z</time>
      </trkpt>
      <trkpt lat="43.06295" lon="-0.44886">
        <ele>717</ele>
        <time>2018-06-21T09:00:39Z</time>
      </trkpt>
      <trkpt lat="43.06294" lon="-0.44842">
        <ele>714</ele>
        <time>2018-06-21T09:02:39Z</time>
      </trkpt>
      <trkpt lat="43.06293" lon="-0.44813">
        <ele>714</ele>
        <time>2018-06-21T09:03:39Z</time>
      </trkpt>
      <trkpt lat="43.06278" lon="-0.44732">
        <ele>707</ele>
        <time>2018-06-21T09:08:39Z</time>
      </trkpt>
      <trkpt lat="43.06266" lon="-0.44671">
        <ele>704</ele>
        <time>2018-06-21T09:09:39Z</time>
      </trkpt>
      <trkpt lat="43.06262" lon="-0.44645">
        <ele>701</ele>
        <time>2018-06-21T09:10:39Z</time>
      </trkpt>
      <trkpt lat="43.06259" lon="-0.44614">
        <ele>698</ele>
        <time>2018-06-21T09:12:39Z</time>
      </trkpt>
      <trkpt lat="43.06259" lon="-0.44526">
        <ele>693</ele>
        <time>2018-06-21T09:16:39Z</time>
      </trkpt>
      <trkpt lat="43.06261" lon="-0.4448">
        <ele>690</ele>
        <time>2018-06-21T09:17:39Z</time>
      </trkpt>
      <trkpt lat="43.06263" lon="-0.44427">
        <ele>687</ele>
        <time>2018-06-21T09:19:39Z</time>
      </trkpt>
      <trkpt lat="43.06261" lon="-0.44375">
        <ele>681</ele>
        <time>2018-06-21T09:21:39Z</time>
      </trkpt>
      <trkpt lat="43.0626" lon="-0.44334">
        <ele>676</ele>
        <time>2018-06-21T09:23:39Z</time>
      </trkpt>
      <trkpt lat="43.0626" lon="-0.44196">
        <ele>669</ele>
        <time>2018-06-21T09:26:39Z</time>
      </trkpt>
      <trkpt lat="43.06258" lon="-0.4414">
        <ele>664</ele>
        <time>2018-06-21T09:27:39Z</time>
      </trkpt>
      <trkpt lat="43.06254" lon="-0.44103">
        <ele>659</ele>
        <time>2018-06-21T09:29:39Z</time>
      </trkpt>
      <trkpt lat="43.06255" lon="-0.44091">
        <ele>659</ele>
        <time>2018-06-21T09:30:39Z</time>
      </trkpt>
      <trkpt lat="43.06261" lon="-0.44037">
        <ele>656</ele>
        <time>2018-06-21T09:37:39Z</time>
      </trkpt>
      <trkpt lat="43.06254" lon="-0.44032">
        <ele>652</ele>
        <time>2018-06-21T09:39:39Z</time>
      </trkpt>
      <trkpt lat="43.06246" lon="-0.44032">
        <ele>649</ele>
        <time>2018-06-21T09:41:39Z</time>
      </trkpt>
      <trkpt lat="43.06238" lon="-0.44036">
        <ele>646</ele>
        <time>2018-06-21T09:43:39Z</time>
      </trkpt>
      <trkpt lat="43.06237" lon="-0.44039">
        <ele>646</ele>
        <time>2018-06-21T09:44:39Z</time>
      </trkpt>
      <trkpt lat="43.06234" lon="-0.44079">
        <ele>649</ele>
        <time>2018-06-21T09:48:39Z</time>
      </trkpt>
      <trkpt lat="43.06197" lon="-0.44245">
        <ele>645</ele>
        <time>2018-06-21T09:55:39Z</time>
      </trkpt>
      <trkpt lat="43.06184" lon="-0.443">
        <ele>641</ele>
        <time>2018-06-21T09:57:39Z</time>
      </trkpt>
      <trkpt lat="43.06174" lon="-0.4433">
        <ele>638</ele>
        <time>2018-06-21T09:59:39Z</time>
      </trkpt>
      <trkpt lat="43.06145" lon="-0.4439">
        <ele>635</ele>
        <time>2018-06-21T10:03:39Z</time>
      </trkpt>
      <trkpt lat="43.06118" lon="-0.44426">
        <ele>632</ele>
        <time>2018-06-21T10:06:39Z</time>
      </trkpt>
      <trkpt lat="43.06082" lon="-0.445">
        <ele>629</ele>
        <time>2018-06-21T10:13:39Z</time>
      </trkpt>
      <trkpt lat="43.06062" lon="-0.44505">
        <ele>625</ele>
        <time>2018-06-21T10:20:39Z</time>
      </trkpt>
      <trkpt lat="43.06063" lon="-0.44475">
        <ele>622</ele>
        <time>2018-06-21T10:26:39Z</time>
      </trkpt>
      <trkpt lat="43.06063" lon="-0.44447">
        <ele>619</ele>
        <time>2018-06-21T10:29:39Z</time>
      </trkpt>
      <trkpt lat="43.0606" lon="-0.44418">
        <ele>616</ele>
        <time>2018-06-21T10:30:39Z</time>
      </trkpt>
      <trkpt lat="43.0606" lon="-0.4438">
        <ele>612</ele>
        <time>2018-06-21T10:35:39Z</time>
      </trkpt>
      <trkpt lat="43.06062" lon="-0.44352">
        <ele>609</ele>
        <time>2018-06-21T10:40:39Z</time>
      </trkpt>
      <trkpt lat="43.06061" lon="-0.44347">
        <ele>609</ele>
        <time>2018-06-21T10:41:39Z</time>
      </trkpt>
      <trkpt lat="43.0605" lon="-0.44313">
        <ele>604</ele>
        <time>2018-06-21T10:43:39Z</time>
      </trkpt>
      <trkpt lat="43.06045" lon="-0.44286">
        <ele>601</ele>
        <time>2018-06-21T10:46:39Z</time>
      </trkpt>
      <trkpt lat="43.06045" lon="-0.44277">
        <ele>601</ele>
        <time>2018-06-21T10:47:39Z</time>
      </trkpt>
      <trkpt lat="43.06053" lon="-0.44191">
        <ele>595</ele>
        <time>2018-06-21T10:54:39Z</time>
      </trkpt>
      <trkpt lat="43.06053" lon="-0.44164">
        <ele>592</ele>
        <time>2018-06-21T10:56:39Z</time>
      </trkpt>
      <trkpt lat="43.06056" lon="-0.44123">
        <ele>589</ele>
        <time>2018-06-21T10:59:39Z</time>
      </trkpt>
      <trkpt lat="43.06051" lon="-0.44097">
        <ele>586</ele>
        <time>2018-06-21T11:01:39Z</time>
      </trkpt>
      <trkpt lat="43.06044" lon="-0.44062">
        <ele>582</ele>
        <time>2018-06-21T11:02:39Z</time>
      </trkpt>
      <trkpt lat="43.06039" lon="-0.44042">
        <ele>579</ele>
        <time>2018-06-21T11:03:39Z</time>
      </trkpt>
      <trkpt lat="43.06039" lon="-0.43993">
        <ele>576</ele>
        <time>2018-06-21T11:06:39Z</time>
      </trkpt>
      <trkpt lat="43.06089" lon="-0.43884">
        <ele>574</ele>
        <time>2018-06-21T11:14:39Z</time>
      </trkpt>
      <trkpt lat="43.06135" lon="-0.43831">
        <ele>570</ele>
        <time>2018-06-21T11:17:39Z</time>
      </trkpt>
      <trkpt lat="43.06173" lon="-0.43781">
        <ele>568</ele>
        <time>2018-06-21T11:22:39Z</time>
      </trkpt>
      <trkpt lat="43.06173" lon="-0.43767">
        <ele>565</ele>
        <time>2018-06-21T11:25:39Z</time>
      </trkpt>
      <trkpt lat="43.06166" lon="-0.43758">
        <ele>562</ele>
        <time>2018-06-21T11:27:39Z</time>
      </trkpt>
      <trkpt lat="43.06126" lon="-0.43781">
        <ele>559</ele>
        <time>2018-06-21T11:33:39Z</time>
      </trkpt>
      <trkpt lat="43.06072" lon="-0.43793">
        <ele>552</ele>
        <time>2018-06-21T11:37:39Z</time>
      </trkpt>
      <trkpt lat="43.06048" lon="-0.43793">
        <ele>548</ele>
        <time>2018-06-21T11:38:39Z</time>
      </trkpt>
      <trkpt lat="43.0602" lon="-0.43796">
        <ele>544</ele>
        <time>2018-06-21T11:39:39Z</time>
      </trkpt>
      <trkpt lat="43.05989" lon="-0.43801">
        <ele>540</ele>
        <time>2018-06-21T11:40:39Z</time>
      </trkpt>
      <trkpt lat="43.05958" lon="-0.43807">
        <ele>535</ele>
        <time>2018-06-21T11:41:39Z</time>
      </trkpt>
      <trkpt lat="43.0594" lon="-0.4381">
        <ele>531</ele>
        <time>2018-06-21T11:42:39Z</time>
      </trkpt>
      <trkpt lat="43.05917" lon="-0.4382">
        <ele>528</ele>
        <time>2018-06-21T11:45:39Z</time>
      </trkpt>
      <trkpt lat="43.05864" lon="-0.43912">
        <ele>523</ele>
        <time>2018-06-21T11:52:39Z</time>
      </trkpt>
      <trkpt lat="43.05843" lon="-0.43941">
        <ele>519</ele>
        <time>2018-06-21T11:54:39Z</time>
      </trkpt>
      <trkpt lat="43.05785" lon="-0.43991">
        <ele>514</ele>
        <time>2018-06-21T11:59:39Z</time>
      </trkpt>
      <trkpt lat="43.05782" lon="-0.43991">
        <ele>514</ele>
        <time>2018-06-21T12:00:39Z</time>
      </trkpt>
      <trkpt lat="43.05771" lon="-0.43986">
        <ele>511</ele>
        <time>2018-06-21T12:03:39Z</time>
      </trkpt>
      <trkpt lat="43.05763" lon="-0.43976">
        <ele>508</ele>
        <time>2018-06-21T12:06:39Z</time>
      </trkpt>
      <trkpt lat="43.05755" lon="-0.43951">
        <ele>503</ele>
        <time>2018-06-21T12:10:39Z</time>
      </trkpt>
      <trkpt lat="43.05751" lon="-0.43922">
        <ele>499</ele>
        <time>2018-06-21T12:11:39Z</time>
      </trkpt>
      <trkpt lat="43.05747" lon="-0.43893">
        <ele>496</ele>
        <time>2018-06-21T12:13:39Z</time>
      </trkpt>
      <trkpt lat="43.05736" lon="-0.43838">
        <ele>492</ele>
        <time>2018-06-21T12:14:39Z</time>
      </trkpt>
      <trkpt lat="43.05725" lon="-0.43786">
        <ele>488</ele>
        <time>2018-06-21T12:15:39Z</time>
      </trkpt>
      <trkpt lat="43.0572" lon="-0.43743">
        <ele>486</ele>
        <time>2018-06-21T12:17:39Z</time>
      </trkpt>
      <trkpt lat="43.05722" lon="-0.43704">
        <ele>489</ele>
        <time>2018-06-21T12:21:39Z</time>
      </trkpt>
      <trkpt lat="43.0573" lon="-0.43673">
        <ele>492</ele>
        <time>2018-06-21T12:24:39Z</time>
      </trkpt>
      <trkpt lat="43.05742" lon="-0.43637">
        <ele>489</ele>
        <time>2018-06-21T12:25:39Z</time>
      </trkpt>
      <trkpt lat="43.05762" lon="-0.43595">
        <ele>483</ele>
        <time>2018-06-21T12:26:39Z</time>
      </trkpt>
      <trkpt lat="43.05779" lon="-0.43555">
        <ele>477</ele>
        <time>2018-06-21T12:27:39Z</time>
      </trkpt>
      <trkpt lat="43.05788" lon="-0.4353">
        <ele>473</ele>
        <time>2018-06-21T12:28:39Z</time>
      </trkpt>
      <trkpt lat="43.05793" lon="-0.43513">
        <ele>470</ele>
        <time>2018-06-21T12:29:39Z</time>
      </trkpt>
      <trkpt lat="43.05797" lon="-0.43493">
        <ele>467</ele>
        <time>2018-06-21T12:30:39Z</time>
      </trkpt>
      <trkpt lat="43.05811" lon="-0.43339">
        <ele>461</ele>
        <time>2018-06-21T12:32:39Z</time>
      </trkpt>
      <trkpt lat="43.05813" lon="-0.43279">
        <ele>459</ele>
        <time>2018-06-21T12:34:39Z</time>
      </trkpt>
      <trkpt lat="43.05811" lon="-0.4319">
        <ele>456</ele>
        <time>2018-06-21T12:36:39Z</time>
      </trkpt>
      <trkpt lat="43.05807" lon="-0.43114">
        <ele>453</ele>
        <time>2018-06-21T12:37:39Z</time>
      </trkpt>
      <trkpt lat="43.05801" lon="-0.43056">
        <ele>451</ele>
        <time>2018-06-21T12:39:39Z</time>
      </trkpt>
      <trkpt lat="43.05798" lon="-0.43045">
        <ele>451</ele>
        <time>2018-06-21T12:40:39Z</time>
      </trkpt>
      <trkpt lat="43.05769" lon="-0.42973">
        <ele>449</ele>
        <time>2018-06-21T12:44:39Z</time>
      </trkpt>
      <trkpt lat="43.05762" lon="-0.42979">
        <ele>450</ele>
        <time>2018-06-21T12:46:39Z</time>
      </trkpt>
      <trkpt lat="43.05685" lon="-0.43049">
        <ele>454</ele>
        <time>2018-06-21T12:47:39Z</time>
      </trkpt>
      <trkpt lat="43.05677" lon="-0.43054">
        <ele>454</ele>
        <time>2018-06-21T12:48:39Z</time>
      </trkpt>
      <trkpt lat="43.05596" lon="-0.43101">
        <ele>455</ele>
        <time>2018-06-21T12:51:39Z</time>
      </trkpt>
      <trkpt lat="43.05499" lon="-0.43139">
        <ele>455</ele>
        <time>2018-06-21T12:58:39Z</time>
      </trkpt>
      <trkpt lat="43.05451" lon="-0.43129">
        <ele>454</ele>
        <time>2018-06-21T13:02:39Z</time>
      </trkpt>
      <trkpt lat="43.05381" lon="-0.4311">
        <ele>453</ele>
        <time>2018-06-21T13:03:39Z</time>
      </trkpt>
      <trkpt lat="43.05329" lon="-0.431">
        <ele>451</ele>
        <time>2018-06-21T13:05:39Z</time>
      </trkpt>
      <trkpt lat="43.05201" lon="-0.43071">
        <ele>449</ele>
        <time>2018-06-21T13:08:39Z</time>
      </trkpt>
      <trkpt lat="43.051" lon="-0.43043">
        <ele>446</ele>
        <time>2018-06-21T13:09:39Z</time>
      </trkpt>
      <trkpt lat="43.05051" lon="-0.4303">
        <ele>444</ele>
        <time>2018-06-21T13:10:39Z</time>
      </trkpt>
      <trkpt lat="43.05037" lon="-0.43025">
        <ele>444</ele>
        <time>2018-06-21T13:11:39Z</time>
      </trkpt>
      <trkpt lat="43.04934" lon="-0.42996">
        <ele>442</ele>
        <time>2018-06-21T13:13:39Z</time>
      </trkpt>
      <trkpt lat="43.04852" lon="-0.42975">
        <ele>444</ele>
        <time>2018-06-21T13:16:39Z</time>
      </trkpt>
      <trkpt lat="43.048" lon="-0.42959">
        <ele>443</ele>
        <time>2018-06-21T13:18:39Z</time>
      </trkpt>
      <trkpt lat="43.04639" lon="-0.42875">
        <ele>444</ele>
        <time>2018-06-21T13:26:39Z</time>
      </trkpt>
      <trkpt lat="43.0456" lon="-0.42804">
        <ele>442</ele>
        <time>2018-06-21T13:28:39Z</time>
      </trkpt>
      <trkpt lat="43.04414" lon="-0.42696">
        <ele>443</ele>
        <time>2018-06-21T13:33:39Z</time>
      </trkpt>
      <trkpt lat="43.04351" lon="-0.42648">
        <ele>442</ele>
        <time>2018-06-21T13:37:39Z</time>
      </trkpt>
      <trkpt lat="43.04128" lon="-0.42546">
        <ele>445</ele>
        <time>2018-06-21T13:47:39Z</time>
      </trkpt>
      <trkpt lat="43.04006" lon="-0.42507">
        <ele>447</ele>
        <time>2018-06-21T13:49:39Z</time>
      </trkpt>
      <trkpt lat="43.03882" lon="-0.42463">
        <ele>449</ele>
        <time>2018-06-21T13:53:39Z</time>
      </trkpt>
      <trkpt lat="43.03818" lon="-0.42432">
        <ele>450</ele>
        <time>2018-06-21T13:55:39Z</time>
      </trkpt>
      <trkpt lat="43.03738" lon="-0.42397">
        <ele>450</ele>
        <time>2018-06-21T13:57:39Z</time>
      </trkpt>
      <trkpt lat="43.0372" lon="-0.42385">
        <ele>451</ele>
        <time>2018-06-21T13:59:39Z</time>
      </trkpt>
      <trkpt lat="43.03695" lon="-0.42371">
        <ele>452</ele>
        <time>2018-06-21T14:11:39Z</time>
      </trkpt>
      <trkpt lat="43.03661" lon="-0.42315">
        <ele>451</ele>
        <time>2018-06-21T14:30:39Z</time>
      </trkpt>
      <trkpt lat="43.03481" lon="-0.42245">
        <ele>451</ele>
        <time>2018-06-21T14:37:39Z</time>
      </trkpt>
      <trkpt lat="43.03404" lon="-0.42217">
        <ele>454</ele>
        <time>2018-06-21T14:39:39Z</time>
      </trkpt>
      <trkpt lat="43.03367" lon="-0.42203">
        <ele>454</ele>
        <time>2018-06-21T14:40:39Z</time>
      </trkpt>
      <trkpt lat="43.03317" lon="-0.42189">
        <ele>453</ele>
        <time>2018-06-21T14:43:39Z</time>
      </trkpt>
      <trkpt lat="43.03214" lon="-0.42182">
        <ele>454</ele>
        <time>2018-06-21T14:48:39Z</time>
      </trkpt>
      <trkpt lat="43.03125" lon="-0.42186">
        <ele>455</ele>
        <time>2018-06-21T14:52:39Z</time>
      </trkpt>
      <trkpt lat="43.0297" lon="-0.42179">
        <ele>454</ele>
        <time>2018-06-21T14:56:39Z</time>
      </trkpt>
      <trkpt lat="43.0285" lon="-0.42167">
        <ele>456</ele>
        <time>2018-06-21T15:02:39Z</time>
      </trkpt>
      <trkpt lat="43.02628" lon="-0.42157">
        <ele>460</ele>
        <time>2018-06-21T15:08:39Z</time>
      </trkpt>
      <trkpt lat="43.02496" lon="-0.42153">
        <ele>461</ele>
        <time>2018-06-21T15:14:39Z</time>
      </trkpt>
      <trkpt lat="43.02417" lon="-0.42176">
        <ele>462</ele>
        <time>2018-06-21T15:22:39Z</time>
      </trkpt>
      <trkpt lat="43.02409" lon="-0.42196">
        <ele>462</ele>
        <time>2018-06-21T15:34:39Z</time>
      </trkpt>
      <trkpt lat="43.0236" lon="-0.42193">
        <ele>461</ele>
        <time>2018-06-21T15:55:39Z</time>
      </trkpt>
      <trkpt lat="43.02236" lon="-0.42215">
        <ele>459</ele>
        <time>2018-06-21T16:03:39Z</time>
      </trkpt>
      <trkpt lat="43.02133" lon="-0.42253">
        <ele>462</ele>
        <time>2018-06-21T16:04:39Z</time>
      </trkpt>
      <trkpt lat="43.02035" lon="-0.42286">
        <ele>463</ele>
        <time>2018-06-21T16:06:39Z</time>
      </trkpt>
      <trkpt lat="43.01989" lon="-0.42298">
        <ele>464</ele>
        <time>2018-06-21T16:09:39Z</time>
      </trkpt>
      <trkpt lat="43.01876" lon="-0.4232">
        <ele>468</ele>
        <time>2018-06-21T16:14:39Z</time>
      </trkpt>
      <trkpt lat="43.01764" lon="-0.42313">
        <ele>471</ele>
        <time>2018-06-21T16:19:39Z</time>
      </trkpt>
      <trkpt lat="43.01697" lon="-0.42309">
        <ele>474</ele>
        <time>2018-06-21T16:21:39Z</time>
      </trkpt>
      <trkpt lat="43.01608" lon="-0.42303">
        <ele>477</ele>
        <time>2018-06-21T16:29:39Z</time>
      </trkpt>
      <trkpt lat="43.01538" lon="-0.423">
        <ele>478</ele>
        <time>2018-06-21T16:31:39Z</time>
      </trkpt>
      <trkpt lat="43.01521" lon="-0.42302">
        <ele>479</ele>
        <time>2018-06-21T16:33:39Z</time>
      </trkpt>
      <trkpt lat="43.01502" lon="-0.423">
        <ele>479</ele>
        <time>2018-06-21T16:36:39Z</time>
      </trkpt>
      <trkpt lat="43.01425" lon="-0.4231">
        <ele>476</ele>
        <time>2018-06-21T16:38:39Z</time>
      </trkpt>
      <trkpt lat="43.01332" lon="-0.42309">
        <ele>473</ele>
        <time>2018-06-21T16:39:39Z</time>
      </trkpt>
      <trkpt lat="43.01256" lon="-0.42305">
        <ele>475</ele>
        <time>2018-06-21T16:40:39Z</time>
      </trkpt>
      <trkpt lat="43.01185" lon="-0.42291">
        <ele>476</ele>
        <time>2018-06-21T16:42:39Z</time>
      </trkpt>
      <trkpt lat="43.01044" lon="-0.42222">
        <ele>477</ele>
        <time>2018-06-21T16:47:39Z</time>
      </trkpt>
      <trkpt lat="43.0098" lon="-0.42192">
        <ele>479</ele>
        <time>2018-06-21T16:49:39Z</time>
      </trkpt>
      <trkpt lat="43.0091" lon="-0.42147">
        <ele>482</ele>
        <time>2018-06-21T16:50:39Z</time>
      </trkpt>
      <trkpt lat="43.00874" lon="-0.42123">
        <ele>485</ele>
        <time>2018-06-21T16:51:39Z</time>
      </trkpt>
      <trkpt lat="43.00872" lon="-0.42121">
        <ele>485</ele>
        <time>2018-06-21T16:52:39Z</time>
      </trkpt>
      <trkpt lat="43.00761" lon="-0.42085">
        <ele>487</ele>
        <time>2018-06-21T16:57:39Z</time>
      </trkpt>
      <trkpt lat="43.00645" lon="-0.42102">
        <ele>492</ele>
        <time>2018-06-21T17:04:39Z</time>
      </trkpt>
      <trkpt lat="43.00537" lon="-0.42149">
        <ele>493</ele>
        <time>2018-06-21T17:09:39Z</time>
      </trkpt>
      <trkpt lat="43.00506" lon="-0.42153">
        <ele>490</ele>
        <time>2018-06-21T17:11:39Z</time>
      </trkpt>
      <trkpt lat="43.0047" lon="-0.42147">
        <ele>486</ele>
        <time>2018-06-21T17:13:39Z</time>
      </trkpt>
      <trkpt lat="43.00426" lon="-0.4213">
        <ele>481</ele>
        <time>2018-06-21T17:15:39Z</time>
      </trkpt>
      <trkpt lat="43.00418" lon="-0.42126">
        <ele>481</ele>
        <time>2018-06-21T17:16:39Z</time>
      </trkpt>
      <trkpt lat="43.00359" lon="-0.42092">
        <ele>482</ele>
        <time>2018-06-21T17:18:39Z</time>
      </trkpt>
      <trkpt lat="43.00277" lon="-0.42044">
        <ele>483</ele>
        <time>2018-06-21T17:21:39Z</time>
      </trkpt>
      <trkpt lat="43.00226" lon="-0.42019">
        <ele>485</ele>
        <time>2018-06-21T17:23:39Z</time>
      </trkpt>
      <trkpt lat="43.00191" lon="-0.4201">
        <ele>488</ele>
        <time>2018-06-21T17:25:39Z</time>
      </trkpt>
      <trkpt lat="43.00186" lon="-0.4201">
        <ele>488</ele>
        <time>2018-06-21T17:26:39Z</time>
      </trkpt>
      <trkpt lat="43.00076" lon="-0.42033">
        <ele>487</ele>
        <time>2018-06-21T17:30:39Z</time>
      </trkpt>
      <trkpt lat="43.00056" lon="-0.42042">
        <ele>488</ele>
        <time>2018-06-21T17:31:39Z</time>
      </trkpt>
      <trkpt lat="42.99987" lon="-0.42072">
        <ele>489</ele>
        <time>2018-06-21T17:32:39Z</time>
      </trkpt>
      <trkpt lat="42.99763" lon="-0.42166">
        <ele>486</ele>
        <time>2018-06-21T17:35:39Z</time>
      </trkpt>
      <trkpt lat="42.99668" lon="-0.42194">
        <ele>489</ele>
        <time>2018-06-21T17:37:39Z</time>
      </trkpt>
      <trkpt lat="42.99593" lon="-0.42204">
        <ele>495</ele>
        <time>2018-06-21T17:38:39Z</time>
      </trkpt>
      <trkpt lat="42.99573" lon="-0.42207">
        <ele>496</ele>
        <time>2018-06-21T17:39:39Z</time>
      </trkpt>
      <trkpt lat="42.99496" lon="-0.42217">
        <ele>496</ele>
        <time>2018-06-21T17:40:39Z</time>
      </trkpt>
      <trkpt lat="42.99469" lon="-0.4222">
        <ele>497</ele>
        <time>2018-06-21T17:41:39Z</time>
      </trkpt>
      <trkpt lat="42.99418" lon="-0.42216">
        <ele>496</ele>
        <time>2018-06-21T17:44:39Z</time>
      </trkpt>
      <trkpt lat="42.99373" lon="-0.42088">
        <ele>488</ele>
        <time>2018-06-21T17:45:39Z</time>
      </trkpt>
      <trkpt lat="42.99366" lon="-0.42065">
        <ele>488</ele>
        <time>2018-06-21T17:46:39Z</time>
      </trkpt>
      <trkpt lat="42.99365" lon="-0.41967">
        <ele>491</ele>
        <time>2018-06-21T17:53:39Z</time>
      </trkpt>
      <trkpt lat="42.99371" lon="-0.41812">
        <ele>494</ele>
        <time>2018-06-21T17:58:39Z</time>
      </trkpt>
      <trkpt lat="42.99366" lon="-0.41794">
        <ele>495</ele>
        <time>2018-06-21T18:03:39Z</time>
      </trkpt>
      <trkpt lat="42.99352" lon="-0.41777">
        <ele>495</ele>
        <time>2018-06-21T18:08:39Z</time>
      </trkpt>
      <trkpt lat="42.99275" lon="-0.41706">
        <ele>500</ele>
        <time>2018-06-21T18:09:39Z</time>
      </trkpt>
      <trkpt lat="42.99261" lon="-0.41696">
        <ele>501</ele>
        <time>2018-06-21T18:10:39Z</time>
      </trkpt>
      <trkpt lat="42.9925" lon="-0.41669">
        <ele>506</ele>
        <time>2018-06-21T18:17:39Z</time>
      </trkpt>
      <trkpt lat="42.9925" lon="-0.41663">
        <ele>506</ele>
        <time>2018-06-21T18:18:39Z</time>
      </trkpt>
      <trkpt lat="42.99286" lon="-0.41624">
        <ele>510</ele>
        <time>2018-06-21T18:27:39Z</time>
      </trkpt>
      <trkpt lat="42.99304" lon="-0.41581">
        <ele>516</ele>
        <time>2018-06-21T18:30:39Z</time>
      </trkpt>
      <trkpt lat="42.99316" lon="-0.4154">
        <ele>520</ele>
        <time>2018-06-21T18:32:39Z</time>
      </trkpt>
      <trkpt lat="42.99324" lon="-0.41509">
        <ele>523</ele>
        <time>2018-06-21T18:34:39Z</time>
      </trkpt>
      <trkpt lat="42.99331" lon="-0.41425">
        <ele>528</ele>
        <time>2018-06-21T18:40:39Z</time>
      </trkpt>
      <trkpt lat="42.99331" lon="-0.41425">
        <ele>528</ele>
        <time>2018-06-21T18:41:39Z</time>
      </trkpt>
      <trkpt lat="42.99287" lon="-0.41402">
        <ele>527</ele>
        <time>2018-06-21T18:42:39Z</time>
      </trkpt>
      <trkpt lat="42.99254" lon="-0.41381">
        <ele>528</ele>
        <time>2018-06-21T18:44:39Z</time>
      </trkpt>
      <trkpt lat="42.99189" lon="-0.41341">
        <ele>525</ele>
        <time>2018-06-21T18:46:39Z</time>
      </trkpt>
      <trkpt lat="42.99161" lon="-0.41325">
        <ele>525</ele>
        <time>2018-06-21T18:47:39Z</time>
      </trkpt>
      <trkpt lat="42.99121" lon="-0.41303">
        <ele>528</ele>
        <time>2018-06-21T18:49:39Z</time>
      </trkpt>
      <trkpt lat="42.99056" lon="-0.41279">
        <ele>531</ele>
        <time>2018-06-21T18:51:39Z</time>
      </trkpt>
      <trkpt lat="42.9895" lon="-0.41265">
        <ele>536</ele>
        <time>2018-06-21T18:57:39Z</time>
      </trkpt>
      <trkpt lat="42.98939" lon="-0.41267">
        <ele>536</ele>
        <time>2018-06-21T18:58:39Z</time>
      </trkpt>
      <trkpt lat="42.98903" lon="-0.41368">
        <ele>537</ele>
        <time>2018-06-21T19:05:39Z</time>
      </trkpt>
      <trkpt lat="42.98887" lon="-0.41411">
        <ele>541</ele>
        <time>2018-06-21T19:07:39Z</time>
      </trkpt>
      <trkpt lat="42.98847" lon="-0.41473">
        <ele>545</ele>
        <time>2018-06-21T19:10:39Z</time>
      </trkpt>
      <trkpt lat="42.98799" lon="-0.41522">
        <ele>542</ele>
        <time>2018-06-21T19:16:39Z</time>
      </trkpt>
      <trkpt lat="42.98754" lon="-0.4152">
        <ele>544</ele>
        <time>2018-06-21T19:22:39Z</time>
      </trkpt>
      <trkpt lat="42.98703" lon="-0.41441">
        <ele>552</ele>
        <time>2018-06-21T19:26:39Z</time>
      </trkpt>
      <trkpt lat="42.98689" lon="-0.41416">
        <ele>557</ele>
        <time>2018-06-21T19:27:39Z</time>
      </trkpt>
      <trkpt lat="42.98675" lon="-0.41402">
        <ele>560</ele>
        <time>2018-06-21T19:29:39Z</time>
      </trkpt>
      <trkpt lat="42.98626" lon="-0.41394">
        <ele>557</ele>
        <time>2018-06-21T19:33:39Z</time>
      </trkpt>
      <trkpt lat="42.98587" lon="-0.41367">
        <ele>559</ele>
        <time>2018-06-21T19:37:39Z</time>
      </trkpt>
      <trkpt lat="42.98535" lon="-0.41291">
        <ele>564</ele>
        <time>2018-06-21T19:42:39Z</time>
      </trkpt>
      <trkpt lat="42.98523" lon="-0.41268">
        <ele>567</ele>
        <time>2018-06-21T19:44:39Z</time>
      </trkpt>
      <trkpt lat="42.98509" lon="-0.41241">
        <ele>571</ele>
        <time>2018-06-21T19:47:39Z</time>
      </trkpt>
      <trkpt lat="42.98504" lon="-0.41225">
        <ele>574</ele>
        <time>2018-06-21T19:48:39Z</time>
      </trkpt>
      <trkpt lat="42.98494" lon="-0.41208">
        <ele>577</ele>
        <time>2018-06-21T19:50:39Z</time>
      </trkpt>
      <trkpt lat="42.98469" lon="-0.41181">
        <ele>581</ele>
        <time>2018-06-21T19:51:39Z</time>
      </trkpt>
      <trkpt lat="42.9846" lon="-0.41173">
        <ele>581</ele>
        <time>2018-06-21T19:52:39Z</time>
      </trkpt>
      <trkpt lat="42.9844" lon="-0.41155">
        <ele>584</ele>
        <time>2018-06-21T19:54:39Z</time>
      </trkpt>
      <trkpt lat="42.98378" lon="-0.41147">
        <ele>580</ele>
        <time>2018-06-21T20:00:39Z</time>
      </trkpt>
      <trkpt lat="42.98359" lon="-0.41156">
        <ele>577</ele>
        <time>2018-06-21T20:03:39Z</time>
      </trkpt>
      <trkpt lat="42.98324" lon="-0.41116">
        <ele>583</ele>
        <time>2018-06-21T20:10:39Z</time>
      </trkpt>
      <trkpt lat="42.98319" lon="-0.41096">
        <ele>586</ele>
        <time>2018-06-21T20:12:39Z</time>
      </trkpt>
      <trkpt lat="42.98287" lon="-0.41067">
        <ele>589</ele>
        <time>2018-06-21T20:19:39Z</time>
      </trkpt>
      <trkpt lat="42.98248" lon="-0.4103">
        <ele>593</ele>
        <time>2018-06-21T20:25:39Z</time>
      </trkpt>
      <trkpt lat="42.98233" lon="-0.41012">
        <ele>596</ele>
        <time>2018-06-21T20:27:39Z</time>
      </trkpt>
      <trkpt lat="42.98233" lon="-0.40996">
        <ele>600</ele>
        <time>2018-06-21T20:29:39Z</time>
      </trkpt>
      <trkpt lat="42.98233" lon="-0.40984">
        <ele>603</ele>
        <time>2018-06-21T20:31:39Z</time>
      </trkpt>
      <trkpt lat="42.9823" lon="-0.4098">
        <ele>603</ele>
        <time>2018-06-21T20:32:39Z</time>
      </trkpt>
      <trkpt lat="42.98169" lon="-0.40955">
        <ele>604</ele>
        <time>2018-06-21T20:35:39Z</time>
      </trkpt>
      <trkpt lat="42.98058" lon="-0.40948">
        <ele>601</ele>
        <time>2018-06-21T20:40:39Z</time>
      </trkpt>
      <trkpt lat="42.98019" lon="-0.40884">
        <ele>601</ele>
        <time>2018-06-21T20:45:39Z</time>
      </trkpt>
      <trkpt lat="42.97985" lon="-0.40831">
        <ele>605</ele>
        <time>2018-06-21T20:49:39Z</time>
      </trkpt>
      <trkpt lat="42.97974" lon="-0.408">
        <ele>609</ele>
        <time>2018-06-21T20:50:39Z</time>
      </trkpt>
      <trkpt lat="42.97949" lon="-0.40717">
        <ele>614</ele>
        <time>2018-06-21T20:55:39Z</time>
      </trkpt>
      <trkpt lat="42.97938" lon="-0.40704">
        <ele>614</ele>
        <time>2018-06-21T20:56:39Z</time>
      </trkpt>
      <trkpt lat="42.97895" lon="-0.40683">
        <ele>611</ele>
        <time>2018-06-21T20:59:39Z</time>
      </trkpt>
      <trkpt lat="42.97848" lon="-0.40665">
        <ele>608</ele>
        <time>2018-06-21T21:02:39Z</time>
      </trkpt>
      <trkpt lat="42.97834" lon="-0.40605">
        <ele>608</ele>
        <time>2018-06-21T21:09:39Z</time>
      </trkpt>
      <trkpt lat="42.97807" lon="-0.40556">
        <ele>614</ele>
        <time>2018-06-21T21:14:39Z</time>
      </trkpt>
      <trkpt lat="42.97792" lon="-0.40533">
        <ele>617</ele>
        <time>2018-06-21T21:16:39Z</time>
      </trkpt>
      <trkpt lat="42.97791" lon="-0.40531">
        <ele>617</ele>
        <time>2018-06-21T21:17:39Z</time>
      </trkpt>
      <trkpt lat="42.97783" lon="-0.405">
        <ele>619</ele>
        <time>2018-06-21T21:30:39Z</time>
      </trkpt>
      <trkpt lat="42.97792" lon="-0.40462">
        <ele>623</ele>
        <time>2018-06-21T21:45:39Z</time>
      </trkpt>
      <trkpt lat="42.97771" lon="-0.4045">
        <ele>622</ele>
        <time>2018-06-21T21:51:39Z</time>
      </trkpt>
      <trkpt lat="42.97709" lon="-0.40458">
        <ele>625</ele>
        <time>2018-06-21T22:01:39Z</time>
      </trkpt>
      <trkpt lat="42.97661" lon="-0.40435">
        <ele>627</ele>
        <time>2018-06-21T22:11:39Z</time>
      </trkpt>
      <trkpt lat="42.97646" lon="-0.40422">
        <ele>630</ele>
        <time>2018-06-21T22:12:39Z</time>
      </trkpt>
      <trkpt lat="42.97632" lon="-0.40408">
        <ele>633</ele>
        <time>2018-06-21T22:13:39Z</time>
      </trkpt>
      <trkpt lat="42.97623" lon="-0.40399">
        <ele>636</ele>
        <time>2018-06-21T22:15:39Z</time>
      </trkpt>
      <trkpt lat="42.97602" lon="-0.40374">
        <ele>641</ele>
        <time>2018-06-21T22:21:39Z</time>
      </trkpt>
      <trkpt lat="42.976" lon="-0.4037">
        <ele>641</ele>
        <time>2018-06-21T22:22:39Z</time>
      </trkpt>
      <trkpt lat="42.97586" lon="-0.40313">
        <ele>639</ele>
        <time>2018-06-21T22:34:39Z</time>
      </trkpt>
      <trkpt lat="42.97573" lon="-0.40302">
        <ele>642</ele>
        <time>2018-06-21T22:41:39Z</time>
      </trkpt>
      <trkpt lat="42.97563" lon="-0.40301">
        <ele>646</ele>
        <time>2018-06-21T22:46:39Z</time>
      </trkpt>
      <trkpt lat="42.97553" lon="-0.4031">
        <ele>650</ele>
        <time>2018-06-21T22:52:39Z</time>
      </trkpt>
      <trkpt lat="42.97551" lon="-0.40324">
        <ele>653</ele>
        <time>2018-06-21T22:55:39Z</time>
      </trkpt>
      <trkpt lat="42.97551" lon="-0.40329">
        <ele>653</ele>
        <time>2018-06-21T22:56:39Z</time>
      </trkpt>
      <trkpt lat="42.97556" lon="-0.40369">
        <ele>655</ele>
        <time>2018-06-21T23:07:39Z</time>
      </trkpt>
      <trkpt lat="42.97549" lon="-0.40372">
        <ele>658</ele>
        <time>2018-06-21T23:09:39Z</time>
      </trkpt>
      <trkpt lat="42.97543" lon="-0.40372">
        <ele>661</ele>
        <time>2018-06-21T23:11:39Z</time>
      </trkpt>
      <trkpt lat="42.97541" lon="-0.4037">
        <ele>661</ele>
        <time>2018-06-21T23:12:39Z</time>
      </trkpt>
      <trkpt lat="42.97531" lon="-0.40311">
        <ele>659</ele>
        <time>2018-06-21T23:21:39Z</time>
      </trkpt>
      <trkpt lat="42.97534" lon="-0.40297">
        <ele>656</ele>
        <time>2018-06-21T23:23:39Z</time>
      </trkpt>
      <trkpt lat="42.97534" lon="-0.40295">
        <ele>656</ele>
        <time>2018-06-21T23:24:39Z</time>
      </trkpt>
      <trkpt lat="42.97522" lon="-0.40274">
        <ele>659</ele>
        <time>2018-06-21T23:34:39Z</time>
      </trkpt>
      <trkpt lat="42.97515" lon="-0.40274">
        <ele>662</ele>
        <time>2018-06-21T23:37:39Z</time>
      </trkpt>
      <trkpt lat="42.97505" lon="-0.40276">
        <ele>666</ele>
        <time>2018-06-21T23:40:39Z</time>
      </trkpt>
      <trkpt lat="42.97497" lon="-0.40274">
        <ele>669</ele>
        <time>2018-06-21T23:43:39Z</time>
      </trkpt>
      <trkpt lat="42.97489" lon="-0.40259">
        <ele>673</ele>
        <time>2018-06-21T23:49:39Z</time>
      </trkpt>
      <trkpt lat="42.97487" lon="-0.40172">
        <ele>676</ele>
        <time>2018-06-21T23:58:39Z</time>
      </trkpt>
      <trkpt lat="42.97477" lon="-0.40102">
        <ele>679</ele>
        <time>2018-06-22T00:08:39Z</time>
      </trkpt>
      <trkpt lat="42.97473" lon="-0.40045">
        <ele>679</ele>
        <time>2018-06-22T00:14:39Z</time>
      </trkpt>
      <trkpt lat="42.97469" lon="-0.3994">
        <ele>683</ele>
        <time>2018-06-22T00:21:39Z</time>
      </trkpt>
      <trkpt lat="42.97466" lon="-0.39914">
        <ele>686</ele>
        <time>2018-06-22T00:24:39Z</time>
      </trkpt>
      <trkpt lat="42.97465" lon="-0.3991">
        <ele>686</ele>
        <time>2018-06-22T00:25:39Z</time>
      </trkpt>
      <trkpt lat="42.97459" lon="-0.39888">
        <ele>689</ele>
        <time>2018-06-22T00:29:39Z</time>
      </trkpt>
      <trkpt lat="42.97457" lon="-0.39883">
        <ele>689</ele>
        <time>2018-06-22T00:30:39Z</time>
      </trkpt>
      <trkpt lat="42.97445" lon="-0.39799">
        <ele>690</ele>
        <time>2018-06-22T00:45:39Z</time>
      </trkpt>
      <trkpt lat="42.97435" lon="-0.39779">
        <ele>693</ele>
        <time>2018-06-22T00:50:39Z</time>
      </trkpt>
      <trkpt lat="42.97433" lon="-0.39776">
        <ele>693</ele>
        <time>2018-06-22T00:51:39Z</time>
      </trkpt>
      <trkpt lat="42.97425" lon="-0.39765">
        <ele>696</ele>
        <time>2018-06-22T00:54:39Z</time>
      </trkpt>
      <trkpt lat="42.97422" lon="-0.39762">
        <ele>696</ele>
        <time>2018-06-22T00:55:39Z</time>
      </trkpt>
      <trkpt lat="42.97414" lon="-0.39754">
        <ele>699</ele>
        <time>2018-06-22T00:57:39Z</time>
      </trkpt>
      <trkpt lat="42.97413" lon="-0.39752">
        <ele>699</ele>
        <time>2018-06-22T00:58:39Z</time>
      </trkpt>
      <trkpt lat="42.97409" lon="-0.39746">
        <ele>702</ele>
        <time>2018-06-22T01:01:39Z</time>
      </trkpt>
      <trkpt lat="42.97408" lon="-0.39744">
        <ele>702</ele>
        <time>2018-06-22T01:02:39Z</time>
      </trkpt>
      <trkpt lat="42.97404" lon="-0.39737">
        <ele>705</ele>
        <time>2018-06-22T01:04:39Z</time>
      </trkpt>
      <trkpt lat="42.974" lon="-0.39723">
        <ele>708</ele>
        <time>2018-06-22T01:09:39Z</time>
      </trkpt>
      <trkpt lat="42.97407" lon="-0.39697">
        <ele>705</ele>
        <time>2018-06-22T01:17:39Z</time>
      </trkpt>
      <trkpt lat="42.97412" lon="-0.39687">
        <ele>702</ele>
        <time>2018-06-22T01:19:39Z</time>
      </trkpt>
      <trkpt lat="42.97413" lon="-0.39684">
        <ele>702</ele>
        <time>2018-06-22T01:20:39Z</time>
      </trkpt>
      <trkpt lat="42.97419" lon="-0.39617">
        <ele>705</ele>
        <time>2018-06-22T01:34:39Z</time>
      </trkpt>
      <trkpt lat="42.97425" lon="-0.3959">
        <ele>705</ele>
        <time>2018-06-22T01:39:39Z</time>
      </trkpt>
      <trkpt lat="42.97429" lon="-0.39531">
        <ele>708</ele>
        <time>2018-06-22T01:50:39Z</time>
      </trkpt>
      <trkpt lat="42.97424" lon="-0.39519">
        <ele>712</ele>
        <time>2018-06-22T01:52:39Z</time>
      </trkpt>
      <trkpt lat="42.97418" lon="-0.39507">
        <ele>716</ele>
        <time>2018-06-22T01:54:39Z</time>
      </trkpt>
      <trkpt lat="42.97409" lon="-0.39499">
        <ele>721</ele>
        <time>2018-06-22T01:56:39Z</time>
      </trkpt>
      <trkpt lat="42.97409" lon="-0.39499">
        <ele>721</ele>
        <time>2018-06-22T01:57:39Z</time>
      </trkpt>
      <trkpt lat="42.97403" lon="-0.39439">
        <ele>716</ele>
        <time>2018-06-22T02:03:39Z</time>
      </trkpt>
      <trkpt lat="42.97391" lon="-0.39392">
        <ele>715</ele>
        <time>2018-06-22T02:09:39Z</time>
      </trkpt>
      <trkpt lat="42.97359" lon="-0.39368">
        <ele>723</ele>
        <time>2018-06-22T02:14:39Z</time>
      </trkpt>
      <trkpt lat="42.97323" lon="-0.3935">
        <ele>734</ele>
        <time>2018-06-22T02:15:39Z</time>
      </trkpt>
      <trkpt lat="42.97311" lon="-0.39343">
        <ele>739</ele>
        <time>2018-06-22T02:16:39Z</time>
      </trkpt>
      <trkpt lat="42.97301" lon="-0.39334">
        <ele>742</ele>
        <time>2018-06-22T02:17:39Z</time>
      </trkpt>
      <trkpt lat="42.97279" lon="-0.39309">
        <ele>749</ele>
        <time>2018-06-22T02:19:39Z</time>
      </trkpt>
      <trkpt lat="42.97256" lon="-0.39282">
        <ele>752</ele>
        <time>2018-06-22T02:21:39Z</time>
      </trkpt>
      <trkpt lat="42.97199" lon="-0.39201">
        <ele>757</ele>
        <time>2018-06-22T02:23:39Z</time>
      </trkpt>
      <trkpt lat="42.97196" lon="-0.39196">
        <ele>757</ele>
        <time>2018-06-22T02:24:39Z</time>
      </trkpt>
      <trkpt lat="42.97193" lon="-0.39184">
        <ele>754</ele>
        <time>2018-06-22T02:26:39Z</time>
      </trkpt>
      <trkpt lat="42.97195" lon="-0.3917">
        <ele>750</ele>
        <time>2018-06-22T02:29:39Z</time>
      </trkpt>
      <trkpt lat="42.97209" lon="-0.3913">
        <ele>750</ele>
        <time>2018-06-22T02:34:39Z</time>
      </trkpt>
      <trkpt lat="42.97223" lon="-0.39134">
        <ele>748</ele>
        <time>2018-06-22T02:43:39Z</time>
      </trkpt>
      <trkpt lat="42.97272" lon="-0.39209">
        <ele>738</ele>
        <time>2018-06-22T02:44:39Z</time>
      </trkpt>
      <trkpt lat="42.97272" lon="-0.39209">
        <ele>738</ele>
        <time>2018-06-22T02:45:39Z</time>
      </trkpt>
      <trkpt lat="42.97317" lon="-0.39153">
        <ele>734</ele>
        <time>2018-06-22T02:47:39Z</time>
      </trkpt>
      <trkpt lat="42.97322" lon="-0.39146">
        <ele>733</ele>
        <time>2018-06-22T02:49:39Z</time>
      </trkpt>
      <trkpt lat="42.97299" lon="-0.39058">
        <ele>737</ele>
        <time>2018-06-22T02:58:39Z</time>
      </trkpt>
      <trkpt lat="42.97284" lon="-0.39013">
        <ele>746</ele>
        <time>2018-06-22T03:02:39Z</time>
      </trkpt>
      <trkpt lat="42.97278" lon="-0.38989">
        <ele>750</ele>
        <time>2018-06-22T03:03:39Z</time>
      </trkpt>
      <trkpt lat="42.97269" lon="-0.38956">
        <ele>753</ele>
        <time>2018-06-22T03:04:39Z</time>
      </trkpt>
      <trkpt lat="42.9724" lon="-0.38878">
        <ele>759</ele>
        <time>2018-06-22T03:08:39Z</time>
      </trkpt>
      <trkpt lat="42.97235" lon="-0.38867">
        <ele>762</ele>
        <time>2018-06-22T03:09:39Z</time>
      </trkpt>
      <trkpt lat="42.97227" lon="-0.38844">
        <ele>765</ele>
        <time>2018-06-22T03:11:39Z</time>
      </trkpt>
      <trkpt lat="42.97219" lon="-0.38821">
        <ele>770</ele>
        <time>2018-06-22T03:12:39Z</time>
      </trkpt>
      <trkpt lat="42.97212" lon="-0.38775">
        <ele>775</ele>
        <time>2018-06-22T03:17:39Z</time>
      </trkpt>
      <trkpt lat="42.97205" lon="-0.38747">
        <ele>779</ele>
        <time>2018-06-22T03:18:39Z</time>
      </trkpt>
      <trkpt lat="42.97179" lon="-0.38646">
        <ele>790</ele>
        <time>2018-06-22T03:19:39Z</time>
      </trkpt>
      <trkpt lat="42.97176" lon="-0.38635">
        <ele>791</ele>
        <time>2018-06-22T03:20:39Z</time>
      </trkpt>
      <trkpt lat="42.97189" lon="-0.38522">
        <ele>792</ele>
        <time>2018-06-22T03:26:39Z</time>
      </trkpt>
      <trkpt lat="42.9716" lon="-0.38424">
        <ele>795</ele>
        <time>2018-06-22T03:33:39Z</time>
      </trkpt>
      <trkpt lat="42.97153" lon="-0.38413">
        <ele>798</ele>
        <time>2018-06-22T03:34:39Z</time>
      </trkpt>
      <trkpt lat="42.97109" lon="-0.38297">
        <ele>810</ele>
        <time>2018-06-22T03:37:39Z</time>
      </trkpt>
      <trkpt lat="42.97108" lon="-0.38293">
        <ele>810</ele>
        <time>2018-06-22T03:38:39Z</time>
      </trkpt>
      <trkpt lat="42.9705" lon="-0.3824">
        <ele>814</ele>
        <time>2018-06-22T03:46:39Z</time>
      </trkpt>
      <trkpt lat="42.97033" lon="-0.38224">
        <ele>817</ele>
        <time>2018-06-22T03:48:39Z</time>
      </trkpt>
      <trkpt lat="42.96999" lon="-0.38099">
        <ele>812</ele>
        <time>2018-06-22T03:53:39Z</time>
      </trkpt>
      <trkpt lat="42.96995" lon="-0.38088">
        <ele>812</ele>
        <time>2018-06-22T03:54:39Z</time>
      </trkpt>
      <trkpt lat="42.96976" lon="-0.38055">
        <ele>816</ele>
        <time>2018-06-22T03:57:39Z</time>
      </trkpt>
      <trkpt lat="42.96976" lon="-0.38055">
        <ele>816</ele>
        <time>2018-06-22T03:58:39Z</time>
      </trkpt>
      <trkpt lat="42.96971" lon="-0.38092">
        <ele>817</ele>
        <time>2018-06-22T04:12:39Z</time>
      </trkpt>
      <trkpt lat="42.96996" lon="-0.38148">
        <ele>819</ele>
        <time>2018-06-22T04:22:39Z</time>
      </trkpt>
      <trkpt lat="42.96996" lon="-0.38186">
        <ele>822</ele>
        <time>2018-06-22T04:27:39Z</time>
      </trkpt>
      <trkpt lat="42.97002" lon="-0.3824">
        <ele>825</ele>
        <time>2018-06-22T04:36:39Z</time>
      </trkpt>
      <trkpt lat="42.96985" lon="-0.38229">
        <ele>828</ele>
        <time>2018-06-22T04:47:39Z</time>
      </trkpt>
      <trkpt lat="42.96984" lon="-0.38193">
        <ele>825</ele>
        <time>2018-06-22T04:50:39Z</time>
      </trkpt>
      <trkpt lat="42.96983" lon="-0.38183">
        <ele>825</ele>
        <time>2018-06-22T04:51:39Z</time>
      </trkpt>
      <trkpt lat="42.96949" lon="-0.38126">
        <ele>826</ele>
        <time>2018-06-22T05:03:39Z</time>
      </trkpt>
      <trkpt lat="42.96914" lon="-0.3809">
        <ele>829</ele>
        <time>2018-06-22T05:10:39Z</time>
      </trkpt>
      <trkpt lat="42.96904" lon="-0.38092">
        <ele>833</ele>
        <time>2018-06-22T05:11:39Z</time>
      </trkpt>
      <trkpt lat="42.96896" lon="-0.38093">
        <ele>836</ele>
        <time>2018-06-22T05:12:39Z</time>
      </trkpt>
      <trkpt lat="42.96888" lon="-0.38091">
        <ele>839</ele>
        <time>2018-06-22T05:13:39Z</time>
      </trkpt>
      <trkpt lat="42.96877" lon="-0.38082">
        <ele>842</ele>
        <time>2018-06-22T05:15:39Z</time>
      </trkpt>
      <trkpt lat="42.96866" lon="-0.38059">
        <ele>845</ele>
        <time>2018-06-22T05:18:39Z</time>
      </trkpt>
      <trkpt lat="42.96868" lon="-0.38038">
        <ele>842</ele>
        <time>2018-06-22T05:20:39Z</time>
      </trkpt>
      <trkpt lat="42.9688" lon="-0.38022">
        <ele>837</ele>
        <time>2018-06-22T05:22:39Z</time>
      </trkpt>
      <trkpt lat="42.96886" lon="-0.38005">
        <ele>833</ele>
        <time>2018-06-22T05:24:39Z</time>
      </trkpt>
      <trkpt lat="42.96862" lon="-0.37944">
        <ele>838</ele>
        <time>2018-06-22T05:31:39Z</time>
      </trkpt>
      <trkpt lat="42.96844" lon="-0.37942">
        <ele>843</ele>
        <time>2018-06-22T05:33:39Z</time>
      </trkpt>
      <trkpt lat="42.96833" lon="-0.37941">
        <ele>846</ele>
        <time>2018-06-22T05:35:39Z</time>
      </trkpt>
      <trkpt lat="42.96827" lon="-0.37935">
        <ele>849</ele>
        <time>2018-06-22T05:37:39Z</time>
      </trkpt>
      <trkpt lat="42.96819" lon="-0.37863">
        <ele>847</ele>
        <time>2018-06-22T05:47:39Z</time>
      </trkpt>
      <trkpt lat="42.96806" lon="-0.37829">
        <ele>852</ele>
        <time>2018-06-22T05:50:39Z</time>
      </trkpt>
      <trkpt lat="42.96794" lon="-0.37748">
        <ele>853</ele>
        <time>2018-06-22T05:56:39Z</time>
      </trkpt>
      <trkpt lat="42.96782" lon="-0.37725">
        <ele>857</ele>
        <time>2018-06-22T05:59:39Z</time>
      </trkpt>
      <trkpt lat="42.96768" lon="-0.37706">
        <ele>861</ele>
        <time>2018-06-22T06:00:39Z</time>
      </trkpt>
      <trkpt lat="42.96757" lon="-0.3764">
        <ele>860</ele>
        <time>2018-06-22T06:07:39Z</time>
      </trkpt>
      <trkpt lat="42.96772" lon="-0.37622">
        <ele>857</ele>
        <time>2018-06-22T06:10:39Z</time>
      </trkpt>
      <trkpt lat="42.96794" lon="-0.37604">
        <ele>854</ele>
        <time>2018-06-22T06:12:39Z</time>
      </trkpt>
      <trkpt lat="42.96797" lon="-0.37599">
        <ele>854</ele>
        <time>2018-06-22T06:13:39Z</time>
      </trkpt>
      <trkpt lat="42.96793" lon="-0.37565">
        <ele>857</ele>
        <time>2018-06-22T06:18:39Z</time>
      </trkpt>
      <trkpt lat="42.96775" lon="-0.37545">
        <ele>860</ele>
        <time>2018-06-22T06:21:39Z</time>
      </trkpt>
      <trkpt lat="42.96771" lon="-0.37538">
        <ele>860</ele>
        <time>2018-06-22T06:22:39Z</time>
      </trkpt>
      <trkpt lat="42.96752" lon="-0.3745">
        <ele>866</ele>
        <time>2018-06-22T06:27:39Z</time>
      </trkpt>
      <trkpt lat="42.96749" lon="-0.3743">
        <ele>869</ele>
        <time>2018-06-22T06:29:39Z</time>
      </trkpt>
      <trkpt lat="42.96749" lon="-0.37422">
        <ele>869</ele>
        <time>2018-06-22T06:30:39Z</time>
      </trkpt>
      <trkpt lat="42.96745" lon="-0.37285">
        <ele>872</ele>
        <time>2018-06-22T06:38:39Z</time>
      </trkpt>
      <trkpt lat="42.96737" lon="-0.37215">
        <ele>877</ele>
        <time>2018-06-22T06:43:39Z</time>
      </trkpt>
      <trkpt lat="42.96737" lon="-0.37204">
        <ele>877</ele>
        <time>2018-06-22T06:44:39Z</time>
      </trkpt>
      <trkpt lat="42.9677" lon="-0.37163">
        <ele>881</ele>
        <time>2018-06-22T06:52:39Z</time>
      </trkpt>
      <trkpt lat="42.96791" lon="-0.37179">
        <ele>884</ele>
        <time>2018-06-22T06:55:39Z</time>
      </trkpt>
      <trkpt lat="42.96799" lon="-0.37196">
        <ele>884</ele>
        <time>2018-06-22T06:56:39Z</time>
      </trkpt>
      <trkpt lat="42.96826" lon="-0.37244">
        <ele>887</ele>
        <time>2018-06-22T07:00:39Z</time>
      </trkpt>
      <trkpt lat="42.96868" lon="-0.37262">
        <ele>892</ele>
        <time>2018-06-22T07:06:39Z</time>
      </trkpt>
      <trkpt lat="42.96894" lon="-0.37249">
        <ele>895</ele>
        <time>2018-06-22T07:09:39Z</time>
      </trkpt>
      <trkpt lat="42.96904" lon="-0.37234">
        <ele>898</ele>
        <time>2018-06-22T07:12:39Z</time>
      </trkpt>
      <trkpt lat="42.96905" lon="-0.37195">
        <ele>902</ele>
        <time>2018-06-22T07:18:39Z</time>
      </trkpt>
      <trkpt lat="42.96901" lon="-0.37183">
        <ele>902</ele>
        <time>2018-06-22T07:19:39Z</time>
      </trkpt>
      <trkpt lat="42.96891" lon="-0.37106">
        <ele>907</ele>
        <time>2018-06-22T07:27:39Z</time>
      </trkpt>
      <trkpt lat="42.96891" lon="-0.37071">
        <ele>912</ele>
        <time>2018-06-22T07:32:39Z</time>
      </trkpt>
      <trkpt lat="42.96885" lon="-0.37049">
        <ele>915</ele>
        <time>2018-06-22T07:34:39Z</time>
      </trkpt>
      <trkpt lat="42.96848" lon="-0.36982">
        <ele>918</ele>
        <time>2018-06-22T07:38:39Z</time>
      </trkpt>
      <trkpt lat="42.96836" lon="-0.36961">
        <ele>918</ele>
        <time>2018-06-22T07:41:39Z</time>
      </trkpt>
      <trkpt lat="42.96826" lon="-0.36932">
        <ele>921</ele>
        <time>2018-06-22T07:44:39Z</time>
      </trkpt>
      <trkpt lat="42.96821" lon="-0.36911">
        <ele>924</ele>
        <time>2018-06-22T07:45:39Z</time>
      </trkpt>
      <trkpt lat="42.96814" lon="-0.36889">
        <ele>927</ele>
        <time>2018-06-22T07:46:39Z</time>
      </trkpt>
      <trkpt lat="42.96798" lon="-0.3685">
        <ele>931</ele>
        <time>2018-06-22T07:48:39Z</time>
      </trkpt>
      <trkpt lat="42.96792" lon="-0.36835">
        <ele>931</ele>
        <time>2018-06-22T07:49:39Z</time>
      </trkpt>
      <trkpt lat="42.96774" lon="-0.36764">
        <ele>936</ele>
        <time>2018-06-22T07:52:39Z</time>
      </trkpt>
      <trkpt lat="42.96771" lon="-0.36733">
        <ele>939</ele>
        <time>2018-06-22T07:54:39Z</time>
      </trkpt>
      <trkpt lat="42.96772" lon="-0.36716">
        <ele>942</ele>
        <time>2018-06-22T07:55:39Z</time>
      </trkpt>
      <trkpt lat="42.96771" lon="-0.36709">
        <ele>942</ele>
        <time>2018-06-22T07:56:39Z</time>
      </trkpt>
      <trkpt lat="42.96764" lon="-0.36658">
        <ele>945</ele>
        <time>2018-06-22T07:59:39Z</time>
      </trkpt>
      <trkpt lat="42.96736" lon="-0.36574">
        <ele>948</ele>
        <time>2018-06-22T08:05:39Z</time>
      </trkpt>
      <trkpt lat="42.96724" lon="-0.36493">
        <ele>953</ele>
        <time>2018-06-22T08:11:39Z</time>
      </trkpt>
      <trkpt lat="42.96719" lon="-0.3646">
        <ele>957</ele>
        <time>2018-06-22T08:13:39Z</time>
      </trkpt>
      <trkpt lat="42.967" lon="-0.3638">
        <ele>962</ele>
        <time>2018-06-22T08:22:39Z</time>
      </trkpt>
      <trkpt lat="42.96699" lon="-0.36361">
        <ele>965</ele>
        <time>2018-06-22T08:23:39Z</time>
      </trkpt>
      <trkpt lat="42.96697" lon="-0.36335">
        <ele>968</ele>
        <time>2018-06-22T08:25:39Z</time>
      </trkpt>
      <trkpt lat="42.9669" lon="-0.36295">
        <ele>971</ele>
        <time>2018-06-22T08:27:39Z</time>
      </trkpt>
      <trkpt lat="42.96687" lon="-0.36286">
        <ele>971</ele>
        <time>2018-06-22T08:28:39Z</time>
      </trkpt>
      <trkpt lat="42.96673" lon="-0.3623">
        <ele>974</ele>
        <time>2018-06-22T08:30:39Z</time>
      </trkpt>
      <trkpt lat="42.96656" lon="-0.36153">
        <ele>979</ele>
        <time>2018-06-22T08:32:39Z</time>
      </trkpt>
      <trkpt lat="42.96649" lon="-0.36123">
        <ele>979</ele>
        <time>2018-06-22T08:33:39Z</time>
      </trkpt>
      <trkpt lat="42.96647" lon="-0.36084">
        <ele>982</ele>
        <time>2018-06-22T08:36:39Z</time>
      </trkpt>
      <trkpt lat="42.96645" lon="-0.36054">
        <ele>986</ele>
        <time>2018-06-22T08:38:39Z</time>
      </trkpt>
      <trkpt lat="42.96643" lon="-0.36045">
        <ele>986</ele>
        <time>2018-06-22T08:39:39Z</time>
      </trkpt>
      <trkpt lat="42.9663" lon="-0.35991">
        <ele>989</ele>
        <time>2018-06-22T08:44:39Z</time>
      </trkpt>
      <trkpt lat="42.96627" lon="-0.35965">
        <ele>989</ele>
        <time>2018-06-22T08:45:39Z</time>
      </trkpt>
      <trkpt lat="42.96627" lon="-0.35923">
        <ele>992</ele>
        <time>2018-06-22T08:47:39Z</time>
      </trkpt>
      <trkpt lat="42.96623" lon="-0.35875">
        <ele>998</ele>
        <time>2018-06-22T08:49:39Z</time>
      </trkpt>
      <trkpt lat="42.96622" lon="-0.35851">
        <ele>1001</ele>
        <time>2018-06-22T08:51:39Z</time>
      </trkpt>
      <trkpt lat="42.96618" lon="-0.35819">
        <ele>1005</ele>
        <time>2018-06-22T08:53:39Z</time>
      </trkpt>
      <trkpt lat="42.96614" lon="-0.35797">
        <ele>1008</ele>
        <time>2018-06-22T08:54:39Z</time>
      </trkpt>
      <trkpt lat="42.96604" lon="-0.35753">
        <ele>1012</ele>
        <time>2018-06-22T08:56:39Z</time>
      </trkpt>
      <trkpt lat="42.96577" lon="-0.35639">
        <ele>1018</ele>
        <time>2018-06-22T09:00:39Z</time>
      </trkpt>
      <trkpt lat="42.96568" lon="-0.35616">
        <ele>1022</ele>
        <time>2018-06-22T09:02:39Z</time>
      </trkpt>
      <trkpt lat="42.9654" lon="-0.35583">
        <ele>1025</ele>
        <time>2018-06-22T09:04:39Z</time>
      </trkpt>
      <trkpt lat="42.96534" lon="-0.35578">
        <ele>1025</ele>
        <time>2018-06-22T09:05:39Z</time>
      </trkpt>
      <trkpt lat="42.96458" lon="-0.35491">
        <ele>1026</ele>
        <time>2018-06-22T09:13:39Z</time>
      </trkpt>
      <trkpt lat="42.96424" lon="-0.35436">
        <ele>1030</ele>
        <time>2018-06-22T09:15:39Z</time>
      </trkpt>
      <trkpt lat="42.96413" lon="-0.35411">
        <ele>1033</ele>
        <time>2018-06-22T09:17:39Z</time>
      </trkpt>
      <trkpt lat="42.96406" lon="-0.35381">
        <ele>1037</ele>
        <time>2018-06-22T09:19:39Z</time>
      </trkpt>
      <trkpt lat="42.96402" lon="-0.35366">
        <ele>1040</ele>
        <time>2018-06-22T09:20:39Z</time>
      </trkpt>
      <trkpt lat="42.96363" lon="-0.3531">
        <ele>1044</ele>
        <time>2018-06-22T09:28:39Z</time>
      </trkpt>
      <trkpt lat="42.96346" lon="-0.35265">
        <ele>1048</ele>
        <time>2018-06-22T09:32:39Z</time>
      </trkpt>
      <trkpt lat="42.96342" lon="-0.35223">
        <ele>1051</ele>
        <time>2018-06-22T09:35:39Z</time>
      </trkpt>
      <trkpt lat="42.96338" lon="-0.35165">
        <ele>1055</ele>
        <time>2018-06-22T09:37:39Z</time>
      </trkpt>
      <trkpt lat="42.96337" lon="-0.35152">
        <ele>1055</ele>
        <time>2018-06-22T09:38:39Z</time>
      </trkpt>
      <trkpt lat="42.9634" lon="-0.35128">
        <ele>1058</ele>
        <time>2018-06-22T09:40:39Z</time>
      </trkpt>
      <trkpt lat="42.96348" lon="-0.35106">
        <ele>1062</ele>
        <time>2018-06-22T09:42:39Z</time>
      </trkpt>
      <trkpt lat="42.9636" lon="-0.35089">
        <ele>1067</ele>
        <time>2018-06-22T09:44:39Z</time>
      </trkpt>
      <trkpt lat="42.96368" lon="-0.35078">
        <ele>1070</ele>
        <time>2018-06-22T09:46:39Z</time>
      </trkpt>
      <trkpt lat="42.96376" lon="-0.35063">
        <ele>1073</ele>
        <time>2018-06-22T09:49:39Z</time>
      </trkpt>
      <trkpt lat="42.96377" lon="-0.35058">
        <ele>1073</ele>
        <time>2018-06-22T09:50:39Z</time>
      </trkpt>
      <trkpt lat="42.96385" lon="-0.34967">
        <ele>1079</ele>
        <time>2018-06-22T09:56:39Z</time>
      </trkpt>
      <trkpt lat="42.96393" lon="-0.3492">
        <ele>1082</ele>
        <time>2018-06-22T10:01:39Z</time>
      </trkpt>
      <trkpt lat="42.96421" lon="-0.34883">
        <ele>1086</ele>
        <time>2018-06-22T10:04:39Z</time>
      </trkpt>
      <trkpt lat="42.96426" lon="-0.34875">
        <ele>1089</ele>
        <time>2018-06-22T10:06:39Z</time>
      </trkpt>
      <trkpt lat="42.96431" lon="-0.3486">
        <ele>1092</ele>
        <time>2018-06-22T10:09:39Z</time>
      </trkpt>
      <trkpt lat="42.9643" lon="-0.3481">
        <ele>1097</ele>
        <time>2018-06-22T10:14:39Z</time>
      </trkpt>
      <trkpt lat="42.96426" lon="-0.34798">
        <ele>1096</ele>
        <time>2018-06-22T10:15:39Z</time>
      </trkpt>
      <trkpt lat="42.96405" lon="-0.34753">
        <ele>1099</ele>
        <time>2018-06-22T10:19:39Z</time>
      </trkpt>
      <trkpt lat="42.96406" lon="-0.34724">
        <ele>1103</ele>
        <time>2018-06-22T10:23:39Z</time>
      </trkpt>
      <trkpt lat="42.96407" lon="-0.34695">
        <ele>1107</ele>
        <time>2018-06-22T10:25:39Z</time>
      </trkpt>
      <trkpt lat="42.96407" lon="-0.34671">
        <ele>1110</ele>
        <time>2018-06-22T10:26:39Z</time>
      </trkpt>
      <trkpt lat="42.9641" lon="-0.34649">
        <ele>1113</ele>
        <time>2018-06-22T10:28:39Z</time>
      </trkpt>
      <trkpt lat="42.96411" lon="-0.34634">
        <ele>1116</ele>
        <time>2018-06-22T10:29:39Z</time>
      </trkpt>
      <trkpt lat="42.96408" lon="-0.3462">
        <ele>1119</ele>
        <time>2018-06-22T10:32:39Z</time>
      </trkpt>
      <trkpt lat="42.964" lon="-0.34611">
        <ele>1122</ele>
        <time>2018-06-22T10:34:39Z</time>
      </trkpt>
      <trkpt lat="42.96377" lon="-0.34619">
        <ele>1125</ele>
        <time>2018-06-22T10:42:39Z</time>
      </trkpt>
      <trkpt lat="42.9637" lon="-0.34644">
        <ele>1121</ele>
        <time>2018-06-22T10:46:39Z</time>
      </trkpt>
      <trkpt lat="42.96368" lon="-0.34661">
        <ele>1118</ele>
        <time>2018-06-22T10:47:39Z</time>
      </trkpt>
      <trkpt lat="42.96364" lon="-0.34683">
        <ele>1115</ele>
        <time>2018-06-22T10:48:39Z</time>
      </trkpt>
      <trkpt lat="42.96314" lon="-0.34746">
        <ele>1117</ele>
        <time>2018-06-22T10:56:39Z</time>
      </trkpt>
      <trkpt lat="42.96306" lon="-0.34755">
        <ele>1120</ele>
        <time>2018-06-22T10:57:39Z</time>
      </trkpt>
      <trkpt lat="42.96289" lon="-0.34766">
        <ele>1126</ele>
        <time>2018-06-22T10:59:39Z</time>
      </trkpt>
      <trkpt lat="42.9628" lon="-0.34772">
        <ele>1129</ele>
        <time>2018-06-22T11:01:39Z</time>
      </trkpt>
      <trkpt lat="42.96278" lon="-0.34774">
        <ele>1129</ele>
        <time>2018-06-22T11:02:39Z</time>
      </trkpt>
      <trkpt lat="42.96243" lon="-0.34869">
        <ele>1130</ele>
        <time>2018-06-22T11:08:39Z</time>
      </trkpt>
      <trkpt lat="42.96237" lon="-0.34916">
        <ele>1126</ele>
        <time>2018-06-22T11:10:39Z</time>
      </trkpt>
      <trkpt lat="42.96237" lon="-0.34941">
        <ele>1123</ele>
        <time>2018-06-22T11:12:39Z</time>
      </trkpt>
      <trkpt lat="42.96233" lon="-0.34958">
        <ele>1124</ele>
        <time>2018-06-22T11:16:39Z</time>
      </trkpt>
      <trkpt lat="42.96227" lon="-0.34963">
        <ele>1127</ele>
        <time>2018-06-22T11:20:39Z</time>
      </trkpt>
      <trkpt lat="42.96224" lon="-0.34962">
        <ele>1130</ele>
        <time>2018-06-22T11:23:39Z</time>
      </trkpt>
      <trkpt lat="42.9622" lon="-0.34959">
        <ele>1133</ele>
        <time>2018-06-22T11:26:39Z</time>
      </trkpt>
      <trkpt lat="42.96225" lon="-0.34883">
        <ele>1141</ele>
        <time>2018-06-22T11:33:39Z</time>
      </trkpt>
      <trkpt lat="42.96228" lon="-0.34842">
        <ele>1147</ele>
        <time>2018-06-22T11:35:39Z</time>
      </trkpt>
      <trkpt lat="42.96233" lon="-0.34805">
        <ele>1150</ele>
        <time>2018-06-22T11:36:39Z</time>
      </trkpt>
      <trkpt lat="42.96244" lon="-0.34761">
        <ele>1150</ele>
        <time>2018-06-22T11:37:39Z</time>
      </trkpt>
      <trkpt lat="42.96253" lon="-0.34714">
        <ele>1153</ele>
        <time>2018-06-22T11:39:39Z</time>
      </trkpt>
      <trkpt lat="42.96254" lon="-0.34699">
        <ele>1156</ele>
        <time>2018-06-22T11:40:39Z</time>
      </trkpt>
      <trkpt lat="42.96255" lon="-0.34681">
        <ele>1159</ele>
        <time>2018-06-22T11:41:39Z</time>
      </trkpt>
      <trkpt lat="42.96252" lon="-0.34656">
        <ele>1165</ele>
        <time>2018-06-22T11:42:39Z</time>
      </trkpt>
      <trkpt lat="42.9625" lon="-0.34638">
        <ele>1168</ele>
        <time>2018-06-22T11:43:39Z</time>
      </trkpt>
      <trkpt lat="42.96249" lon="-0.34621">
        <ele>1172</ele>
        <time>2018-06-22T11:44:39Z</time>
      </trkpt>
      <trkpt lat="42.96251" lon="-0.34592">
        <ele>1175</ele>
        <time>2018-06-22T11:46:39Z</time>
      </trkpt>
      <trkpt lat="42.96254" lon="-0.3458">
        <ele>1175</ele>
        <time>2018-06-22T11:47:39Z</time>
      </trkpt>
      <trkpt lat="42.96264" lon="-0.34563">
        <ele>1172</ele>
        <time>2018-06-22T11:49:39Z</time>
      </trkpt>
      <trkpt lat="42.96275" lon="-0.34558">
        <ele>1168</ele>
        <time>2018-06-22T11:51:39Z</time>
      </trkpt>
      <trkpt lat="42.96284" lon="-0.34557">
        <ele>1164</ele>
        <time>2018-06-22T11:52:39Z</time>
      </trkpt>
      <trkpt lat="42.96292" lon="-0.34556">
        <ele>1160</ele>
        <time>2018-06-22T11:54:39Z</time>
      </trkpt>
      <trkpt lat="42.963" lon="-0.34548">
        <ele>1157</ele>
        <time>2018-06-22T11:56:39Z</time>
      </trkpt>
      <trkpt lat="42.96311" lon="-0.34475">
        <ele>1161</ele>
        <time>2018-06-22T12:04:39Z</time>
      </trkpt>
      <trkpt lat="42.9631" lon="-0.34456">
        <ele>1164</ele>
        <time>2018-06-22T12:06:39Z</time>
      </trkpt>
      <trkpt lat="42.96306" lon="-0.34437">
        <ele>1168</ele>
        <time>2018-06-22T12:08:39Z</time>
      </trkpt>
      <trkpt lat="42.96321" lon="-0.34362">
        <ele>1175</ele>
        <time>2018-06-22T12:15:39Z</time>
      </trkpt>
      <trkpt lat="42.96322" lon="-0.34328">
        <ele>1180</ele>
        <time>2018-06-22T12:17:39Z</time>
      </trkpt>
      <trkpt lat="42.96337" lon="-0.34247">
        <ele>1184</ele>
        <time>2018-06-22T12:21:39Z</time>
      </trkpt>
      <trkpt lat="42.96338" lon="-0.34232">
        <ele>1184</ele>
        <time>2018-06-22T12:22:39Z</time>
      </trkpt>
      <trkpt lat="42.96345" lon="-0.34205">
        <ele>1187</ele>
        <time>2018-06-22T12:24:39Z</time>
      </trkpt>
      <trkpt lat="42.96353" lon="-0.34144">
        <ele>1191</ele>
        <time>2018-06-22T12:29:39Z</time>
      </trkpt>
      <trkpt lat="42.96353" lon="-0.34136">
        <ele>1191</ele>
        <time>2018-06-22T12:30:39Z</time>
      </trkpt>
      <trkpt lat="42.96342" lon="-0.34096">
        <ele>1188</ele>
        <time>2018-06-22T12:35:39Z</time>
      </trkpt>
      <trkpt lat="42.96306" lon="-0.34002">
        <ele>1185</ele>
        <time>2018-06-22T12:40:39Z</time>
      </trkpt>
      <trkpt lat="42.96306" lon="-0.33951">
        <ele>1190</ele>
        <time>2018-06-22T12:46:39Z</time>
      </trkpt>
      <trkpt lat="42.96309" lon="-0.33948">
        <ele>1190</ele>
        <time>2018-06-22T12:47:39Z</time>
      </trkpt>
      <trkpt lat="42.96319" lon="-0.3394">
        <ele>1193</ele>
        <time>2018-06-22T12:49:39Z</time>
      </trkpt>
      <trkpt lat="42.96347" lon="-0.33934">
        <ele>1201</ele>
        <time>2018-06-22T12:50:39Z</time>
      </trkpt>
      <trkpt lat="42.96355" lon="-0.33933">
        <ele>1204</ele>
        <time>2018-06-22T12:51:39Z</time>
      </trkpt>
      <trkpt lat="42.96374" lon="-0.33933">
        <ele>1211</ele>
        <time>2018-06-22T12:53:39Z</time>
      </trkpt>
      <trkpt lat="42.96384" lon="-0.33935">
        <ele>1214</ele>
        <time>2018-06-22T12:54:39Z</time>
      </trkpt>
      <trkpt lat="42.96395" lon="-0.33942">
        <ele>1217</ele>
        <time>2018-06-22T12:56:39Z</time>
      </trkpt>
      <trkpt lat="42.96414" lon="-0.34029">
        <ele>1215</ele>
        <time>2018-06-22T13:02:39Z</time>
      </trkpt>
      <trkpt lat="42.96416" lon="-0.34094">
        <ele>1212</ele>
        <time>2018-06-22T13:04:39Z</time>
      </trkpt>
      <trkpt lat="42.96436" lon="-0.342">
        <ele>1215</ele>
        <time>2018-06-22T13:08:39Z</time>
      </trkpt>
      <trkpt lat="42.96468" lon="-0.3432">
        <ele>1213</ele>
        <time>2018-06-22T13:11:39Z</time>
      </trkpt>
      <trkpt lat="42.96471" lon="-0.34328">
        <ele>1213</ele>
        <time>2018-06-22T13:12:39Z</time>
      </trkpt>
      <trkpt lat="42.96483" lon="-0.34344">
        <ele>1216</ele>
        <time>2018-06-22T13:15:39Z</time>
      </trkpt>
      <trkpt lat="42.9649" lon="-0.34346">
        <ele>1219</ele>
        <time>2018-06-22T13:18:39Z</time>
      </trkpt>
      <trkpt lat="42.96496" lon="-0.34344">
        <ele>1222</ele>
        <time>2018-06-22T13:20:39Z</time>
      </trkpt>
      <trkpt lat="42.96503" lon="-0.34337">
        <ele>1226</ele>
        <time>2018-06-22T13:23:39Z</time>
      </trkpt>
      <trkpt lat="42.96507" lon="-0.34328">
        <ele>1229</ele>
        <time>2018-06-22T13:26:39Z</time>
      </trkpt>
      <trkpt lat="42.96509" lon="-0.34314">
        <ele>1232</ele>
        <time>2018-06-22T13:28:39Z</time>
      </trkpt>
      <trkpt lat="42.96511" lon="-0.34293">
        <ele>1235</ele>
        <time>2018-06-22T13:30:39Z</time>
      </trkpt>
      <trkpt lat="42.96505" lon="-0.3421">
        <ele>1244</ele>
        <time>2018-06-22T13:32:39Z</time>
      </trkpt>
      <trkpt lat="42.965" lon="-0.34162">
        <ele>1249</ele>
        <time>2018-06-22T13:33:39Z</time>
      </trkpt>
      <trkpt lat="42.96497" lon="-0.34115">
        <ele>1256</ele>
        <time>2018-06-22T13:34:39Z</time>
      </trkpt>
      <trkpt lat="42.96493" lon="-0.3408">
        <ele>1259</ele>
        <time>2018-06-22T13:36:39Z</time>
      </trkpt>
      <trkpt lat="42.96487" lon="-0.34057">
        <ele>1256</ele>
        <time>2018-06-22T13:37:39Z</time>
      </trkpt>
      <trkpt lat="42.96478" lon="-0.34012">
        <ele>1253</ele>
        <time>2018-06-22T13:39:39Z</time>
      </trkpt>
      <trkpt lat="42.96475" lon="-0.33987">
        <ele>1253</ele>
        <time>2018-06-22T13:40:39Z</time>
      </trkpt>
      <trkpt lat="42.96472" lon="-0.33942">
        <ele>1256</ele>
        <time>2018-06-22T13:42:39Z</time>
      </trkpt>
      <trkpt lat="42.96462" lon="-0.33894">
        <ele>1255</ele>
        <time>2018-06-22T13:46:39Z</time>
      </trkpt>
      <trkpt lat="42.96466" lon="-0.3387">
        <ele>1259</ele>
        <time>2018-06-22T13:49:39Z</time>
      </trkpt>
      <trkpt lat="42.96466" lon="-0.33847">
        <ele>1262</ele>
        <time>2018-06-22T13:51:39Z</time>
      </trkpt>
      <trkpt lat="42.9646" lon="-0.33824">
        <ele>1262</ele>
        <time>2018-06-22T13:54:39Z</time>
      </trkpt>
      <trkpt lat="42.9645" lon="-0.33786">
        <ele>1268</ele>
        <time>2018-06-22T13:58:39Z</time>
      </trkpt>
      <trkpt lat="42.96449" lon="-0.33774">
        <ele>1271</ele>
        <time>2018-06-22T13:59:39Z</time>
      </trkpt>
      <trkpt lat="42.96449" lon="-0.33761">
        <ele>1274</ele>
        <time>2018-06-22T14:01:39Z</time>
      </trkpt>
      <trkpt lat="42.96449" lon="-0.33749">
        <ele>1278</ele>
        <time>2018-06-22T14:02:39Z</time>
      </trkpt>
      <trkpt lat="42.9645" lon="-0.33724">
        <ele>1284</ele>
        <time>2018-06-22T14:04:39Z</time>
      </trkpt>
      <trkpt lat="42.96448" lon="-0.33703">
        <ele>1288</ele>
        <time>2018-06-22T14:06:39Z</time>
      </trkpt>
      <trkpt lat="42.96439" lon="-0.33643">
        <ele>1294</ele>
        <time>2018-06-22T14:09:39Z</time>
      </trkpt>
      <trkpt lat="42.96436" lon="-0.33618">
        <ele>1298</ele>
        <time>2018-06-22T14:10:39Z</time>
      </trkpt>
      <trkpt lat="42.96433" lon="-0.33596">
        <ele>1301</ele>
        <time>2018-06-22T14:11:39Z</time>
      </trkpt>
      <trkpt lat="42.96399" lon="-0.33496">
        <ele>1303</ele>
        <time>2018-06-22T14:17:39Z</time>
      </trkpt>
      <trkpt lat="42.96378" lon="-0.33455">
        <ele>1308</ele>
        <time>2018-06-22T14:18:39Z</time>
      </trkpt>
      <trkpt lat="42.96362" lon="-0.33415">
        <ele>1313</ele>
        <time>2018-06-22T14:19:39Z</time>
      </trkpt>
      <trkpt lat="42.96358" lon="-0.33407">
        <ele>1313</ele>
        <time>2018-06-22T14:20:39Z</time>
      </trkpt>
      <trkpt lat="42.9632" lon="-0.33346">
        <ele>1318</ele>
        <time>2018-06-22T14:26:39Z</time>
      </trkpt>
      <trkpt lat="42.96284" lon="-0.33311">
        <ele>1321</ele>
        <time>2018-06-22T14:30:39Z</time>
      </trkpt>
      <trkpt lat="42.96242" lon="-0.33276">
        <ele>1325</ele>
        <time>2018-06-22T14:35:39Z</time>
      </trkpt>
      <trkpt lat="42.9622" lon="-0.33271">
        <ele>1328</ele>
        <time>2018-06-22T14:37:39Z</time>
      </trkpt>
      <trkpt lat="42.96183" lon="-0.33265">
        <ele>1332</ele>
        <time>2018-06-22T14:39:39Z</time>
      </trkpt>
      <trkpt lat="42.96127" lon="-0.33294">
        <ele>1330</ele>
        <time>2018-06-22T14:44:39Z</time>
      </trkpt>
      <trkpt lat="42.96095" lon="-0.33299">
        <ele>1335</ele>
        <time>2018-06-22T14:50:39Z</time>
      </trkpt>
      <trkpt lat="42.96083" lon="-0.3329">
        <ele>1340</ele>
        <time>2018-06-22T14:51:39Z</time>
      </trkpt>
      <trkpt lat="42.96077" lon="-0.33285">
        <ele>1343</ele>
        <time>2018-06-22T14:52:39Z</time>
      </trkpt>
      <trkpt lat="42.96064" lon="-0.33277">
        <ele>1348</ele>
        <time>2018-06-22T14:54:39Z</time>
      </trkpt>
      <trkpt lat="42.9606" lon="-0.33277">
        <ele>1348</ele>
        <time>2018-06-22T14:55:39Z</time>
      </trkpt>
      <trkpt lat="42.96044" lon="-0.33279">
        <ele>1351</ele>
        <time>2018-06-22T14:57:39Z</time>
      </trkpt>
      <trkpt lat="42.96033" lon="-0.33285">
        <ele>1351</ele>
        <time>2018-06-22T14:58:39Z</time>
      </trkpt>
      <trkpt lat="42.95974" lon="-0.33305">
        <ele>1355</ele>
        <time>2018-06-22T15:05:39Z</time>
      </trkpt>
      <trkpt lat="42.95943" lon="-0.33299">
        <ele>1358</ele>
        <time>2018-06-22T15:07:39Z</time>
      </trkpt>
      <trkpt lat="42.95869" lon="-0.33301">
        <ele>1359</ele>
        <time>2018-06-22T15:14:39Z</time>
      </trkpt>
      <trkpt lat="42.95817" lon="-0.33273">
        <ele>1359</ele>
        <time>2018-06-22T15:23:39Z</time>
      </trkpt>
      <trkpt lat="42.95819" lon="-0.3323">
        <ele>1363</ele>
        <time>2018-06-22T15:31:39Z</time>
      </trkpt>
      <trkpt lat="42.95843" lon="-0.33236">
        <ele>1363</ele>
        <time>2018-06-22T15:38:39Z</time>
      </trkpt>
      <trkpt lat="42.95879" lon="-0.33268">
        <ele>1361</ele>
        <time>2018-06-22T15:44:39Z</time>
      </trkpt>
      <trkpt lat="42.95932" lon="-0.33259">
        <ele>1364</ele>
        <time>2018-06-22T15:52:39Z</time>
      </trkpt>
      <trkpt lat="42.95964" lon="-0.33255">
        <ele>1364</ele>
        <time>2018-06-22T15:57:39Z</time>
      </trkpt>
      <trkpt lat="42.95981" lon="-0.33231">
        <ele>1368</ele>
        <time>2018-06-22T16:01:39Z</time>
      </trkpt>
      <trkpt lat="42.95988" lon="-0.33207">
        <ele>1371</ele>
        <time>2018-06-22T16:03:39Z</time>
      </trkpt>
      <trkpt lat="42.95995" lon="-0.33186">
        <ele>1374</ele>
        <time>2018-06-22T16:04:39Z</time>
      </trkpt>
      <trkpt lat="42.96012" lon="-0.33161">
        <ele>1377</ele>
        <time>2018-06-22T16:05:39Z</time>
      </trkpt>
      <trkpt lat="42.96027" lon="-0.33143">
        <ele>1381</ele>
        <time>2018-06-22T16:06:39Z</time>
      </trkpt>
      <trkpt lat="42.96045" lon="-0.33125">
        <ele>1385</ele>
        <time>2018-06-22T16:08:39Z</time>
      </trkpt>
      <trkpt lat="42.96084" lon="-0.33115">
        <ele>1388</ele>
        <time>2018-06-22T16:14:39Z</time>
      </trkpt>
      <trkpt lat="42.96105" lon="-0.33104">
        <ele>1391</ele>
        <time>2018-06-22T16:17:39Z</time>
      </trkpt>
      <trkpt lat="42.96138" lon="-0.33107">
        <ele>1391</ele>
        <time>2018-06-22T16:22:39Z</time>
      </trkpt>
      <trkpt lat="42.96159" lon="-0.33098">
        <ele>1395</ele>
        <time>2018-06-22T16:25:39Z</time>
      </trkpt>
      <trkpt lat="42.96161" lon="-0.33096">
        <ele>1395</ele>
        <time>2018-06-22T16:26:39Z</time>
      </trkpt>
      <trkpt lat="42.96176" lon="-0.33089">
        <ele>1398</ele>
        <time>2018-06-22T16:27:39Z</time>
      </trkpt>
      <trkpt lat="42.96197" lon="-0.33075">
        <ele>1402</ele>
        <time>2018-06-22T16:28:39Z</time>
      </trkpt>
      <trkpt lat="42.96217" lon="-0.33059">
        <ele>1408</ele>
        <time>2018-06-22T16:29:39Z</time>
      </trkpt>
      <trkpt lat="42.96235" lon="-0.33051">
        <ele>1411</ele>
        <time>2018-06-22T16:30:39Z</time>
      </trkpt>
      <trkpt lat="42.96257" lon="-0.3304">
        <ele>1416</ele>
        <time>2018-06-22T16:31:39Z</time>
      </trkpt>
      <trkpt lat="42.96273" lon="-0.33034">
        <ele>1423</ele>
        <time>2018-06-22T16:32:39Z</time>
      </trkpt>
      <trkpt lat="42.96287" lon="-0.33034">
        <ele>1426</ele>
        <time>2018-06-22T16:34:39Z</time>
      </trkpt>
      <trkpt lat="42.96316" lon="-0.33047">
        <ele>1430</ele>
        <time>2018-06-22T16:39:39Z</time>
      </trkpt>
      <trkpt lat="42.9633" lon="-0.33067">
        <ele>1427</ele>
        <time>2018-06-22T16:43:39Z</time>
      </trkpt>
      <trkpt lat="42.96335" lon="-0.33081">
        <ele>1424</ele>
        <time>2018-06-22T16:45:39Z</time>
      </trkpt>
      <trkpt lat="42.96346" lon="-0.33108">
        <ele>1421</ele>
        <time>2018-06-22T16:49:39Z</time>
      </trkpt>
      <trkpt lat="42.96366" lon="-0.33122">
        <ele>1424</ele>
        <time>2018-06-22T16:54:39Z</time>
      </trkpt>
      <trkpt lat="42.9639" lon="-0.33132">
        <ele>1428</ele>
        <time>2018-06-22T16:56:39Z</time>
      </trkpt>
      <trkpt lat="42.96413" lon="-0.33143">
        <ele>1431</ele>
        <time>2018-06-22T16:58:39Z</time>
      </trkpt>
      <trkpt lat="42.96429" lon="-0.33151">
        <ele>1435</ele>
        <time>2018-06-22T17:01:39Z</time>
      </trkpt>
      <trkpt lat="42.96458" lon="-0.33183">
        <ele>1437</ele>
        <time>2018-06-22T17:09:39Z</time>
      </trkpt>
      <trkpt lat="42.9647" lon="-0.33192">
        <ele>1440</ele>
        <time>2018-06-22T17:11:39Z</time>
      </trkpt>
      <trkpt lat="42.96474" lon="-0.33197">
        <ele>1440</ele>
        <time>2018-06-22T17:12:39Z</time>
      </trkpt>
      <trkpt lat="42.96497" lon="-0.33241">
        <ele>1437</ele>
        <time>2018-06-22T17:19:39Z</time>
      </trkpt>
      <trkpt lat="42.96497" lon="-0.33251">
        <ele>1434</ele>
        <time>2018-06-22T17:21:39Z</time>
      </trkpt>
      <trkpt lat="42.96497" lon="-0.33258">
        <ele>1434</ele>
        <time>2018-06-22T17:22:39Z</time>
      </trkpt>
      <trkpt lat="42.96506" lon="-0.33295">
        <ele>1436</ele>
        <time>2018-06-22T17:28:39Z</time>
      </trkpt>
      <trkpt lat="42.96526" lon="-0.33398">
        <ele>1436</ele>
        <time>2018-06-22T17:38:39Z</time>
      </trkpt>
      <trkpt lat="42.96559" lon="-0.33447">
        <ele>1441</ele>
        <time>2018-06-22T17:46:39Z</time>
      </trkpt>
      <trkpt lat="42.96569" lon="-0.33447">
        <ele>1446</ele>
        <time>2018-06-22T17:48:39Z</time>
      </trkpt>
      <trkpt lat="42.96579" lon="-0.33444">
        <ele>1453</ele>
        <time>2018-06-22T17:49:39Z</time>
      </trkpt>
      <trkpt lat="42.96584" lon="-0.33442">
        <ele>1456</ele>
        <time>2018-06-22T17:50:39Z</time>
      </trkpt>
      <trkpt lat="42.96595" lon="-0.33439">
        <ele>1462</ele>
        <time>2018-06-22T17:51:39Z</time>
      </trkpt>
      <trkpt lat="42.96603" lon="-0.33437">
        <ele>1467</ele>
        <time>2018-06-22T17:52:39Z</time>
      </trkpt>
      <trkpt lat="42.96615" lon="-0.33439">
        <ele>1472</ele>
        <time>2018-06-22T17:54:39Z</time>
      </trkpt>
      <trkpt lat="42.96636" lon="-0.33474">
        <ele>1468</ele>
        <time>2018-06-22T18:01:39Z</time>
      </trkpt>
      <trkpt lat="42.96637" lon="-0.33485">
        <ele>1465</ele>
        <time>2018-06-22T18:02:39Z</time>
      </trkpt>
      <trkpt lat="42.96637" lon="-0.33494">
        <ele>1461</ele>
        <time>2018-06-22T18:03:39Z</time>
      </trkpt>
      <trkpt lat="42.96642" lon="-0.33518">
        <ele>1458</ele>
        <time>2018-06-22T18:05:39Z</time>
      </trkpt>
      <trkpt lat="42.96644" lon="-0.33523">
        <ele>1458</ele>
        <time>2018-06-22T18:06:39Z</time>
      </trkpt>
      <trkpt lat="42.96661" lon="-0.33539">
        <ele>1462</ele>
        <time>2018-06-22T18:09:39Z</time>
      </trkpt>
      <trkpt lat="42.96679" lon="-0.3355">
        <ele>1467</ele>
        <time>2018-06-22T18:10:39Z</time>
      </trkpt>
      <trkpt lat="42.96698" lon="-0.33556">
        <ele>1472</ele>
        <time>2018-06-22T18:12:39Z</time>
      </trkpt>
      <trkpt lat="42.96708" lon="-0.33557">
        <ele>1475</ele>
        <time>2018-06-22T18:13:39Z</time>
      </trkpt>
      <trkpt lat="42.96719" lon="-0.33556">
        <ele>1478</ele>
        <time>2018-06-22T18:14:39Z</time>
      </trkpt>
      <trkpt lat="42.96733" lon="-0.33562">
        <ele>1481</ele>
        <time>2018-06-22T18:16:39Z</time>
      </trkpt>
      <trkpt lat="42.96741" lon="-0.33567">
        <ele>1481</ele>
        <time>2018-06-22T18:17:39Z</time>
      </trkpt>
      <trkpt lat="42.96784" lon="-0.3359">
        <ele>1484</ele>
        <time>2018-06-22T18:22:39Z</time>
      </trkpt>
      <trkpt lat="42.9679" lon="-0.33594">
        <ele>1484</ele>
        <time>2018-06-22T18:23:39Z</time>
      </trkpt>
      <trkpt lat="42.96803" lon="-0.33618">
        <ele>1480</ele>
        <time>2018-06-22T18:27:39Z</time>
      </trkpt>
      <trkpt lat="42.96837" lon="-0.33651">
        <ele>1478</ele>
        <time>2018-06-22T18:33:39Z</time>
      </trkpt>
      <trkpt lat="42.96846" lon="-0.33654">
        <ele>1482</ele>
        <time>2018-06-22T18:34:39Z</time>
      </trkpt>
      <trkpt lat="42.96857" lon="-0.33654">
        <ele>1488</ele>
        <time>2018-06-22T18:35:39Z</time>
      </trkpt>
      <trkpt lat="42.96866" lon="-0.33656">
        <ele>1491</ele>
        <time>2018-06-22T18:37:39Z</time>
      </trkpt>
      <trkpt lat="42.96871" lon="-0.33657">
        <ele>1494</ele>
        <time>2018-06-22T18:38:39Z</time>
      </trkpt>
      <trkpt lat="42.9688" lon="-0.33661">
        <ele>1497</ele>
        <time>2018-06-22T18:40:39Z</time>
      </trkpt>
      <trkpt lat="42.96882" lon="-0.33663">
        <ele>1497</ele>
        <time>2018-06-22T18:41:39Z</time>
      </trkpt>
      <trkpt lat="42.96884" lon="-0.33716">
        <ele>1493</ele>
        <time>2018-06-22T18:56:39Z</time>
      </trkpt>
      <trkpt lat="42.96892" lon="-0.33737">
        <ele>1496</ele>
        <time>2018-06-22T19:00:39Z</time>
      </trkpt>
      <trkpt lat="42.96888" lon="-0.33824">
        <ele>1498</ele>
        <time>2018-06-22T19:10:39Z</time>
      </trkpt>
      <trkpt lat="42.96893" lon="-0.33848">
        <ele>1502</ele>
        <time>2018-06-22T19:11:39Z</time>
      </trkpt>
      <trkpt lat="42.969" lon="-0.33877">
        <ele>1505</ele>
        <time>2018-06-22T19:13:39Z</time>
      </trkpt>
      <trkpt lat="42.96901" lon="-0.33887">
        <ele>1505</ele>
        <time>2018-06-22T19:14:39Z</time>
      </trkpt>
      <trkpt lat="42.96917" lon="-0.33972">
        <ele>1508</ele>
        <time>2018-06-22T19:23:39Z</time>
      </trkpt>
      <trkpt lat="42.96926" lon="-0.3401">
        <ele>1512</ele>
        <time>2018-06-22T19:25:39Z</time>
      </trkpt>
      <trkpt lat="42.96931" lon="-0.34029">
        <ele>1515</ele>
        <time>2018-06-22T19:27:39Z</time>
      </trkpt>
      <trkpt lat="42.96935" lon="-0.34038">
        <ele>1518</ele>
        <time>2018-06-22T19:28:39Z</time>
      </trkpt>
      <trkpt lat="42.96939" lon="-0.34044">
        <ele>1521</ele>
        <time>2018-06-22T19:29:39Z</time>
      </trkpt>
      <trkpt lat="42.96944" lon="-0.34052">
        <ele>1524</ele>
        <time>2018-06-22T19:31:39Z</time>
      </trkpt>
      <trkpt lat="42.96939" lon="-0.34094">
        <ele>1520</ele>
        <time>2018-06-22T19:40:39Z</time>
      </trkpt>
      <trkpt lat="42.96933" lon="-0.34106">
        <ele>1515</ele>
        <time>2018-06-22T19:41:39Z</time>
      </trkpt>
      <trkpt lat="42.96928" lon="-0.34122">
        <ele>1512</ele>
        <time>2018-06-22T19:43:39Z</time>
      </trkpt>
      <trkpt lat="42.96932" lon="-0.34146">
        <ele>1515</ele>
        <time>2018-06-22T19:47:39Z</time>
      </trkpt>
      <trkpt lat="42.96936" lon="-0.34155">
        <ele>1518</ele>
        <time>2018-06-22T19:48:39Z</time>
      </trkpt>
      <trkpt lat="42.96943" lon="-0.34167">
        <ele>1523</ele>
        <time>2018-06-22T19:49:39Z</time>
      </trkpt>
      <trkpt lat="42.96952" lon="-0.34183">
        <ele>1527</ele>
        <time>2018-06-22T19:50:39Z</time>
      </trkpt>
      <trkpt lat="42.9696" lon="-0.342">
        <ele>1530</ele>
        <time>2018-06-22T19:51:39Z</time>
      </trkpt>
      <trkpt lat="42.96971" lon="-0.34224">
        <ele>1535</ele>
        <time>2018-06-22T19:53:39Z</time>
      </trkpt>
      <trkpt lat="42.96981" lon="-0.34253">
        <ele>1538</ele>
        <time>2018-06-22T19:54:39Z</time>
      </trkpt>
      <trkpt lat="42.96986" lon="-0.34264">
        <ele>1541</ele>
        <time>2018-06-22T19:55:39Z</time>
      </trkpt>
      <trkpt lat="42.96989" lon="-0.34305">
        <ele>1539</ele>
        <time>2018-06-22T20:01:39Z</time>
      </trkpt>
      <trkpt lat="42.96986" lon="-0.34327">
        <ele>1535</ele>
        <time>2018-06-22T20:02:39Z</time>
      </trkpt>
      <trkpt lat="42.96985" lon="-0.34344">
        <ele>1531</ele>
        <time>2018-06-22T20:03:39Z</time>
      </trkpt>
      <trkpt lat="42.96985" lon="-0.34355">
        <ele>1528</ele>
        <time>2018-06-22T20:04:39Z</time>
      </trkpt>
      <trkpt lat="42.96998" lon="-0.3438">
        <ele>1531</ele>
        <time>2018-06-22T20:09:39Z</time>
      </trkpt>
      <trkpt lat="42.97016" lon="-0.34395">
        <ele>1538</ele>
        <time>2018-06-22T20:11:39Z</time>
      </trkpt>
      <trkpt lat="42.97024" lon="-0.34402">
        <ele>1542</ele>
        <time>2018-06-22T20:12:39Z</time>
      </trkpt>
      <trkpt lat="42.97047" lon="-0.34445">
        <ele>1546</ele>
        <time>2018-06-22T20:15:39Z</time>
      </trkpt>
      <trkpt lat="42.97065" lon="-0.3448">
        <ele>1549</ele>
        <time>2018-06-22T20:17:39Z</time>
      </trkpt>
      <trkpt lat="42.9707" lon="-0.34492">
        <ele>1549</ele>
        <time>2018-06-22T20:18:39Z</time>
      </trkpt>
      <trkpt lat="42.9709" lon="-0.34536">
        <ele>1552</ele>
        <time>2018-06-22T20:25:39Z</time>
      </trkpt>
      <trkpt lat="42.97106" lon="-0.34549">
        <ele>1557</ele>
        <time>2018-06-22T20:27:39Z</time>
      </trkpt>
      <trkpt lat="42.9713" lon="-0.34564">
        <ele>1565</ele>
        <time>2018-06-22T20:29:39Z</time>
      </trkpt>
      <trkpt lat="42.97139" lon="-0.34569">
        <ele>1568</ele>
        <time>2018-06-22T20:31:39Z</time>
      </trkpt>
      <trkpt lat="42.97141" lon="-0.34572">
        <ele>1568</ele>
        <time>2018-06-22T20:32:39Z</time>
      </trkpt>
      <trkpt lat="42.97155" lon="-0.34614">
        <ele>1563</ele>
        <time>2018-06-22T20:38:39Z</time>
      </trkpt>
      <trkpt lat="42.97159" lon="-0.34635">
        <ele>1559</ele>
        <time>2018-06-22T20:40:39Z</time>
      </trkpt>
      <trkpt lat="42.97159" lon="-0.34649">
        <ele>1555</ele>
        <time>2018-06-22T20:41:39Z</time>
      </trkpt>
      <trkpt lat="42.9716" lon="-0.34663">
        <ele>1552</ele>
        <time>2018-06-22T20:42:39Z</time>
      </trkpt>
      <trkpt lat="42.97167" lon="-0.34681">
        <ele>1552</ele>
        <time>2018-06-22T20:46:39Z</time>
      </trkpt>
      <trkpt lat="42.97183" lon="-0.34672">
        <ele>1555</ele>
        <time>2018-06-22T20:52:39Z</time>
      </trkpt>
      <trkpt lat="42.97184" lon="-0.34652">
        <ele>1560</ele>
        <time>2018-06-22T20:53:39Z</time>
      </trkpt>
      <trkpt lat="42.97184" lon="-0.34638">
        <ele>1563</ele>
        <time>2018-06-22T20:54:39Z</time>
      </trkpt>
      <trkpt lat="42.97184" lon="-0.34611">
        <ele>1570</ele>
        <time>2018-06-22T20:55:39Z</time>
      </trkpt>
      <trkpt lat="42.97186" lon="-0.34602">
        <ele>1573</ele>
        <time>2018-06-22T20:56:39Z</time>
      </trkpt>
      <trkpt lat="42.9719" lon="-0.34589">
        <ele>1577</ele>
        <time>2018-06-22T20:58:39Z</time>
      </trkpt>
      <trkpt lat="42.972" lon="-0.3458">
        <ele>1580</ele>
        <time>2018-06-22T21:01:39Z</time>
      </trkpt>
      <trkpt lat="42.97205" lon="-0.3458">
        <ele>1580</ele>
        <time>2018-06-22T21:02:39Z</time>
      </trkpt>
      <trkpt lat="42.97247" lon="-0.3458">
        <ele>1584</ele>
        <time>2018-06-22T21:10:39Z</time>
      </trkpt>
      <trkpt lat="42.97265" lon="-0.34618">
        <ele>1578</ele>
        <time>2018-06-22T21:20:39Z</time>
      </trkpt>
      <trkpt lat="42.97314" lon="-0.3465">
        <ele>1583</ele>
        <time>2018-06-22T21:30:39Z</time>
      </trkpt>
      <trkpt lat="42.97332" lon="-0.34652">
        <ele>1587</ele>
        <time>2018-06-22T21:32:39Z</time>
      </trkpt>
      <trkpt lat="42.97339" lon="-0.34652">
        <ele>1587</ele>
        <time>2018-06-22T21:33:39Z</time>
      </trkpt>
      <trkpt lat="42.97364" lon="-0.34636">
        <ele>1590</ele>
        <time>2018-06-22T21:38:39Z</time>
      </trkpt>
      <trkpt lat="42.97368" lon="-0.34619">
        <ele>1593</ele>
        <time>2018-06-22T21:41:39Z</time>
      </trkpt>
      <trkpt lat="42.97365" lon="-0.34599">
        <ele>1597</ele>
        <time>2018-06-22T21:43:39Z</time>
      </trkpt>
      <trkpt lat="42.97364" lon="-0.34587">
        <ele>1600</ele>
        <time>2018-06-22T21:44:39Z</time>
      </trkpt>
      <trkpt lat="42.97363" lon="-0.3456">
        <ele>1603</ele>
        <time>2018-06-22T21:46:39Z</time>
      </trkpt>
      <trkpt lat="42.9738" lon="-0.34531">
        <ele>1607</ele>
        <time>2018-06-22T21:51:39Z</time>
      </trkpt>
      <trkpt lat="42.97419" lon="-0.34486">
        <ele>1612</ele>
        <time>2018-06-22T22:01:39Z</time>
      </trkpt>
      <trkpt lat="42.97425" lon="-0.34465">
        <ele>1615</ele>
        <time>2018-06-22T22:04:39Z</time>
      </trkpt>
      <trkpt lat="42.97439" lon="-0.34447">
        <ele>1618</ele>
        <time>2018-06-22T22:07:39Z</time>
      </trkpt>
      <trkpt lat="42.97474" lon="-0.34445">
        <ele>1621</ele>
        <time>2018-06-22T22:14:39Z</time>
      </trkpt>
      <trkpt lat="42.9752" lon="-0.34485">
        <ele>1623</ele>
        <time>2018-06-22T22:23:39Z</time>
      </trkpt>
      <trkpt lat="42.97541" lon="-0.34522">
        <ele>1623</ele>
        <time>2018-06-22T22:29:39Z</time>
      </trkpt>
      <trkpt lat="42.97582" lon="-0.34522">
        <ele>1628</ele>
        <time>2018-06-22T22:36:39Z</time>
      </trkpt>
      <trkpt lat="42.97589" lon="-0.34513">
        <ele>1631</ele>
        <time>2018-06-22T22:37:39Z</time>
      </trkpt>
      <trkpt lat="42.97598" lon="-0.34496">
        <ele>1635</ele>
        <time>2018-06-22T22:39:39Z</time>
      </trkpt>
      <trkpt lat="42.97611" lon="-0.34482">
        <ele>1638</ele>
        <time>2018-06-22T22:44:39Z</time>
      </trkpt>
      <trkpt lat="42.97659" lon="-0.34521">
        <ele>1637</ele>
        <time>2018-06-22T22:54:39Z</time>
      </trkpt>
      <trkpt lat="42.97716" lon="-0.3452">
        <ele>1638</ele>
        <time>2018-06-22T23:01:39Z</time>
      </trkpt>
      <trkpt lat="42.97733" lon="-0.34494">
        <ele>1644</ele>
        <time>2018-06-22T23:03:39Z</time>
      </trkpt>
      <trkpt lat="42.97739" lon="-0.34477">
        <ele>1648</ele>
        <time>2018-06-22T23:04:39Z</time>
      </trkpt>
      <trkpt lat="42.97746" lon="-0.34464">
        <ele>1651</ele>
        <time>2018-06-22T23:05:39Z</time>
      </trkpt>
      <trkpt lat="42.9778" lon="-0.34413">
        <ele>1655</ele>
        <time>2018-06-22T23:08:39Z</time>
      </trkpt>
      <trkpt lat="42.97798" lon="-0.34372">
        <ele>1659</ele>
        <time>2018-06-22T23:10:39Z</time>
      </trkpt>
      <trkpt lat="42.9781" lon="-0.34339">
        <ele>1664</ele>
        <time>2018-06-22T23:12:39Z</time>
      </trkpt>
      <trkpt lat="42.97815" lon="-0.34317">
        <ele>1669</ele>
        <time>2018-06-22T23:14:39Z</time>
      </trkpt>
      <trkpt lat="42.97822" lon="-0.34305">
        <ele>1672</ele>
        <time>2018-06-22T23:16:39Z</time>
      </trkpt>
      <trkpt lat="42.97826" lon="-0.34303">
        <ele>1672</ele>
        <time>2018-06-22T23:17:39Z</time>
      </trkpt>
      <trkpt lat="42.97871" lon="-0.34305">
        <ele>1669</ele>
        <time>2018-06-22T23:23:39Z</time>
      </trkpt>
      <trkpt lat="42.97895" lon="-0.34297">
        <ele>1671</ele>
        <time>2018-06-22T23:30:39Z</time>
      </trkpt>
      <trkpt lat="42.97896" lon="-0.34285">
        <ele>1674</ele>
        <time>2018-06-22T23:32:39Z</time>
      </trkpt>
      <trkpt lat="42.97872" lon="-0.34276">
        <ele>1678</ele>
        <time>2018-06-22T23:40:39Z</time>
      </trkpt>
      <trkpt lat="42.97824" lon="-0.34278">
        <ele>1681</ele>
        <time>2018-06-22T23:45:39Z</time>
      </trkpt>
      <trkpt lat="42.97769" lon="-0.34318">
        <ele>1677</ele>
        <time>2018-06-22T23:52:39Z</time>
      </trkpt>
      <trkpt lat="42.97711" lon="-0.34301">
        <ele>1681</ele>
        <time>2018-06-22T23:59:39Z</time>
      </trkpt>
      <trkpt lat="42.97706" lon="-0.34281">
        <ele>1685</ele>
        <time>2018-06-23T00:00:39Z</time>
      </trkpt>
      <trkpt lat="42.97703" lon="-0.34261">
        <ele>1688</ele>
        <time>2018-06-23T00:01:39Z</time>
      </trkpt>
      <trkpt lat="42.97697" lon="-0.34231">
        <ele>1693</ele>
        <time>2018-06-23T00:02:39Z</time>
      </trkpt>
      <trkpt lat="42.97656" lon="-0.34163">
        <ele>1695</ele>
        <time>2018-06-23T00:09:39Z</time>
      </trkpt>
      <trkpt lat="42.97628" lon="-0.3409">
        <ele>1700</ele>
        <time>2018-06-23T00:14:39Z</time>
      </trkpt>
      <trkpt lat="42.97625" lon="-0.34048">
        <ele>1703</ele>
        <time>2018-06-23T00:16:39Z</time>
      </trkpt>
      <trkpt lat="42.97632" lon="-0.3402">
        <ele>1707</ele>
        <time>2018-06-23T00:18:39Z</time>
      </trkpt>
      <trkpt lat="42.97663" lon="-0.33957">
        <ele>1707</ele>
        <time>2018-06-23T00:25:39Z</time>
      </trkpt>
      <trkpt lat="42.97646" lon="-0.33915">
        <ele>1706</ele>
        <time>2018-06-23T00:30:39Z</time>
      </trkpt>
      <trkpt lat="42.97635" lon="-0.33884">
        <ele>1703</ele>
        <time>2018-06-23T00:32:39Z</time>
      </trkpt>
      <trkpt lat="42.97631" lon="-0.33861">
        <ele>1700</ele>
        <time>2018-06-23T00:34:39Z</time>
      </trkpt>
      <trkpt lat="42.97624" lon="-0.3383">
        <ele>1697</ele>
        <time>2018-06-23T00:36:39Z</time>
      </trkpt>
      <trkpt lat="42.97603" lon="-0.33789">
        <ele>1693</ele>
        <time>2018-06-23T00:42:39Z</time>
      </trkpt>
      <trkpt lat="42.97548" lon="-0.33747">
        <ele>1694</ele>
        <time>2018-06-23T00:44:39Z</time>
      </trkpt>
      <trkpt lat="42.97518" lon="-0.33703">
        <ele>1690</ele>
        <time>2018-06-23T00:48:39Z</time>
      </trkpt>
      <trkpt lat="42.97514" lon="-0.33686">
        <ele>1687</ele>
        <time>2018-06-23T00:50:39Z</time>
      </trkpt>
      <trkpt lat="42.97513" lon="-0.33671">
        <ele>1683</ele>
        <time>2018-06-23T00:51:39Z</time>
      </trkpt>
      <trkpt lat="42.97514" lon="-0.33632">
        <ele>1679</ele>
        <time>2018-06-23T00:53:39Z</time>
      </trkpt>
      <trkpt lat="42.97505" lon="-0.33553">
        <ele>1673</ele>
        <time>2018-06-23T00:55:39Z</time>
      </trkpt>
      <trkpt lat="42.975" lon="-0.3352">
        <ele>1669</ele>
        <time>2018-06-23T00:56:39Z</time>
      </trkpt>
      <trkpt lat="42.97492" lon="-0.33483">
        <ele>1666</ele>
        <time>2018-06-23T00:58:39Z</time>
      </trkpt>
      <trkpt lat="42.97488" lon="-0.33471">
        <ele>1666</ele>
        <time>2018-06-23T00:59:39Z</time>
      </trkpt>
      <trkpt lat="42.97444" lon="-0.33408">
        <ele>1668</ele>
        <time>2018-06-23T01:04:39Z</time>
      </trkpt>
      <trkpt lat="42.97429" lon="-0.33371">
        <ele>1665</ele>
        <time>2018-06-23T01:07:39Z</time>
      </trkpt>
      <trkpt lat="42.97414" lon="-0.33322">
        <ele>1660</ele>
        <time>2018-06-23T01:09:39Z</time>
      </trkpt>
      <trkpt lat="42.97402" lon="-0.33289">
        <ele>1656</ele>
        <time>2018-06-23T01:11:39Z</time>
      </trkpt>
      <trkpt lat="42.97373" lon="-0.33242">
        <ele>1652</ele>
        <time>2018-06-23T01:14:39Z</time>
      </trkpt>
      <trkpt lat="42.97343" lon="-0.33213">
        <ele>1648</ele>
        <time>2018-06-23T01:16:39Z</time>
      </trkpt>
      <trkpt lat="42.97312" lon="-0.33196">
        <ele>1644</ele>
        <time>2018-06-23T01:18:39Z</time>
      </trkpt>
      <trkpt lat="42.97241" lon="-0.33201">
        <ele>1647</ele>
        <time>2018-06-23T01:23:39Z</time>
      </trkpt>
      <trkpt lat="42.9723" lon="-0.33203">
        <ele>1650</ele>
        <time>2018-06-23T01:25:39Z</time>
      </trkpt>
      <trkpt lat="42.97227" lon="-0.33202">
        <ele>1650</ele>
        <time>2018-06-23T01:26:39Z</time>
      </trkpt>
      <trkpt lat="42.97214" lon="-0.33169">
        <ele>1645</ele>
        <time>2018-06-23T01:32:39Z</time>
      </trkpt>
      <trkpt lat="42.97217" lon="-0.33148">
        <ele>1640</ele>
        <time>2018-06-23T01:34:39Z</time>
      </trkpt>
      <trkpt lat="42.9722" lon="-0.33136">
        <ele>1637</ele>
        <time>2018-06-23T01:35:39Z</time>
      </trkpt>
      <trkpt lat="42.97223" lon="-0.33113">
        <ele>1632</ele>
        <time>2018-06-23T01:37:39Z</time>
      </trkpt>
      <trkpt lat="42.97187" lon="-0.33034">
        <ele>1628</ele>
        <time>2018-06-23T01:43:39Z</time>
      </trkpt>
      <trkpt lat="42.97179" lon="-0.33021">
        <ele>1628</ele>
        <time>2018-06-23T01:44:39Z</time>
      </trkpt>
      <trkpt lat="42.97162" lon="-0.32966">
        <ele>1625</ele>
        <time>2018-06-23T01:50:39Z</time>
      </trkpt>
      <trkpt lat="42.97151" lon="-0.32908">
        <ele>1622</ele>
        <time>2018-06-23T01:53:39Z</time>
      </trkpt>
      <trkpt lat="42.97147" lon="-0.32862">
        <ele>1619</ele>
        <time>2018-06-23T01:56:39Z</time>
      </trkpt>
      <trkpt lat="42.97148" lon="-0.32854">
        <ele>1619</ele>
        <time>2018-06-23T01:57:39Z</time>
      </trkpt>
      <trkpt lat="42.97154" lon="-0.32835">
        <ele>1616</ele>
        <time>2018-06-23T01:59:39Z</time>
      </trkpt>
      <trkpt lat="42.97137" lon="-0.32792">
        <ele>1614</ele>
        <time>2018-06-23T02:08:39Z</time>
      </trkpt>
      <trkpt lat="42.97133" lon="-0.32689">
        <ele>1613</ele>
        <time>2018-06-23T02:22:39Z</time>
      </trkpt>
      <trkpt lat="42.97171" lon="-0.32626">
        <ele>1610</ele>
        <time>2018-06-23T02:27:39Z</time>
      </trkpt>
      <trkpt lat="42.97188" lon="-0.32606">
        <ele>1607</ele>
        <time>2018-06-23T02:29:39Z</time>
      </trkpt>
      <trkpt lat="42.97219" lon="-0.32578">
        <ele>1602</ele>
        <time>2018-06-23T02:32:39Z</time>
      </trkpt>
      <trkpt lat="42.97234" lon="-0.32564">
        <ele>1598</ele>
        <time>2018-06-23T02:34:39Z</time>
      </trkpt>
      <trkpt lat="42.97243" lon="-0.32546">
        <ele>1594</ele>
        <time>2018-06-23T02:37:39Z</time>
      </trkpt>
      <trkpt lat="42.97248" lon="-0.32525">
        <ele>1591</ele>
        <time>2018-06-23T02:40:39Z</time>
      </trkpt>
      <trkpt lat="42.97246" lon="-0.32495">
        <ele>1587</ele>
        <time>2018-06-23T02:45:39Z</time>
      </trkpt>
      <trkpt lat="42.97244" lon="-0.32484">
        <ele>1584</ele>
        <time>2018-06-23T02:47:39Z</time>
      </trkpt>
      <trkpt lat="42.97236" lon="-0.32469">
        <ele>1581</ele>
        <time>2018-06-23T02:50:39Z</time>
      </trkpt>
      <trkpt lat="42.97201" lon="-0.32457">
        <ele>1580</ele>
        <time>2018-06-23T02:59:39Z</time>
      </trkpt>
      <trkpt lat="42.97158" lon="-0.32451">
        <ele>1583</ele>
        <time>2018-06-23T03:09:39Z</time>
      </trkpt>
      <trkpt lat="42.97145" lon="-0.32453">
        <ele>1586</ele>
        <time>2018-06-23T03:10:39Z</time>
      </trkpt>
      <trkpt lat="42.971" lon="-0.32426">
        <ele>1591</ele>
        <time>2018-06-23T03:16:39Z</time>
      </trkpt>
      <trkpt lat="42.9709" lon="-0.32394">
        <ele>1594</ele>
        <time>2018-06-23T03:23:39Z</time>
      </trkpt>
      <trkpt lat="42.97111" lon="-0.32374">
        <ele>1586</ele>
        <time>2018-06-23T03:26:39Z</time>
      </trkpt>
      <trkpt lat="42.97124" lon="-0.32367">
        <ele>1580</ele>
        <time>2018-06-23T03:27:39Z</time>
      </trkpt>
      <trkpt lat="42.97131" lon="-0.32361">
        <ele>1576</ele>
        <time>2018-06-23T03:28:39Z</time>
      </trkpt>
      <trkpt lat="42.97136" lon="-0.32355">
        <ele>1573</ele>
        <time>2018-06-23T03:29:39Z</time>
      </trkpt>
      <trkpt lat="42.97142" lon="-0.3234">
        <ele>1568</ele>
        <time>2018-06-23T03:31:39Z</time>
      </trkpt>
      <trkpt lat="42.97139" lon="-0.32282">
        <ele>1574</ele>
        <time>2018-06-23T03:37:39Z</time>
      </trkpt>
      <trkpt lat="42.97136" lon="-0.32271">
        <ele>1577</ele>
        <time>2018-06-23T03:39:39Z</time>
      </trkpt>
      <trkpt lat="42.97137" lon="-0.32265">
        <ele>1577</ele>
        <time>2018-06-23T03:40:39Z</time>
      </trkpt>
      <trkpt lat="42.97157" lon="-0.32221">
        <ele>1572</ele>
        <time>2018-06-23T03:46:39Z</time>
      </trkpt>
      <trkpt lat="42.97169" lon="-0.32213">
        <ele>1566</ele>
        <time>2018-06-23T03:47:39Z</time>
      </trkpt>
      <trkpt lat="42.97175" lon="-0.3221">
        <ele>1563</ele>
        <time>2018-06-23T03:48:39Z</time>
      </trkpt>
      <trkpt lat="42.97187" lon="-0.32196">
        <ele>1559</ele>
        <time>2018-06-23T03:51:39Z</time>
      </trkpt>
      <trkpt lat="42.97191" lon="-0.32185">
        <ele>1559</ele>
        <time>2018-06-23T03:52:39Z</time>
      </trkpt>
      <trkpt lat="42.97206" lon="-0.32152">
        <ele>1555</ele>
        <time>2018-06-23T03:55:39Z</time>
      </trkpt>
      <trkpt lat="42.97218" lon="-0.32129">
        <ele>1550</ele>
        <time>2018-06-23T03:56:39Z</time>
      </trkpt>
      <trkpt lat="42.97225" lon="-0.32108">
        <ele>1547</ele>
        <time>2018-06-23T03:58:39Z</time>
      </trkpt>
      <trkpt lat="42.97228" lon="-0.32092">
        <ele>1547</ele>
        <time>2018-06-23T03:59:39Z</time>
      </trkpt>
      <trkpt lat="42.97227" lon="-0.3203">
        <ele>1549</ele>
        <time>2018-06-23T04:04:39Z</time>
      </trkpt>
      <trkpt lat="42.97232" lon="-0.31995">
        <ele>1546</ele>
        <time>2018-06-23T04:05:39Z</time>
      </trkpt>
      <trkpt lat="42.97251" lon="-0.31853">
        <ele>1546</ele>
        <time>2018-06-23T04:11:39Z</time>
      </trkpt>
      <trkpt lat="42.97255" lon="-0.31821">
        <ele>1552</ele>
        <time>2018-06-23T04:13:39Z</time>
      </trkpt>
      <trkpt lat="42.97262" lon="-0.31809">
        <ele>1555</ele>
        <time>2018-06-23T04:16:39Z</time>
      </trkpt>
      <trkpt lat="42.97266" lon="-0.31806">
        <ele>1555</ele>
        <time>2018-06-23T04:17:39Z</time>
      </trkpt>
      <trkpt lat="42.97302" lon="-0.31799">
        <ele>1552</ele>
        <time>2018-06-23T04:22:39Z</time>
      </trkpt>
      <trkpt lat="42.97328" lon="-0.318">
        <ele>1547</ele>
        <time>2018-06-23T04:23:39Z</time>
      </trkpt>
      <trkpt lat="42.97348" lon="-0.31804">
        <ele>1540</ele>
        <time>2018-06-23T04:24:39Z</time>
      </trkpt>
      <trkpt lat="42.97358" lon="-0.31807">
        <ele>1536</ele>
        <time>2018-06-23T04:25:39Z</time>
      </trkpt>
      <trkpt lat="42.97362" lon="-0.3181">
        <ele>1533</ele>
        <time>2018-06-23T04:26:39Z</time>
      </trkpt>
      <trkpt lat="42.97372" lon="-0.31813">
        <ele>1529</ele>
        <time>2018-06-23T04:27:39Z</time>
      </trkpt>
      <trkpt lat="42.97383" lon="-0.31815">
        <ele>1526</ele>
        <time>2018-06-23T04:28:39Z</time>
      </trkpt>
      <trkpt lat="42.97408" lon="-0.31821">
        <ele>1517</ele>
        <time>2018-06-23T04:30:39Z</time>
      </trkpt>
      <trkpt lat="42.97417" lon="-0.31824">
        <ele>1513</ele>
        <time>2018-06-23T04:31:39Z</time>
      </trkpt>
      <trkpt lat="42.97433" lon="-0.31829">
        <ele>1506</ele>
        <time>2018-06-23T04:32:39Z</time>
      </trkpt>
      <trkpt lat="42.97451" lon="-0.31823">
        <ele>1507</ele>
        <time>2018-06-23T04:37:39Z</time>
      </trkpt>
      <trkpt lat="42.97458" lon="-0.31814">
        <ele>1511</ele>
        <time>2018-06-23T04:38:39Z</time>
      </trkpt>
      <trkpt lat="42.97466" lon="-0.31808">
        <ele>1514</ele>
        <time>2018-06-23T04:39:39Z</time>
      </trkpt>
      <trkpt lat="42.97477" lon="-0.31799">
        <ele>1517</ele>
        <time>2018-06-23T04:40:39Z</time>
      </trkpt>
      <trkpt lat="42.97494" lon="-0.31793">
        <ele>1516</ele>
        <time>2018-06-23T04:41:39Z</time>
      </trkpt>
      <trkpt lat="42.97558" lon="-0.31726">
        <ele>1511</ele>
        <time>2018-06-23T04:49:39Z</time>
      </trkpt>
      <trkpt lat="42.97564" lon="-0.31707">
        <ele>1508</ele>
        <time>2018-06-23T04:51:39Z</time>
      </trkpt>
      <trkpt lat="42.97572" lon="-0.31649">
        <ele>1504</ele>
        <time>2018-06-23T04:57:39Z</time>
      </trkpt>
      <trkpt lat="42.97567" lon="-0.31573">
        <ele>1505</ele>
        <time>2018-06-23T05:01:39Z</time>
      </trkpt>
      <trkpt lat="42.97565" lon="-0.31494">
        <ele>1502</ele>
        <time>2018-06-23T05:06:39Z</time>
      </trkpt>
      <trkpt lat="42.97561" lon="-0.31478">
        <ele>1505</ele>
        <time>2018-06-23T05:09:39Z</time>
      </trkpt>
      <trkpt lat="42.97557" lon="-0.31468">
        <ele>1508</ele>
        <time>2018-06-23T05:11:39Z</time>
      </trkpt>
      <trkpt lat="42.97557" lon="-0.31465">
        <ele>1508</ele>
        <time>2018-06-23T05:12:39Z</time>
      </trkpt>
      <trkpt lat="42.9756" lon="-0.31449">
        <ele>1505</ele>
        <time>2018-06-23T05:16:39Z</time>
      </trkpt>
      <trkpt lat="42.97563" lon="-0.31442">
        <ele>1501</ele>
        <time>2018-06-23T05:17:39Z</time>
      </trkpt>
      <trkpt lat="42.97568" lon="-0.31432">
        <ele>1496</ele>
        <time>2018-06-23T05:18:39Z</time>
      </trkpt>
      <trkpt lat="42.97572" lon="-0.31408">
        <ele>1492</ele>
        <time>2018-06-23T05:21:39Z</time>
      </trkpt>
      <trkpt lat="42.97575" lon="-0.31354">
        <ele>1490</ele>
        <time>2018-06-23T05:27:39Z</time>
      </trkpt>
      <trkpt lat="42.97569" lon="-0.3133">
        <ele>1494</ele>
        <time>2018-06-23T05:30:39Z</time>
      </trkpt>
      <trkpt lat="42.97564" lon="-0.31315">
        <ele>1498</ele>
        <time>2018-06-23T05:31:39Z</time>
      </trkpt>
      <trkpt lat="42.97568" lon="-0.31268">
        <ele>1495</ele>
        <time>2018-06-23T05:37:39Z</time>
      </trkpt>
      <trkpt lat="42.97581" lon="-0.31241">
        <ele>1488</ele>
        <time>2018-06-23T05:39:39Z</time>
      </trkpt>
      <trkpt lat="42.97587" lon="-0.31225">
        <ele>1485</ele>
        <time>2018-06-23T05:40:39Z</time>
      </trkpt>
      <trkpt lat="42.97595" lon="-0.31189">
        <ele>1481</ele>
        <time>2018-06-23T05:42:39Z</time>
      </trkpt>
      <trkpt lat="42.97603" lon="-0.31151">
        <ele>1478</ele>
        <time>2018-06-23T05:44:39Z</time>
      </trkpt>
      <trkpt lat="42.9761" lon="-0.31129">
        <ele>1474</ele>
        <time>2018-06-23T05:46:39Z</time>
      </trkpt>
      <trkpt lat="42.97611" lon="-0.31122">
        <ele>1474</ele>
        <time>2018-06-23T05:47:39Z</time>
      </trkpt>
      <trkpt lat="42.97616" lon="-0.31093">
        <ele>1471</ele>
        <time>2018-06-23T05:49:39Z</time>
      </trkpt>
      <trkpt lat="42.97619" lon="-0.31066">
        <ele>1466</ele>
        <time>2018-06-23T05:50:39Z</time>
      </trkpt>
      <trkpt lat="42.97618" lon="-0.31048">
        <ele>1463</ele>
        <time>2018-06-23T05:52:39Z</time>
      </trkpt>
      <trkpt lat="42.97617" lon="-0.31041">
        <ele>1463</ele>
        <time>2018-06-23T05:53:39Z</time>
      </trkpt>
      <trkpt lat="42.97598" lon="-0.31018">
        <ele>1468</ele>
        <time>2018-06-23T05:55:39Z</time>
      </trkpt>
      <trkpt lat="42.97586" lon="-0.31008">
        <ele>1471</ele>
        <time>2018-06-23T05:57:39Z</time>
      </trkpt>
      <trkpt lat="42.97532" lon="-0.30921">
        <ele>1463</ele>
        <time>2018-06-23T06:02:39Z</time>
      </trkpt>
      <trkpt lat="42.97516" lon="-0.309">
        <ele>1463</ele>
        <time>2018-06-23T06:03:39Z</time>
      </trkpt>
      <trkpt lat="42.97487" lon="-0.30872">
        <ele>1467</ele>
        <time>2018-06-23T06:05:39Z</time>
      </trkpt>
      <trkpt lat="42.97482" lon="-0.30865">
        <ele>1467</ele>
        <time>2018-06-23T06:06:39Z</time>
      </trkpt>
      <trkpt lat="42.97465" lon="-0.30835">
        <ele>1463</ele>
        <time>2018-06-23T06:08:39Z</time>
      </trkpt>
      <trkpt lat="42.97457" lon="-0.30819">
        <ele>1464</ele>
        <time>2018-06-23T06:09:39Z</time>
      </trkpt>
      <trkpt lat="42.9745" lon="-0.30776">
        <ele>1460</ele>
        <time>2018-06-23T06:15:39Z</time>
      </trkpt>
      <trkpt lat="42.97457" lon="-0.30762">
        <ele>1455</ele>
        <time>2018-06-23T06:16:39Z</time>
      </trkpt>
      <trkpt lat="42.97462" lon="-0.3075">
        <ele>1451</ele>
        <time>2018-06-23T06:17:39Z</time>
      </trkpt>
      <trkpt lat="42.97477" lon="-0.30652">
        <ele>1447</ele>
        <time>2018-06-23T06:22:39Z</time>
      </trkpt>
      <trkpt lat="42.97477" lon="-0.30568">
        <ele>1442</ele>
        <time>2018-06-23T06:27:39Z</time>
      </trkpt>
      <trkpt lat="42.97474" lon="-0.30563">
        <ele>1442</ele>
        <time>2018-06-23T06:28:39Z</time>
      </trkpt>
      <trkpt lat="42.97434" lon="-0.30531">
        <ele>1445</ele>
        <time>2018-06-23T06:33:39Z</time>
      </trkpt>
      <trkpt lat="42.97394" lon="-0.30479">
        <ele>1440</ele>
        <time>2018-06-23T06:37:39Z</time>
      </trkpt>
      <trkpt lat="42.97367" lon="-0.30469">
        <ele>1442</ele>
        <time>2018-06-23T06:41:39Z</time>
      </trkpt>
      <trkpt lat="42.97356" lon="-0.3047">
        <ele>1445</ele>
        <time>2018-06-23T06:42:39Z</time>
      </trkpt>
      <trkpt lat="42.9735" lon="-0.30469">
        <ele>1445</ele>
        <time>2018-06-23T06:43:39Z</time>
      </trkpt>
      <trkpt lat="42.97308" lon="-0.3045">
        <ele>1446</ele>
        <time>2018-06-23T06:50:39Z</time>
      </trkpt>
      <trkpt lat="42.97298" lon="-0.30453">
        <ele>1449</ele>
        <time>2018-06-23T06:52:39Z</time>
      </trkpt>
      <trkpt lat="42.97284" lon="-0.30453">
        <ele>1452</ele>
        <time>2018-06-23T06:54:39Z</time>
      </trkpt>
      <trkpt lat="42.9728" lon="-0.30451">
        <ele>1452</ele>
        <time>2018-06-23T06:55:39Z</time>
      </trkpt>
      <trkpt lat="42.97261" lon="-0.30432">
        <ele>1447</ele>
        <time>2018-06-23T06:58:39Z</time>
      </trkpt>
      <trkpt lat="42.97246" lon="-0.30411">
        <ele>1442</ele>
        <time>2018-06-23T07:00:39Z</time>
      </trkpt>
      <trkpt lat="42.97196" lon="-0.30335">
        <ele>1441</ele>
        <time>2018-06-23T07:07:39Z</time>
      </trkpt>
      <trkpt lat="42.97149" lon="-0.30249">
        <ele>1439</ele>
        <time>2018-06-23T07:12:39Z</time>
      </trkpt>
      <trkpt lat="42.97086" lon="-0.30182">
        <ele>1440</ele>
        <time>2018-06-23T07:18:39Z</time>
      </trkpt>
      <trkpt lat="42.97028" lon="-0.30129">
        <ele>1439</ele>
        <time>2018-06-23T07:25:39Z</time>
      </trkpt>
      <trkpt lat="42.97021" lon="-0.30113">
        <ele>1435</ele>
        <time>2018-06-23T07:28:39Z</time>
      </trkpt>
      <trkpt lat="42.97018" lon="-0.30103">
        <ele>1432</ele>
        <time>2018-06-23T07:30:39Z</time>
      </trkpt>
      <trkpt lat="42.97016" lon="-0.3009">
        <ele>1428</ele>
        <time>2018-06-23T07:31:39Z</time>
      </trkpt>
      <trkpt lat="42.96998" lon="-0.30064">
        <ele>1424</ele>
        <time>2018-06-23T07:40:39Z</time>
      </trkpt>
      <trkpt lat="42.9695" lon="-0.30096">
        <ele>1428</ele>
        <time>2018-06-23T07:47:39Z</time>
      </trkpt>
      <trkpt lat="42.96922" lon="-0.30115">
        <ele>1432</ele>
        <time>2018-06-23T07:48:39Z</time>
      </trkpt>
      <trkpt lat="42.96862" lon="-0.30166">
        <ele>1432</ele>
        <time>2018-06-23T07:53:39Z</time>
      </trkpt>
      <trkpt lat="42.96848" lon="-0.3019">
        <ele>1436</ele>
        <time>2018-06-23T07:56:39Z</time>
      </trkpt>
      <trkpt lat="42.96839" lon="-0.30205">
        <ele>1439</ele>
        <time>2018-06-23T07:58:39Z</time>
      </trkpt>
      <trkpt lat="42.96837" lon="-0.30207">
        <ele>1439</ele>
        <time>2018-06-23T07:59:39Z</time>
      </trkpt>
      <trkpt lat="42.96819" lon="-0.30213">
        <ele>1435</ele>
        <time>2018-06-23T08:04:39Z</time>
      </trkpt>
      <trkpt lat="42.96811" lon="-0.30211">
        <ele>1432</ele>
        <time>2018-06-23T08:06:39Z</time>
      </trkpt>
      <trkpt lat="42.96798" lon="-0.30206">
        <ele>1426</ele>
        <time>2018-06-23T08:07:39Z</time>
      </trkpt>
      <trkpt lat="42.96789" lon="-0.30206">
        <ele>1423</ele>
        <time>2018-06-23T08:09:39Z</time>
      </trkpt>
      <trkpt lat="42.96772" lon="-0.30212">
        <ele>1420</ele>
        <time>2018-06-23T08:11:39Z</time>
      </trkpt>
      <trkpt lat="42.96731" lon="-0.30249">
        <ele>1427</ele>
        <time>2018-06-23T08:14:39Z</time>
      </trkpt>
      <trkpt lat="42.96693" lon="-0.30277">
        <ele>1430</ele>
        <time>2018-06-23T08:16:39Z</time>
      </trkpt>
      <trkpt lat="42.96675" lon="-0.30279">
        <ele>1427</ele>
        <time>2018-06-23T08:18:39Z</time>
      </trkpt>
      <trkpt lat="42.96657" lon="-0.30274">
        <ele>1424</ele>
        <time>2018-06-23T08:20:39Z</time>
      </trkpt>
      <trkpt lat="42.96648" lon="-0.30267">
        <ele>1421</ele>
        <time>2018-06-23T08:21:39Z</time>
      </trkpt>
      <trkpt lat="42.96642" lon="-0.30257">
        <ele>1418</ele>
        <time>2018-06-23T08:22:39Z</time>
      </trkpt>
      <trkpt lat="42.96636" lon="-0.30245">
        <ele>1414</ele>
        <time>2018-06-23T08:23:39Z</time>
      </trkpt>
      <trkpt lat="42.96629" lon="-0.30228">
        <ele>1409</ele>
        <time>2018-06-23T08:24:39Z</time>
      </trkpt>
      <trkpt lat="42.96619" lon="-0.30208">
        <ele>1404</ele>
        <time>2018-06-23T08:25:39Z</time>
      </trkpt>
      <trkpt lat="42.96607" lon="-0.30188">
        <ele>1401</ele>
        <time>2018-06-23T08:27:39Z</time>
      </trkpt>
      <trkpt lat="42.96605" lon="-0.30187">
        <ele>1401</ele>
        <time>2018-06-23T08:28:39Z</time>
      </trkpt>
      <trkpt lat="42.96535" lon="-0.30218">
        <ele>1397</ele>
        <time>2018-06-23T08:36:39Z</time>
      </trkpt>
      <trkpt lat="42.96476" lon="-0.30263">
        <ele>1392</ele>
        <time>2018-06-23T08:41:39Z</time>
      </trkpt>
      <trkpt lat="42.96438" lon="-0.30297">
        <ele>1389</ele>
        <time>2018-06-23T08:48:39Z</time>
      </trkpt>
      <trkpt lat="42.96411" lon="-0.30326">
        <ele>1394</ele>
        <time>2018-06-23T08:55:39Z</time>
      </trkpt>
      <trkpt lat="42.96402" lon="-0.30327">
        <ele>1400</ele>
        <time>2018-06-23T08:57:39Z</time>
      </trkpt>
      <trkpt lat="42.96394" lon="-0.30328">
        <ele>1404</ele>
        <time>2018-06-23T08:58:39Z</time>
      </trkpt>
      <trkpt lat="42.96387" lon="-0.30329">
        <ele>1409</ele>
        <time>2018-06-23T08:59:39Z</time>
      </trkpt>
      <trkpt lat="42.96382" lon="-0.30331">
        <ele>1412</ele>
        <time>2018-06-23T09:00:39Z</time>
      </trkpt>
      <trkpt lat="42.96376" lon="-0.30329">
        <ele>1415</ele>
        <time>2018-06-23T09:02:39Z</time>
      </trkpt>
      <trkpt lat="42.96374" lon="-0.30327">
        <ele>1415</ele>
        <time>2018-06-23T09:03:39Z</time>
      </trkpt>
      <trkpt lat="42.96361" lon="-0.30298">
        <ele>1412</ele>
        <time>2018-06-23T09:07:39Z</time>
      </trkpt>
      <trkpt lat="42.9636" lon="-0.30291">
        <ele>1409</ele>
        <time>2018-06-23T09:08:39Z</time>
      </trkpt>
      <trkpt lat="42.9635" lon="-0.30255">
        <ele>1400</ele>
        <time>2018-06-23T09:09:39Z</time>
      </trkpt>
      <trkpt lat="42.96345" lon="-0.30231">
        <ele>1394</ele>
        <time>2018-06-23T09:10:39Z</time>
      </trkpt>
      <trkpt lat="42.96338" lon="-0.30201">
        <ele>1388</ele>
        <time>2018-06-23T09:11:39Z</time>
      </trkpt>
      <trkpt lat="42.96335" lon="-0.30182">
        <ele>1383</ele>
        <time>2018-06-23T09:12:39Z</time>
      </trkpt>
      <trkpt lat="42.9633" lon="-0.30168">
        <ele>1383</ele>
        <time>2018-06-23T09:13:39Z</time>
      </trkpt>
      <trkpt lat="42.96312" lon="-0.30115">
        <ele>1386</ele>
        <time>2018-06-23T09:16:39Z</time>
      </trkpt>
      <trkpt lat="42.96293" lon="-0.30056">
        <ele>1385</ele>
        <time>2018-06-23T09:20:39Z</time>
      </trkpt>
      <trkpt lat="42.96281" lon="-0.30033">
        <ele>1388</ele>
        <time>2018-06-23T09:22:39Z</time>
      </trkpt>
      <trkpt lat="42.96271" lon="-0.29992">
        <ele>1383</ele>
        <time>2018-06-23T09:25:39Z</time>
      </trkpt>
      <trkpt lat="42.96269" lon="-0.29976">
        <ele>1378</ele>
        <time>2018-06-23T09:26:39Z</time>
      </trkpt>
      <trkpt lat="42.96262" lon="-0.29951">
        <ele>1375</ele>
        <time>2018-06-23T09:28:39Z</time>
      </trkpt>
      <trkpt lat="42.9626" lon="-0.29947">
        <ele>1375</ele>
        <time>2018-06-23T09:29:39Z</time>
      </trkpt>
      <trkpt lat="42.96215" lon="-0.29874">
        <ele>1376</ele>
        <time>2018-06-23T09:42:39Z</time>
      </trkpt>
      <trkpt lat="42.96203" lon="-0.29851">
        <ele>1371</ele>
        <time>2018-06-23T09:45:39Z</time>
      </trkpt>
      <trkpt lat="42.96188" lon="-0.2982">
        <ele>1364</ele>
        <time>2018-06-23T09:46:39Z</time>
      </trkpt>
      <trkpt lat="42.96181" lon="-0.29806">
        <ele>1361</ele>
        <time>2018-06-23T09:47:39Z</time>
      </trkpt>
      <trkpt lat="42.96164" lon="-0.29787">
        <ele>1362</ele>
        <time>2018-06-23T09:54:39Z</time>
      </trkpt>
      <trkpt lat="42.96143" lon="-0.29776">
        <ele>1371</ele>
        <time>2018-06-23T09:56:39Z</time>
      </trkpt>
      <trkpt lat="42.96136" lon="-0.29772">
        <ele>1374</ele>
        <time>2018-06-23T09:57:39Z</time>
      </trkpt>
      <trkpt lat="42.96131" lon="-0.29767">
        <ele>1374</ele>
        <time>2018-06-23T09:58:39Z</time>
      </trkpt>
      <trkpt lat="42.96125" lon="-0.29763">
        <ele>1377</ele>
        <time>2018-06-23T09:59:39Z</time>
      </trkpt>
      <trkpt lat="42.96121" lon="-0.29759">
        <ele>1377</ele>
        <time>2018-06-23T10:00:39Z</time>
      </trkpt>
      <trkpt lat="42.96107" lon="-0.29745">
        <ele>1380</ele>
        <time>2018-06-23T10:01:39Z</time>
      </trkpt>
      <trkpt lat="42.96082" lon="-0.29704">
        <ele>1377</ele>
        <time>2018-06-23T10:07:39Z</time>
      </trkpt>
      <trkpt lat="42.96072" lon="-0.29681">
        <ele>1374</ele>
        <time>2018-06-23T10:08:39Z</time>
      </trkpt>
      <trkpt lat="42.96065" lon="-0.29662">
        <ele>1370</ele>
        <time>2018-06-23T10:09:39Z</time>
      </trkpt>
      <trkpt lat="42.96057" lon="-0.29642">
        <ele>1365</ele>
        <time>2018-06-23T10:10:39Z</time>
      </trkpt>
      <trkpt lat="42.96049" lon="-0.29624">
        <ele>1362</ele>
        <time>2018-06-23T10:12:39Z</time>
      </trkpt>
      <trkpt lat="42.96022" lon="-0.29583">
        <ele>1364</ele>
        <time>2018-06-23T10:17:39Z</time>
      </trkpt>
      <trkpt lat="42.96012" lon="-0.29578">
        <ele>1370</ele>
        <time>2018-06-23T10:20:39Z</time>
      </trkpt>
      <trkpt lat="42.95999" lon="-0.29572">
        <ele>1379</ele>
        <time>2018-06-23T10:21:39Z</time>
      </trkpt>
      <trkpt lat="42.95994" lon="-0.2957">
        <ele>1383</ele>
        <time>2018-06-23T10:22:39Z</time>
      </trkpt>
      <trkpt lat="42.95988" lon="-0.29568">
        <ele>1387</ele>
        <time>2018-06-23T10:23:39Z</time>
      </trkpt>
      <trkpt lat="42.9598" lon="-0.29563">
        <ele>1391</ele>
        <time>2018-06-23T10:24:39Z</time>
      </trkpt>
      <trkpt lat="42.95973" lon="-0.29557">
        <ele>1395</ele>
        <time>2018-06-23T10:25:39Z</time>
      </trkpt>
      <trkpt lat="42.95941" lon="-0.29491">
        <ele>1387</ele>
        <time>2018-06-23T10:33:39Z</time>
      </trkpt>
      <trkpt lat="42.9594" lon="-0.29482">
        <ele>1383</ele>
        <time>2018-06-23T10:34:39Z</time>
      </trkpt>
      <trkpt lat="42.95939" lon="-0.29466">
        <ele>1375</ele>
        <time>2018-06-23T10:35:39Z</time>
      </trkpt>
      <trkpt lat="42.95938" lon="-0.29459">
        <ele>1372</ele>
        <time>2018-06-23T10:36:39Z</time>
      </trkpt>
      <trkpt lat="42.95937" lon="-0.2945">
        <ele>1367</ele>
        <time>2018-06-23T10:38:39Z</time>
      </trkpt>
      <trkpt lat="42.95935" lon="-0.29446">
        <ele>1367</ele>
        <time>2018-06-23T10:39:39Z</time>
      </trkpt>
      <trkpt lat="42.9592" lon="-0.2942">
        <ele>1363</ele>
        <time>2018-06-23T10:41:39Z</time>
      </trkpt>
      <trkpt lat="42.95912" lon="-0.2941">
        <ele>1364</ele>
        <time>2018-06-23T10:42:39Z</time>
      </trkpt>
      <trkpt lat="42.95866" lon="-0.29339">
        <ele>1363</ele>
        <time>2018-06-23T10:48:39Z</time>
      </trkpt>
      <trkpt lat="42.95851" lon="-0.29318">
        <ele>1368</ele>
        <time>2018-06-23T10:51:39Z</time>
      </trkpt>
      <trkpt lat="42.95846" lon="-0.29313">
        <ele>1371</ele>
        <time>2018-06-23T10:52:39Z</time>
      </trkpt>
      <trkpt lat="42.95838" lon="-0.29306">
        <ele>1376</ele>
        <time>2018-06-23T10:53:39Z</time>
      </trkpt>
      <trkpt lat="42.95831" lon="-0.29256">
        <ele>1371</ele>
        <time>2018-06-23T11:02:39Z</time>
      </trkpt>
      <trkpt lat="42.95833" lon="-0.29244">
        <ele>1367</ele>
        <time>2018-06-23T11:04:39Z</time>
      </trkpt>
      <trkpt lat="42.95832" lon="-0.29232">
        <ele>1364</ele>
        <time>2018-06-23T11:06:39Z</time>
      </trkpt>
      <trkpt lat="42.95813" lon="-0.29184">
        <ele>1368</ele>
        <time>2018-06-23T11:13:39Z</time>
      </trkpt>
      <trkpt lat="42.95806" lon="-0.2916">
        <ele>1366</ele>
        <time>2018-06-23T11:19:39Z</time>
      </trkpt>
      <trkpt lat="42.95806" lon="-0.29155">
        <ele>1363</ele>
        <time>2018-06-23T11:20:39Z</time>
      </trkpt>
      <trkpt lat="42.95806" lon="-0.29149">
        <ele>1359</ele>
        <time>2018-06-23T11:21:39Z</time>
      </trkpt>
      <trkpt lat="42.95808" lon="-0.29132">
        <ele>1346</ele>
        <time>2018-06-23T11:22:39Z</time>
      </trkpt>
      <trkpt lat="42.95808" lon="-0.29127">
        <ele>1343</ele>
        <time>2018-06-23T11:23:39Z</time>
      </trkpt>
      <trkpt lat="42.95808" lon="-0.29122">
        <ele>1340</ele>
        <time>2018-06-23T11:24:39Z</time>
      </trkpt>
      <trkpt lat="42.95794" lon="-0.29104">
        <ele>1343</ele>
        <time>2018-06-23T11:31:39Z</time>
      </trkpt>
      <trkpt lat="42.95779" lon="-0.29101">
        <ele>1356</ele>
        <time>2018-06-23T11:33:39Z</time>
      </trkpt>
      <trkpt lat="42.95776" lon="-0.29101">
        <ele>1359</ele>
        <time>2018-06-23T11:34:39Z</time>
      </trkpt>
      <trkpt lat="42.95773" lon="-0.291">
        <ele>1362</ele>
        <time>2018-06-23T11:35:39Z</time>
      </trkpt>
      <trkpt lat="42.95763" lon="-0.29089">
        <ele>1366</ele>
        <time>2018-06-23T11:38:39Z</time>
      </trkpt>
      <trkpt lat="42.9576" lon="-0.29083">
        <ele>1365</ele>
        <time>2018-06-23T11:39:39Z</time>
      </trkpt>
      <trkpt lat="42.95745" lon="-0.29061">
        <ele>1362</ele>
        <time>2018-06-23T11:40:39Z</time>
      </trkpt>
      <trkpt lat="42.95742" lon="-0.29058">
        <ele>1362</ele>
        <time>2018-06-23T11:42:39Z</time>
      </trkpt>
      <trkpt lat="42.95729" lon="-0.29059">
        <ele>1377</ele>
        <time>2018-06-23T11:43:39Z</time>
      </trkpt>
      <trkpt lat="42.95717" lon="-0.2906">
        <ele>1391</ele>
        <time>2018-06-23T11:44:39Z</time>
      </trkpt>
      <trkpt lat="42.95708" lon="-0.29062">
        <ele>1401</ele>
        <time>2018-06-23T11:45:39Z</time>
      </trkpt>
      <trkpt lat="42.95699" lon="-0.29064">
        <ele>1412</ele>
        <time>2018-06-23T11:46:39Z</time>
      </trkpt>
      <trkpt lat="42.95688" lon="-0.29066">
        <ele>1424</ele>
        <time>2018-06-23T11:47:39Z</time>
      </trkpt>
      <trkpt lat="42.95676" lon="-0.29067">
        <ele>1437</ele>
        <time>2018-06-23T11:48:39Z</time>
      </trkpt>
      <trkpt lat="42.95665" lon="-0.29068">
        <ele>1448</ele>
        <time>2018-06-23T11:49:39Z</time>
      </trkpt>
      <trkpt lat="42.95657" lon="-0.29069">
        <ele>1454</ele>
        <time>2018-06-23T11:50:39Z</time>
      </trkpt>
      <trkpt lat="42.9565" lon="-0.2907">
        <ele>1459</ele>
        <time>2018-06-23T11:51:39Z</time>
      </trkpt>
      <trkpt lat="42.95642" lon="-0.29071">
        <ele>1465</ele>
        <time>2018-06-23T11:52:39Z</time>
      </trkpt>
      <trkpt lat="42.95635" lon="-0.29071">
        <ele>1470</ele>
        <time>2018-06-23T11:53:39Z</time>
      </trkpt>
      <trkpt lat="42.95629" lon="-0.29072">
        <ele>1475</ele>
        <time>2018-06-23T11:54:39Z</time>
      </trkpt>
      <trkpt lat="42.95623" lon="-0.29072">
        <ele>1479</ele>
        <time>2018-06-23T11:56:39Z</time>
      </trkpt>
      <trkpt lat="42.95616" lon="-0.29071">
        <ele>1484</ele>
        <time>2018-06-23T11:57:39Z</time>
      </trkpt>
      <trkpt lat="42.95604" lon="-0.29066">
        <ele>1488</ele>
        <time>2018-06-23T11:59:39Z</time>
      </trkpt>
      <trkpt lat="42.95597" lon="-0.29063">
        <ele>1491</ele>
        <time>2018-06-23T12:00:39Z</time>
      </trkpt>
      <trkpt lat="42.95571" lon="-0.29042">
        <ele>1483</ele>
        <time>2018-06-23T12:05:39Z</time>
      </trkpt>
      <trkpt lat="42.95561" lon="-0.29029">
        <ele>1473</ele>
        <time>2018-06-23T12:06:39Z</time>
      </trkpt>
      <trkpt lat="42.95544" lon="-0.29011">
        <ele>1461</ele>
        <time>2018-06-23T12:07:39Z</time>
      </trkpt>
      <trkpt lat="42.95539" lon="-0.29006">
        <ele>1458</ele>
        <time>2018-06-23T12:08:39Z</time>
      </trkpt>
      <trkpt lat="42.95518" lon="-0.28986">
        <ele>1441</ele>
        <time>2018-06-23T12:09:39Z</time>
      </trkpt>
      <trkpt lat="42.95506" lon="-0.28971">
        <ele>1424</ele>
        <time>2018-06-23T12:10:39Z</time>
      </trkpt>
      <trkpt lat="42.95501" lon="-0.28963">
        <ele>1415</ele>
        <time>2018-06-23T12:11:39Z</time>
      </trkpt>
      <trkpt lat="42.955" lon="-0.28957">
        <ele>1408</ele>
        <time>2018-06-23T12:12:39Z</time>
      </trkpt>
      <trkpt lat="42.95499" lon="-0.28949">
        <ele>1398</ele>
        <time>2018-06-23T12:13:39Z</time>
      </trkpt>
      <trkpt lat="42.95499" lon="-0.28939">
        <ele>1385</ele>
        <time>2018-06-23T12:14:39Z</time>
      </trkpt>
      <trkpt lat="42.95499" lon="-0.28933">
        <ele>1378</ele>
        <time>2018-06-23T12:15:39Z</time>
      </trkpt>
      <trkpt lat="42.95497" lon="-0.28928">
        <ele>1372</ele>
        <time>2018-06-23T12:16:39Z</time>
      </trkpt>
      <trkpt lat="42.95494" lon="-0.28922">
        <ele>1367</ele>
        <time>2018-06-23T12:17:39Z</time>
      </trkpt>
      <trkpt lat="42.9549" lon="-0.28916">
        <ele>1363</ele>
        <time>2018-06-23T12:18:39Z</time>
      </trkpt>
      <trkpt lat="42.95485" lon="-0.28909">
        <ele>1364</ele>
        <time>2018-06-23T12:19:39Z</time>
      </trkpt>
      <trkpt lat="42.95466" lon="-0.28889">
        <ele>1371</ele>
        <time>2018-06-23T12:21:39Z</time>
      </trkpt>
      <trkpt lat="42.95454" lon="-0.28875">
        <ele>1375</ele>
        <time>2018-06-23T12:22:39Z</time>
      </trkpt>
      <trkpt lat="42.95437" lon="-0.28838">
        <ele>1374</ele>
        <time>2018-06-23T12:27:39Z</time>
      </trkpt>
      <trkpt lat="42.95436" lon="-0.28824">
        <ele>1371</ele>
        <time>2018-06-23T12:28:39Z</time>
      </trkpt>
      <trkpt lat="42.95434" lon="-0.28808">
        <ele>1368</ele>
        <time>2018-06-23T12:30:39Z</time>
      </trkpt>
      <trkpt lat="42.95433" lon="-0.28803">
        <ele>1368</ele>
        <time>2018-06-23T12:31:39Z</time>
      </trkpt>
      <trkpt lat="42.95406" lon="-0.28724">
        <ele>1371</ele>
        <time>2018-06-23T12:36:39Z</time>
      </trkpt>
      <trkpt lat="42.95398" lon="-0.28703">
        <ele>1376</ele>
        <time>2018-06-23T12:37:39Z</time>
      </trkpt>
      <trkpt lat="42.95393" lon="-0.2867">
        <ele>1375</ele>
        <time>2018-06-23T12:43:39Z</time>
      </trkpt>
      <trkpt lat="42.95404" lon="-0.28646">
        <ele>1370</ele>
        <time>2018-06-23T12:47:39Z</time>
      </trkpt>
      <trkpt lat="42.9541" lon="-0.28636">
        <ele>1367</ele>
        <time>2018-06-23T12:49:39Z</time>
      </trkpt>
      <trkpt lat="42.95416" lon="-0.2862">
        <ele>1364</ele>
        <time>2018-06-23T12:51:39Z</time>
      </trkpt>
      <trkpt lat="42.95432" lon="-0.2858">
        <ele>1363</ele>
        <time>2018-06-23T12:56:39Z</time>
      </trkpt>
      <trkpt lat="42.95469" lon="-0.28502">
        <ele>1366</ele>
        <time>2018-06-23T13:04:39Z</time>
      </trkpt>
      <trkpt lat="42.95481" lon="-0.28481">
        <ele>1363</ele>
        <time>2018-06-23T13:06:39Z</time>
      </trkpt>
      <trkpt lat="42.95492" lon="-0.28462">
        <ele>1360</ele>
        <time>2018-06-23T13:07:39Z</time>
      </trkpt>
      <trkpt lat="42.95506" lon="-0.28404">
        <ele>1355</ele>
        <time>2018-06-23T13:13:39Z</time>
      </trkpt>
      <trkpt lat="42.95507" lon="-0.28399">
        <ele>1355</ele>
        <time>2018-06-23T13:14:39Z</time>
      </trkpt>
      <trkpt lat="42.95497" lon="-0.2836">
        <ele>1359</ele>
        <time>2018-06-23T13:21:39Z</time>
      </trkpt>
      <trkpt lat="42.95493" lon="-0.2835">
        <ele>1362</ele>
        <time>2018-06-23T13:23:39Z</time>
      </trkpt>
      <trkpt lat="42.95492" lon="-0.28347">
        <ele>1362</ele>
        <time>2018-06-23T13:24:39Z</time>
      </trkpt>
      <trkpt lat="42.95498" lon="-0.28262">
        <ele>1365</ele>
        <time>2018-06-23T13:34:39Z</time>
      </trkpt>
      <trkpt lat="42.955" lon="-0.28224">
        <ele>1365</ele>
        <time>2018-06-23T13:38:39Z</time>
      </trkpt>
      <trkpt lat="42.95499" lon="-0.28147">
        <ele>1371</ele>
        <time>2018-06-23T13:45:39Z</time>
      </trkpt>
      <trkpt lat="42.95494" lon="-0.28134">
        <ele>1379</ele>
        <time>2018-06-23T13:46:39Z</time>
      </trkpt>
      <trkpt lat="42.9549" lon="-0.28122">
        <ele>1385</ele>
        <time>2018-06-23T13:47:39Z</time>
      </trkpt>
      <trkpt lat="42.95488" lon="-0.28112">
        <ele>1389</ele>
        <time>2018-06-23T13:48:39Z</time>
      </trkpt>
      <trkpt lat="42.95489" lon="-0.28104">
        <ele>1389</ele>
        <time>2018-06-23T13:49:39Z</time>
      </trkpt>
      <trkpt lat="42.95497" lon="-0.28081">
        <ele>1384</ele>
        <time>2018-06-23T13:51:39Z</time>
      </trkpt>
      <trkpt lat="42.95521" lon="-0.28018">
        <ele>1385</ele>
        <time>2018-06-23T13:56:39Z</time>
      </trkpt>
      <trkpt lat="42.95527" lon="-0.27986">
        <ele>1388</ele>
        <time>2018-06-23T13:59:39Z</time>
      </trkpt>
      <trkpt lat="42.95535" lon="-0.27921">
        <ele>1391</ele>
        <time>2018-06-23T14:01:39Z</time>
      </trkpt>
      <trkpt lat="42.95542" lon="-0.27801">
        <ele>1395</ele>
        <time>2018-06-23T14:07:39Z</time>
      </trkpt>
      <trkpt lat="42.95537" lon="-0.27777">
        <ele>1398</ele>
        <time>2018-06-23T14:09:39Z</time>
      </trkpt>
      <trkpt lat="42.95532" lon="-0.27743">
        <ele>1401</ele>
        <time>2018-06-23T14:12:39Z</time>
      </trkpt>
      <trkpt lat="42.95576" lon="-0.27677">
        <ele>1402</ele>
        <time>2018-06-23T14:19:39Z</time>
      </trkpt>
      <trkpt lat="42.95616" lon="-0.2764">
        <ele>1407</ele>
        <time>2018-06-23T14:21:39Z</time>
      </trkpt>
      <trkpt lat="42.95636" lon="-0.27626">
        <ele>1411</ele>
        <time>2018-06-23T14:22:39Z</time>
      </trkpt>
      <trkpt lat="42.95641" lon="-0.27623">
        <ele>1411</ele>
        <time>2018-06-23T14:23:39Z</time>
      </trkpt>
      <trkpt lat="42.95722" lon="-0.27633">
        <ele>1415</ele>
        <time>2018-06-23T14:35:39Z</time>
      </trkpt>
      <trkpt lat="42.95726" lon="-0.27634">
        <ele>1415</ele>
        <time>2018-06-23T14:36:39Z</time>
      </trkpt>
      <trkpt lat="42.95758" lon="-0.27654">
        <ele>1409</ele>
        <time>2018-06-23T14:42:39Z</time>
      </trkpt>
      <trkpt lat="42.95763" lon="-0.27658">
        <ele>1406</ele>
        <time>2018-06-23T14:44:39Z</time>
      </trkpt>
      <trkpt lat="42.95772" lon="-0.27661">
        <ele>1403</ele>
        <time>2018-06-23T14:47:39Z</time>
      </trkpt>
      <trkpt lat="42.95774" lon="-0.2766">
        <ele>1403</ele>
        <time>2018-06-23T14:48:39Z</time>
      </trkpt>
      <trkpt lat="42.95789" lon="-0.27639">
        <ele>1406</ele>
        <time>2018-06-23T14:55:39Z</time>
      </trkpt>
      <trkpt lat="42.95798" lon="-0.27602">
        <ele>1415</ele>
        <time>2018-06-23T14:57:39Z</time>
      </trkpt>
      <trkpt lat="42.95809" lon="-0.27564">
        <ele>1424</ele>
        <time>2018-06-23T14:58:39Z</time>
      </trkpt>
      <trkpt lat="42.95812" lon="-0.27552">
        <ele>1427</ele>
        <time>2018-06-23T14:59:39Z</time>
      </trkpt>
      <trkpt lat="42.95817" lon="-0.27526">
        <ele>1433</ele>
        <time>2018-06-23T15:01:39Z</time>
      </trkpt>
      <trkpt lat="42.95818" lon="-0.27514">
        <ele>1436</ele>
        <time>2018-06-23T15:02:39Z</time>
      </trkpt>
      <trkpt lat="42.95821" lon="-0.27499">
        <ele>1439</ele>
        <time>2018-06-23T15:04:39Z</time>
      </trkpt>
      <trkpt lat="42.95824" lon="-0.27489">
        <ele>1439</ele>
        <time>2018-06-23T15:05:39Z</time>
      </trkpt>
      <trkpt lat="42.9584" lon="-0.27458">
        <ele>1434</ele>
        <time>2018-06-23T15:07:39Z</time>
      </trkpt>
      <trkpt lat="42.95826" lon="-0.27383">
        <ele>1438</ele>
        <time>2018-06-23T15:14:39Z</time>
      </trkpt>
      <trkpt lat="42.95818" lon="-0.27362">
        <ele>1441</ele>
        <time>2018-06-23T15:15:39Z</time>
      </trkpt>
      <trkpt lat="42.9581" lon="-0.27333">
        <ele>1445</ele>
        <time>2018-06-23T15:17:39Z</time>
      </trkpt>
      <trkpt lat="42.95805" lon="-0.27287">
        <ele>1448</ele>
        <time>2018-06-23T15:20:39Z</time>
      </trkpt>
      <trkpt lat="42.95805" lon="-0.27276">
        <ele>1448</ele>
        <time>2018-06-23T15:21:39Z</time>
      </trkpt>
      <trkpt lat="42.95812" lon="-0.27246">
        <ele>1445</ele>
        <time>2018-06-23T15:23:39Z</time>
      </trkpt>
      <trkpt lat="42.95827" lon="-0.27201">
        <ele>1442</ele>
        <time>2018-06-23T15:25:39Z</time>
      </trkpt>
      <trkpt lat="42.95831" lon="-0.27101">
        <ele>1443</ele>
        <time>2018-06-23T15:31:39Z</time>
      </trkpt>
      <trkpt lat="42.95827" lon="-0.27077">
        <ele>1446</ele>
        <time>2018-06-23T15:33:39Z</time>
      </trkpt>
      <trkpt lat="42.95828" lon="-0.27068">
        <ele>1446</ele>
        <time>2018-06-23T15:34:39Z</time>
      </trkpt>
      <trkpt lat="42.95848" lon="-0.27026">
        <ele>1443</ele>
        <time>2018-06-23T15:38:39Z</time>
      </trkpt>
      <trkpt lat="42.95882" lon="-0.26933">
        <ele>1445</ele>
        <time>2018-06-23T15:45:39Z</time>
      </trkpt>
      <trkpt lat="42.95935" lon="-0.26841">
        <ele>1445</ele>
        <time>2018-06-23T15:54:39Z</time>
      </trkpt>
      <trkpt lat="42.95955" lon="-0.26697">
        <ele>1447</ele>
        <time>2018-06-23T16:00:39Z</time>
      </trkpt>
      <trkpt lat="42.95987" lon="-0.26526">
        <ele>1452</ele>
        <time>2018-06-23T16:07:39Z</time>
      </trkpt>
      <trkpt lat="42.9601" lon="-0.26454">
        <ele>1457</ele>
        <time>2018-06-23T16:13:39Z</time>
      </trkpt>
      <trkpt lat="42.96032" lon="-0.26402">
        <ele>1460</ele>
        <time>2018-06-23T16:16:39Z</time>
      </trkpt>
      <trkpt lat="42.96043" lon="-0.2636">
        <ele>1464</ele>
        <time>2018-06-23T16:18:39Z</time>
      </trkpt>
      <trkpt lat="42.96049" lon="-0.26317">
        <ele>1467</ele>
        <time>2018-06-23T16:20:39Z</time>
      </trkpt>
      <trkpt lat="42.96063" lon="-0.26186">
        <ele>1470</ele>
        <time>2018-06-23T16:26:39Z</time>
      </trkpt>
      <trkpt lat="42.96061" lon="-0.2602">
        <ele>1466</ele>
        <time>2018-06-23T16:35:39Z</time>
      </trkpt>
      <trkpt lat="42.9605" lon="-0.25999">
        <ele>1462</ele>
        <time>2018-06-23T16:38:39Z</time>
      </trkpt>
      <trkpt lat="42.96038" lon="-0.25977">
        <ele>1458</ele>
        <time>2018-06-23T16:40:39Z</time>
      </trkpt>
      <trkpt lat="42.96034" lon="-0.25954">
        <ele>1455</ele>
        <time>2018-06-23T16:42:39Z</time>
      </trkpt>
      <trkpt lat="42.96034" lon="-0.25925">
        <ele>1452</ele>
        <time>2018-06-23T16:44:39Z</time>
      </trkpt>
      <trkpt lat="42.96056" lon="-0.25857">
        <ele>1449</ele>
        <time>2018-06-23T16:49:39Z</time>
      </trkpt>
      <trkpt lat="42.9607" lon="-0.25798">
        <ele>1446</ele>
        <time>2018-06-23T16:51:39Z</time>
      </trkpt>
      <trkpt lat="42.96081" lon="-0.25671">
        <ele>1441</ele>
        <time>2018-06-23T16:57:39Z</time>
      </trkpt>
      <trkpt lat="42.96076" lon="-0.25623">
        <ele>1436</ele>
        <time>2018-06-23T17:02:39Z</time>
      </trkpt>
      <trkpt lat="42.96067" lon="-0.2561">
        <ele>1433</ele>
        <time>2018-06-23T17:05:39Z</time>
      </trkpt>
      <trkpt lat="42.96056" lon="-0.256">
        <ele>1430</ele>
        <time>2018-06-23T17:06:39Z</time>
      </trkpt>
      <trkpt lat="42.96041" lon="-0.25588">
        <ele>1426</ele>
        <time>2018-06-23T17:08:39Z</time>
      </trkpt>
      <trkpt lat="42.9603" lon="-0.25566">
        <ele>1423</ele>
        <time>2018-06-23T17:11:39Z</time>
      </trkpt>
      <trkpt lat="42.96027" lon="-0.25553">
        <ele>1423</ele>
        <time>2018-06-23T17:12:39Z</time>
      </trkpt>
      <trkpt lat="42.96075" lon="-0.25416">
        <ele>1420</ele>
        <time>2018-06-23T17:22:39Z</time>
      </trkpt>
      <trkpt lat="42.96105" lon="-0.25397">
        <ele>1420</ele>
        <time>2018-06-23T17:25:39Z</time>
      </trkpt>
      <trkpt lat="42.96116" lon="-0.25369">
        <ele>1416</ele>
        <time>2018-06-23T17:33:39Z</time>
      </trkpt>
      <trkpt lat="42.96115" lon="-0.25338">
        <ele>1411</ele>
        <time>2018-06-23T17:35:39Z</time>
      </trkpt>
      <trkpt lat="42.96115" lon="-0.25319">
        <ele>1408</ele>
        <time>2018-06-23T17:36:39Z</time>
      </trkpt>
      <trkpt lat="42.96125" lon="-0.25248">
        <ele>1405</ele>
        <time>2018-06-23T17:44:39Z</time>
      </trkpt>
      <trkpt lat="42.96116" lon="-0.25216">
        <ele>1402</ele>
        <time>2018-06-23T17:52:39Z</time>
      </trkpt>
      <trkpt lat="42.96101" lon="-0.25195">
        <ele>1398</ele>
        <time>2018-06-23T17:54:39Z</time>
      </trkpt>
      <trkpt lat="42.96095" lon="-0.25159">
        <ele>1396</ele>
        <time>2018-06-23T18:02:39Z</time>
      </trkpt>
      <trkpt lat="42.96115" lon="-0.25098">
        <ele>1398</ele>
        <time>2018-06-23T18:08:39Z</time>
      </trkpt>
      <trkpt lat="42.96107" lon="-0.2505">
        <ele>1395</ele>
        <time>2018-06-23T18:20:39Z</time>
      </trkpt>
      <trkpt lat="42.96099" lon="-0.25041">
        <ele>1392</ele>
        <time>2018-06-23T18:23:39Z</time>
      </trkpt>
      <trkpt lat="42.96096" lon="-0.2504">
        <ele>1392</ele>
        <time>2018-06-23T18:24:39Z</time>
      </trkpt>
      <trkpt lat="42.96075" lon="-0.25034">
        <ele>1386</ele>
        <time>2018-06-23T18:27:39Z</time>
      </trkpt>
      <trkpt lat="42.9605" lon="-0.25033">
        <ele>1380</ele>
        <time>2018-06-23T18:29:39Z</time>
      </trkpt>
      <trkpt lat="42.96037" lon="-0.25031">
        <ele>1377</ele>
        <time>2018-06-23T18:31:39Z</time>
      </trkpt>
      <trkpt lat="42.96021" lon="-0.2502">
        <ele>1373</ele>
        <time>2018-06-23T18:37:39Z</time>
      </trkpt>
      <trkpt lat="42.96006" lon="-0.24978">
        <ele>1368</ele>
        <time>2018-06-23T18:44:39Z</time>
      </trkpt>
      <trkpt lat="42.96006" lon="-0.24973">
        <ele>1368</ele>
        <time>2018-06-23T18:45:39Z</time>
      </trkpt>
      <trkpt lat="42.96026" lon="-0.24875">
        <ele>1365</ele>
        <time>2018-06-23T18:54:39Z</time>
      </trkpt>
      <trkpt lat="42.96028" lon="-0.2487">
        <ele>1365</ele>
        <time>2018-06-23T18:55:39Z</time>
      </trkpt>
      <trkpt lat="42.96077" lon="-0.24783">
        <ele>1363</ele>
        <time>2018-06-23T19:05:39Z</time>
      </trkpt>
      <trkpt lat="42.96084" lon="-0.2476">
        <ele>1360</ele>
        <time>2018-06-23T19:08:39Z</time>
      </trkpt>
      <trkpt lat="42.96089" lon="-0.24729">
        <ele>1357</ele>
        <time>2018-06-23T19:10:39Z</time>
      </trkpt>
      <trkpt lat="42.96119" lon="-0.24624">
        <ele>1348</ele>
        <time>2018-06-23T19:13:39Z</time>
      </trkpt>
      <trkpt lat="42.96126" lon="-0.24604">
        <ele>1345</ele>
        <time>2018-06-23T19:14:39Z</time>
      </trkpt>
      <trkpt lat="42.9613" lon="-0.24597">
        <ele>1345</ele>
        <time>2018-06-23T19:15:39Z</time>
      </trkpt>
      <trkpt lat="42.96166" lon="-0.24559">
        <ele>1348</ele>
        <time>2018-06-23T19:18:39Z</time>
      </trkpt>
      <trkpt lat="42.96174" lon="-0.24552">
        <ele>1347</ele>
        <time>2018-06-23T19:19:39Z</time>
      </trkpt>
      <trkpt lat="42.96194" lon="-0.2453">
        <ele>1344</ele>
        <time>2018-06-23T19:21:39Z</time>
      </trkpt>
      <trkpt lat="42.96232" lon="-0.24496">
        <ele>1341</ele>
        <time>2018-06-23T19:23:39Z</time>
      </trkpt>
      <trkpt lat="42.96256" lon="-0.24464">
        <ele>1337</ele>
        <time>2018-06-23T19:26:39Z</time>
      </trkpt>
      <trkpt lat="42.96272" lon="-0.2443">
        <ele>1330</ele>
        <time>2018-06-23T19:28:39Z</time>
      </trkpt>
      <trkpt lat="42.96285" lon="-0.24398">
        <ele>1325</ele>
        <time>2018-06-23T19:29:39Z</time>
      </trkpt>
      <trkpt lat="42.96298" lon="-0.24363">
        <ele>1321</ele>
        <time>2018-06-23T19:30:39Z</time>
      </trkpt>
      <trkpt lat="42.96302" lon="-0.24356">
        <ele>1321</ele>
        <time>2018-06-23T19:31:39Z</time>
      </trkpt>
      <trkpt lat="42.96348" lon="-0.24283">
        <ele>1319</ele>
        <time>2018-06-23T19:37:39Z</time>
      </trkpt>
      <trkpt lat="42.96347" lon="-0.24259">
        <ele>1316</ele>
        <time>2018-06-23T19:40:39Z</time>
      </trkpt>
      <trkpt lat="42.96335" lon="-0.24243">
        <ele>1313</ele>
        <time>2018-06-23T19:43:39Z</time>
      </trkpt>
      <trkpt lat="42.96332" lon="-0.24241">
        <ele>1313</ele>
        <time>2018-06-23T19:44:39Z</time>
      </trkpt>
      <trkpt lat="42.96321" lon="-0.24238">
        <ele>1310</ele>
        <time>2018-06-23T19:47:39Z</time>
      </trkpt>
      <trkpt lat="42.96304" lon="-0.24237">
        <ele>1307</ele>
        <time>2018-06-23T19:50:39Z</time>
      </trkpt>
      <trkpt lat="42.96292" lon="-0.2423">
        <ele>1304</ele>
        <time>2018-06-23T19:52:39Z</time>
      </trkpt>
      <trkpt lat="42.9628" lon="-0.24212">
        <ele>1300</ele>
        <time>2018-06-23T19:55:39Z</time>
      </trkpt>
      <trkpt lat="42.96277" lon="-0.24205">
        <ele>1300</ele>
        <time>2018-06-23T19:56:39Z</time>
      </trkpt>
      <trkpt lat="42.96274" lon="-0.24153">
        <ele>1295</ele>
        <time>2018-06-23T20:05:39Z</time>
      </trkpt>
      <trkpt lat="42.96276" lon="-0.24148">
        <ele>1295</ele>
        <time>2018-06-23T20:06:39Z</time>
      </trkpt>
      <trkpt lat="42.96294" lon="-0.24122">
        <ele>1292</ele>
        <time>2018-06-23T20:11:39Z</time>
      </trkpt>
      <trkpt lat="42.96352" lon="-0.24106">
        <ele>1294</ele>
        <time>2018-06-23T20:17:39Z</time>
      </trkpt>
      <trkpt lat="42.9636" lon="-0.24104">
        <ele>1294</ele>
        <time>2018-06-23T20:18:39Z</time>
      </trkpt>
      <trkpt lat="42.96391" lon="-0.24067">
        <ele>1291</ele>
        <time>2018-06-23T20:22:39Z</time>
      </trkpt>
      <trkpt lat="42.96417" lon="-0.24016">
        <ele>1289</ele>
        <time>2018-06-23T20:28:39Z</time>
      </trkpt>
      <trkpt lat="42.96416" lon="-0.23991">
        <ele>1286</ele>
        <time>2018-06-23T20:32:39Z</time>
      </trkpt>
      <trkpt lat="42.96407" lon="-0.23973">
        <ele>1283</ele>
        <time>2018-06-23T20:34:39Z</time>
      </trkpt>
      <trkpt lat="42.96395" lon="-0.23942">
        <ele>1278</ele>
        <time>2018-06-23T20:36:39Z</time>
      </trkpt>
      <trkpt lat="42.9639" lon="-0.23912">
        <ele>1275</ele>
        <time>2018-06-23T20:38:39Z</time>
      </trkpt>
      <trkpt lat="42.96402" lon="-0.23865">
        <ele>1276</ele>
        <time>2018-06-23T20:43:39Z</time>
      </trkpt>
      <trkpt lat="42.9639" lon="-0.23793">
        <ele>1272</ele>
        <time>2018-06-23T20:48:39Z</time>
      </trkpt>
      <trkpt lat="42.96373" lon="-0.23744">
        <ele>1268</ele>
        <time>2018-06-23T20:49:39Z</time>
      </trkpt>
      <trkpt lat="42.96351" lon="-0.23684">
        <ele>1261</ele>
        <time>2018-06-23T20:50:39Z</time>
      </trkpt>
      <trkpt lat="42.96346" lon="-0.23672">
        <ele>1259</ele>
        <time>2018-06-23T20:52:39Z</time>
      </trkpt>
      <trkpt lat="42.9633" lon="-0.23646">
        <ele>1254</ele>
        <time>2018-06-23T20:54:39Z</time>
      </trkpt>
      <trkpt lat="42.96319" lon="-0.23624">
        <ele>1251</ele>
        <time>2018-06-23T20:56:39Z</time>
      </trkpt>
      <trkpt lat="42.96293" lon="-0.2354">
        <ele>1246</ele>
        <time>2018-06-23T20:58:39Z</time>
      </trkpt>
      <trkpt lat="42.96276" lon="-0.23477">
        <ele>1242</ele>
        <time>2018-06-23T20:59:39Z</time>
      </trkpt>
      <trkpt lat="42.9626" lon="-0.23431">
        <ele>1237</ele>
        <time>2018-06-23T21:01:39Z</time>
      </trkpt>
      <trkpt lat="42.96245" lon="-0.23384">
        <ele>1232</ele>
        <time>2018-06-23T21:02:39Z</time>
      </trkpt>
      <trkpt lat="42.96239" lon="-0.23365">
        <ele>1230</ele>
        <time>2018-06-23T21:04:39Z</time>
      </trkpt>
      <trkpt lat="42.96237" lon="-0.233">
        <ele>1226</ele>
        <time>2018-06-23T21:11:39Z</time>
      </trkpt>
      <trkpt lat="42.96262" lon="-0.23208">
        <ele>1222</ele>
        <time>2018-06-23T21:17:39Z</time>
      </trkpt>
      <trkpt lat="42.96268" lon="-0.23188">
        <ele>1219</ele>
        <time>2018-06-23T21:19:39Z</time>
      </trkpt>
      <trkpt lat="42.96276" lon="-0.23167">
        <ele>1216</ele>
        <time>2018-06-23T21:22:39Z</time>
      </trkpt>
      <trkpt lat="42.96279" lon="-0.23162">
        <ele>1216</ele>
        <time>2018-06-23T21:23:39Z</time>
      </trkpt>
      <trkpt lat="42.96339" lon="-0.23099">
        <ele>1211</ele>
        <time>2018-06-23T21:26:39Z</time>
      </trkpt>
      <trkpt lat="42.96398" lon="-0.2309">
        <ele>1211</ele>
        <time>2018-06-23T21:34:39Z</time>
      </trkpt>
      <trkpt lat="42.96421" lon="-0.23064">
        <ele>1208</ele>
        <time>2018-06-23T21:38:39Z</time>
      </trkpt>
      <trkpt lat="42.96427" lon="-0.23033">
        <ele>1204</ele>
        <time>2018-06-23T21:40:39Z</time>
      </trkpt>
      <trkpt lat="42.96431" lon="-0.23006">
        <ele>1201</ele>
        <time>2018-06-23T21:42:39Z</time>
      </trkpt>
      <trkpt lat="42.96435" lon="-0.22999">
        <ele>1201</ele>
        <time>2018-06-23T21:43:39Z</time>
      </trkpt>
      <trkpt lat="42.96453" lon="-0.22975">
        <ele>1198</ele>
        <time>2018-06-23T21:45:39Z</time>
      </trkpt>
      <trkpt lat="42.9646" lon="-0.22968">
        <ele>1198</ele>
        <time>2018-06-23T21:46:39Z</time>
      </trkpt>
      <trkpt lat="42.96509" lon="-0.22897">
        <ele>1191</ele>
        <time>2018-06-23T21:53:39Z</time>
      </trkpt>
      <trkpt lat="42.96521" lon="-0.22857">
        <ele>1184</ele>
        <time>2018-06-23T21:54:39Z</time>
      </trkpt>
      <trkpt lat="42.9653" lon="-0.22827">
        <ele>1180</ele>
        <time>2018-06-23T21:56:39Z</time>
      </trkpt>
      <trkpt lat="42.96537" lon="-0.22802">
        <ele>1176</ele>
        <time>2018-06-23T21:57:39Z</time>
      </trkpt>
      <trkpt lat="42.96551" lon="-0.22772">
        <ele>1173</ele>
        <time>2018-06-23T21:59:39Z</time>
      </trkpt>
      <trkpt lat="42.96559" lon="-0.22764">
        <ele>1173</ele>
        <time>2018-06-23T22:00:39Z</time>
      </trkpt>
      <trkpt lat="42.96584" lon="-0.22757">
        <ele>1176</ele>
        <time>2018-06-23T22:03:39Z</time>
      </trkpt>
      <trkpt lat="42.96592" lon="-0.22758">
        <ele>1176</ele>
        <time>2018-06-23T22:04:39Z</time>
      </trkpt>
      <trkpt lat="42.96647" lon="-0.22795">
        <ele>1178</ele>
        <time>2018-06-23T22:09:39Z</time>
      </trkpt>
      <trkpt lat="42.967" lon="-0.22763">
        <ele>1173</ele>
        <time>2018-06-23T22:15:39Z</time>
      </trkpt>
      <trkpt lat="42.96719" lon="-0.22703">
        <ele>1168</ele>
        <time>2018-06-23T22:20:39Z</time>
      </trkpt>
      <trkpt lat="42.96711" lon="-0.22667">
        <ele>1165</ele>
        <time>2018-06-23T22:23:39Z</time>
      </trkpt>
      <trkpt lat="42.9671" lon="-0.2263">
        <ele>1162</ele>
        <time>2018-06-23T22:26:39Z</time>
      </trkpt>
      <trkpt lat="42.96717" lon="-0.22592">
        <ele>1159</ele>
        <time>2018-06-23T22:29:39Z</time>
      </trkpt>
      <trkpt lat="42.96721" lon="-0.22559">
        <ele>1156</ele>
        <time>2018-06-23T22:31:39Z</time>
      </trkpt>
      <trkpt lat="42.96728" lon="-0.22524">
        <ele>1152</ele>
        <time>2018-06-23T22:33:39Z</time>
      </trkpt>
      <trkpt lat="42.9672" lon="-0.22466">
        <ele>1147</ele>
        <time>2018-06-23T22:40:39Z</time>
      </trkpt>
      <trkpt lat="42.96664" lon="-0.22394">
        <ele>1146</ele>
        <time>2018-06-23T22:46:39Z</time>
      </trkpt>
      <trkpt lat="42.9657" lon="-0.22402">
        <ele>1141</ele>
        <time>2018-06-23T22:55:39Z</time>
      </trkpt>
      <trkpt lat="42.96563" lon="-0.22403">
        <ele>1141</ele>
        <time>2018-06-23T22:56:39Z</time>
      </trkpt>
      <trkpt lat="42.96534" lon="-0.22399">
        <ele>1136</ele>
        <time>2018-06-23T22:58:39Z</time>
      </trkpt>
      <trkpt lat="42.96521" lon="-0.22394">
        <ele>1133</ele>
        <time>2018-06-23T23:01:39Z</time>
      </trkpt>
      <trkpt lat="42.9651" lon="-0.22377">
        <ele>1130</ele>
        <time>2018-06-23T23:04:39Z</time>
      </trkpt>
      <trkpt lat="42.96508" lon="-0.22363">
        <ele>1127</ele>
        <time>2018-06-23T23:07:39Z</time>
      </trkpt>
      <trkpt lat="42.96508" lon="-0.22357">
        <ele>1127</ele>
        <time>2018-06-23T23:08:39Z</time>
      </trkpt>
      <trkpt lat="42.96516" lon="-0.22322">
        <ele>1124</ele>
        <time>2018-06-23T23:11:39Z</time>
      </trkpt>
      <trkpt lat="42.96546" lon="-0.22243">
        <ele>1122</ele>
        <time>2018-06-23T23:13:39Z</time>
      </trkpt>
      <trkpt lat="42.96558" lon="-0.22211">
        <ele>1123</ele>
        <time>2018-06-23T23:15:39Z</time>
      </trkpt>
      <trkpt lat="42.9656" lon="-0.22157">
        <ele>1118</ele>
        <time>2018-06-23T23:21:39Z</time>
      </trkpt>
      <trkpt lat="42.96552" lon="-0.22133">
        <ele>1114</ele>
        <time>2018-06-23T23:23:39Z</time>
      </trkpt>
      <trkpt lat="42.96548" lon="-0.22112">
        <ele>1111</ele>
        <time>2018-06-23T23:25:39Z</time>
      </trkpt>
      <trkpt lat="42.96556" lon="-0.22042">
        <ele>1107</ele>
        <time>2018-06-23T23:29:39Z</time>
      </trkpt>
      <trkpt lat="42.96567" lon="-0.22012">
        <ele>1107</ele>
        <time>2018-06-23T23:32:39Z</time>
      </trkpt>
      <trkpt lat="42.96583" lon="-0.21983">
        <ele>1110</ele>
        <time>2018-06-23T23:34:39Z</time>
      </trkpt>
      <trkpt lat="42.96586" lon="-0.21973">
        <ele>1110</ele>
        <time>2018-06-23T23:35:39Z</time>
      </trkpt>
      <trkpt lat="42.96591" lon="-0.21939">
        <ele>1107</ele>
        <time>2018-06-23T23:39:39Z</time>
      </trkpt>
      <trkpt lat="42.96591" lon="-0.2191">
        <ele>1104</ele>
        <time>2018-06-23T23:40:39Z</time>
      </trkpt>
      <trkpt lat="42.96605" lon="-0.21835">
        <ele>1098</ele>
        <time>2018-06-23T23:45:39Z</time>
      </trkpt>
      <trkpt lat="42.96609" lon="-0.21787">
        <ele>1092</ele>
        <time>2018-06-23T23:49:39Z</time>
      </trkpt>
      <trkpt lat="42.96628" lon="-0.21723">
        <ele>1089</ele>
        <time>2018-06-23T23:56:39Z</time>
      </trkpt>
      <trkpt lat="42.96636" lon="-0.21677">
        <ele>1084</ele>
        <time>2018-06-23T23:59:39Z</time>
      </trkpt>
      <trkpt lat="42.96639" lon="-0.21655">
        <ele>1081</ele>
        <time>2018-06-24T00:00:39Z</time>
      </trkpt>
      <trkpt lat="42.96639" lon="-0.21617">
        <ele>1076</ele>
        <time>2018-06-24T00:04:39Z</time>
      </trkpt>
      <trkpt lat="42.96639" lon="-0.21588">
        <ele>1072</ele>
        <time>2018-06-24T00:05:39Z</time>
      </trkpt>
      <trkpt lat="42.9664" lon="-0.21581">
        <ele>1072</ele>
        <time>2018-06-24T00:06:39Z</time>
      </trkpt>
      <trkpt lat="42.96648" lon="-0.21535">
        <ele>1067</ele>
        <time>2018-06-24T00:13:39Z</time>
      </trkpt>
      <trkpt lat="42.96639" lon="-0.21524">
        <ele>1064</ele>
        <time>2018-06-24T00:16:39Z</time>
      </trkpt>
      <trkpt lat="42.96625" lon="-0.21523">
        <ele>1061</ele>
        <time>2018-06-24T00:19:39Z</time>
      </trkpt>
      <trkpt lat="42.96622" lon="-0.21525">
        <ele>1061</ele>
        <time>2018-06-24T00:20:39Z</time>
      </trkpt>
      <trkpt lat="42.96597" lon="-0.21594">
        <ele>1065</ele>
        <time>2018-06-24T00:24:39Z</time>
      </trkpt>
      <trkpt lat="42.96594" lon="-0.21602">
        <ele>1065</ele>
        <time>2018-06-24T00:25:39Z</time>
      </trkpt>
      <trkpt lat="42.96559" lon="-0.21626">
        <ele>1060</ele>
        <time>2018-06-24T00:31:39Z</time>
      </trkpt>
      <trkpt lat="42.96543" lon="-0.21635">
        <ele>1057</ele>
        <time>2018-06-24T00:33:39Z</time>
      </trkpt>
      <trkpt lat="42.96511" lon="-0.21675">
        <ele>1054</ele>
        <time>2018-06-24T00:36:39Z</time>
      </trkpt>
      <trkpt lat="42.96488" lon="-0.21703">
        <ele>1051</ele>
        <time>2018-06-24T00:38:39Z</time>
      </trkpt>
      <trkpt lat="42.96436" lon="-0.21758">
        <ele>1044</ele>
        <time>2018-06-24T00:40:39Z</time>
      </trkpt>
      <trkpt lat="42.9638" lon="-0.21822">
        <ele>1038</ele>
        <time>2018-06-24T00:41:39Z</time>
      </trkpt>
      <trkpt lat="42.96353" lon="-0.21851">
        <ele>1035</ele>
        <time>2018-06-24T00:42:39Z</time>
      </trkpt>
      <trkpt lat="42.96308" lon="-0.21879">
        <ele>1030</ele>
        <time>2018-06-24T00:47:39Z</time>
      </trkpt>
      <trkpt lat="42.96296" lon="-0.21869">
        <ele>1027</ele>
        <time>2018-06-24T00:49:39Z</time>
      </trkpt>
      <trkpt lat="42.9629" lon="-0.2182">
        <ele>1022</ele>
        <time>2018-06-24T00:53:39Z</time>
      </trkpt>
      <trkpt lat="42.96274" lon="-0.21792">
        <ele>1018</ele>
        <time>2018-06-24T00:58:39Z</time>
      </trkpt>
      <trkpt lat="42.96256" lon="-0.2179">
        <ele>1015</ele>
        <time>2018-06-24T01:01:39Z</time>
      </trkpt>
      <trkpt lat="42.96252" lon="-0.21791">
        <ele>1015</ele>
        <time>2018-06-24T01:02:39Z</time>
      </trkpt>
      <trkpt lat="42.96228" lon="-0.21827">
        <ele>1012</ele>
        <time>2018-06-24T01:07:39Z</time>
      </trkpt>
      <trkpt lat="42.96222" lon="-0.21851">
        <ele>1012</ele>
        <time>2018-06-24T01:10:39Z</time>
      </trkpt>
      <trkpt lat="42.96232" lon="-0.21896">
        <ele>1016</ele>
        <time>2018-06-24T01:15:39Z</time>
      </trkpt>
      <trkpt lat="42.962" lon="-0.21935">
        <ele>1009</ele>
        <time>2018-06-24T01:25:39Z</time>
      </trkpt>
      <trkpt lat="42.96187" lon="-0.21932">
        <ele>1006</ele>
        <time>2018-06-24T01:26:39Z</time>
      </trkpt>
      <trkpt lat="42.96159" lon="-0.21923">
        <ele>998</ele>
        <time>2018-06-24T01:27:39Z</time>
      </trkpt>
      <trkpt lat="42.96149" lon="-0.21922">
        <ele>995</ele>
        <time>2018-06-24T01:29:39Z</time>
      </trkpt>
      <trkpt lat="42.96134" lon="-0.21928">
        <ele>992</ele>
        <time>2018-06-24T01:32:39Z</time>
      </trkpt>
      <trkpt lat="42.96119" lon="-0.21979">
        <ele>990</ele>
        <time>2018-06-24T01:40:39Z</time>
      </trkpt>
      <trkpt lat="42.96126" lon="-0.2201">
        <ele>994</ele>
        <time>2018-06-24T01:42:39Z</time>
      </trkpt>
      <trkpt lat="42.96111" lon="-0.22052">
        <ele>992</ele>
        <time>2018-06-24T01:48:39Z</time>
      </trkpt>
      <trkpt lat="42.961" lon="-0.2205">
        <ele>989</ele>
        <time>2018-06-24T01:50:39Z</time>
      </trkpt>
      <trkpt lat="42.96093" lon="-0.22044">
        <ele>986</ele>
        <time>2018-06-24T01:52:39Z</time>
      </trkpt>
      <trkpt lat="42.96091" lon="-0.22041">
        <ele>986</ele>
        <time>2018-06-24T01:53:39Z</time>
      </trkpt>
      <trkpt lat="42.96087" lon="-0.2202">
        <ele>983</ele>
        <time>2018-06-24T01:55:39Z</time>
      </trkpt>
      <trkpt lat="42.96074" lon="-0.21951">
        <ele>978</ele>
        <time>2018-06-24T02:01:39Z</time>
      </trkpt>
      <trkpt lat="42.96083" lon="-0.2185">
        <ele>978</ele>
        <time>2018-06-24T02:10:39Z</time>
      </trkpt>
      <trkpt lat="42.96081" lon="-0.21794">
        <ele>975</ele>
        <time>2018-06-24T02:15:39Z</time>
      </trkpt>
      <trkpt lat="42.96091" lon="-0.21718">
        <ele>971</ele>
        <time>2018-06-24T02:23:39Z</time>
      </trkpt>
      <trkpt lat="42.9609" lon="-0.21672">
        <ele>967</ele>
        <time>2018-06-24T02:27:39Z</time>
      </trkpt>
      <trkpt lat="42.96091" lon="-0.21622">
        <ele>964</ele>
        <time>2018-06-24T02:29:39Z</time>
      </trkpt>
      <trkpt lat="42.961" lon="-0.21508">
        <ele>960</ele>
        <time>2018-06-24T02:33:39Z</time>
      </trkpt>
      <trkpt lat="42.96099" lon="-0.21475">
        <ele>957</ele>
        <time>2018-06-24T02:36:39Z</time>
      </trkpt>
      <trkpt lat="42.96098" lon="-0.21467">
        <ele>957</ele>
        <time>2018-06-24T02:37:39Z</time>
      </trkpt>
      <trkpt lat="42.96089" lon="-0.21443">
        <ele>953</ele>
        <time>2018-06-24T02:40:39Z</time>
      </trkpt>
      <trkpt lat="42.9607" lon="-0.21417">
        <ele>948</ele>
        <time>2018-06-24T02:42:39Z</time>
      </trkpt>
      <trkpt lat="42.96054" lon="-0.21383">
        <ele>945</ele>
        <time>2018-06-24T02:45:39Z</time>
      </trkpt>
      <trkpt lat="42.96062" lon="-0.21309">
        <ele>942</ele>
        <time>2018-06-24T02:50:39Z</time>
      </trkpt>
      <trkpt lat="42.96063" lon="-0.21249">
        <ele>938</ele>
        <time>2018-06-24T02:52:39Z</time>
      </trkpt>
      <trkpt lat="42.96064" lon="-0.21148">
        <ele>928</ele>
        <time>2018-06-24T02:53:39Z</time>
      </trkpt>
      <trkpt lat="42.96063" lon="-0.2114">
        <ele>927</ele>
        <time>2018-06-24T02:54:39Z</time>
      </trkpt>
      <trkpt lat="42.96042" lon="-0.2112">
        <ele>922</ele>
        <time>2018-06-24T02:59:39Z</time>
      </trkpt>
      <trkpt lat="42.96012" lon="-0.21166">
        <ele>921</ele>
        <time>2018-06-24T03:06:39Z</time>
      </trkpt>
      <trkpt lat="42.95973" lon="-0.21217">
        <ele>917</ele>
        <time>2018-06-24T03:09:39Z</time>
      </trkpt>
      <trkpt lat="42.95933" lon="-0.21263">
        <ele>913</ele>
        <time>2018-06-24T03:11:39Z</time>
      </trkpt>
      <trkpt lat="42.95927" lon="-0.21271">
        <ele>913</ele>
        <time>2018-06-24T03:12:39Z</time>
      </trkpt>
      <trkpt lat="42.95879" lon="-0.21342">
        <ele>907</ele>
        <time>2018-06-24T03:17:39Z</time>
      </trkpt>
      <trkpt lat="42.95867" lon="-0.21352">
        <ele>904</ele>
        <time>2018-06-24T03:19:39Z</time>
      </trkpt>
      <trkpt lat="42.95848" lon="-0.21428">
        <ele>905</ele>
        <time>2018-06-24T03:25:39Z</time>
      </trkpt>
      <trkpt lat="42.95813" lon="-0.21503">
        <ele>902</ele>
        <time>2018-06-24T03:28:39Z</time>
      </trkpt>
      <trkpt lat="42.95801" lon="-0.21515">
        <ele>899</ele>
        <time>2018-06-24T03:30:39Z</time>
      </trkpt>
      <trkpt lat="42.95786" lon="-0.21524">
        <ele>896</ele>
        <time>2018-06-24T03:31:39Z</time>
      </trkpt>
      <trkpt lat="42.9577" lon="-0.21534">
        <ele>892</ele>
        <time>2018-06-24T03:33:39Z</time>
      </trkpt>
      <trkpt lat="42.95744" lon="-0.21558">
        <ele>888</ele>
        <time>2018-06-24T03:35:39Z</time>
      </trkpt>
      <trkpt lat="42.95739" lon="-0.21562">
        <ele>888</ele>
        <time>2018-06-24T03:36:39Z</time>
      </trkpt>
      <trkpt lat="42.95696" lon="-0.21556">
        <ele>885</ele>
        <time>2018-06-24T03:39:39Z</time>
      </trkpt>
      <trkpt lat="42.95654" lon="-0.21522">
        <ele>882</ele>
        <time>2018-06-24T03:43:39Z</time>
      </trkpt>
      <trkpt lat="42.95617" lon="-0.21404">
        <ele>879</ele>
        <time>2018-06-24T03:50:39Z</time>
      </trkpt>
      <trkpt lat="42.95649" lon="-0.21321">
        <ele>877</ele>
        <time>2018-06-24T03:54:39Z</time>
      </trkpt>
      <trkpt lat="42.95666" lon="-0.21271">
        <ele>876</ele>
        <time>2018-06-24T03:58:39Z</time>
      </trkpt>
      <trkpt lat="42.95668" lon="-0.21226">
        <ele>874</ele>
        <time>2018-06-24T04:02:39Z</time>
      </trkpt>
      <trkpt lat="42.95694" lon="-0.2115">
        <ele>871</ele>
        <time>2018-06-24T04:03:39Z</time>
      </trkpt>
      <trkpt lat="42.9571" lon="-0.21106">
        <ele>871</ele>
        <time>2018-06-24T04:04:39Z</time>
      </trkpt>
      <trkpt lat="42.95826" lon="-0.20913">
        <ele>871</ele>
        <time>2018-06-24T04:09:39Z</time>
      </trkpt>
      <trkpt lat="42.95918" lon="-0.20744">
        <ele>868</ele>
        <time>2018-06-24T04:13:39Z</time>
      </trkpt>
      <trkpt lat="42.95939" lon="-0.20709">
        <ele>868</ele>
        <time>2018-06-24T04:14:39Z</time>
      </trkpt>
      <trkpt lat="42.96007" lon="-0.20602">
        <ele>864</ele>
        <time>2018-06-24T04:19:39Z</time>
      </trkpt>
      <trkpt lat="42.96055" lon="-0.20469">
        <ele>862</ele>
        <time>2018-06-24T04:23:39Z</time>
      </trkpt>
      <trkpt lat="42.96096" lon="-0.20353">
        <ele>862</ele>
        <time>2018-06-24T04:26:39Z</time>
      </trkpt>
      <trkpt lat="42.96114" lon="-0.20316">
        <ele>863</ele>
        <time>2018-06-24T04:30:39Z</time>
      </trkpt>
      <trkpt lat="42.96209" lon="-0.20238">
        <ele>864</ele>
        <time>2018-06-24T04:40:39Z</time>
      </trkpt>
      <trkpt lat="42.96294" lon="-0.2019">
        <ele>862</ele>
        <time>2018-06-24T04:41:39Z</time>
      </trkpt>
      <trkpt lat="42.96332" lon="-0.20171">
        <ele>861</ele>
        <time>2018-06-24T04:42:39Z</time>
      </trkpt>
      <trkpt lat="42.96353" lon="-0.20161">
        <ele>861</ele>
        <time>2018-06-24T04:43:39Z</time>
      </trkpt>
      <trkpt lat="42.96415" lon="-0.20166">
        <ele>861</ele>
        <time>2018-06-24T04:50:39Z</time>
      </trkpt>
      <trkpt lat="42.96505" lon="-0.20167">
        <ele>861</ele>
        <time>2018-06-24T04:59:39Z</time>
      </trkpt>
      <trkpt lat="42.96566" lon="-0.20204">
        <ele>863</ele>
        <time>2018-06-24T05:04:39Z</time>
      </trkpt>
      <trkpt lat="42.96599" lon="-0.20222">
        <ele>864</ele>
        <time>2018-06-24T05:10:39Z</time>
      </trkpt>
      <trkpt lat="42.9665" lon="-0.20251">
        <ele>864</ele>
        <time>2018-06-24T05:12:39Z</time>
      </trkpt>
      <trkpt lat="42.96704" lon="-0.20246">
        <ele>865</ele>
        <time>2018-06-24T05:17:39Z</time>
      </trkpt>
      <trkpt lat="42.96814" lon="-0.20191">
        <ele>866</ele>
        <time>2018-06-24T05:24:39Z</time>
      </trkpt>
      <trkpt lat="42.96878" lon="-0.20116">
        <ele>865</ele>
        <time>2018-06-24T05:30:39Z</time>
      </trkpt>
      <trkpt lat="42.96926" lon="-0.20049">
        <ele>863</ele>
        <time>2018-06-24T05:31:39Z</time>
      </trkpt>
      <trkpt lat="42.96936" lon="-0.20036">
        <ele>863</ele>
        <time>2018-06-24T05:32:39Z</time>
      </trkpt>
      <trkpt lat="42.96964" lon="-0.19978">
        <ele>860</ele>
        <time>2018-06-24T05:35:39Z</time>
      </trkpt>
      <trkpt lat="42.96983" lon="-0.19925">
        <ele>857</ele>
        <time>2018-06-24T05:37:39Z</time>
      </trkpt>
      <trkpt lat="42.97005" lon="-0.19867">
        <ele>854</ele>
        <time>2018-06-24T05:39:39Z</time>
      </trkpt>
      <trkpt lat="42.97014" lon="-0.19843">
        <ele>854</ele>
        <time>2018-06-24T05:40:39Z</time>
      </trkpt>
      <trkpt lat="42.97103" lon="-0.19722">
        <ele>858</ele>
        <time>2018-06-24T05:45:39Z</time>
      </trkpt>
      <trkpt lat="42.97188" lon="-0.19599">
        <ele>862</ele>
        <time>2018-06-24T05:48:39Z</time>
      </trkpt>
      <trkpt lat="42.97238" lon="-0.19522">
        <ele>865</ele>
        <time>2018-06-24T05:49:39Z</time>
      </trkpt>
    </trkseg>
  </trk>
</gpx>